﻿<?xml version="1.0" encoding="utf-8"?><gpx creator="Garmin Desktop App" version="1.1" xsi:schemaLocation="http://www.topografix.com/GPX/1/1 http://www.topografix.com/GPX/1/1/gpx.xsd http://www.garmin.com/xmlschemas/WaypointExtension/v1 http://www8.garmin.com/xmlschemas/WaypointExtensionv1.xsd http://www.garmin.com/xmlschemas/TrackPointExtension/v1 http://www.garmin.com/xmlschemas/TrackPointExtensionv1.xsd http://www.garmin.com/xmlschemas/GpxExtensions/v3 http://www8.garmin.com/xmlschemas/GpxExtensionsv3.xsd http://www.garmin.com/xmlschemas/ActivityExtension/v1 http://www8.garmin.com/xmlschemas/ActivityExtensionv1.xsd http://www.garmin.com/xmlschemas/AdventuresExtensions/v1 http://www8.garmin.com/xmlschemas/AdventuresExtensionv1.xsd http://www.garmin.com/xmlschemas/PressureExtension/v1 http://www.garmin.com/xmlschemas/PressureExtensionv1.xsd http://www.garmin.com/xmlschemas/TripExtensions/v1 http://www.garmin.com/xmlschemas/TripExtensionsv1.xsd http://www.garmin.com/xmlschemas/TripMetaDataExtensions/v1 http://www.garmin.com/xmlschemas/TripMetaDataExtensionsv1.xsd http://www.garmin.com/xmlschemas/ViaPointTransportationModeExtensions/v1 http://www.garmin.com/xmlschemas/ViaPointTransportationModeExtensionsv1.xsd http://www.garmin.com/xmlschemas/CreationTimeExtension/v1 http://www.garmin.com/xmlschemas/CreationTimeExtensionsv1.xsd http://www.garmin.com/xmlschemas/AccelerationExtension/v1 http://www.garmin.com/xmlschemas/AccelerationExtensionv1.xsd http://www.garmin.com/xmlschemas/PowerExtension/v1 http://www.garmin.com/xmlschemas/PowerExtensionv1.xsd http://www.garmin.com/xmlschemas/VideoExtension/v1 http://www.garmin.com/xmlschemas/VideoExtensionv1.xsd" xmlns="http://www.topografix.com/GPX/1/1" xmlns:xsi="http://www.w3.org/2001/XMLSchema-instance" xmlns:wptx1="http://www.garmin.com/xmlschemas/WaypointExtension/v1" xmlns:gpxtrx="http://www.garmin.com/xmlschemas/GpxExtensions/v3" xmlns:gpxtpx="http://www.garmin.com/xmlschemas/TrackPointExtension/v1" xmlns:gpxx="http://www.garmin.com/xmlschemas/GpxExtensions/v3" xmlns:trp="http://www.garmin.com/xmlschemas/TripExtensions/v1" xmlns:adv="http://www.garmin.com/xmlschemas/AdventuresExtensions/v1" xmlns:prs="http://www.garmin.com/xmlschemas/PressureExtension/v1" xmlns:tmd="http://www.garmin.com/xmlschemas/TripMetaDataExtensions/v1" xmlns:vptm="http://www.garmin.com/xmlschemas/ViaPointTransportationModeExtensions/v1" xmlns:ctx="http://www.garmin.com/xmlschemas/CreationTimeExtension/v1" xmlns:gpxacc="http://www.garmin.com/xmlschemas/AccelerationExtension/v1" xmlns:gpxpx="http://www.garmin.com/xmlschemas/PowerExtension/v1" xmlns:vidx1="http://www.garmin.com/xmlschemas/VideoExtension/v1">

  <metadata>
    <link href="http://www.garmin.com">
      <text>Garmin International</text>
    </link>
    <time>2019-10-14T07:02:48Z</time>
    <bounds maxlat="46.032688692212105" maxlon="8.569245664402843" minlat="46.003842791542411" minlon="8.531898418441415" />
  </metadata>

  <trk>
    <name>pizzo-marona-da-gabbio2019-10-13</name>
    <extensions>
      <gpxx:TrackExtension>
        <gpxx:DisplayColor>Yellow</gpxx:DisplayColor>
      </gpxx:TrackExtension>
      <gpxtrkx:TrackStatsExtension xmlns:gpxtrkx="http://www.garmin.com/xmlschemas/TrackStatsExtension/v1">
        <gpxtrkx:Distance>13468</gpxtrkx:Distance>
        <gpxtrkx:TotalElapsedTime>31045</gpxtrkx:TotalElapsedTime>
        <gpxtrkx:MovingTime>19582</gpxtrkx:MovingTime>
        <gpxtrkx:StoppedTime>11449</gpxtrkx:StoppedTime>
        <gpxtrkx:MovingSpeed>1</gpxtrkx:MovingSpeed>
        <gpxtrkx:MaxSpeed>2</gpxtrkx:MaxSpeed>
        <gpxtrkx:MaxElevation>2047</gpxtrkx:MaxElevation>
        <gpxtrkx:MinElevation>1133</gpxtrkx:MinElevation>
        <gpxtrkx:Ascent>1066</gpxtrkx:Ascent>
        <gpxtrkx:Descent>1068</gpxtrkx:Descent>
        <gpxtrkx:AvgAscentRate>0</gpxtrkx:AvgAscentRate>
        <gpxtrkx:MaxAscentRate>0</gpxtrkx:MaxAscentRate>
        <gpxtrkx:AvgDescentRate>0</gpxtrkx:AvgDescentRate>
        <gpxtrkx:MaxDescentRate>-1</gpxtrkx:MaxDescentRate>
      </gpxtrkx:TrackStatsExtension>
    </extensions>
    <trkseg>
      <trkpt lat="46.004046471789479" lon="8.569082301110029">
        <ele>1148.1500000000001</ele>
        <time>2019-10-13T06:49:51Z</time>
      </trkpt>
      <trkpt lat="46.004046723246574" lon="8.569081630557776">
        <ele>1148.1500000000001</ele>
        <time>2019-10-13T06:49:52Z</time>
      </trkpt>
      <trkpt lat="46.004047561436892" lon="8.569079115986824">
        <ele>1137.72</ele>
        <time>2019-10-13T06:49:56Z</time>
      </trkpt>
      <trkpt lat="46.004047309979796" lon="8.569078780710697">
        <ele>1137.72</ele>
        <time>2019-10-13T06:49:57Z</time>
      </trkpt>
      <trkpt lat="46.00404697470367" lon="8.569101747125387">
        <ele>1137.7</ele>
        <time>2019-10-13T06:50:19Z</time>
      </trkpt>
      <trkpt lat="46.004054350778461" lon="8.569101663306356">
        <ele>1137.28</ele>
        <time>2019-10-13T06:50:37Z</time>
      </trkpt>
      <trkpt lat="46.00402794778347" lon="8.569067381322384">
        <ele>1137.4100000000001</ele>
        <time>2019-10-13T06:50:47Z</time>
      </trkpt>
      <trkpt lat="46.004024343565106" lon="8.569085486233234">
        <ele>1137.4100000000001</ele>
        <time>2019-10-13T06:51:03Z</time>
      </trkpt>
      <trkpt lat="46.004009256139398" lon="8.569098310545087">
        <ele>1137.52</ele>
        <time>2019-10-13T06:51:30Z</time>
      </trkpt>
      <trkpt lat="46.004000203683972" lon="8.569124881178141">
        <ele>1137.1400000000001</ele>
        <time>2019-10-13T06:51:51Z</time>
      </trkpt>
      <trkpt lat="46.00401914678514" lon="8.569097304716706">
        <ele>1137.79</ele>
        <time>2019-10-13T06:52:10Z</time>
      </trkpt>
      <trkpt lat="46.004025433212519" lon="8.569150781258941">
        <ele>1137.3499999999999</ele>
        <time>2019-10-13T06:52:24Z</time>
      </trkpt>
      <trkpt lat="46.004038508981466" lon="8.569147931411862">
        <ele>1137.3599999999999</ele>
        <time>2019-10-13T06:52:42Z</time>
      </trkpt>
      <trkpt lat="46.004041358828545" lon="8.569145919755101">
        <ele>1137.5</ele>
        <time>2019-10-13T06:52:58Z</time>
      </trkpt>
      <trkpt lat="46.004040353000164" lon="8.569155223667622">
        <ele>1137.0999999999999</ele>
        <time>2019-10-13T06:53:11Z</time>
      </trkpt>
      <trkpt lat="46.004039263352752" lon="8.569169221445918">
        <ele>1137.0699999999999</ele>
        <time>2019-10-13T06:53:21Z</time>
      </trkpt>
      <trkpt lat="46.004035323858261" lon="8.569168299436569">
        <ele>1137</ele>
        <time>2019-10-13T06:53:38Z</time>
      </trkpt>
      <trkpt lat="46.004033898934722" lon="8.569172490388155">
        <ele>1133.1900000000001</ele>
        <time>2019-10-13T06:53:44Z</time>
      </trkpt>
      <trkpt lat="46.004034820944071" lon="8.569168550893664">
        <ele>1142.03</ele>
        <time>2019-10-13T06:53:47Z</time>
      </trkpt>
      <trkpt lat="46.004033563658595" lon="8.569168131798506">
        <ele>1139.1900000000001</ele>
        <time>2019-10-13T06:53:48Z</time>
      </trkpt>
      <trkpt lat="46.004029959440231" lon="8.569168634712696">
        <ele>1137.01</ele>
        <time>2019-10-13T06:53:51Z</time>
      </trkpt>
      <trkpt lat="46.004034066572785" lon="8.569160336628556">
        <ele>1137.2</ele>
        <time>2019-10-13T06:54:01Z</time>
      </trkpt>
      <trkpt lat="46.004035156220198" lon="8.56915270909667">
        <ele>1137.02</ele>
        <time>2019-10-13T06:54:14Z</time>
      </trkpt>
      <trkpt lat="46.004036916419864" lon="8.569155810400844">
        <ele>1137.21</ele>
        <time>2019-10-13T06:54:27Z</time>
      </trkpt>
      <trkpt lat="46.004035407677293" lon="8.569158408790827">
        <ele>1137.1700000000001</ele>
        <time>2019-10-13T06:54:42Z</time>
      </trkpt>
      <trkpt lat="46.004042532294989" lon="8.569163773208857">
        <ele>1137.1700000000001</ele>
        <time>2019-10-13T06:54:57Z</time>
      </trkpt>
      <trkpt lat="46.004007160663605" lon="8.569139298051596">
        <ele>1137.23</ele>
        <time>2019-10-13T06:55:10Z</time>
      </trkpt>
      <trkpt lat="46.003994923084974" lon="8.569129407405853">
        <ele>1137.3900000000001</ele>
        <time>2019-10-13T06:55:20Z</time>
      </trkpt>
      <trkpt lat="46.003957288339734" lon="8.569076349958777">
        <ele>1137.29</ele>
        <time>2019-10-13T06:55:31Z</time>
      </trkpt>
      <trkpt lat="46.003901548683643" lon="8.568990100175142">
        <ele>1137.1700000000001</ele>
        <time>2019-10-13T06:55:43Z</time>
      </trkpt>
      <trkpt lat="46.003916636109352" lon="8.568953219801188">
        <ele>1137.4000000000001</ele>
        <time>2019-10-13T06:55:59Z</time>
      </trkpt>
      <trkpt lat="46.003931388258934" lon="8.568918099626899">
        <ele>1138.9400000000001</ele>
        <time>2019-10-13T06:56:07Z</time>
      </trkpt>
      <trkpt lat="46.003991905599833" lon="8.568849368020892">
        <ele>1140.03</ele>
        <time>2019-10-13T06:56:25Z</time>
      </trkpt>
      <trkpt lat="46.004013195633888" lon="8.568759514018893">
        <ele>1142.02</ele>
        <time>2019-10-13T06:56:36Z</time>
      </trkpt>
      <trkpt lat="46.003998275846243" lon="8.568665217608213">
        <ele>1142.24</ele>
        <time>2019-10-13T06:56:43Z</time>
      </trkpt>
      <trkpt lat="46.003968855366111" lon="8.568484922870994">
        <ele>1142.6600000000001</ele>
        <time>2019-10-13T06:56:55Z</time>
      </trkpt>
      <trkpt lat="46.003955025225878" lon="8.56831518933177">
        <ele>1142.77</ele>
        <time>2019-10-13T06:57:06Z</time>
      </trkpt>
      <trkpt lat="46.003993665799499" lon="8.568182168528438">
        <ele>1143.3599999999999</ele>
        <time>2019-10-13T06:57:21Z</time>
      </trkpt>
      <trkpt lat="46.004051836207509" lon="8.567997347563505">
        <ele>1144.46</ele>
        <time>2019-10-13T06:57:37Z</time>
      </trkpt>
      <trkpt lat="46.004096595570445" lon="8.567785704508424">
        <ele>1146.27</ele>
        <time>2019-10-13T06:57:51Z</time>
      </trkpt>
      <trkpt lat="46.004147054627538" lon="8.567558554932475">
        <ele>1148.3</ele>
        <time>2019-10-13T06:58:06Z</time>
      </trkpt>
      <trkpt lat="46.004185862839222" lon="8.567351857200265">
        <ele>1149.3599999999999</ele>
        <time>2019-10-13T06:58:21Z</time>
      </trkpt>
      <trkpt lat="46.004241602495313" lon="8.567221267148852">
        <ele>1150.9400000000001</ele>
        <time>2019-10-13T06:58:36Z</time>
      </trkpt>
      <trkpt lat="46.004301616922021" lon="8.566991519182921">
        <ele>1152.3800000000001</ele>
        <time>2019-10-13T06:58:52Z</time>
      </trkpt>
      <trkpt lat="46.004327600821853" lon="8.566943155601621">
        <ele>1153.47</ele>
        <time>2019-10-13T06:58:59Z</time>
      </trkpt>
      <trkpt lat="46.004366660490632" lon="8.566816002130508">
        <ele>1155.3099999999999</ele>
        <time>2019-10-13T06:59:14Z</time>
      </trkpt>
      <trkpt lat="46.004440169781446" lon="8.566695721819997">
        <ele>1152.53</ele>
        <time>2019-10-13T06:59:28Z</time>
      </trkpt>
      <trkpt lat="46.004568161442876" lon="8.566592540591955">
        <ele>1149.9400000000001</ele>
        <time>2019-10-13T06:59:41Z</time>
      </trkpt>
      <trkpt lat="46.004611160606146" lon="8.566569993272424">
        <ele>1149.3499999999999</ele>
        <time>2019-10-13T06:59:45Z</time>
      </trkpt>
      <trkpt lat="46.004721969366074" lon="8.566497322171927">
        <ele>1147.9200000000001</ele>
        <time>2019-10-13T06:59:59Z</time>
      </trkpt>
      <trkpt lat="46.004760023206472" lon="8.566453233361244">
        <ele>1147.6800000000001</ele>
        <time>2019-10-13T07:00:05Z</time>
      </trkpt>
      <trkpt lat="46.004847111180425" lon="8.566377209499478">
        <ele>1147.6099999999999</ele>
        <time>2019-10-13T07:00:11Z</time>
      </trkpt>
      <trkpt lat="46.004920285195112" lon="8.566231029108167">
        <ele>1147.6600000000001</ele>
        <time>2019-10-13T07:00:24Z</time>
      </trkpt>
      <trkpt lat="46.005034111440182" lon="8.566110748797655">
        <ele>1149.0799999999999</ele>
        <time>2019-10-13T07:00:38Z</time>
      </trkpt>
      <trkpt lat="46.005019694566727" lon="8.566070348024368">
        <ele>1149.72</ele>
        <time>2019-10-13T07:00:51Z</time>
      </trkpt>
      <trkpt lat="46.005037799477577" lon="8.566011423245072">
        <ele>1149.8499999999999</ele>
        <time>2019-10-13T07:01:14Z</time>
      </trkpt>
      <trkpt lat="46.005000500008464" lon="8.566062301397324">
        <ele>1149.5599999999999</ele>
        <time>2019-10-13T07:01:35Z</time>
      </trkpt>
      <trkpt lat="46.004941407591105" lon="8.565992983058095">
        <ele>1149.8800000000001</ele>
        <time>2019-10-13T07:01:54Z</time>
      </trkpt>
      <trkpt lat="46.004969067871571" lon="8.565840516239405">
        <ele>1151.73</ele>
        <time>2019-10-13T07:02:05Z</time>
      </trkpt>
      <trkpt lat="46.005032099783421" lon="8.565775891765952">
        <ele>1154.78</ele>
        <time>2019-10-13T07:02:18Z</time>
      </trkpt>
      <trkpt lat="46.005051713436842" lon="8.565750997513533">
        <ele>1154.9400000000001</ele>
        <time>2019-10-13T07:02:20Z</time>
      </trkpt>
      <trkpt lat="46.005104603245854" lon="8.565657120198011">
        <ele>1155.78</ele>
        <time>2019-10-13T07:02:28Z</time>
      </trkpt>
      <trkpt lat="46.00513662211597" lon="8.565609091892839">
        <ele>1155.96</ele>
        <time>2019-10-13T07:02:32Z</time>
      </trkpt>
      <trkpt lat="46.005252124741673" lon="8.565542623400688">
        <ele>1156.4200000000001</ele>
        <time>2019-10-13T07:02:44Z</time>
      </trkpt>
      <trkpt lat="46.005282970145345" lon="8.565511023625732">
        <ele>1157.52</ele>
        <time>2019-10-13T07:02:52Z</time>
      </trkpt>
      <trkpt lat="46.005371566861868" lon="8.565442375838757">
        <ele>1158.3499999999999</ele>
        <time>2019-10-13T07:03:01Z</time>
      </trkpt>
      <trkpt lat="46.005422025918961" lon="8.565407674759626">
        <ele>1158.5899999999999</ele>
        <time>2019-10-13T07:03:05Z</time>
      </trkpt>
      <trkpt lat="46.005443148314953" lon="8.565388731658459">
        <ele>1158.74</ele>
        <time>2019-10-13T07:03:07Z</time>
      </trkpt>
      <trkpt lat="46.005553202703595" lon="8.565264847129583">
        <ele>1159.71</ele>
        <time>2019-10-13T07:03:19Z</time>
      </trkpt>
      <trkpt lat="46.005657976493239" lon="8.565157055854797">
        <ele>1161.0799999999999</ele>
        <time>2019-10-13T07:03:31Z</time>
      </trkpt>
      <trkpt lat="46.005717655643821" lon="8.565099388360977">
        <ele>1162.04</ele>
        <time>2019-10-13T07:03:37Z</time>
      </trkpt>
      <trkpt lat="46.005780436098576" lon="8.5650775115937">
        <ele>1162.8800000000001</ele>
        <time>2019-10-13T07:03:47Z</time>
      </trkpt>
      <trkpt lat="46.005912283435464" lon="8.565018167719245">
        <ele>1164.4000000000001</ele>
        <time>2019-10-13T07:04:01Z</time>
      </trkpt>
      <trkpt lat="46.006019068881869" lon="8.564958153292537">
        <ele>1165.22</ele>
        <time>2019-10-13T07:04:12Z</time>
      </trkpt>
      <trkpt lat="46.006087716668844" lon="8.564929235726595">
        <ele>1166.5699999999999</ele>
        <time>2019-10-13T07:04:22Z</time>
      </trkpt>
      <trkpt lat="46.006134655326605" lon="8.564914483577013">
        <ele>1167.25</ele>
        <time>2019-10-13T07:04:28Z</time>
      </trkpt>
      <trkpt lat="46.006220653653145" lon="8.564924374222755">
        <ele>1168.9300000000001</ele>
        <time>2019-10-13T07:04:40Z</time>
      </trkpt>
      <trkpt lat="46.006251247599721" lon="8.56493434868753">
        <ele>1168.4200000000001</ele>
        <time>2019-10-13T07:05:02Z</time>
      </trkpt>
      <trkpt lat="46.006312351673841" lon="8.564956560730934">
        <ele>1169.52</ele>
        <time>2019-10-13T07:05:10Z</time>
      </trkpt>
      <trkpt lat="46.006391644477844" lon="8.564967708662152">
        <ele>1170.3599999999999</ele>
        <time>2019-10-13T07:05:22Z</time>
      </trkpt>
      <trkpt lat="46.006403965875506" lon="8.564966032281518">
        <ele>1170.45</ele>
        <time>2019-10-13T07:05:27Z</time>
      </trkpt>
      <trkpt lat="46.0064388345927" lon="8.564979946240783">
        <ele>1170.8499999999999</ele>
        <time>2019-10-13T07:05:31Z</time>
      </trkpt>
      <trkpt lat="46.006521815434098" lon="8.564958656206727">
        <ele>1171.8699999999999</ele>
        <time>2019-10-13T07:05:45Z</time>
      </trkpt>
      <trkpt lat="46.006589289754629" lon="8.564988076686859">
        <ele>1172.9200000000001</ele>
        <time>2019-10-13T07:05:57Z</time>
      </trkpt>
      <trkpt lat="46.00659322924912" lon="8.564978102222085">
        <ele>1172.98</ele>
        <time>2019-10-13T07:06:11Z</time>
      </trkpt>
      <trkpt lat="46.006657686084509" lon="8.564884560182691">
        <ele>1173.5</ele>
        <time>2019-10-13T07:06:20Z</time>
      </trkpt>
      <trkpt lat="46.006741505116224" lon="8.564801579341292">
        <ele>1175.1900000000001</ele>
        <time>2019-10-13T07:06:33Z</time>
      </trkpt>
      <trkpt lat="46.006811494007707" lon="8.564720610156655">
        <ele>1176.71</ele>
        <time>2019-10-13T07:06:43Z</time>
      </trkpt>
      <trkpt lat="46.006841920316219" lon="8.564646011218429">
        <ele>1177.6800000000001</ele>
        <time>2019-10-13T07:06:52Z</time>
      </trkpt>
      <trkpt lat="46.006884081289172" lon="8.564601670950651">
        <ele>1178.98</ele>
        <time>2019-10-13T07:06:59Z</time>
      </trkpt>
      <trkpt lat="46.006959602236748" lon="8.564462950453162">
        <ele>1181.77</ele>
        <time>2019-10-13T07:07:12Z</time>
      </trkpt>
      <trkpt lat="46.006981059908867" lon="8.564425064250827">
        <ele>1182.5999999999999</ele>
        <time>2019-10-13T07:07:23Z</time>
      </trkpt>
      <trkpt lat="46.006980137899518" lon="8.5644212923944">
        <ele>1181.4300000000001</ele>
        <time>2019-10-13T07:07:42Z</time>
      </trkpt>
      <trkpt lat="46.006975444033742" lon="8.564419616013765">
        <ele>1182.23</ele>
        <time>2019-10-13T07:07:59Z</time>
      </trkpt>
      <trkpt lat="46.006993884220719" lon="8.564404947683215">
        <ele>1182.79</ele>
        <time>2019-10-13T07:08:13Z</time>
      </trkpt>
      <trkpt lat="46.007039146497846" lon="8.564324397593737">
        <ele>1185.9400000000001</ele>
        <time>2019-10-13T07:08:26Z</time>
      </trkpt>
      <trkpt lat="46.007087929174304" lon="8.564289696514607">
        <ele>1185.71</ele>
        <time>2019-10-13T07:08:33Z</time>
      </trkpt>
      <trkpt lat="46.007106620818377" lon="8.564270418137312">
        <ele>1186.9400000000001</ele>
        <time>2019-10-13T07:08:35Z</time>
      </trkpt>
      <trkpt lat="46.007169149816036" lon="8.564248792827129">
        <ele>1188.3499999999999</ele>
        <time>2019-10-13T07:08:45Z</time>
      </trkpt>
      <trkpt lat="46.007186081260443" lon="8.56427519582212">
        <ele>1189.53</ele>
        <time>2019-10-13T07:08:57Z</time>
      </trkpt>
      <trkpt lat="46.007201671600342" lon="8.564316015690565">
        <ele>1190.6700000000001</ele>
        <time>2019-10-13T07:09:10Z</time>
      </trkpt>
      <trkpt lat="46.007200833410025" lon="8.564301766455174">
        <ele>1190.1900000000001</ele>
        <time>2019-10-13T07:09:23Z</time>
      </trkpt>
      <trkpt lat="46.007201252505183" lon="8.564252313226461">
        <ele>1190.0999999999999</ele>
        <time>2019-10-13T07:09:31Z</time>
      </trkpt>
      <trkpt lat="46.007264703512192" lon="8.564146282151341">
        <ele>1190.4200000000001</ele>
        <time>2019-10-13T07:09:42Z</time>
      </trkpt>
      <trkpt lat="46.007323041558266" lon="8.564050560817123">
        <ele>1191.6199999999999</ele>
        <time>2019-10-13T07:09:56Z</time>
      </trkpt>
      <trkpt lat="46.007356820628047" lon="8.563953833654523">
        <ele>1193.0699999999999</ele>
        <time>2019-10-13T07:10:07Z</time>
      </trkpt>
      <trkpt lat="46.007386995479465" lon="8.563792649656534">
        <ele>1195</ele>
        <time>2019-10-13T07:10:20Z</time>
      </trkpt>
      <trkpt lat="46.007428737357259" lon="8.563648397102952">
        <ele>1197.1800000000001</ele>
        <time>2019-10-13T07:10:32Z</time>
      </trkpt>
      <trkpt lat="46.007470479235053" lon="8.563549825921655">
        <ele>1199.1300000000001</ele>
        <time>2019-10-13T07:10:44Z</time>
      </trkpt>
      <trkpt lat="46.007489254698157" lon="8.563481429591775">
        <ele>1199.8900000000001</ele>
        <time>2019-10-13T07:10:55Z</time>
      </trkpt>
      <trkpt lat="46.007535271346569" lon="8.563374560326338">
        <ele>1199.4400000000001</ele>
        <time>2019-10-13T07:11:05Z</time>
      </trkpt>
      <trkpt lat="46.007592519745231" lon="8.563240533694625">
        <ele>1200.45</ele>
        <time>2019-10-13T07:11:18Z</time>
      </trkpt>
      <trkpt lat="46.007583970203996" lon="8.563175406306982">
        <ele>1200.6099999999999</ele>
        <time>2019-10-13T07:11:35Z</time>
      </trkpt>
      <trkpt lat="46.007583551108837" lon="8.56314648874104">
        <ele>1200.9000000000001</ele>
        <time>2019-10-13T07:11:37Z</time>
      </trkpt>
      <trkpt lat="46.007581874728203" lon="8.563048923388124">
        <ele>1201.5599999999999</ele>
        <time>2019-10-13T07:11:43Z</time>
      </trkpt>
      <trkpt lat="46.007595537230372" lon="8.562997039407492">
        <ele>1202.52</ele>
        <time>2019-10-13T07:11:48Z</time>
      </trkpt>
      <trkpt lat="46.007598973810673" lon="8.562953034415841">
        <ele>1203.1800000000001</ele>
        <time>2019-10-13T07:11:51Z</time>
      </trkpt>
      <trkpt lat="46.007601656019688" lon="8.562921937555075">
        <ele>1203.0599999999999</ele>
        <time>2019-10-13T07:11:53Z</time>
      </trkpt>
      <trkpt lat="46.007623532786965" lon="8.562758071348071">
        <ele>1204.6500000000001</ele>
        <time>2019-10-13T07:12:05Z</time>
      </trkpt>
      <trkpt lat="46.007627472281456" lon="8.56256939470768">
        <ele>1205.9400000000001</ele>
        <time>2019-10-13T07:12:18Z</time>
      </trkpt>
      <trkpt lat="46.007689833641052" lon="8.562509128823876">
        <ele>1208.3299999999999</ele>
        <time>2019-10-13T07:12:29Z</time>
      </trkpt>
      <trkpt lat="46.007770467549562" lon="8.562431344762445">
        <ele>1211.47</ele>
        <time>2019-10-13T07:12:44Z</time>
      </trkpt>
      <trkpt lat="46.00784364156425" lon="8.562386082485318">
        <ele>1214.48</ele>
        <time>2019-10-13T07:12:58Z</time>
      </trkpt>
      <trkpt lat="46.007919581606984" lon="8.562365546822548">
        <ele>1217.3399999999999</ele>
        <time>2019-10-13T07:13:13Z</time>
      </trkpt>
      <trkpt lat="46.007947409525514" lon="8.562297653406858">
        <ele>1217.75</ele>
        <time>2019-10-13T07:13:24Z</time>
      </trkpt>
      <trkpt lat="46.007982613518834" lon="8.56229530647397">
        <ele>1218.7</ele>
        <time>2019-10-13T07:13:40Z</time>
      </trkpt>
      <trkpt lat="46.008020248264074" lon="8.562334282323718">
        <ele>1221.1400000000001</ele>
        <time>2019-10-13T07:13:51Z</time>
      </trkpt>
      <trkpt lat="46.008028211072087" lon="8.562340820208192">
        <ele>1222.03</ele>
        <time>2019-10-13T07:14:05Z</time>
      </trkpt>
      <trkpt lat="46.008094679564238" lon="8.562312070280314">
        <ele>1224.1900000000001</ele>
        <time>2019-10-13T07:14:19Z</time>
      </trkpt>
      <trkpt lat="46.008100798353553" lon="8.562307292595506">
        <ele>1224.1600000000001</ele>
        <time>2019-10-13T07:14:38Z</time>
      </trkpt>
      <trkpt lat="46.008072886615992" lon="8.56228357180953">
        <ele>1223.0999999999999</ele>
        <time>2019-10-13T07:14:51Z</time>
      </trkpt>
      <trkpt lat="46.008027121424675" lon="8.562217438593507">
        <ele>1219.99</ele>
        <time>2019-10-13T07:15:01Z</time>
      </trkpt>
      <trkpt lat="46.008007926866412" lon="8.562161615118384">
        <ele>1218.8599999999999</ele>
        <time>2019-10-13T07:15:12Z</time>
      </trkpt>
      <trkpt lat="46.008031899109483" lon="8.562122890725732">
        <ele>1219.3499999999999</ele>
        <time>2019-10-13T07:15:25Z</time>
      </trkpt>
      <trkpt lat="46.008038772270083" lon="8.562110234051943">
        <ele>1219.9200000000001</ele>
        <time>2019-10-13T07:15:46Z</time>
      </trkpt>
      <trkpt lat="46.008037850260735" lon="8.562106126919389">
        <ele>1219.8699999999999</ele>
        <time>2019-10-13T07:16:03Z</time>
      </trkpt>
      <trkpt lat="46.008031815290451" lon="8.562062624841929">
        <ele>1219.5</ele>
        <time>2019-10-13T07:16:15Z</time>
      </trkpt>
      <trkpt lat="46.008047237992287" lon="8.562017027288675">
        <ele>1219.52</ele>
        <time>2019-10-13T07:16:20Z</time>
      </trkpt>
      <trkpt lat="46.008073221892118" lon="8.56193614192307">
        <ele>1220.1800000000001</ele>
        <time>2019-10-13T07:16:30Z</time>
      </trkpt>
      <trkpt lat="46.008080346509814" lon="8.561917617917061">
        <ele>1220.8399999999999</ele>
        <time>2019-10-13T07:16:45Z</time>
      </trkpt>
      <trkpt lat="46.008115215227008" lon="8.561854921281338">
        <ele>1221.5</ele>
        <time>2019-10-13T07:17:11Z</time>
      </trkpt>
      <trkpt lat="46.008120747283101" lon="8.561844108626247">
        <ele>1221.5899999999999</ele>
        <time>2019-10-13T07:17:12Z</time>
      </trkpt>
      <trkpt lat="46.008147150278091" lon="8.561798259615898">
        <ele>1222.1099999999999</ele>
        <time>2019-10-13T07:17:16Z</time>
      </trkpt>
      <trkpt lat="46.008167266845703" lon="8.561744531616569">
        <ele>1222.8699999999999</ele>
        <time>2019-10-13T07:17:20Z</time>
      </trkpt>
      <trkpt lat="46.008249828591943" lon="8.561555687338114">
        <ele>1224.6700000000001</ele>
        <time>2019-10-13T07:17:35Z</time>
      </trkpt>
      <trkpt lat="46.008327947929502" lon="8.5613595508039">
        <ele>1226.3</ele>
        <time>2019-10-13T07:17:50Z</time>
      </trkpt>
      <trkpt lat="46.008353009819984" lon="8.561287047341466">
        <ele>1227.6300000000001</ele>
        <time>2019-10-13T07:18:01Z</time>
      </trkpt>
      <trkpt lat="46.008360469713807" lon="8.56120565906167">
        <ele>1227.3900000000001</ele>
        <time>2019-10-13T07:18:13Z</time>
      </trkpt>
      <trkpt lat="46.008384106680751" lon="8.561011618003249">
        <ele>1229.03</ele>
        <time>2019-10-13T07:18:26Z</time>
      </trkpt>
      <trkpt lat="46.008403468877077" lon="8.560835598036647">
        <ele>1231.0599999999999</ele>
        <time>2019-10-13T07:18:39Z</time>
      </trkpt>
      <trkpt lat="46.008418221026659" lon="8.56064859777689">
        <ele>1232.6199999999999</ele>
        <time>2019-10-13T07:18:52Z</time>
      </trkpt>
      <trkpt lat="46.008435655385256" lon="8.560435613617301">
        <ele>1234.1800000000001</ele>
        <time>2019-10-13T07:19:06Z</time>
      </trkpt>
      <trkpt lat="46.008476139977574" lon="8.560262024402618">
        <ele>1236.1400000000001</ele>
        <time>2019-10-13T07:19:19Z</time>
      </trkpt>
      <trkpt lat="46.008489299565554" lon="8.560228832066059">
        <ele>1236.6500000000001</ele>
        <time>2019-10-13T07:19:33Z</time>
      </trkpt>
      <trkpt lat="46.00849156267941" lon="8.560226736590266">
        <ele>1236.74</ele>
        <time>2019-10-13T07:19:36Z</time>
      </trkpt>
      <trkpt lat="46.008535483852029" lon="8.560215337201953">
        <ele>1237.3099999999999</ele>
        <time>2019-10-13T07:19:41Z</time>
      </trkpt>
      <trkpt lat="46.008616620674729" lon="8.560184491798282">
        <ele>1238.8</ele>
        <time>2019-10-13T07:19:52Z</time>
      </trkpt>
      <trkpt lat="46.008618716150522" lon="8.560171835124493">
        <ele>1239.1500000000001</ele>
        <time>2019-10-13T07:19:53Z</time>
      </trkpt>
      <trkpt lat="46.008627936244011" lon="8.560146940872073">
        <ele>1239.4400000000001</ele>
        <time>2019-10-13T07:19:55Z</time>
      </trkpt>
      <trkpt lat="46.008674623444676" lon="8.560023056343198">
        <ele>1239.95</ele>
        <time>2019-10-13T07:20:08Z</time>
      </trkpt>
      <trkpt lat="46.00867722183466" lon="8.559967903420329">
        <ele>1238.8599999999999</ele>
        <time>2019-10-13T07:20:20Z</time>
      </trkpt>
      <trkpt lat="46.008707983419299" lon="8.559911996126175">
        <ele>1239.8199999999999</ele>
        <time>2019-10-13T07:20:28Z</time>
      </trkpt>
      <trkpt lat="46.00872022099793" lon="8.559890706092119">
        <ele>1239.6300000000001</ele>
        <time>2019-10-13T07:20:30Z</time>
      </trkpt>
      <trkpt lat="46.008753161877394" lon="8.559847623109818">
        <ele>1239.27</ele>
        <time>2019-10-13T07:20:34Z</time>
      </trkpt>
      <trkpt lat="46.008797083050013" lon="8.55981158092618">
        <ele>1239.4300000000001</ele>
        <time>2019-10-13T07:20:44Z</time>
      </trkpt>
      <trkpt lat="46.008832370862365" lon="8.559763971716166">
        <ele>1239.1099999999999</ele>
        <time>2019-10-13T07:20:50Z</time>
      </trkpt>
      <trkpt lat="46.00893815048039" lon="8.559728851541877">
        <ele>1238.8299999999999</ele>
        <time>2019-10-13T07:21:02Z</time>
      </trkpt>
      <trkpt lat="46.008989783003926" lon="8.559714686125517">
        <ele>1239.8499999999999</ele>
        <time>2019-10-13T07:21:13Z</time>
      </trkpt>
      <trkpt lat="46.008998835459352" lon="8.559708232060075">
        <ele>1239.8499999999999</ele>
        <time>2019-10-13T07:21:18Z</time>
      </trkpt>
      <trkpt lat="46.009030770510435" lon="8.559681829065085">
        <ele>1239.54</ele>
        <time>2019-10-13T07:21:22Z</time>
      </trkpt>
      <trkpt lat="46.009100088849664" lon="8.55960488319397">
        <ele>1240.04</ele>
        <time>2019-10-13T07:21:34Z</time>
      </trkpt>
      <trkpt lat="46.009118361398578" lon="8.559558615088463">
        <ele>1240.3499999999999</ele>
        <time>2019-10-13T07:21:43Z</time>
      </trkpt>
      <trkpt lat="46.009190529584885" lon="8.55947295203805">
        <ele>1241.8299999999999</ele>
        <time>2019-10-13T07:21:55Z</time>
      </trkpt>
      <trkpt lat="46.009220369160175" lon="8.55940111912787">
        <ele>1242.3699999999999</ele>
        <time>2019-10-13T07:22:03Z</time>
      </trkpt>
      <trkpt lat="46.009139902889729" lon="8.559385612607002">
        <ele>1244.1300000000001</ele>
        <time>2019-10-13T07:22:15Z</time>
      </trkpt>
      <trkpt lat="46.009044516831636" lon="8.55934638530016">
        <ele>1244.9300000000001</ele>
        <time>2019-10-13T07:22:27Z</time>
      </trkpt>
      <trkpt lat="46.008945442736149" lon="8.559225434437394">
        <ele>1245.1400000000001</ele>
        <time>2019-10-13T07:22:40Z</time>
      </trkpt>
      <trkpt lat="46.008934881538153" lon="8.559218561276794">
        <ele>1245.1600000000001</ele>
        <time>2019-10-13T07:22:41Z</time>
      </trkpt>
      <trkpt lat="46.008891630917788" lon="8.559207664802671">
        <ele>1245.1900000000001</ele>
        <time>2019-10-13T07:22:45Z</time>
      </trkpt>
      <trkpt lat="46.008731117472053" lon="8.559136167168617">
        <ele>1245.6199999999999</ele>
        <time>2019-10-13T07:23:00Z</time>
      </trkpt>
      <trkpt lat="46.008631037548184" lon="8.559087300673127">
        <ele>1246.8199999999999</ele>
        <time>2019-10-13T07:23:11Z</time>
      </trkpt>
      <trkpt lat="46.008547469973564" lon="8.558973222970963">
        <ele>1248.6300000000001</ele>
        <time>2019-10-13T07:23:24Z</time>
      </trkpt>
      <trkpt lat="46.008454263210297" lon="8.558848667889834">
        <ele>1251.3199999999999</ele>
        <time>2019-10-13T07:23:39Z</time>
      </trkpt>
      <trkpt lat="46.008393745869398" lon="8.558728052303195">
        <ele>1254.3800000000001</ele>
        <time>2019-10-13T07:23:57Z</time>
      </trkpt>
      <trkpt lat="46.008378658443689" lon="8.558648256585002">
        <ele>1256.6800000000001</ele>
        <time>2019-10-13T07:24:09Z</time>
      </trkpt>
      <trkpt lat="46.008377652615309" lon="8.558529736474156">
        <ele>1259.5999999999999</ele>
        <time>2019-10-13T07:24:23Z</time>
      </trkpt>
      <trkpt lat="46.008387878537178" lon="8.558480869978666">
        <ele>1261.53</ele>
        <time>2019-10-13T07:24:28Z</time>
      </trkpt>
      <trkpt lat="46.008408162742853" lon="8.558426219969988">
        <ele>1261.01</ele>
        <time>2019-10-13T07:24:41Z</time>
      </trkpt>
      <trkpt lat="46.008457699790597" lon="8.558274591341615">
        <ele>1263.1099999999999</ele>
        <time>2019-10-13T07:24:57Z</time>
      </trkpt>
      <trkpt lat="46.00848913192749" lon="8.558122627437115">
        <ele>1265.02</ele>
        <time>2019-10-13T07:25:12Z</time>
      </trkpt>
      <trkpt lat="46.008519977331161" lon="8.557979799807072">
        <ele>1267.1600000000001</ele>
        <time>2019-10-13T07:25:26Z</time>
      </trkpt>
      <trkpt lat="46.008563730865717" lon="8.557827835902572">
        <ele>1268.6300000000001</ele>
        <time>2019-10-13T07:25:40Z</time>
      </trkpt>
      <trkpt lat="46.008610837161541" lon="8.557703197002411">
        <ele>1270.96</ele>
        <time>2019-10-13T07:25:54Z</time>
      </trkpt>
      <trkpt lat="46.008636821061373" lon="8.557543940842152">
        <ele>1271.6700000000001</ele>
        <time>2019-10-13T07:26:07Z</time>
      </trkpt>
      <trkpt lat="46.008672444149852" lon="8.557419301941991">
        <ele>1272.9200000000001</ele>
        <time>2019-10-13T07:26:20Z</time>
      </trkpt>
      <trkpt lat="46.008708653971553" lon="8.557312013581395">
        <ele>1275.46</ele>
        <time>2019-10-13T07:26:36Z</time>
      </trkpt>
      <trkpt lat="46.008741846308112" lon="8.557182848453522">
        <ele>1277.55</ele>
        <time>2019-10-13T07:26:50Z</time>
      </trkpt>
      <trkpt lat="46.008800351992249" lon="8.557043038308621">
        <ele>1280.6300000000001</ele>
        <time>2019-10-13T07:27:07Z</time>
      </trkpt>
      <trkpt lat="46.008815774694085" lon="8.556897863745689">
        <ele>1281.8900000000001</ele>
        <time>2019-10-13T07:27:22Z</time>
      </trkpt>
      <trkpt lat="46.00881552323699" lon="8.556879842653871">
        <ele>1282.0699999999999</ele>
        <time>2019-10-13T07:27:39Z</time>
      </trkpt>
      <trkpt lat="46.008840333670378" lon="8.556654285639525">
        <ele>1283.8099999999999</ele>
        <time>2019-10-13T07:27:55Z</time>
      </trkpt>
      <trkpt lat="46.008864473551512" lon="8.556553283706307">
        <ele>1285.8199999999999</ele>
        <time>2019-10-13T07:28:07Z</time>
      </trkpt>
      <trkpt lat="46.008886350318789" lon="8.556460663676262">
        <ele>1287.8399999999999</ele>
        <time>2019-10-13T07:28:19Z</time>
      </trkpt>
      <trkpt lat="46.008901437744498" lon="8.556320853531361">
        <ele>1289.6500000000001</ele>
        <time>2019-10-13T07:28:33Z</time>
      </trkpt>
      <trkpt lat="46.008908143267035" lon="8.556185737252235">
        <ele>1289.77</ele>
        <time>2019-10-13T07:28:43Z</time>
      </trkpt>
      <trkpt lat="46.008944269269705" lon="8.556116335093975">
        <ele>1290.72</ele>
        <time>2019-10-13T07:28:53Z</time>
      </trkpt>
      <trkpt lat="46.008973019197583" lon="8.556000329554081">
        <ele>1291.75</ele>
        <time>2019-10-13T07:29:05Z</time>
      </trkpt>
      <trkpt lat="46.00897972472012" lon="8.555933693423867">
        <ele>1293.0699999999999</ele>
        <time>2019-10-13T07:29:13Z</time>
      </trkpt>
      <trkpt lat="46.00900269113481" lon="8.555856579914689">
        <ele>1293.3800000000001</ele>
        <time>2019-10-13T07:29:20Z</time>
      </trkpt>
      <trkpt lat="46.009061029180884" lon="8.555665137246251">
        <ele>1295.47</ele>
        <time>2019-10-13T07:29:36Z</time>
      </trkpt>
      <trkpt lat="46.009123641997576" lon="8.555540665984154">
        <ele>1297.3900000000001</ele>
        <time>2019-10-13T07:29:50Z</time>
      </trkpt>
      <trkpt lat="46.009140908718109" lon="8.555536223575473">
        <ele>1297.6199999999999</ele>
        <time>2019-10-13T07:30:03Z</time>
      </trkpt>
      <trkpt lat="46.009145770221949" lon="8.555519878864288">
        <ele>1297.8</ele>
        <time>2019-10-13T07:30:15Z</time>
      </trkpt>
      <trkpt lat="46.009148871526122" lon="8.555415105074644">
        <ele>1299.9100000000001</ele>
        <time>2019-10-13T07:30:28Z</time>
      </trkpt>
      <trkpt lat="46.009120792150497" lon="8.55527319945395">
        <ele>1301.7</ele>
        <time>2019-10-13T07:30:43Z</time>
      </trkpt>
      <trkpt lat="46.009121043607593" lon="8.555268924683332">
        <ele>1301.95</ele>
        <time>2019-10-13T07:30:58Z</time>
      </trkpt>
      <trkpt lat="46.009128587320447" lon="8.555252747610211">
        <ele>1301.9000000000001</ele>
        <time>2019-10-13T07:31:13Z</time>
      </trkpt>
      <trkpt lat="46.009118277579546" lon="8.555158954113722">
        <ele>1302.05</ele>
        <time>2019-10-13T07:31:28Z</time>
      </trkpt>
      <trkpt lat="46.009121211245656" lon="8.555032471194863">
        <ele>1302.8299999999999</ele>
        <time>2019-10-13T07:31:37Z</time>
      </trkpt>
      <trkpt lat="46.009148871526122" lon="8.554887631908059">
        <ele>1304.8</ele>
        <time>2019-10-13T07:31:51Z</time>
      </trkpt>
      <trkpt lat="46.009172005578876" lon="8.55478554032743">
        <ele>1307.1400000000001</ele>
        <time>2019-10-13T07:32:05Z</time>
      </trkpt>
      <trkpt lat="46.009168736636639" lon="8.554768776521087">
        <ele>1307.3299999999999</ele>
        <time>2019-10-13T07:32:07Z</time>
      </trkpt>
      <trkpt lat="46.009166305884719" lon="8.554715970531106">
        <ele>1307.9400000000001</ele>
        <time>2019-10-13T07:32:11Z</time>
      </trkpt>
      <trkpt lat="46.009177286177874" lon="8.554602563381195">
        <ele>1308.5999999999999</ele>
        <time>2019-10-13T07:32:23Z</time>
      </trkpt>
      <trkpt lat="46.009186841547489" lon="8.554563419893384">
        <ele>1309.3199999999999</ele>
        <time>2019-10-13T07:32:30Z</time>
      </trkpt>
      <trkpt lat="46.009189942851663" lon="8.554485384374857">
        <ele>1309.76</ele>
        <time>2019-10-13T07:32:36Z</time>
      </trkpt>
      <trkpt lat="46.009241994470358" lon="8.554264269769192">
        <ele>1310.51</ele>
        <time>2019-10-13T07:32:51Z</time>
      </trkpt>
      <trkpt lat="46.009266804903746" lon="8.554218504577875">
        <ele>1311.4400000000001</ele>
        <time>2019-10-13T07:33:04Z</time>
      </trkpt>
      <trkpt lat="46.009265379980206" lon="8.554218420758843">
        <ele>1311.4100000000001</ele>
        <time>2019-10-13T07:33:31Z</time>
      </trkpt>
      <trkpt lat="46.009288597851992" lon="8.55412102304399">
        <ele>1312.04</ele>
        <time>2019-10-13T07:33:52Z</time>
      </trkpt>
      <trkpt lat="46.009365962818265" lon="8.553990768268704">
        <ele>1315.1099999999999</ele>
        <time>2019-10-13T07:34:06Z</time>
      </trkpt>
      <trkpt lat="46.00943217985332" lon="8.553942488506436">
        <ele>1317.24</ele>
        <time>2019-10-13T07:34:17Z</time>
      </trkpt>
      <trkpt lat="46.009499821811914" lon="8.5538718290627">
        <ele>1319.46</ele>
        <time>2019-10-13T07:34:29Z</time>
      </trkpt>
      <trkpt lat="46.009586993604898" lon="8.55376529507339">
        <ele>1321.5599999999999</ele>
        <time>2019-10-13T07:34:44Z</time>
      </trkpt>
      <trkpt lat="46.009638290852308" lon="8.553697820752859">
        <ele>1323.5599999999999</ele>
        <time>2019-10-13T07:34:57Z</time>
      </trkpt>
      <trkpt lat="46.009686486795545" lon="8.553678710013628">
        <ele>1325.3699999999999</ele>
        <time>2019-10-13T07:35:08Z</time>
      </trkpt>
      <trkpt lat="46.009707357734442" lon="8.553696144372225">
        <ele>1327.1700000000001</ele>
        <time>2019-10-13T07:35:22Z</time>
      </trkpt>
      <trkpt lat="46.009766701608896" lon="8.553704274818301">
        <ele>1329.8499999999999</ele>
        <time>2019-10-13T07:35:36Z</time>
      </trkpt>
      <trkpt lat="46.009784387424588" lon="8.553731264546514">
        <ele>1331.8399999999999</ele>
        <time>2019-10-13T07:35:47Z</time>
      </trkpt>
      <trkpt lat="46.009838031604886" lon="8.553729588165879">
        <ele>1333.46</ele>
        <time>2019-10-13T07:35:59Z</time>
      </trkpt>
      <trkpt lat="46.009890334680676" lon="8.553694970905781">
        <ele>1331.3099999999999</ele>
        <time>2019-10-13T07:36:11Z</time>
      </trkpt>
      <trkpt lat="46.009949259459972" lon="8.553599584847689">
        <ele>1331.5599999999999</ele>
        <time>2019-10-13T07:36:23Z</time>
      </trkpt>
      <trkpt lat="46.01001363247633" lon="8.553525824099779">
        <ele>1333.4000000000001</ele>
        <time>2019-10-13T07:36:36Z</time>
      </trkpt>
      <trkpt lat="46.010072557255626" lon="8.55343597009778">
        <ele>1334.4000000000001</ele>
        <time>2019-10-13T07:36:49Z</time>
      </trkpt>
      <trkpt lat="46.01012553088367" lon="8.553418954834342">
        <ele>1334.9400000000001</ele>
        <time>2019-10-13T07:37:00Z</time>
      </trkpt>
      <trkpt lat="46.010177666321397" lon="8.553418535739183">
        <ele>1336.3299999999999</ele>
        <time>2019-10-13T07:37:09Z</time>
      </trkpt>
      <trkpt lat="46.01023742929101" lon="8.553452901542187">
        <ele>1336.3800000000001</ele>
        <time>2019-10-13T07:37:20Z</time>
      </trkpt>
      <trkpt lat="46.01030146703124" lon="8.553505707532167">
        <ele>1335.53</ele>
        <time>2019-10-13T07:37:29Z</time>
      </trkpt>
      <trkpt lat="46.010359218344092" lon="8.553530098870397">
        <ele>1334.95</ele>
        <time>2019-10-13T07:37:40Z</time>
      </trkpt>
      <trkpt lat="46.01036986336112" lon="8.553543677553535">
        <ele>1335.46</ele>
        <time>2019-10-13T07:37:55Z</time>
      </trkpt>
      <trkpt lat="46.010390985757113" lon="8.553558764979243">
        <ele>1335.1800000000001</ele>
        <time>2019-10-13T07:37:59Z</time>
      </trkpt>
      <trkpt lat="46.010485533624887" lon="8.553562536835671">
        <ele>1336.26</ele>
        <time>2019-10-13T07:38:12Z</time>
      </trkpt>
      <trkpt lat="46.010548062622547" lon="8.553510569036007">
        <ele>1337.75</ele>
        <time>2019-10-13T07:38:24Z</time>
      </trkpt>
      <trkpt lat="46.010571112856269" lon="8.553436556831002">
        <ele>1339.4000000000001</ele>
        <time>2019-10-13T07:38:37Z</time>
      </trkpt>
      <trkpt lat="46.01061319001019" lon="8.553409650921822">
        <ele>1340.24</ele>
        <time>2019-10-13T07:38:49Z</time>
      </trkpt>
      <trkpt lat="46.010660212486982" lon="8.553368914872408">
        <ele>1338.72</ele>
        <time>2019-10-13T07:38:58Z</time>
      </trkpt>
      <trkpt lat="46.010709078982472" lon="8.553313678130508">
        <ele>1337.9100000000001</ele>
        <time>2019-10-13T07:39:05Z</time>
      </trkpt>
      <trkpt lat="46.010738583281636" lon="8.553286856040359">
        <ele>1337.6400000000001</ele>
        <time>2019-10-13T07:39:09Z</time>
      </trkpt>
      <trkpt lat="46.010757777839899" lon="8.553153667598963">
        <ele>1338.05</ele>
        <time>2019-10-13T07:39:22Z</time>
      </trkpt>
      <trkpt lat="46.010816032066941" lon="8.553088288754225">
        <ele>1337.8699999999999</ele>
        <time>2019-10-13T07:39:33Z</time>
      </trkpt>
      <trkpt lat="46.01084285415709" lon="8.552970690652728">
        <ele>1337.3599999999999</ele>
        <time>2019-10-13T07:39:45Z</time>
      </trkpt>
      <trkpt lat="46.010862048715353" lon="8.552809506654739">
        <ele>1337.5</ele>
        <time>2019-10-13T07:39:58Z</time>
      </trkpt>
      <trkpt lat="46.010859198868275" lon="8.55279827490449">
        <ele>1337.5799999999999</ele>
        <time>2019-10-13T07:39:59Z</time>
      </trkpt>
      <trkpt lat="46.01082575507462" lon="8.552639856934547">
        <ele>1338.9400000000001</ele>
        <time>2019-10-13T07:40:15Z</time>
      </trkpt>
      <trkpt lat="46.010822569951415" lon="8.552577160298824">
        <ele>1339.25</ele>
        <time>2019-10-13T07:40:26Z</time>
      </trkpt>
      <trkpt lat="46.010829526931047" lon="8.552564084529877">
        <ele>1339.77</ele>
        <time>2019-10-13T07:40:39Z</time>
      </trkpt>
      <trkpt lat="46.01082818582654" lon="8.552567018195987">
        <ele>1338.0999999999999</ele>
        <time>2019-10-13T07:40:49Z</time>
      </trkpt>
      <trkpt lat="46.010825922712684" lon="8.552561486139894">
        <ele>1337.8499999999999</ele>
        <time>2019-10-13T07:41:26Z</time>
      </trkpt>
      <trkpt lat="46.010827934369445" lon="8.552567688748241">
        <ele>1339.1900000000001</ele>
        <time>2019-10-13T07:41:55Z</time>
      </trkpt>
      <trkpt lat="46.01082474924624" lon="8.552560983225703">
        <ele>1339.3199999999999</ele>
        <time>2019-10-13T07:42:11Z</time>
      </trkpt>
      <trkpt lat="46.010838160291314" lon="8.552501136437058">
        <ele>1339.6600000000001</ele>
        <time>2019-10-13T07:42:27Z</time>
      </trkpt>
      <trkpt lat="46.010833801701665" lon="8.552426034584642">
        <ele>1340.3699999999999</ele>
        <time>2019-10-13T07:42:39Z</time>
      </trkpt>
      <trkpt lat="46.010828521102667" lon="8.55236828327179">
        <ele>1341.9400000000001</ele>
        <time>2019-10-13T07:42:48Z</time>
      </trkpt>
      <trkpt lat="46.010830868035555" lon="8.552287481725216">
        <ele>1343.6800000000001</ele>
        <time>2019-10-13T07:42:59Z</time>
      </trkpt>
      <trkpt lat="46.010836148634553" lon="8.552269544452429">
        <ele>1343.73</ele>
        <time>2019-10-13T07:43:01Z</time>
      </trkpt>
      <trkpt lat="46.010875208303332" lon="8.552171140909195">
        <ele>1344.1400000000001</ele>
        <time>2019-10-13T07:43:12Z</time>
      </trkpt>
      <trkpt lat="46.010878225788474" lon="8.552084639668465">
        <ele>1344.3099999999999</ele>
        <time>2019-10-13T07:43:20Z</time>
      </trkpt>
      <trkpt lat="46.01088535040617" lon="8.552008951082826">
        <ele>1344.5999999999999</ele>
        <time>2019-10-13T07:43:27Z</time>
      </trkpt>
      <trkpt lat="46.010904796421528" lon="8.551889341324568">
        <ele>1342.0999999999999</ele>
        <time>2019-10-13T07:43:34Z</time>
      </trkpt>
      <trkpt lat="46.011020634323359" lon="8.551754811778665">
        <ele>1343</ele>
        <time>2019-10-13T07:43:48Z</time>
      </trkpt>
      <trkpt lat="46.011045277118683" lon="8.551736874505878">
        <ele>1343.99</ele>
        <time>2019-10-13T07:43:54Z</time>
      </trkpt>
      <trkpt lat="46.011084672063589" lon="8.551609804853797">
        <ele>1345.47</ele>
        <time>2019-10-13T07:44:06Z</time>
      </trkpt>
      <trkpt lat="46.011158684268594" lon="8.551542414352298">
        <ele>1347.4400000000001</ele>
        <time>2019-10-13T07:44:18Z</time>
      </trkpt>
      <trkpt lat="46.011171173304319" lon="8.551521208137274">
        <ele>1347.51</ele>
        <time>2019-10-13T07:44:30Z</time>
      </trkpt>
      <trkpt lat="46.011173604056239" lon="8.551510395482183">
        <ele>1347.45</ele>
        <time>2019-10-13T07:44:43Z</time>
      </trkpt>
      <trkpt lat="46.011170335114002" lon="8.551507964730263">
        <ele>1347.4200000000001</ele>
        <time>2019-10-13T07:45:01Z</time>
      </trkpt>
      <trkpt lat="46.011176537722349" lon="8.551504444330931">
        <ele>1348.8699999999999</ele>
        <time>2019-10-13T07:45:24Z</time>
      </trkpt>
      <trkpt lat="46.011176537722349" lon="8.551504444330931">
        <ele>1349.0699999999999</ele>
        <time>2019-10-13T07:45:25Z</time>
      </trkpt>
      <trkpt lat="46.011198246851563" lon="8.551501343026757">
        <ele>1346.3099999999999</ele>
        <time>2019-10-13T07:45:33Z</time>
      </trkpt>
      <trkpt lat="46.011233450844884" lon="8.551479214802384">
        <ele>1349.5999999999999</ele>
        <time>2019-10-13T07:45:42Z</time>
      </trkpt>
      <trkpt lat="46.011289693415165" lon="8.551414925605059">
        <ele>1350.4100000000001</ele>
        <time>2019-10-13T07:45:52Z</time>
      </trkpt>
      <trkpt lat="46.011308049783111" lon="8.551328843459487">
        <ele>1351.26</ele>
        <time>2019-10-13T07:46:00Z</time>
      </trkpt>
      <trkpt lat="46.011293884366751" lon="8.551290789619088">
        <ele>1351.5999999999999</ele>
        <time>2019-10-13T07:46:03Z</time>
      </trkpt>
      <trkpt lat="46.011272426694632" lon="8.551139496266842">
        <ele>1351.95</ele>
        <time>2019-10-13T07:46:15Z</time>
      </trkpt>
      <trkpt lat="46.011235881596804" lon="8.551083086058497">
        <ele>1352.48</ele>
        <time>2019-10-13T07:46:25Z</time>
      </trkpt>
      <trkpt lat="46.011178130283952" lon="8.551008487120271">
        <ele>1353.5599999999999</ele>
        <time>2019-10-13T07:46:38Z</time>
      </trkpt>
      <trkpt lat="46.011147117242217" lon="8.550916370004416">
        <ele>1355.28</ele>
        <time>2019-10-13T07:46:50Z</time>
      </trkpt>
      <trkpt lat="46.011152230203152" lon="8.550808327272534">
        <ele>1356.8800000000001</ele>
        <time>2019-10-13T07:47:03Z</time>
      </trkpt>
      <trkpt lat="46.011148123070598" lon="8.550783013924956">
        <ele>1357.1800000000001</ele>
        <time>2019-10-13T07:47:05Z</time>
      </trkpt>
      <trkpt lat="46.011099759489298" lon="8.550549577921629">
        <ele>1358.1199999999999</ele>
        <time>2019-10-13T07:47:21Z</time>
      </trkpt>
      <trkpt lat="46.011107387021184" lon="8.550439439713955">
        <ele>1358.8099999999999</ele>
        <time>2019-10-13T07:47:29Z</time>
      </trkpt>
      <trkpt lat="46.011179303750396" lon="8.550288649275899">
        <ele>1359.55</ele>
        <time>2019-10-13T07:47:42Z</time>
      </trkpt>
      <trkpt lat="46.011259686201811" lon="8.550128974020481">
        <ele>1360.29</ele>
        <time>2019-10-13T07:47:56Z</time>
      </trkpt>
      <trkpt lat="46.011334452778101" lon="8.549967287108302">
        <ele>1361.98</ele>
        <time>2019-10-13T07:48:12Z</time>
      </trkpt>
      <trkpt lat="46.011359682306647" lon="8.549899645149708">
        <ele>1363.5699999999999</ele>
        <time>2019-10-13T07:48:22Z</time>
      </trkpt>
      <trkpt lat="46.011384073644876" lon="8.549843821674585">
        <ele>1365.51</ele>
        <time>2019-10-13T07:48:35Z</time>
      </trkpt>
      <trkpt lat="46.01141944527626" lon="8.549765953794122">
        <ele>1367.9100000000001</ele>
        <time>2019-10-13T07:48:48Z</time>
      </trkpt>
      <trkpt lat="46.011430341750383" lon="8.549670232459903">
        <ele>1370.27</ele>
        <time>2019-10-13T07:49:01Z</time>
      </trkpt>
      <trkpt lat="46.011451212689281" lon="8.549606949090958">
        <ele>1372.3399999999999</ele>
        <time>2019-10-13T07:49:14Z</time>
      </trkpt>
      <trkpt lat="46.011473424732685" lon="8.549549281597138">
        <ele>1373.8900000000001</ele>
        <time>2019-10-13T07:49:27Z</time>
      </trkpt>
      <trkpt lat="46.011476945132017" lon="8.549466971307993">
        <ele>1374.8</ele>
        <time>2019-10-13T07:49:38Z</time>
      </trkpt>
      <trkpt lat="46.011483231559396" lon="8.549385331571102">
        <ele>1377.01</ele>
        <time>2019-10-13T07:49:52Z</time>
      </trkpt>
      <trkpt lat="46.011488009244204" lon="8.54929924942553">
        <ele>1378.0999999999999</ele>
        <time>2019-10-13T07:50:00Z</time>
      </trkpt>
      <trkpt lat="46.011516340076923" lon="8.549253148958087">
        <ele>1378.3399999999999</ele>
        <time>2019-10-13T07:50:04Z</time>
      </trkpt>
      <trkpt lat="46.011668723076582" lon="8.549186512827873">
        <ele>1378.8800000000001</ele>
        <time>2019-10-13T07:50:19Z</time>
      </trkpt>
      <trkpt lat="46.011840719729662" lon="8.549126582220197">
        <ele>1379.1099999999999</ele>
        <time>2019-10-13T07:50:35Z</time>
      </trkpt>
      <trkpt lat="46.011964855715632" lon="8.549074111506343">
        <ele>1379.46</ele>
        <time>2019-10-13T07:50:47Z</time>
      </trkpt>
      <trkpt lat="46.012128135189414" lon="8.549096826463938">
        <ele>1379.27</ele>
        <time>2019-10-13T07:51:03Z</time>
      </trkpt>
      <trkpt lat="46.012192256748676" lon="8.549076206982136">
        <ele>1379.3199999999999</ele>
        <time>2019-10-13T07:51:14Z</time>
      </trkpt>
      <trkpt lat="46.012242631986737" lon="8.549044858664274">
        <ele>1380.76</ele>
        <time>2019-10-13T07:51:24Z</time>
      </trkpt>
      <trkpt lat="46.012281691655517" lon="8.548954417929053">
        <ele>1380.75</ele>
        <time>2019-10-13T07:51:35Z</time>
      </trkpt>
      <trkpt lat="46.012327373027802" lon="8.548898007720709">
        <ele>1381.45</ele>
        <time>2019-10-13T07:51:45Z</time>
      </trkpt>
      <trkpt lat="46.012347154319286" lon="8.548873113468289">
        <ele>1380.8399999999999</ele>
        <time>2019-10-13T07:51:57Z</time>
      </trkpt>
      <trkpt lat="46.012364504858851" lon="8.548868922516704">
        <ele>1380.7</ele>
        <time>2019-10-13T07:52:11Z</time>
      </trkpt>
      <trkpt lat="46.012381687760353" lon="8.548869844526053">
        <ele>1380.3699999999999</ele>
        <time>2019-10-13T07:52:23Z</time>
      </trkpt>
      <trkpt lat="46.012402474880219" lon="8.548885434865952">
        <ele>1381.29</ele>
        <time>2019-10-13T07:52:35Z</time>
      </trkpt>
      <trkpt lat="46.012437343597412" lon="8.548875963315368">
        <ele>1380.5999999999999</ele>
        <time>2019-10-13T07:52:45Z</time>
      </trkpt>
      <trkpt lat="46.012444803491235" lon="8.548870012164116">
        <ele>1380.2</ele>
        <time>2019-10-13T07:52:46Z</time>
      </trkpt>
      <trkpt lat="46.012479923665524" lon="8.548871017992497">
        <ele>1380.1600000000001</ele>
        <time>2019-10-13T07:52:50Z</time>
      </trkpt>
      <trkpt lat="46.012511188164353" lon="8.548757024109364">
        <ele>1380.02</ele>
        <time>2019-10-13T07:53:01Z</time>
      </trkpt>
      <trkpt lat="46.012499034404755" lon="8.548640515655279">
        <ele>1380.98</ele>
        <time>2019-10-13T07:53:12Z</time>
      </trkpt>
      <trkpt lat="46.012527029961348" lon="8.548548314720392">
        <ele>1382.02</ele>
        <time>2019-10-13T07:53:24Z</time>
      </trkpt>
      <trkpt lat="46.012574806809425" lon="8.5485237557441">
        <ele>1382.3399999999999</ele>
        <time>2019-10-13T07:53:32Z</time>
      </trkpt>
      <trkpt lat="46.012598024681211" lon="8.54847639799118">
        <ele>1381.45</ele>
        <time>2019-10-13T07:53:43Z</time>
      </trkpt>
      <trkpt lat="46.012594504281878" lon="8.548400457948446">
        <ele>1381.4400000000001</ele>
        <time>2019-10-13T07:53:51Z</time>
      </trkpt>
      <trkpt lat="46.012570029124618" lon="8.548346227034926">
        <ele>1381.3800000000001</ele>
        <time>2019-10-13T07:53:57Z</time>
      </trkpt>
      <trkpt lat="46.012558043003082" lon="8.548269867897034">
        <ele>1381.22</ele>
        <time>2019-10-13T07:54:09Z</time>
      </trkpt>
      <trkpt lat="46.012559216469526" lon="8.548248326405883">
        <ele>1381.73</ele>
        <time>2019-10-13T07:54:21Z</time>
      </trkpt>
      <trkpt lat="46.012532478198409" lon="8.548240447416902">
        <ele>1381.2</ele>
        <time>2019-10-13T07:54:49Z</time>
      </trkpt>
      <trkpt lat="46.012515379115939" lon="8.548226617276669">
        <ele>1380.7</ele>
        <time>2019-10-13T07:55:00Z</time>
      </trkpt>
      <trkpt lat="46.01242795586586" lon="8.548053111881018">
        <ele>1381.51</ele>
        <time>2019-10-13T07:55:15Z</time>
      </trkpt>
      <trkpt lat="46.012425944209099" lon="8.548042383044958">
        <ele>1381.74</ele>
        <time>2019-10-13T07:55:33Z</time>
      </trkpt>
      <trkpt lat="46.012431560084224" lon="8.548005251213908">
        <ele>1382.02</ele>
        <time>2019-10-13T07:55:37Z</time>
      </trkpt>
      <trkpt lat="46.012440947815776" lon="8.54797700420022">
        <ele>1381.96</ele>
        <time>2019-10-13T07:55:39Z</time>
      </trkpt>
      <trkpt lat="46.012437008321285" lon="8.547826549038291">
        <ele>1384.6500000000001</ele>
        <time>2019-10-13T07:55:53Z</time>
      </trkpt>
      <trkpt lat="46.012389063835144" lon="8.547775084152818">
        <ele>1387.0799999999999</ele>
        <time>2019-10-13T07:56:05Z</time>
      </trkpt>
      <trkpt lat="46.012360565364361" lon="8.547744238749147">
        <ele>1387.8099999999999</ele>
        <time>2019-10-13T07:56:10Z</time>
      </trkpt>
      <trkpt lat="46.012349585071206" lon="8.547650277614594">
        <ele>1388.6300000000001</ele>
        <time>2019-10-13T07:56:18Z</time>
      </trkpt>
      <trkpt lat="46.012342376634479" lon="8.547514909878373">
        <ele>1388.9200000000001</ele>
        <time>2019-10-13T07:56:31Z</time>
      </trkpt>
      <trkpt lat="46.012339107692242" lon="8.547396892681718">
        <ele>1390.1600000000001</ele>
        <time>2019-10-13T07:56:43Z</time>
      </trkpt>
      <trkpt lat="46.012311615049839" lon="8.547250125557184">
        <ele>1391.55</ele>
        <time>2019-10-13T07:56:57Z</time>
      </trkpt>
      <trkpt lat="46.012276327237487" lon="8.547102939337492">
        <ele>1393.4000000000001</ele>
        <time>2019-10-13T07:57:12Z</time>
      </trkpt>
      <trkpt lat="46.012259060516953" lon="8.54700512252748">
        <ele>1395.01</ele>
        <time>2019-10-13T07:57:25Z</time>
      </trkpt>
      <trkpt lat="46.012237267568707" lon="8.546904623508453">
        <ele>1396.9200000000001</ele>
        <time>2019-10-13T07:57:38Z</time>
      </trkpt>
      <trkpt lat="46.012232741340995" lon="8.546841088682413">
        <ele>1397.74</ele>
        <time>2019-10-13T07:57:50Z</time>
      </trkpt>
      <trkpt lat="46.012233328074217" lon="8.546763304620981">
        <ele>1399.55</ele>
        <time>2019-10-13T07:58:00Z</time>
      </trkpt>
      <trkpt lat="46.012223521247506" lon="8.546666074544191">
        <ele>1401.1600000000001</ele>
        <time>2019-10-13T07:58:11Z</time>
      </trkpt>
      <trkpt lat="46.012213714420795" lon="8.546562641859055">
        <ele>1402.1500000000001</ele>
        <time>2019-10-13T07:58:24Z</time>
      </trkpt>
      <trkpt lat="46.012213043868542" lon="8.546440433710814">
        <ele>1404.3</ele>
        <time>2019-10-13T07:58:37Z</time>
      </trkpt>
      <trkpt lat="46.012202734127641" lon="8.546369355171919">
        <ele>1404.9000000000001</ele>
        <time>2019-10-13T07:58:44Z</time>
      </trkpt>
      <trkpt lat="46.012204075232148" lon="8.546292828395963">
        <ele>1405.0799999999999</ele>
        <time>2019-10-13T07:58:56Z</time>
      </trkpt>
      <trkpt lat="46.012221509590745" lon="8.546254355460405">
        <ele>1405.1500000000001</ele>
        <time>2019-10-13T07:59:10Z</time>
      </trkpt>
      <trkpt lat="46.012241542339325" lon="8.54620523750782">
        <ele>1406.53</ele>
        <time>2019-10-13T07:59:22Z</time>
      </trkpt>
      <trkpt lat="46.01224472746253" lon="8.546142959967256">
        <ele>1407.1600000000001</ele>
        <time>2019-10-13T07:59:29Z</time>
      </trkpt>
      <trkpt lat="46.012243553996086" lon="8.546110354363918">
        <ele>1406.5599999999999</ele>
        <time>2019-10-13T07:59:31Z</time>
      </trkpt>
      <trkpt lat="46.012276913970709" lon="8.54591203853488">
        <ele>1406.3499999999999</ele>
        <time>2019-10-13T07:59:44Z</time>
      </trkpt>
      <trkpt lat="46.012307005003095" lon="8.545763092115521">
        <ele>1406.51</ele>
        <time>2019-10-13T07:59:55Z</time>
      </trkpt>
      <trkpt lat="46.012308597564697" lon="8.545753452926874">
        <ele>1406.5599999999999</ele>
        <time>2019-10-13T07:59:56Z</time>
      </trkpt>
      <trkpt lat="46.012317566201091" lon="8.545700730755925">
        <ele>1406.8499999999999</ele>
        <time>2019-10-13T08:00:00Z</time>
      </trkpt>
      <trkpt lat="46.012353776022792" lon="8.545511467382312">
        <ele>1407.95</ele>
        <time>2019-10-13T08:00:14Z</time>
      </trkpt>
      <trkpt lat="46.012394512072206" lon="8.545393953099847">
        <ele>1410.02</ele>
        <time>2019-10-13T08:00:28Z</time>
      </trkpt>
      <trkpt lat="46.012436002492905" lon="8.545323126018047">
        <ele>1410.3099999999999</ele>
        <time>2019-10-13T08:00:38Z</time>
      </trkpt>
      <trkpt lat="46.012458885088563" lon="8.545293705537915">
        <ele>1410.6099999999999</ele>
        <time>2019-10-13T08:00:54Z</time>
      </trkpt>
      <trkpt lat="46.012471122667193" lon="8.545276187360287">
        <ele>1410.6300000000001</ele>
        <time>2019-10-13T08:00:56Z</time>
      </trkpt>
      <trkpt lat="46.012551924213767" lon="8.54517032392323">
        <ele>1411</ele>
        <time>2019-10-13T08:01:11Z</time>
      </trkpt>
      <trkpt lat="46.012535914778709" lon="8.545067897066474">
        <ele>1412.24</ele>
        <time>2019-10-13T08:01:24Z</time>
      </trkpt>
      <trkpt lat="46.012566927820444" lon="8.544968906790018">
        <ele>1413.72</ele>
        <time>2019-10-13T08:01:36Z</time>
      </trkpt>
      <trkpt lat="46.012637168169022" lon="8.544854996725917">
        <ele>1415.6400000000001</ele>
        <time>2019-10-13T08:01:51Z</time>
      </trkpt>
      <trkpt lat="46.012691231444478" lon="8.544753408059478">
        <ele>1417.47</ele>
        <time>2019-10-13T08:02:06Z</time>
      </trkpt>
      <trkpt lat="46.012709839269519" lon="8.544700015336275">
        <ele>1418.1600000000001</ele>
        <time>2019-10-13T08:02:19Z</time>
      </trkpt>
      <trkpt lat="46.012734984979033" lon="8.544624410569668">
        <ele>1420.1500000000001</ele>
        <time>2019-10-13T08:02:32Z</time>
      </trkpt>
      <trkpt lat="46.012761555612087" lon="8.544561127200723">
        <ele>1420.9000000000001</ele>
        <time>2019-10-13T08:02:43Z</time>
      </trkpt>
      <trkpt lat="46.012786198407412" lon="8.544523324817419">
        <ele>1421.51</ele>
        <time>2019-10-13T08:02:48Z</time>
      </trkpt>
      <trkpt lat="46.012813020497561" lon="8.544439086690545">
        <ele>1422.48</ele>
        <time>2019-10-13T08:03:03Z</time>
      </trkpt>
      <trkpt lat="46.012854008004069" lon="8.54435283690691">
        <ele>1423.53</ele>
        <time>2019-10-13T08:03:17Z</time>
      </trkpt>
      <trkpt lat="46.012900276109576" lon="8.544265413656831">
        <ele>1425.5599999999999</ele>
        <time>2019-10-13T08:03:29Z</time>
      </trkpt>
      <trkpt lat="46.012941347435117" lon="8.544184863567352">
        <ele>1427.0599999999999</ele>
        <time>2019-10-13T08:03:43Z</time>
      </trkpt>
      <trkpt lat="46.01298744790256" lon="8.544108755886555">
        <ele>1429.0899999999999</ele>
        <time>2019-10-13T08:03:58Z</time>
      </trkpt>
      <trkpt lat="46.013031620532274" lon="8.544060476124287">
        <ele>1431.5599999999999</ele>
        <time>2019-10-13T08:04:10Z</time>
      </trkpt>
      <trkpt lat="46.013051988556981" lon="8.543959306553006">
        <ele>1433.1300000000001</ele>
        <time>2019-10-13T08:04:23Z</time>
      </trkpt>
      <trkpt lat="46.013048551976681" lon="8.54389987885952">
        <ele>1432.9200000000001</ele>
        <time>2019-10-13T08:04:32Z</time>
      </trkpt>
      <trkpt lat="46.013036733493209" lon="8.543876660987735">
        <ele>1432.4400000000001</ele>
        <time>2019-10-13T08:04:34Z</time>
      </trkpt>
      <trkpt lat="46.013045785948634" lon="8.543788231909275">
        <ele>1432.2</ele>
        <time>2019-10-13T08:04:49Z</time>
      </trkpt>
      <trkpt lat="46.013068752363324" lon="8.543706089258194">
        <ele>1433.1400000000001</ele>
        <time>2019-10-13T08:05:00Z</time>
      </trkpt>
      <trkpt lat="46.013084845617414" lon="8.543632244691253">
        <ele>1434.0699999999999</ele>
        <time>2019-10-13T08:05:10Z</time>
      </trkpt>
      <trkpt lat="46.013060957193375" lon="8.543538618832827">
        <ele>1435.6500000000001</ele>
        <time>2019-10-13T08:05:24Z</time>
      </trkpt>
      <trkpt lat="46.013027429580688" lon="8.543464774265885">
        <ele>1437.3</ele>
        <time>2019-10-13T08:05:38Z</time>
      </trkpt>
      <trkpt lat="46.012983759865165" lon="8.543414818122983">
        <ele>1436.99</ele>
        <time>2019-10-13T08:05:45Z</time>
      </trkpt>
      <trkpt lat="46.012961212545633" lon="8.543376931920648">
        <ele>1436.9100000000001</ele>
        <time>2019-10-13T08:05:49Z</time>
      </trkpt>
      <trkpt lat="46.012884518131614" lon="8.543203761801124">
        <ele>1436.79</ele>
        <time>2019-10-13T08:06:03Z</time>
      </trkpt>
      <trkpt lat="46.012801202014089" lon="8.54303989559412">
        <ele>1437.6700000000001</ele>
        <time>2019-10-13T08:06:20Z</time>
      </trkpt>
      <trkpt lat="46.012732135131955" lon="8.542941911146045">
        <ele>1439.02</ele>
        <time>2019-10-13T08:06:33Z</time>
      </trkpt>
      <trkpt lat="46.012687962502241" lon="8.5428855009377">
        <ele>1440.1300000000001</ele>
        <time>2019-10-13T08:06:45Z</time>
      </trkpt>
      <trkpt lat="46.012665582820773" lon="8.542843675240874">
        <ele>1441.51</ele>
        <time>2019-10-13T08:06:58Z</time>
      </trkpt>
      <trkpt lat="46.012660972774029" lon="8.542832024395466">
        <ele>1441.6900000000001</ele>
        <time>2019-10-13T08:07:14Z</time>
      </trkpt>
      <trkpt lat="46.012657033279538" lon="8.542764550074935">
        <ele>1442.46</ele>
        <time>2019-10-13T08:07:31Z</time>
      </trkpt>
      <trkpt lat="46.012634988874197" lon="8.542623231187463">
        <ele>1445.46</ele>
        <time>2019-10-13T08:07:45Z</time>
      </trkpt>
      <trkpt lat="46.012644711881876" lon="8.542523486539722">
        <ele>1447.78</ele>
        <time>2019-10-13T08:07:56Z</time>
      </trkpt>
      <trkpt lat="46.012658458203077" lon="8.542296253144741">
        <ele>1448.46</ele>
        <time>2019-10-13T08:08:12Z</time>
      </trkpt>
      <trkpt lat="46.012715538963675" lon="8.542267587035894">
        <ele>1450.7</ele>
        <time>2019-10-13T08:08:22Z</time>
      </trkpt>
      <trkpt lat="46.012767758220434" lon="8.542152671143413">
        <ele>1452.9400000000001</ele>
        <time>2019-10-13T08:08:34Z</time>
      </trkpt>
      <trkpt lat="46.012807069346309" lon="8.542064996436238">
        <ele>1455.03</ele>
        <time>2019-10-13T08:08:45Z</time>
      </trkpt>
      <trkpt lat="46.012859288603067" lon="8.541928706690669">
        <ele>1457.2</ele>
        <time>2019-10-13T08:09:00Z</time>
      </trkpt>
      <trkpt lat="46.012871945276856" lon="8.541873972862959">
        <ele>1458.3199999999999</ele>
        <time>2019-10-13T08:09:14Z</time>
      </trkpt>
      <trkpt lat="46.012871861457825" lon="8.541864668950439">
        <ele>1458.1500000000001</ele>
        <time>2019-10-13T08:09:31Z</time>
      </trkpt>
      <trkpt lat="46.012925673276186" lon="8.54174992069602">
        <ele>1460.02</ele>
        <time>2019-10-13T08:09:43Z</time>
      </trkpt>
      <trkpt lat="46.012980826199055" lon="8.54161212220788">
        <ele>1463.0899999999999</ele>
        <time>2019-10-13T08:09:58Z</time>
      </trkpt>
      <trkpt lat="46.013025334104896" lon="8.541521346196532">
        <ele>1466</ele>
        <time>2019-10-13T08:10:11Z</time>
      </trkpt>
      <trkpt lat="46.013073027133942" lon="8.541385140269995">
        <ele>1467.9200000000001</ele>
        <time>2019-10-13T08:10:24Z</time>
      </trkpt>
      <trkpt lat="46.013122061267495" lon="8.541294615715742">
        <ele>1470.1199999999999</ele>
        <time>2019-10-13T08:10:35Z</time>
      </trkpt>
      <trkpt lat="46.01315843872726" lon="8.541210880503058">
        <ele>1471.51</ele>
        <time>2019-10-13T08:10:46Z</time>
      </trkpt>
      <trkpt lat="46.013193475082517" lon="8.541119853034616">
        <ele>1472.28</ele>
        <time>2019-10-13T08:10:55Z</time>
      </trkpt>
      <trkpt lat="46.013220716267824" lon="8.541047181934118">
        <ele>1473.3499999999999</ele>
        <time>2019-10-13T08:11:03Z</time>
      </trkpt>
      <trkpt lat="46.013187021017075" lon="8.540951879695058">
        <ele>1473.6800000000001</ele>
        <time>2019-10-13T08:11:15Z</time>
      </trkpt>
      <trkpt lat="46.01315894164145" lon="8.540889183059335">
        <ele>1475.0699999999999</ele>
        <time>2019-10-13T08:11:24Z</time>
      </trkpt>
      <trkpt lat="46.013134969398379" lon="8.540789857506752">
        <ele>1475.95</ele>
        <time>2019-10-13T08:11:36Z</time>
      </trkpt>
      <trkpt lat="46.0131252463907" lon="8.540730597451329">
        <ele>1477.2</ele>
        <time>2019-10-13T08:11:43Z</time>
      </trkpt>
      <trkpt lat="46.01309297606349" lon="8.540595145896077">
        <ele>1479.1300000000001</ele>
        <time>2019-10-13T08:11:57Z</time>
      </trkpt>
      <trkpt lat="46.013069590553641" lon="8.54054250754416">
        <ele>1480.23</ele>
        <time>2019-10-13T08:12:07Z</time>
      </trkpt>
      <trkpt lat="46.013019885867834" lon="8.540417617186904">
        <ele>1482.3299999999999</ele>
        <time>2019-10-13T08:12:20Z</time>
      </trkpt>
      <trkpt lat="46.013011587783694" lon="8.540291553363204">
        <ele>1484.76</ele>
        <time>2019-10-13T08:12:35Z</time>
      </trkpt>
      <trkpt lat="46.013015443459153" lon="8.540243608877063">
        <ele>1485.9400000000001</ele>
        <time>2019-10-13T08:12:47Z</time>
      </trkpt>
      <trkpt lat="46.012990716844797" lon="8.540150737389922">
        <ele>1487.4300000000001</ele>
        <time>2019-10-13T08:13:02Z</time>
      </trkpt>
      <trkpt lat="46.012991303578019" lon="8.54001428000629">
        <ele>1489.54</ele>
        <time>2019-10-13T08:13:15Z</time>
      </trkpt>
      <trkpt lat="46.013008905574679" lon="8.539893580600619">
        <ele>1492.3900000000001</ele>
        <time>2019-10-13T08:13:28Z</time>
      </trkpt>
      <trkpt lat="46.013002870604396" lon="8.539878576993942">
        <ele>1492.78</ele>
        <time>2019-10-13T08:13:45Z</time>
      </trkpt>
      <trkpt lat="46.013021729886532" lon="8.539812359958887">
        <ele>1494.4400000000001</ele>
        <time>2019-10-13T08:13:56Z</time>
      </trkpt>
      <trkpt lat="46.01304511539638" lon="8.539744550362229">
        <ele>1497.3800000000001</ele>
        <time>2019-10-13T08:14:08Z</time>
      </trkpt>
      <trkpt lat="46.01306414231658" lon="8.539712196215987">
        <ele>1499.5899999999999</ele>
        <time>2019-10-13T08:14:20Z</time>
      </trkpt>
      <trkpt lat="46.013090629130602" lon="8.539662072435021">
        <ele>1500.98</ele>
        <time>2019-10-13T08:14:31Z</time>
      </trkpt>
      <trkpt lat="46.013079648837447" lon="8.539526620879769">
        <ele>1503.01</ele>
        <time>2019-10-13T08:14:44Z</time>
      </trkpt>
      <trkpt lat="46.013014856725931" lon="8.539445400238037">
        <ele>1504.02</ele>
        <time>2019-10-13T08:14:56Z</time>
      </trkpt>
      <trkpt lat="46.012997170910239" lon="8.539324700832367">
        <ele>1506.26</ele>
        <time>2019-10-13T08:15:10Z</time>
      </trkpt>
      <trkpt lat="46.01300111040473" lon="8.53923006914556">
        <ele>1508.23</ele>
        <time>2019-10-13T08:15:22Z</time>
      </trkpt>
      <trkpt lat="46.012979065999389" lon="8.539184806868434">
        <ele>1508.7</ele>
        <time>2019-10-13T08:15:27Z</time>
      </trkpt>
      <trkpt lat="46.012966493144631" lon="8.539164438843727">
        <ele>1508.8099999999999</ele>
        <time>2019-10-13T08:15:29Z</time>
      </trkpt>
      <trkpt lat="46.012877393513918" lon="8.538984982296825">
        <ele>1509.3599999999999</ele>
        <time>2019-10-13T08:15:46Z</time>
      </trkpt>
      <trkpt lat="46.012854678556323" lon="8.538929913192987">
        <ele>1510.3499999999999</ele>
        <time>2019-10-13T08:15:57Z</time>
      </trkpt>
      <trkpt lat="46.01290731690824" lon="8.538939468562603">
        <ele>1512.01</ele>
        <time>2019-10-13T08:16:09Z</time>
      </trkpt>
      <trkpt lat="46.012981748208404" lon="8.53895447216928">
        <ele>1514.3499999999999</ele>
        <time>2019-10-13T08:16:25Z</time>
      </trkpt>
      <trkpt lat="46.013026591390371" lon="8.538981378078461">
        <ele>1516.0899999999999</ele>
        <time>2019-10-13T08:16:37Z</time>
      </trkpt>
      <trkpt lat="46.01309347897768" lon="8.539029574021697">
        <ele>1518.0699999999999</ele>
        <time>2019-10-13T08:16:52Z</time>
      </trkpt>
      <trkpt lat="46.013158187270164" lon="8.5390864033252">
        <ele>1519.6700000000001</ele>
        <time>2019-10-13T08:17:05Z</time>
      </trkpt>
      <trkpt lat="46.013193223625422" lon="8.539124540984631">
        <ele>1520.53</ele>
        <time>2019-10-13T08:17:18Z</time>
      </trkpt>
      <trkpt lat="46.013191379606724" lon="8.539129570126534">
        <ele>1520.5999999999999</ele>
        <time>2019-10-13T08:17:38Z</time>
      </trkpt>
      <trkpt lat="46.013182913884521" lon="8.539106016978622">
        <ele>1520.3</ele>
        <time>2019-10-13T08:17:57Z</time>
      </trkpt>
      <trkpt lat="46.013169838115573" lon="8.539094785228372">
        <ele>1520.1600000000001</ele>
        <time>2019-10-13T08:18:09Z</time>
      </trkpt>
      <trkpt lat="46.013157516717911" lon="8.539042565971613">
        <ele>1520.3499999999999</ele>
        <time>2019-10-13T08:18:27Z</time>
      </trkpt>
      <trkpt lat="46.013092305511236" lon="8.538909377530217">
        <ele>1520.55</ele>
        <time>2019-10-13T08:18:40Z</time>
      </trkpt>
      <trkpt lat="46.013020137324929" lon="8.53872430510819">
        <ele>1521.25</ele>
        <time>2019-10-13T08:18:55Z</time>
      </trkpt>
      <trkpt lat="46.012929193675518" lon="8.538620956242085">
        <ele>1522.73</ele>
        <time>2019-10-13T08:19:09Z</time>
      </trkpt>
      <trkpt lat="46.012854343280196" lon="8.538477458059788">
        <ele>1524.4400000000001</ele>
        <time>2019-10-13T08:19:25Z</time>
      </trkpt>
      <trkpt lat="46.012788210064173" lon="8.538341335952282">
        <ele>1526.53</ele>
        <time>2019-10-13T08:19:41Z</time>
      </trkpt>
      <trkpt lat="46.012747222557664" lon="8.538285680115223">
        <ele>1528.3800000000001</ele>
        <time>2019-10-13T08:19:55Z</time>
      </trkpt>
      <trkpt lat="46.012744540348649" lon="8.538286266848445">
        <ele>1527.95</ele>
        <time>2019-10-13T08:20:20Z</time>
      </trkpt>
      <trkpt lat="46.012719478458166" lon="8.538234299048781">
        <ele>1528.77</ele>
        <time>2019-10-13T08:20:32Z</time>
      </trkpt>
      <trkpt lat="46.012677233666182" lon="8.538142098113895">
        <ele>1530.3800000000001</ele>
        <time>2019-10-13T08:20:43Z</time>
      </trkpt>
      <trkpt lat="46.0126434545964" lon="8.538047717884183">
        <ele>1532.25</ele>
        <time>2019-10-13T08:20:55Z</time>
      </trkpt>
      <trkpt lat="46.012591486796737" lon="8.537950236350298">
        <ele>1534.5999999999999</ele>
        <time>2019-10-13T08:21:08Z</time>
      </trkpt>
      <trkpt lat="46.012491658329964" lon="8.537818472832441">
        <ele>1535.98</ele>
        <time>2019-10-13T08:21:23Z</time>
      </trkpt>
      <trkpt lat="46.012409683316946" lon="8.537699030712247">
        <ele>1537.6199999999999</ele>
        <time>2019-10-13T08:21:36Z</time>
      </trkpt>
      <trkpt lat="46.012325445190072" lon="8.537591155618429">
        <ele>1538.8299999999999</ele>
        <time>2019-10-13T08:21:48Z</time>
      </trkpt>
      <trkpt lat="46.012269286438823" lon="8.5374890640378">
        <ele>1540.1099999999999</ele>
        <time>2019-10-13T08:22:01Z</time>
      </trkpt>
      <trkpt lat="46.012245062738657" lon="8.537380686029792">
        <ele>1541.78</ele>
        <time>2019-10-13T08:22:14Z</time>
      </trkpt>
      <trkpt lat="46.012206841260195" lon="8.537265853956342">
        <ele>1542.1300000000001</ele>
        <time>2019-10-13T08:22:27Z</time>
      </trkpt>
      <trkpt lat="46.01222762838006" lon="8.537292005494237">
        <ele>1542</ele>
        <time>2019-10-13T08:22:52Z</time>
      </trkpt>
      <trkpt lat="46.012259814888239" lon="8.537288149818778">
        <ele>1542.4400000000001</ele>
        <time>2019-10-13T08:23:03Z</time>
      </trkpt>
      <trkpt lat="46.012263502925634" lon="8.53723936714232">
        <ele>1542.4100000000001</ele>
        <time>2019-10-13T08:23:17Z</time>
      </trkpt>
      <trkpt lat="46.012271801009774" lon="8.537187818437815">
        <ele>1542.0799999999999</ele>
        <time>2019-10-13T08:23:29Z</time>
      </trkpt>
      <trkpt lat="46.012246822938323" lon="8.537176251411438">
        <ele>1541.9100000000001</ele>
        <time>2019-10-13T08:23:55Z</time>
      </trkpt>
      <trkpt lat="46.012244476005435" lon="8.537154207006097">
        <ele>1541.3599999999999</ele>
        <time>2019-10-13T08:24:10Z</time>
      </trkpt>
      <trkpt lat="46.012249086052179" lon="8.537146914750338">
        <ele>1541.4100000000001</ele>
        <time>2019-10-13T08:24:32Z</time>
      </trkpt>
      <trkpt lat="46.01224523037672" lon="8.537180023267865">
        <ele>1541.71</ele>
        <time>2019-10-13T08:24:50Z</time>
      </trkpt>
      <trkpt lat="46.012244392186403" lon="8.537229895591736">
        <ele>1542.72</ele>
        <time>2019-10-13T08:25:05Z</time>
      </trkpt>
      <trkpt lat="46.012241458520293" lon="8.537228554487228">
        <ele>1542.3900000000001</ele>
        <time>2019-10-13T08:25:20Z</time>
      </trkpt>
      <trkpt lat="46.012230478227139" lon="8.537253197282553">
        <ele>1542.3199999999999</ele>
        <time>2019-10-13T08:25:24Z</time>
      </trkpt>
      <trkpt lat="46.012212121859193" lon="8.537279767915607">
        <ele>1542.1800000000001</ele>
        <time>2019-10-13T08:25:27Z</time>
      </trkpt>
      <trkpt lat="46.012178929522634" lon="8.537299297749996">
        <ele>1542.4000000000001</ele>
        <time>2019-10-13T08:25:42Z</time>
      </trkpt>
      <trkpt lat="46.012187646701932" lon="8.537303907796741">
        <ele>1542.29</ele>
        <time>2019-10-13T08:26:07Z</time>
      </trkpt>
      <trkpt lat="46.012184880673885" lon="8.537307763472199">
        <ele>1541.49</ele>
        <time>2019-10-13T08:26:19Z</time>
      </trkpt>
      <trkpt lat="46.012176414951682" lon="8.537303321063519">
        <ele>1541.48</ele>
        <time>2019-10-13T08:26:45Z</time>
      </trkpt>
      <trkpt lat="46.012172726914287" lon="8.537301477044821">
        <ele>1542.1800000000001</ele>
        <time>2019-10-13T08:26:57Z</time>
      </trkpt>
      <trkpt lat="46.012171888723969" lon="8.537307344377041">
        <ele>1542.49</ele>
        <time>2019-10-13T08:27:15Z</time>
      </trkpt>
      <trkpt lat="46.012188736349344" lon="8.537300974130631">
        <ele>1542.4300000000001</ele>
        <time>2019-10-13T08:27:29Z</time>
      </trkpt>
      <trkpt lat="46.01218949072063" lon="8.537300722673535">
        <ele>1542.4100000000001</ele>
        <time>2019-10-13T08:27:39Z</time>
      </trkpt>
      <trkpt lat="46.012190831825137" lon="8.537297705188394">
        <ele>1542.8099999999999</ele>
        <time>2019-10-13T08:27:59Z</time>
      </trkpt>
      <trkpt lat="46.012193094938993" lon="8.537295861169696">
        <ele>1542.6099999999999</ele>
        <time>2019-10-13T08:28:22Z</time>
      </trkpt>
      <trkpt lat="46.012200471013784" lon="8.537297286093235">
        <ele>1542.72</ele>
        <time>2019-10-13T08:28:41Z</time>
      </trkpt>
      <trkpt lat="46.012200806289911" lon="8.537304997444153">
        <ele>1541.75</ele>
        <time>2019-10-13T08:28:58Z</time>
      </trkpt>
      <trkpt lat="46.012207344174385" lon="8.537305416539311">
        <ele>1542.1900000000001</ele>
        <time>2019-10-13T08:29:15Z</time>
      </trkpt>
      <trkpt lat="46.012203991413116" lon="8.537303488701582">
        <ele>1542.0799999999999</ele>
        <time>2019-10-13T08:29:37Z</time>
      </trkpt>
      <trkpt lat="46.012212121859193" lon="8.537298124283552">
        <ele>1542.5799999999999</ele>
        <time>2019-10-13T08:29:54Z</time>
      </trkpt>
      <trkpt lat="46.012211199849844" lon="8.537300638854504">
        <ele>1542.1700000000001</ele>
        <time>2019-10-13T08:30:12Z</time>
      </trkpt>
      <trkpt lat="46.012214971706271" lon="8.537297453731298">
        <ele>1541.8199999999999</ele>
        <time>2019-10-13T08:30:41Z</time>
      </trkpt>
      <trkpt lat="46.012217067182064" lon="8.537297453731298">
        <ele>1543.3099999999999</ele>
        <time>2019-10-13T08:30:45Z</time>
      </trkpt>
      <trkpt lat="46.012216983363032" lon="8.537293346598744">
        <ele>1540.0799999999999</ele>
        <time>2019-10-13T08:30:58Z</time>
      </trkpt>
      <trkpt lat="46.012216564267874" lon="8.537292592227459">
        <ele>1543.75</ele>
        <time>2019-10-13T08:31:01Z</time>
      </trkpt>
      <trkpt lat="46.012215977534652" lon="8.537292089313269">
        <ele>1543.6500000000001</ele>
        <time>2019-10-13T08:31:02Z</time>
      </trkpt>
      <trkpt lat="46.012215306982398" lon="8.537292089313269">
        <ele>1542.4400000000001</ele>
        <time>2019-10-13T08:31:04Z</time>
      </trkpt>
      <trkpt lat="46.012212624773383" lon="8.537294352427125">
        <ele>1542.24</ele>
        <time>2019-10-13T08:31:21Z</time>
      </trkpt>
      <trkpt lat="46.012206170707941" lon="8.537291083484888">
        <ele>1542.6300000000001</ele>
        <time>2019-10-13T08:31:34Z</time>
      </trkpt>
      <trkpt lat="46.012204745784402" lon="8.537291251122952">
        <ele>1542.49</ele>
        <time>2019-10-13T08:31:55Z</time>
      </trkpt>
      <trkpt lat="46.012202147394419" lon="8.537291502580047">
        <ele>1542.9200000000001</ele>
        <time>2019-10-13T08:32:15Z</time>
      </trkpt>
      <trkpt lat="46.012206673622131" lon="8.537291921675205">
        <ele>1543.02</ele>
        <time>2019-10-13T08:32:28Z</time>
      </trkpt>
      <trkpt lat="46.012204829603434" lon="8.537290580570698">
        <ele>1543.0599999999999</ele>
        <time>2019-10-13T08:32:53Z</time>
      </trkpt>
      <trkpt lat="46.012206338346004" lon="8.537294855341315">
        <ele>1543.28</ele>
        <time>2019-10-13T08:33:28Z</time>
      </trkpt>
      <trkpt lat="46.012207260355353" lon="8.537290915846825">
        <ele>1543.3499999999999</ele>
        <time>2019-10-13T08:33:47Z</time>
      </trkpt>
      <trkpt lat="46.012205751612782" lon="8.537293933331966">
        <ele>1543.5599999999999</ele>
        <time>2019-10-13T08:34:17Z</time>
      </trkpt>
      <trkpt lat="46.012204745784402" lon="8.53729753755033">
        <ele>1543.51</ele>
        <time>2019-10-13T08:34:42Z</time>
      </trkpt>
      <trkpt lat="46.012200051918626" lon="8.537278175354004">
        <ele>1543.71</ele>
        <time>2019-10-13T08:35:02Z</time>
      </trkpt>
      <trkpt lat="46.01219829171896" lon="8.53728043846786">
        <ele>1543.8399999999999</ele>
        <time>2019-10-13T08:35:19Z</time>
      </trkpt>
      <trkpt lat="46.012199716642499" lon="8.537282617762685">
        <ele>1543.8</ele>
        <time>2019-10-13T08:35:45Z</time>
      </trkpt>
      <trkpt lat="46.012192005291581" lon="8.537281863391399">
        <ele>1543.54</ele>
        <time>2019-10-13T08:35:59Z</time>
      </trkpt>
      <trkpt lat="46.012241207063198" lon="8.537225872278214">
        <ele>1543.8</ele>
        <time>2019-10-13T08:36:12Z</time>
      </trkpt>
      <trkpt lat="46.012285966426134" lon="8.537166360765696">
        <ele>1543.76</ele>
        <time>2019-10-13T08:36:24Z</time>
      </trkpt>
      <trkpt lat="46.012306753546" lon="8.53713870048523">
        <ele>1543.3199999999999</ele>
        <time>2019-10-13T08:36:27Z</time>
      </trkpt>
      <trkpt lat="46.012425273656845" lon="8.537088744342327">
        <ele>1542.6700000000001</ele>
        <time>2019-10-13T08:36:39Z</time>
      </trkpt>
      <trkpt lat="46.012487970292568" lon="8.537063179537654">
        <ele>1542.1700000000001</ele>
        <time>2019-10-13T08:36:45Z</time>
      </trkpt>
      <trkpt lat="46.012642113491893" lon="8.537034681066871">
        <ele>1541.8900000000001</ele>
        <time>2019-10-13T08:36:59Z</time>
      </trkpt>
      <trkpt lat="46.012681592255831" lon="8.537025628611445">
        <ele>1542.3599999999999</ele>
        <time>2019-10-13T08:37:03Z</time>
      </trkpt>
      <trkpt lat="46.012726770713925" lon="8.536997046321631">
        <ele>1541.49</ele>
        <time>2019-10-13T08:37:07Z</time>
      </trkpt>
      <trkpt lat="46.012833220884204" lon="8.536972990259528">
        <ele>1541.71</ele>
        <time>2019-10-13T08:37:17Z</time>
      </trkpt>
      <trkpt lat="46.012884769588709" lon="8.536945581436157">
        <ele>1541.3699999999999</ele>
        <time>2019-10-13T08:37:22Z</time>
      </trkpt>
      <trkpt lat="46.013024663552642" lon="8.536909874528647">
        <ele>1541.5599999999999</ele>
        <time>2019-10-13T08:37:35Z</time>
      </trkpt>
      <trkpt lat="46.013133963569999" lon="8.536879364401102">
        <ele>1542.0899999999999</ele>
        <time>2019-10-13T08:37:49Z</time>
      </trkpt>
      <trkpt lat="46.013217279687524" lon="8.536875676363707">
        <ele>1542.7</ele>
        <time>2019-10-13T08:38:00Z</time>
      </trkpt>
      <trkpt lat="46.013320460915565" lon="8.536876933649182">
        <ele>1542.77</ele>
        <time>2019-10-13T08:38:11Z</time>
      </trkpt>
      <trkpt lat="46.013422049582005" lon="8.536922028288245">
        <ele>1543.5799999999999</ele>
        <time>2019-10-13T08:38:24Z</time>
      </trkpt>
      <trkpt lat="46.013430682942271" lon="8.536920519545674">
        <ele>1543.5899999999999</ele>
        <time>2019-10-13T08:38:25Z</time>
      </trkpt>
      <trkpt lat="46.013510478660464" lon="8.536920100450516">
        <ele>1543.1800000000001</ele>
        <time>2019-10-13T08:38:32Z</time>
      </trkpt>
      <trkpt lat="46.0136744286865" lon="8.536973241716623">
        <ele>1542.48</ele>
        <time>2019-10-13T08:38:48Z</time>
      </trkpt>
      <trkpt lat="46.013725306838751" lon="8.537007942795754">
        <ele>1542.22</ele>
        <time>2019-10-13T08:38:59Z</time>
      </trkpt>
      <trkpt lat="46.013788925483823" lon="8.537046751007438">
        <ele>1543.5999999999999</ele>
        <time>2019-10-13T08:39:10Z</time>
      </trkpt>
      <trkpt lat="46.013880707323551" lon="8.537041554227471">
        <ele>1541.96</ele>
        <time>2019-10-13T08:39:21Z</time>
      </trkpt>
      <trkpt lat="46.013924712315202" lon="8.537050941959024">
        <ele>1541.54</ele>
        <time>2019-10-13T08:39:26Z</time>
      </trkpt>
      <trkpt lat="46.014082292094827" lon="8.537126043811441">
        <ele>1541.1600000000001</ele>
        <time>2019-10-13T08:39:42Z</time>
      </trkpt>
      <trkpt lat="46.014158232137561" lon="8.537182956933975">
        <ele>1541.7</ele>
        <time>2019-10-13T08:39:55Z</time>
      </trkpt>
      <trkpt lat="46.014183545485139" lon="8.537173653021455">
        <ele>1540.76</ele>
        <time>2019-10-13T08:39:59Z</time>
      </trkpt>
      <trkpt lat="46.01421338506043" lon="8.537169378250837">
        <ele>1539.96</ele>
        <time>2019-10-13T08:40:02Z</time>
      </trkpt>
      <trkpt lat="46.014372641220689" lon="8.53721053339541">
        <ele>1537.4300000000001</ele>
        <time>2019-10-13T08:40:20Z</time>
      </trkpt>
      <trkpt lat="46.01441471837461" lon="8.537233164533973">
        <ele>1536.53</ele>
        <time>2019-10-13T08:40:26Z</time>
      </trkpt>
      <trkpt lat="46.014579171314836" lon="8.53729066438973">
        <ele>1535.5899999999999</ele>
        <time>2019-10-13T08:40:41Z</time>
      </trkpt>
      <trkpt lat="46.014724178239703" lon="8.537314049899578">
        <ele>1536.5</ele>
        <time>2019-10-13T08:40:56Z</time>
      </trkpt>
      <trkpt lat="46.014746809378266" lon="8.537316480651498">
        <ele>1536.3499999999999</ele>
        <time>2019-10-13T08:41:07Z</time>
      </trkpt>
      <trkpt lat="46.014762902632356" lon="8.537317737936974">
        <ele>1536.3399999999999</ele>
        <time>2019-10-13T08:41:09Z</time>
      </trkpt>
      <trkpt lat="46.014906065538526" lon="8.537356797605753">
        <ele>1535.5</ele>
        <time>2019-10-13T08:41:22Z</time>
      </trkpt>
      <trkpt lat="46.014963062480092" lon="8.537388145923615">
        <ele>1534.75</ele>
        <time>2019-10-13T08:41:35Z</time>
      </trkpt>
      <trkpt lat="46.014981754124165" lon="8.53738353587687">
        <ele>1533.8099999999999</ele>
        <time>2019-10-13T08:41:39Z</time>
      </trkpt>
      <trkpt lat="46.015106979757547" lon="8.537392923608422">
        <ele>1533.1600000000001</ele>
        <time>2019-10-13T08:41:51Z</time>
      </trkpt>
      <trkpt lat="46.015160288661718" lon="8.537406921386719">
        <ele>1533.0599999999999</ele>
        <time>2019-10-13T08:42:05Z</time>
      </trkpt>
      <trkpt lat="46.015255758538842" lon="8.537453776225448">
        <ele>1534.46</ele>
        <time>2019-10-13T08:42:19Z</time>
      </trkpt>
      <trkpt lat="46.015299344435334" lon="8.537460984662175">
        <ele>1533.5699999999999</ele>
        <time>2019-10-13T08:42:31Z</time>
      </trkpt>
      <trkpt lat="46.015310157090425" lon="8.537446483969688">
        <ele>1533.0799999999999</ele>
        <time>2019-10-13T08:42:35Z</time>
      </trkpt>
      <trkpt lat="46.015343265607953" lon="8.53743776679039">
        <ele>1532.01</ele>
        <time>2019-10-13T08:42:38Z</time>
      </trkpt>
      <trkpt lat="46.015378218144178" lon="8.537438437342644">
        <ele>1531.5699999999999</ele>
        <time>2019-10-13T08:42:42Z</time>
      </trkpt>
      <trkpt lat="46.015506042167544" lon="8.537402814254165">
        <ele>1531.03</ele>
        <time>2019-10-13T08:42:55Z</time>
      </trkpt>
      <trkpt lat="46.015580389648676" lon="8.537381691858172">
        <ele>1530.6300000000001</ele>
        <time>2019-10-13T08:43:05Z</time>
      </trkpt>
      <trkpt lat="46.01569295860827" lon="8.53737523779273">
        <ele>1530.4100000000001</ele>
        <time>2019-10-13T08:43:19Z</time>
      </trkpt>
      <trkpt lat="46.015716847032309" lon="8.537380853667855">
        <ele>1531.0899999999999</ele>
        <time>2019-10-13T08:43:33Z</time>
      </trkpt>
      <trkpt lat="46.015790021046996" lon="8.537405245006084">
        <ele>1531.9100000000001</ele>
        <time>2019-10-13T08:43:45Z</time>
      </trkpt>
      <trkpt lat="46.015900075435638" lon="8.537465762346983">
        <ele>1531.28</ele>
        <time>2019-10-13T08:43:59Z</time>
      </trkpt>
      <trkpt lat="46.015957407653332" lon="8.53748613037169">
        <ele>1531.23</ele>
        <time>2019-10-13T08:44:10Z</time>
      </trkpt>
      <trkpt lat="46.015974255278707" lon="8.537485292181373">
        <ele>1531.3</ele>
        <time>2019-10-13T08:44:12Z</time>
      </trkpt>
      <trkpt lat="46.016003172844648" lon="8.537475317716599">
        <ele>1531.72</ele>
        <time>2019-10-13T08:44:15Z</time>
      </trkpt>
      <trkpt lat="46.01612295024097" lon="8.537463163957">
        <ele>1531.51</ele>
        <time>2019-10-13T08:44:29Z</time>
      </trkpt>
      <trkpt lat="46.016155388206244" lon="8.53747540153563">
        <ele>1530.9400000000001</ele>
        <time>2019-10-13T08:44:33Z</time>
      </trkpt>
      <trkpt lat="46.016173576936126" lon="8.537491662427783">
        <ele>1530.7</ele>
        <time>2019-10-13T08:44:45Z</time>
      </trkpt>
      <trkpt lat="46.016187071800232" lon="8.537503900006414">
        <ele>1530.75</ele>
        <time>2019-10-13T08:44:48Z</time>
      </trkpt>
      <trkpt lat="46.016205176711082" lon="8.537518149241805">
        <ele>1530.5699999999999</ele>
        <time>2019-10-13T08:44:50Z</time>
      </trkpt>
      <trkpt lat="46.016287822276354" lon="8.537559388205409">
        <ele>1530.23</ele>
        <time>2019-10-13T08:45:03Z</time>
      </trkpt>
      <trkpt lat="46.016337191686034" lon="8.537587719038129">
        <ele>1530.3399999999999</ele>
        <time>2019-10-13T08:45:16Z</time>
      </trkpt>
      <trkpt lat="46.016389830037951" lon="8.537619905546308">
        <ele>1530.78</ele>
        <time>2019-10-13T08:45:27Z</time>
      </trkpt>
      <trkpt lat="46.016457723453641" lon="8.537656534463167">
        <ele>1529.8499999999999</ele>
        <time>2019-10-13T08:45:34Z</time>
      </trkpt>
      <trkpt lat="46.016542464494705" lon="8.537678997963667">
        <ele>1529.24</ele>
        <time>2019-10-13T08:45:47Z</time>
      </trkpt>
      <trkpt lat="46.01658814586699" lon="8.537665084004402">
        <ele>1530.28</ele>
        <time>2019-10-13T08:46:00Z</time>
      </trkpt>
      <trkpt lat="46.016622511669993" lon="8.537652175873518">
        <ele>1531.76</ele>
        <time>2019-10-13T08:46:14Z</time>
      </trkpt>
      <trkpt lat="46.016633156687021" lon="8.537683272734284">
        <ele>1533.1800000000001</ele>
        <time>2019-10-13T08:46:27Z</time>
      </trkpt>
      <trkpt lat="46.016657883301377" lon="8.537680087611079">
        <ele>1534.3900000000001</ele>
        <time>2019-10-13T08:46:37Z</time>
      </trkpt>
      <trkpt lat="46.016674311831594" lon="8.537680925801396">
        <ele>1534.0699999999999</ele>
        <time>2019-10-13T08:46:49Z</time>
      </trkpt>
      <trkpt lat="46.016689231619239" lon="8.53769232518971">
        <ele>1533.75</ele>
        <time>2019-10-13T08:47:07Z</time>
      </trkpt>
      <trkpt lat="46.016702558845282" lon="8.537697773426771">
        <ele>1532.74</ele>
        <time>2019-10-13T08:47:18Z</time>
      </trkpt>
      <trkpt lat="46.016747737303376" lon="8.537713866680861">
        <ele>1530.71</ele>
        <time>2019-10-13T08:47:32Z</time>
      </trkpt>
      <trkpt lat="46.01680657826364" lon="8.537696432322264">
        <ele>1528.7</ele>
        <time>2019-10-13T08:47:37Z</time>
      </trkpt>
      <trkpt lat="46.016882099211216" lon="8.537709340453148">
        <ele>1527.48</ele>
        <time>2019-10-13T08:47:48Z</time>
      </trkpt>
      <trkpt lat="46.016901880502701" lon="8.537719398736954">
        <ele>1526.8900000000001</ele>
        <time>2019-10-13T08:47:52Z</time>
      </trkpt>
      <trkpt lat="46.016922248527408" lon="8.537724511697888">
        <ele>1526.21</ele>
        <time>2019-10-13T08:47:54Z</time>
      </trkpt>
      <trkpt lat="46.016963319852948" lon="8.53769525885582">
        <ele>1526.5599999999999</ele>
        <time>2019-10-13T08:47:59Z</time>
      </trkpt>
      <trkpt lat="46.017020316794515" lon="8.537605907768011">
        <ele>1526.1300000000001</ele>
        <time>2019-10-13T08:48:10Z</time>
      </trkpt>
      <trkpt lat="46.01707873865962" lon="8.537593754008412">
        <ele>1526.1900000000001</ele>
        <time>2019-10-13T08:48:21Z</time>
      </trkpt>
      <trkpt lat="46.017091479152441" lon="8.537606578320265">
        <ele>1525.79</ele>
        <time>2019-10-13T08:48:23Z</time>
      </trkpt>
      <trkpt lat="46.01714177057147" lon="8.537658378481865">
        <ele>1525.0699999999999</ele>
        <time>2019-10-13T08:48:30Z</time>
      </trkpt>
      <trkpt lat="46.01722776889801" lon="8.537679333239794">
        <ele>1525.6199999999999</ele>
        <time>2019-10-13T08:48:43Z</time>
      </trkpt>
      <trkpt lat="46.017280491068959" lon="8.537638178095222">
        <ele>1527.1900000000001</ele>
        <time>2019-10-13T08:48:55Z</time>
      </trkpt>
      <trkpt lat="46.017338242381811" lon="8.537637507542968">
        <ele>1525.5999999999999</ele>
        <time>2019-10-13T08:49:02Z</time>
      </trkpt>
      <trkpt lat="46.017453074455261" lon="8.537692492827773">
        <ele>1524.45</ele>
        <time>2019-10-13T08:49:16Z</time>
      </trkpt>
      <trkpt lat="46.017469251528382" lon="8.537688134238124">
        <ele>1524.28</ele>
        <time>2019-10-13T08:49:20Z</time>
      </trkpt>
      <trkpt lat="46.017572600394487" lon="8.537719314917922">
        <ele>1525.21</ele>
        <time>2019-10-13T08:49:32Z</time>
      </trkpt>
      <trkpt lat="46.017581820487976" lon="8.537719566375017">
        <ele>1525.1600000000001</ele>
        <time>2019-10-13T08:49:33Z</time>
      </trkpt>
      <trkpt lat="46.017627837136388" lon="8.537719985470176">
        <ele>1524.23</ele>
        <time>2019-10-13T08:49:37Z</time>
      </trkpt>
      <trkpt lat="46.017724815756083" lon="8.537735994905233">
        <ele>1522.45</ele>
        <time>2019-10-13T08:49:47Z</time>
      </trkpt>
      <trkpt lat="46.017745183780789" lon="8.53775586001575">
        <ele>1522.48</ele>
        <time>2019-10-13T08:49:59Z</time>
      </trkpt>
      <trkpt lat="46.017763037234545" lon="8.537753345444799">
        <ele>1522.55</ele>
        <time>2019-10-13T08:50:12Z</time>
      </trkpt>
      <trkpt lat="46.017781812697649" lon="8.537741526961327">
        <ele>1523.9300000000001</ele>
        <time>2019-10-13T08:50:26Z</time>
      </trkpt>
      <trkpt lat="46.01781458593905" lon="8.537759045138955">
        <ele>1525.4100000000001</ele>
        <time>2019-10-13T08:50:38Z</time>
      </trkpt>
      <trkpt lat="46.017828080803156" lon="8.537762816995382">
        <ele>1524.99</ele>
        <time>2019-10-13T08:50:55Z</time>
      </trkpt>
      <trkpt lat="46.017845179885626" lon="8.537753596901894">
        <ele>1523.5</ele>
        <time>2019-10-13T08:51:10Z</time>
      </trkpt>
      <trkpt lat="46.01786051876843" lon="8.537740604951978">
        <ele>1521.4000000000001</ele>
        <time>2019-10-13T08:51:24Z</time>
      </trkpt>
      <trkpt lat="46.01786445826292" lon="8.537738174200058">
        <ele>1520.95</ele>
        <time>2019-10-13T08:51:40Z</time>
      </trkpt>
      <trkpt lat="46.017878958955407" lon="8.537727613002062">
        <ele>1519.71</ele>
        <time>2019-10-13T08:51:57Z</time>
      </trkpt>
      <trkpt lat="46.017913660034537" lon="8.537703054025769">
        <ele>1519.71</ele>
        <time>2019-10-13T08:52:11Z</time>
      </trkpt>
      <trkpt lat="46.017922796308994" lon="8.53768352419138">
        <ele>1519.04</ele>
        <time>2019-10-13T08:52:19Z</time>
      </trkpt>
      <trkpt lat="46.017998484894633" lon="8.537650164216757">
        <ele>1519.1300000000001</ele>
        <time>2019-10-13T08:52:28Z</time>
      </trkpt>
      <trkpt lat="46.018058164045215" lon="8.537650248035789">
        <ele>1519.1500000000001</ele>
        <time>2019-10-13T08:52:41Z</time>
      </trkpt>
      <trkpt lat="46.018068809062243" lon="8.537651170045137">
        <ele>1518.9100000000001</ele>
        <time>2019-10-13T08:53:00Z</time>
      </trkpt>
      <trkpt lat="46.018072916194797" lon="8.537659635767341">
        <ele>1519.1099999999999</ele>
        <time>2019-10-13T08:53:15Z</time>
      </trkpt>
      <trkpt lat="46.01809605024755" lon="8.537686793133616">
        <ele>1519.1700000000001</ele>
        <time>2019-10-13T08:53:29Z</time>
      </trkpt>
      <trkpt lat="46.018119771033525" lon="8.537675477564335">
        <ele>1518.04</ele>
        <time>2019-10-13T08:53:45Z</time>
      </trkpt>
      <trkpt lat="46.018153298646212" lon="8.537662737071514">
        <ele>1517.3699999999999</ele>
        <time>2019-10-13T08:53:50Z</time>
      </trkpt>
      <trkpt lat="46.018235692754388" lon="8.537676064297557">
        <ele>1517.1199999999999</ele>
        <time>2019-10-13T08:54:00Z</time>
      </trkpt>
      <trkpt lat="46.018289672210813" lon="8.537760302424431">
        <ele>1516.1300000000001</ele>
        <time>2019-10-13T08:54:12Z</time>
      </trkpt>
      <trkpt lat="46.018295791000128" lon="8.537764577195048">
        <ele>1515.8299999999999</ele>
        <time>2019-10-13T08:54:13Z</time>
      </trkpt>
      <trkpt lat="46.018335521221161" lon="8.53780422359705">
        <ele>1515.46</ele>
        <time>2019-10-13T08:54:25Z</time>
      </trkpt>
      <trkpt lat="46.018369887024164" lon="8.537787543609738">
        <ele>1513.2</ele>
        <time>2019-10-13T08:54:37Z</time>
      </trkpt>
      <trkpt lat="46.018393859267235" lon="8.53778469376266">
        <ele>1512.6600000000001</ele>
        <time>2019-10-13T08:54:41Z</time>
      </trkpt>
      <trkpt lat="46.018475750461221" lon="8.537790141999722">
        <ele>1513.8699999999999</ele>
        <time>2019-10-13T08:54:54Z</time>
      </trkpt>
      <trkpt lat="46.018522521480918" lon="8.537775473669171">
        <ele>1516.1800000000001</ele>
        <time>2019-10-13T08:55:06Z</time>
      </trkpt>
      <trkpt lat="46.018540123477578" lon="8.537803301587701">
        <ele>1517.6099999999999</ele>
        <time>2019-10-13T08:55:21Z</time>
      </trkpt>
      <trkpt lat="46.018586559221148" lon="8.5378188919276">
        <ele>1518.1800000000001</ele>
        <time>2019-10-13T08:55:34Z</time>
      </trkpt>
      <trkpt lat="46.018597958609462" lon="8.537821993231773">
        <ele>1518.0999999999999</ele>
        <time>2019-10-13T08:55:35Z</time>
      </trkpt>
      <trkpt lat="46.018685046583414" lon="8.537919893860817">
        <ele>1518.0899999999999</ele>
        <time>2019-10-13T08:55:48Z</time>
      </trkpt>
      <trkpt lat="46.018750006332994" lon="8.537972029298544">
        <ele>1516.96</ele>
        <time>2019-10-13T08:55:55Z</time>
      </trkpt>
      <trkpt lat="46.018883027136326" lon="8.537993738427758">
        <ele>1515.9000000000001</ele>
        <time>2019-10-13T08:56:09Z</time>
      </trkpt>
      <trkpt lat="46.018958548083901" lon="8.538036067038775">
        <ele>1517.21</ele>
        <time>2019-10-13T08:56:20Z</time>
      </trkpt>
      <trkpt lat="46.01898243650794" lon="8.538051154464483">
        <ele>1516.5799999999999</ele>
        <time>2019-10-13T08:56:23Z</time>
      </trkpt>
      <trkpt lat="46.019073631614447" lon="8.538107732310891">
        <ele>1517.0999999999999</ele>
        <time>2019-10-13T08:56:35Z</time>
      </trkpt>
      <trkpt lat="46.019129287451506" lon="8.538135141134262">
        <ele>1516.8</ele>
        <time>2019-10-13T08:56:43Z</time>
      </trkpt>
      <trkpt lat="46.019157450646162" lon="8.538159029558301">
        <ele>1516.3599999999999</ele>
        <time>2019-10-13T08:56:47Z</time>
      </trkpt>
      <trkpt lat="46.019186116755009" lon="8.538170261308551">
        <ele>1515.75</ele>
        <time>2019-10-13T08:56:50Z</time>
      </trkpt>
      <trkpt lat="46.01926582865417" lon="8.538157604634762">
        <ele>1515.53</ele>
        <time>2019-10-13T08:57:02Z</time>
      </trkpt>
      <trkpt lat="46.019310671836138" lon="8.538160203024745">
        <ele>1515.6900000000001</ele>
        <time>2019-10-13T08:57:12Z</time>
      </trkpt>
      <trkpt lat="46.019352162256837" lon="8.538162549957633">
        <ele>1517.01</ele>
        <time>2019-10-13T08:57:27Z</time>
      </trkpt>
      <trkpt lat="46.019368255510926" lon="8.538162801414728">
        <ele>1516.2</ele>
        <time>2019-10-13T08:57:34Z</time>
      </trkpt>
      <trkpt lat="46.019450984895229" lon="8.538190880790353">
        <ele>1516.0599999999999</ele>
        <time>2019-10-13T08:57:45Z</time>
      </trkpt>
      <trkpt lat="46.01946422830224" lon="8.538199597969651">
        <ele>1515.8499999999999</ele>
        <time>2019-10-13T08:57:46Z</time>
      </trkpt>
      <trkpt lat="46.019528182223439" lon="8.538252823054791">
        <ele>1515.6900000000001</ele>
        <time>2019-10-13T08:57:53Z</time>
      </trkpt>
      <trkpt lat="46.019692132249475" lon="8.538309317082167">
        <ele>1515.6300000000001</ele>
        <time>2019-10-13T08:58:09Z</time>
      </trkpt>
      <trkpt lat="46.019721804186702" lon="8.5382972471416">
        <ele>1515.3599999999999</ele>
        <time>2019-10-13T08:58:14Z</time>
      </trkpt>
      <trkpt lat="46.019771508872509" lon="8.538293978199363">
        <ele>1514.3</ele>
        <time>2019-10-13T08:58:19Z</time>
      </trkpt>
      <trkpt lat="46.019891873002052" lon="8.538330104202032">
        <ele>1514.1300000000001</ele>
        <time>2019-10-13T08:58:34Z</time>
      </trkpt>
      <trkpt lat="46.019960353150964" lon="8.538350723683834">
        <ele>1514.8699999999999</ele>
        <time>2019-10-13T08:58:48Z</time>
      </trkpt>
      <trkpt lat="46.019962197169662" lon="8.53836664929986">
        <ele>1515.23</ele>
        <time>2019-10-13T08:59:08Z</time>
      </trkpt>
      <trkpt lat="46.020007375627756" lon="8.53834661655128">
        <ele>1515.28</ele>
        <time>2019-10-13T08:59:25Z</time>
      </trkpt>
      <trkpt lat="46.020032186061144" lon="8.538330271840096">
        <ele>1515.49</ele>
        <time>2019-10-13T08:59:38Z</time>
      </trkpt>
      <trkpt lat="46.020048949867487" lon="8.538327002897859">
        <ele>1515.6300000000001</ele>
        <time>2019-10-13T08:59:51Z</time>
      </trkpt>
      <trkpt lat="46.020123716443777" lon="8.538289703428745">
        <ele>1518.02</ele>
        <time>2019-10-13T09:00:05Z</time>
      </trkpt>
      <trkpt lat="46.020185742527246" lon="8.538253828883171">
        <ele>1518.73</ele>
        <time>2019-10-13T09:00:17Z</time>
      </trkpt>
      <trkpt lat="46.020234022289515" lon="8.538194568827748">
        <ele>1520.1300000000001</ele>
        <time>2019-10-13T09:00:29Z</time>
      </trkpt>
      <trkpt lat="46.020261431112885" lon="8.538149055093527">
        <ele>1521.01</ele>
        <time>2019-10-13T09:00:40Z</time>
      </trkpt>
      <trkpt lat="46.020292779430747" lon="8.538105636835098">
        <ele>1521.75</ele>
        <time>2019-10-13T09:00:50Z</time>
      </trkpt>
      <trkpt lat="46.020326055586338" lon="8.538100104779005">
        <ele>1523.21</ele>
        <time>2019-10-13T09:01:01Z</time>
      </trkpt>
      <trkpt lat="46.020391182973981" lon="8.538114186376333">
        <ele>1525.3499999999999</ele>
        <time>2019-10-13T09:01:14Z</time>
      </trkpt>
      <trkpt lat="46.020439546555281" lon="8.538140589371324">
        <ele>1527.3900000000001</ele>
        <time>2019-10-13T09:01:27Z</time>
      </trkpt>
      <trkpt lat="46.020472319796681" lon="8.538163304328919">
        <ele>1528.0699999999999</ele>
        <time>2019-10-13T09:01:39Z</time>
      </trkpt>
      <trkpt lat="46.020488329231739" lon="8.5381780564785">
        <ele>1529.7</ele>
        <time>2019-10-13T09:01:52Z</time>
      </trkpt>
      <trkpt lat="46.020506015047431" lon="8.53819465264678">
        <ele>1530.53</ele>
        <time>2019-10-13T09:02:01Z</time>
      </trkpt>
      <trkpt lat="46.020507859066129" lon="8.538200855255127">
        <ele>1530.5999999999999</ele>
        <time>2019-10-13T09:02:25Z</time>
      </trkpt>
      <trkpt lat="46.020510625094175" lon="8.53819171898067">
        <ele>1530.51</ele>
        <time>2019-10-13T09:02:52Z</time>
      </trkpt>
      <trkpt lat="46.020504841580987" lon="8.538178475573659">
        <ele>1530.3800000000001</ele>
        <time>2019-10-13T09:03:16Z</time>
      </trkpt>
      <trkpt lat="46.020526718348265" lon="8.538161208853126">
        <ele>1529.6600000000001</ele>
        <time>2019-10-13T09:03:31Z</time>
      </trkpt>
      <trkpt lat="46.020646244287491" lon="8.53810865432024">
        <ele>1530.4400000000001</ele>
        <time>2019-10-13T09:03:45Z</time>
      </trkpt>
      <trkpt lat="46.020705169066787" lon="8.538096500560641">
        <ele>1533.1099999999999</ele>
        <time>2019-10-13T09:03:58Z</time>
      </trkpt>
      <trkpt lat="46.020755292847753" lon="8.538059871643782">
        <ele>1534.6700000000001</ele>
        <time>2019-10-13T09:04:09Z</time>
      </trkpt>
      <trkpt lat="46.020820923149586" lon="8.538041263818741">
        <ele>1537.1400000000001</ele>
        <time>2019-10-13T09:04:22Z</time>
      </trkpt>
      <trkpt lat="46.02087046019733" lon="8.538013687357307">
        <ele>1539.78</ele>
        <time>2019-10-13T09:04:35Z</time>
      </trkpt>
      <trkpt lat="46.020903987810016" lon="8.537984937429428">
        <ele>1541.5</ele>
        <time>2019-10-13T09:04:46Z</time>
      </trkpt>
      <trkpt lat="46.020938772708178" lon="8.537952918559313">
        <ele>1543.4200000000001</ele>
        <time>2019-10-13T09:04:57Z</time>
      </trkpt>
      <trkpt lat="46.020986633375287" lon="8.537942441180348">
        <ele>1546.01</ele>
        <time>2019-10-13T09:05:10Z</time>
      </trkpt>
      <trkpt lat="46.021065339446068" lon="8.537995247170329">
        <ele>1547.51</ele>
        <time>2019-10-13T09:05:23Z</time>
      </trkpt>
      <trkpt lat="46.021113954484463" lon="8.537997175008059">
        <ele>1548.95</ele>
        <time>2019-10-13T09:05:34Z</time>
      </trkpt>
      <trkpt lat="46.02117732167244" lon="8.538000527769327">
        <ele>1551.51</ele>
        <time>2019-10-13T09:05:49Z</time>
      </trkpt>
      <trkpt lat="46.021220739930868" lon="8.538015950471163">
        <ele>1552.5</ele>
        <time>2019-10-13T09:05:59Z</time>
      </trkpt>
      <trkpt lat="46.021290477365255" lon="8.538044365122914">
        <ele>1553.8</ele>
        <time>2019-10-13T09:06:12Z</time>
      </trkpt>
      <trkpt lat="46.021340014412999" lon="8.538034642115235">
        <ele>1556.77</ele>
        <time>2019-10-13T09:06:27Z</time>
      </trkpt>
      <trkpt lat="46.021375302225351" lon="8.538040006533265">
        <ele>1557.6700000000001</ele>
        <time>2019-10-13T09:06:38Z</time>
      </trkpt>
      <trkpt lat="46.021431628614664" lon="8.538024667650461">
        <ele>1559.01</ele>
        <time>2019-10-13T09:06:50Z</time>
      </trkpt>
      <trkpt lat="46.021486613899469" lon="8.537980495020747">
        <ele>1561.6099999999999</ele>
        <time>2019-10-13T09:07:03Z</time>
      </trkpt>
      <trkpt lat="46.021553501486778" lon="8.537944201380014">
        <ele>1564.0599999999999</ele>
        <time>2019-10-13T09:07:16Z</time>
      </trkpt>
      <trkpt lat="46.021557357162237" lon="8.537937998771668">
        <ele>1564.3900000000001</ele>
        <time>2019-10-13T09:07:31Z</time>
      </trkpt>
      <trkpt lat="46.021566744893789" lon="8.537936406210065">
        <ele>1564.8599999999999</ele>
        <time>2019-10-13T09:07:49Z</time>
      </trkpt>
      <trkpt lat="46.021576384082437" lon="8.537938250228763">
        <ele>1565.2</ele>
        <time>2019-10-13T09:08:05Z</time>
      </trkpt>
      <trkpt lat="46.021586861461401" lon="8.537942189723253">
        <ele>1565.3</ele>
        <time>2019-10-13T09:08:24Z</time>
      </trkpt>
      <trkpt lat="46.021583592519164" lon="8.537942357361317">
        <ele>1564.9200000000001</ele>
        <time>2019-10-13T09:08:53Z</time>
      </trkpt>
      <trkpt lat="46.0216508153826" lon="8.537961971014738">
        <ele>1565.8299999999999</ele>
        <time>2019-10-13T09:09:07Z</time>
      </trkpt>
      <trkpt lat="46.021669507026672" lon="8.537950906902552">
        <ele>1567.71</ele>
        <time>2019-10-13T09:09:19Z</time>
      </trkpt>
      <trkpt lat="46.021694904193282" lon="8.537929281592369">
        <ele>1570.01</ele>
        <time>2019-10-13T09:09:32Z</time>
      </trkpt>
      <trkpt lat="46.021767156198621" lon="8.537967503070831">
        <ele>1570.4000000000001</ele>
        <time>2019-10-13T09:09:45Z</time>
      </trkpt>
      <trkpt lat="46.021785261109471" lon="8.537977561354637">
        <ele>1570.0699999999999</ele>
        <time>2019-10-13T09:09:59Z</time>
      </trkpt>
      <trkpt lat="46.021798253059387" lon="8.537986110895872">
        <ele>1570.0899999999999</ele>
        <time>2019-10-13T09:10:20Z</time>
      </trkpt>
      <trkpt lat="46.021833205595613" lon="8.537968089804053">
        <ele>1572.1500000000001</ele>
        <time>2019-10-13T09:10:31Z</time>
      </trkpt>
      <trkpt lat="46.021861871704459" lon="8.537945793941617">
        <ele>1574.55</ele>
        <time>2019-10-13T09:10:44Z</time>
      </trkpt>
      <trkpt lat="46.021862709894776" lon="8.537927772849798">
        <ele>1575.6700000000001</ele>
        <time>2019-10-13T09:10:56Z</time>
      </trkpt>
      <trkpt lat="46.02188584394753" lon="8.537935148924589">
        <ele>1576.75</ele>
        <time>2019-10-13T09:11:06Z</time>
      </trkpt>
      <trkpt lat="46.021939152851701" lon="8.537961216643453">
        <ele>1575.7</ele>
        <time>2019-10-13T09:11:17Z</time>
      </trkpt>
      <trkpt lat="46.021960778161883" lon="8.537954930216074">
        <ele>1576.02</ele>
        <time>2019-10-13T09:11:27Z</time>
      </trkpt>
      <trkpt lat="46.021976955235004" lon="8.537954511120915">
        <ele>1575.6900000000001</ele>
        <time>2019-10-13T09:11:29Z</time>
      </trkpt>
      <trkpt lat="46.022061612457037" lon="8.537954175844789">
        <ele>1577.27</ele>
        <time>2019-10-13T09:11:42Z</time>
      </trkpt>
      <trkpt lat="46.022092625498772" lon="8.53794009424746">
        <ele>1578.5599999999999</ele>
        <time>2019-10-13T09:11:54Z</time>
      </trkpt>
      <trkpt lat="46.022138893604279" lon="8.537935651838779">
        <ele>1581.03</ele>
        <time>2019-10-13T09:12:07Z</time>
      </trkpt>
      <trkpt lat="46.022196728736162" lon="8.53794738650322">
        <ele>1579.6600000000001</ele>
        <time>2019-10-13T09:12:20Z</time>
      </trkpt>
      <trkpt lat="46.022209385409951" lon="8.537955181673169">
        <ele>1579.5699999999999</ele>
        <time>2019-10-13T09:12:33Z</time>
      </trkpt>
      <trkpt lat="46.022209720686078" lon="8.537956774234772">
        <ele>1579.4000000000001</ele>
        <time>2019-10-13T09:12:55Z</time>
      </trkpt>
      <trkpt lat="46.022214498370886" lon="8.537958450615406">
        <ele>1579.28</ele>
        <time>2019-10-13T09:13:08Z</time>
      </trkpt>
      <trkpt lat="46.022233860567212" lon="8.537958785891533">
        <ele>1580.3099999999999</ele>
        <time>2019-10-13T09:13:23Z</time>
      </trkpt>
      <trkpt lat="46.022247103974223" lon="8.537954762578011">
        <ele>1580.6600000000001</ele>
        <time>2019-10-13T09:13:34Z</time>
      </trkpt>
      <trkpt lat="46.022260263562202" lon="8.537940680980682">
        <ele>1581.8</ele>
        <time>2019-10-13T09:13:53Z</time>
      </trkpt>
      <trkpt lat="46.022267891094089" lon="8.537908997386694">
        <ele>1583.4200000000001</ele>
        <time>2019-10-13T09:14:03Z</time>
      </trkpt>
      <trkpt lat="46.022301502525806" lon="8.537906901910901">
        <ele>1584.5</ele>
        <time>2019-10-13T09:14:16Z</time>
      </trkpt>
      <trkpt lat="46.022332431748509" lon="8.537911428138614">
        <ele>1585.3199999999999</ele>
        <time>2019-10-13T09:14:27Z</time>
      </trkpt>
      <trkpt lat="46.022369563579559" lon="8.537924084812403">
        <ele>1584.24</ele>
        <time>2019-10-13T09:14:40Z</time>
      </trkpt>
      <trkpt lat="46.022443659603596" lon="8.537938250228763">
        <ele>1584.2</ele>
        <time>2019-10-13T09:14:53Z</time>
      </trkpt>
      <trkpt lat="46.022512977942824" lon="8.537944871932268">
        <ele>1586.0899999999999</ele>
        <time>2019-10-13T09:15:08Z</time>
      </trkpt>
      <trkpt lat="46.022526221349835" lon="8.537951828911901">
        <ele>1585.6500000000001</ele>
        <time>2019-10-13T09:15:23Z</time>
      </trkpt>
      <trkpt lat="46.022529155015945" lon="8.537948643788695">
        <ele>1585.5999999999999</ele>
        <time>2019-10-13T09:15:38Z</time>
      </trkpt>
      <trkpt lat="46.022575926035643" lon="8.537948559969664">
        <ele>1585.3099999999999</ele>
        <time>2019-10-13T09:16:03Z</time>
      </trkpt>
      <trkpt lat="46.022639712318778" lon="8.537946213036776">
        <ele>1583.1300000000001</ele>
        <time>2019-10-13T09:16:13Z</time>
      </trkpt>
      <trkpt lat="46.022671479731798" lon="8.53792148642242">
        <ele>1583.3900000000001</ele>
        <time>2019-10-13T09:16:26Z</time>
      </trkpt>
      <trkpt lat="46.022676257416606" lon="8.53791662491858">
        <ele>1584.9000000000001</ele>
        <time>2019-10-13T09:16:38Z</time>
      </trkpt>
      <trkpt lat="46.022702241316438" lon="8.537939758971334">
        <ele>1585.8</ele>
        <time>2019-10-13T09:16:52Z</time>
      </trkpt>
      <trkpt lat="46.022707773372531" lon="8.53794202208519">
        <ele>1585.6199999999999</ele>
        <time>2019-10-13T09:16:53Z</time>
      </trkpt>
      <trkpt lat="46.022776924073696" lon="8.537957696244121">
        <ele>1586.47</ele>
        <time>2019-10-13T09:17:03Z</time>
      </trkpt>
      <trkpt lat="46.022853367030621" lon="8.537925593554974">
        <ele>1588.25</ele>
        <time>2019-10-13T09:17:16Z</time>
      </trkpt>
      <trkpt lat="46.022931402549148" lon="8.537911009043455">
        <ele>1587.98</ele>
        <time>2019-10-13T09:17:29Z</time>
      </trkpt>
      <trkpt lat="46.022955877706409" lon="8.537908410653472">
        <ele>1588.46</ele>
        <time>2019-10-13T09:17:40Z</time>
      </trkpt>
      <trkpt lat="46.022989489138126" lon="8.537915283814073">
        <ele>1591</ele>
        <time>2019-10-13T09:17:53Z</time>
      </trkpt>
      <trkpt lat="46.02303558960557" lon="8.53798158466816">
        <ele>1592.73</ele>
        <time>2019-10-13T09:18:07Z</time>
      </trkpt>
      <trkpt lat="46.023072889074683" lon="8.538060793653131">
        <ele>1594.45</ele>
        <time>2019-10-13T09:18:19Z</time>
      </trkpt>
      <trkpt lat="46.02314991876483" lon="8.53816045448184">
        <ele>1596.04</ele>
        <time>2019-10-13T09:18:34Z</time>
      </trkpt>
      <trkpt lat="46.023273887112737" lon="8.538203118368983">
        <ele>1595.7</ele>
        <time>2019-10-13T09:18:49Z</time>
      </trkpt>
      <trkpt lat="46.023356029763818" lon="8.538238573819399">
        <ele>1596.6800000000001</ele>
        <time>2019-10-13T09:19:01Z</time>
      </trkpt>
      <trkpt lat="46.023367177695036" lon="8.538233963772655">
        <ele>1597.49</ele>
        <time>2019-10-13T09:19:13Z</time>
      </trkpt>
      <trkpt lat="46.023375140503049" lon="8.538237232714891">
        <ele>1597.4300000000001</ele>
        <time>2019-10-13T09:19:34Z</time>
      </trkpt>
      <trkpt lat="46.023397352546453" lon="8.538234550505877">
        <ele>1597.77</ele>
        <time>2019-10-13T09:19:59Z</time>
      </trkpt>
      <trkpt lat="46.02345485240221" lon="8.538212422281504">
        <ele>1599.96</ele>
        <time>2019-10-13T09:20:15Z</time>
      </trkpt>
      <trkpt lat="46.023475555703044" lon="8.538148552179337">
        <ele>1602.6400000000001</ele>
        <time>2019-10-13T09:20:28Z</time>
      </trkpt>
      <trkpt lat="46.02352031506598" lon="8.538131872192025">
        <ele>1602.4000000000001</ele>
        <time>2019-10-13T09:20:40Z</time>
      </trkpt>
      <trkpt lat="46.02357504889369" lon="8.538033720105887">
        <ele>1602.95</ele>
        <time>2019-10-13T09:20:53Z</time>
      </trkpt>
      <trkpt lat="46.023620143532753" lon="8.53798502124846">
        <ele>1602.1400000000001</ele>
        <time>2019-10-13T09:21:06Z</time>
      </trkpt>
      <trkpt lat="46.023652413859963" lon="8.537936741486192">
        <ele>1601.52</ele>
        <time>2019-10-13T09:21:18Z</time>
      </trkpt>
      <trkpt lat="46.023670183494687" lon="8.537907740101218">
        <ele>1601.9400000000001</ele>
        <time>2019-10-13T09:21:29Z</time>
      </trkpt>
      <trkpt lat="46.023682840168476" lon="8.537885947152972">
        <ele>1601.22</ele>
        <time>2019-10-13T09:21:45Z</time>
      </trkpt>
      <trkpt lat="46.023701196536422" lon="8.537893490865827">
        <ele>1600.3800000000001</ele>
        <time>2019-10-13T09:21:55Z</time>
      </trkpt>
      <trkpt lat="46.023739837110043" lon="8.537839679047465">
        <ele>1600.77</ele>
        <time>2019-10-13T09:22:06Z</time>
      </trkpt>
      <trkpt lat="46.023797672241926" lon="8.537785951048136">
        <ele>1602.1400000000001</ele>
        <time>2019-10-13T09:22:19Z</time>
      </trkpt>
      <trkpt lat="46.02380664087832" lon="8.537769941613078">
        <ele>1602.4200000000001</ele>
        <time>2019-10-13T09:22:33Z</time>
      </trkpt>
      <trkpt lat="46.023799516260624" lon="8.5377636551857">
        <ele>1602.54</ele>
        <time>2019-10-13T09:22:54Z</time>
      </trkpt>
      <trkpt lat="46.023821393027902" lon="8.537739682942629">
        <ele>1603.1300000000001</ele>
        <time>2019-10-13T09:23:05Z</time>
      </trkpt>
      <trkpt lat="46.023843269795179" lon="8.537733899429441">
        <ele>1603.51</ele>
        <time>2019-10-13T09:23:17Z</time>
      </trkpt>
      <trkpt lat="46.023860536515713" lon="8.537751585245132">
        <ele>1603.4300000000001</ele>
        <time>2019-10-13T09:23:31Z</time>
      </trkpt>
      <trkpt lat="46.023899260908365" lon="8.53776122443378">
        <ele>1603.98</ele>
        <time>2019-10-13T09:23:43Z</time>
      </trkpt>
      <trkpt lat="46.023936225101352" lon="8.537752088159323">
        <ele>1604.1099999999999</ele>
        <time>2019-10-13T09:23:53Z</time>
      </trkpt>
      <trkpt lat="46.023962460458279" lon="8.53775586001575">
        <ele>1604.1900000000001</ele>
        <time>2019-10-13T09:23:56Z</time>
      </trkpt>
      <trkpt lat="46.024014428257942" lon="8.537839846685529">
        <ele>1604.99</ele>
        <time>2019-10-13T09:24:08Z</time>
      </trkpt>
      <trkpt lat="46.024039573967457" lon="8.537856191396713">
        <ele>1605.9400000000001</ele>
        <time>2019-10-13T09:24:23Z</time>
      </trkpt>
      <trkpt lat="46.024080477654934" lon="8.537919139489532">
        <ele>1608.3199999999999</ele>
        <time>2019-10-13T09:24:38Z</time>
      </trkpt>
      <trkpt lat="46.024113334715366" lon="8.537958953529596">
        <ele>1608.23</ele>
        <time>2019-10-13T09:24:43Z</time>
      </trkpt>
      <trkpt lat="46.02418533526361" lon="8.538007400929928">
        <ele>1608.97</ele>
        <time>2019-10-13T09:24:56Z</time>
      </trkpt>
      <trkpt lat="46.024212576448917" lon="8.538002204149962">
        <ele>1610.8599999999999</ele>
        <time>2019-10-13T09:25:06Z</time>
      </trkpt>
      <trkpt lat="46.024248953908682" lon="8.53802802041173">
        <ele>1611.0899999999999</ele>
        <time>2019-10-13T09:25:18Z</time>
      </trkpt>
      <trkpt lat="46.024307627230883" lon="8.53805735707283">
        <ele>1611.3</ele>
        <time>2019-10-13T09:25:30Z</time>
      </trkpt>
      <trkpt lat="46.024327911436558" lon="8.538062805309892">
        <ele>1612.3800000000001</ele>
        <time>2019-10-13T09:25:41Z</time>
      </trkpt>
      <trkpt lat="46.02437837049365" lon="8.538090214133263">
        <ele>1614.5899999999999</ele>
        <time>2019-10-13T09:25:52Z</time>
      </trkpt>
      <trkpt lat="46.024461602792144" lon="8.538108989596367">
        <ele>1615.54</ele>
        <time>2019-10-13T09:26:05Z</time>
      </trkpt>
      <trkpt lat="46.024538464844227" lon="8.538164226338267">
        <ele>1615.8900000000001</ele>
        <time>2019-10-13T09:26:19Z</time>
      </trkpt>
      <trkpt lat="46.02454349398613" lon="8.538181744515896">
        <ele>1615.6500000000001</ele>
        <time>2019-10-13T09:26:39Z</time>
      </trkpt>
      <trkpt lat="46.02457232773304" lon="8.538192724809051">
        <ele>1615.8599999999999</ele>
        <time>2019-10-13T09:27:17Z</time>
      </trkpt>
      <trkpt lat="46.024617422372103" lon="8.538174787536264">
        <ele>1618.96</ele>
        <time>2019-10-13T09:27:31Z</time>
      </trkpt>
      <trkpt lat="46.02468523196876" lon="8.538198340684176">
        <ele>1621.22</ele>
        <time>2019-10-13T09:27:43Z</time>
      </trkpt>
      <trkpt lat="46.024725884199142" lon="8.538190880790353">
        <ele>1622.6400000000001</ele>
        <time>2019-10-13T09:27:55Z</time>
      </trkpt>
      <trkpt lat="46.024774247780442" lon="8.538195658475161">
        <ele>1624.4400000000001</ele>
        <time>2019-10-13T09:28:06Z</time>
      </trkpt>
      <trkpt lat="46.024826969951391" lon="8.538200771436095">
        <ele>1626.73</ele>
        <time>2019-10-13T09:28:20Z</time>
      </trkpt>
      <trkpt lat="46.024838117882609" lon="8.538174955174327">
        <ele>1627.96</ele>
        <time>2019-10-13T09:28:33Z</time>
      </trkpt>
      <trkpt lat="46.024879608303308" lon="8.538162801414728">
        <ele>1630.01</ele>
        <time>2019-10-13T09:28:46Z</time>
      </trkpt>
      <trkpt lat="46.02493149228394" lon="8.538156347349286">
        <ele>1631.8800000000001</ele>
        <time>2019-10-13T09:28:58Z</time>
      </trkpt>
      <trkpt lat="46.024991255253553" lon="8.538149893283844">
        <ele>1634.6500000000001</ele>
        <time>2019-10-13T09:29:11Z</time>
      </trkpt>
      <trkpt lat="46.025023525580764" lon="8.538131704553962">
        <ele>1636.1400000000001</ele>
        <time>2019-10-13T09:29:21Z</time>
      </trkpt>
      <trkpt lat="46.025075074285269" lon="8.538138577714562">
        <ele>1637.72</ele>
        <time>2019-10-13T09:29:34Z</time>
      </trkpt>
      <trkpt lat="46.025127209722996" lon="8.538135811686516">
        <ele>1639.8299999999999</ele>
        <time>2019-10-13T09:29:47Z</time>
      </trkpt>
      <trkpt lat="46.025133999064565" lon="8.538141762837768">
        <ele>1639.8699999999999</ele>
        <time>2019-10-13T09:30:02Z</time>
      </trkpt>
      <trkpt lat="46.025172891095281" lon="8.538138996809721">
        <ele>1641.9400000000001</ele>
        <time>2019-10-13T09:30:17Z</time>
      </trkpt>
      <trkpt lat="46.025252686813474" lon="8.5381228197366">
        <ele>1644.5999999999999</ele>
        <time>2019-10-13T09:30:31Z</time>
      </trkpt>
      <trkpt lat="46.025293758139014" lon="8.538104128092527">
        <ele>1646.0999999999999</ele>
        <time>2019-10-13T09:30:45Z</time>
      </trkpt>
      <trkpt lat="46.025326531380415" lon="8.538086609914899">
        <ele>1647.5799999999999</ele>
        <time>2019-10-13T09:30:58Z</time>
      </trkpt>
      <trkpt lat="46.0253497492522" lon="8.53809054940939">
        <ele>1647.97</ele>
        <time>2019-10-13T09:31:11Z</time>
      </trkpt>
      <trkpt lat="46.025362070649862" lon="8.53806221857667">
        <ele>1650.29</ele>
        <time>2019-10-13T09:31:23Z</time>
      </trkpt>
      <trkpt lat="46.025399956852198" lon="8.538057105615735">
        <ele>1652.24</ele>
        <time>2019-10-13T09:31:35Z</time>
      </trkpt>
      <trkpt lat="46.025433987379074" lon="8.538029612973332">
        <ele>1653.78</ele>
        <time>2019-10-13T09:31:46Z</time>
      </trkpt>
      <trkpt lat="46.025444716215134" lon="8.538021566346288">
        <ele>1654.4000000000001</ele>
        <time>2019-10-13T09:32:00Z</time>
      </trkpt>
      <trkpt lat="46.025454355403781" lon="8.538024500012398">
        <ele>1654.6400000000001</ele>
        <time>2019-10-13T09:32:20Z</time>
      </trkpt>
      <trkpt lat="46.025464413687587" lon="8.537997091189027">
        <ele>1655.6800000000001</ele>
        <time>2019-10-13T09:32:33Z</time>
      </trkpt>
      <trkpt lat="46.025493834167719" lon="8.537979070097208">
        <ele>1656</ele>
        <time>2019-10-13T09:32:46Z</time>
      </trkpt>
      <trkpt lat="46.025559548288584" lon="8.537950571626425">
        <ele>1655.26</ele>
        <time>2019-10-13T09:32:56Z</time>
      </trkpt>
      <trkpt lat="46.02563314139843" lon="8.53787706233561">
        <ele>1658.1800000000001</ele>
        <time>2019-10-13T09:33:12Z</time>
      </trkpt>
      <trkpt lat="46.025670440867543" lon="8.537779580801725">
        <ele>1659.75</ele>
        <time>2019-10-13T09:33:25Z</time>
      </trkpt>
      <trkpt lat="46.025692233815789" lon="8.537676399573684">
        <ele>1660.4300000000001</ele>
        <time>2019-10-13T09:33:40Z</time>
      </trkpt>
      <trkpt lat="46.025701370090246" lon="8.537600794807077">
        <ele>1660.95</ele>
        <time>2019-10-13T09:33:51Z</time>
      </trkpt>
      <trkpt lat="46.02570447139442" lon="8.537567602470517">
        <ele>1661.55</ele>
        <time>2019-10-13T09:34:04Z</time>
      </trkpt>
      <trkpt lat="46.025703381747007" lon="8.537569362670183">
        <ele>1661.23</ele>
        <time>2019-10-13T09:34:24Z</time>
      </trkpt>
      <trkpt lat="46.025699023157358" lon="8.537570703774691">
        <ele>1660.53</ele>
        <time>2019-10-13T09:34:35Z</time>
      </trkpt>
      <trkpt lat="46.025695335119963" lon="8.537574727088213">
        <ele>1661.6600000000001</ele>
        <time>2019-10-13T09:34:57Z</time>
      </trkpt>
      <trkpt lat="46.025699526071548" lon="8.537568356841803">
        <ele>1661.3499999999999</ele>
        <time>2019-10-13T09:35:19Z</time>
      </trkpt>
      <trkpt lat="46.025708997622132" lon="8.537524184212089">
        <ele>1661.8800000000001</ele>
        <time>2019-10-13T09:35:33Z</time>
      </trkpt>
      <trkpt lat="46.025714697316289" lon="8.537370376288891">
        <ele>1664.45</ele>
        <time>2019-10-13T09:35:48Z</time>
      </trkpt>
      <trkpt lat="46.025745291262865" lon="8.537276415154338">
        <ele>1665.04</ele>
        <time>2019-10-13T09:35:59Z</time>
      </trkpt>
      <trkpt lat="46.025773957371712" lon="8.537136940285564">
        <ele>1665.28</ele>
        <time>2019-10-13T09:36:13Z</time>
      </trkpt>
      <trkpt lat="46.02580513805151" lon="8.537020599469543">
        <ele>1665.5699999999999</ele>
        <time>2019-10-13T09:36:26Z</time>
      </trkpt>
      <trkpt lat="46.025812933221459" lon="8.536924039945006">
        <ele>1667.49</ele>
        <time>2019-10-13T09:36:37Z</time>
      </trkpt>
      <trkpt lat="46.025835648179054" lon="8.53680107742548">
        <ele>1668.1300000000001</ele>
        <time>2019-10-13T09:36:49Z</time>
      </trkpt>
      <trkpt lat="46.025845035910606" lon="8.536698231473565">
        <ele>1668.8900000000001</ele>
        <time>2019-10-13T09:37:00Z</time>
      </trkpt>
      <trkpt lat="46.025864901021123" lon="8.536611646413803">
        <ele>1669.48</ele>
        <time>2019-10-13T09:37:13Z</time>
      </trkpt>
      <trkpt lat="46.025862051174045" lon="8.536547860130668">
        <ele>1669.8599999999999</ele>
        <time>2019-10-13T09:37:26Z</time>
      </trkpt>
      <trkpt lat="46.025859033688903" lon="8.536500921472907">
        <ele>1670.3399999999999</ele>
        <time>2019-10-13T09:37:37Z</time>
      </trkpt>
      <trkpt lat="46.025849310681224" lon="8.536443589255214">
        <ele>1672.47</ele>
        <time>2019-10-13T09:37:50Z</time>
      </trkpt>
      <trkpt lat="46.025855345651507" lon="8.536425065249205">
        <ele>1671.55</ele>
        <time>2019-10-13T09:38:02Z</time>
      </trkpt>
      <trkpt lat="46.025863727554679" lon="8.536360692232847">
        <ele>1670.6199999999999</ele>
        <time>2019-10-13T09:38:12Z</time>
      </trkpt>
      <trkpt lat="46.025901278480887" lon="8.536284919828177">
        <ele>1671.8699999999999</ele>
        <time>2019-10-13T09:38:22Z</time>
      </trkpt>
      <trkpt lat="46.025996161624789" lon="8.536295145750046">
        <ele>1670.6900000000001</ele>
        <time>2019-10-13T09:38:35Z</time>
      </trkpt>
      <trkpt lat="46.026016864925623" lon="8.536295313388109">
        <ele>1671.3199999999999</ele>
        <time>2019-10-13T09:38:49Z</time>
      </trkpt>
      <trkpt lat="46.026031281799078" lon="8.536303695291281">
        <ele>1670.8</ele>
        <time>2019-10-13T09:39:03Z</time>
      </trkpt>
      <trkpt lat="46.026063552126288" lon="8.536282740533352">
        <ele>1671.1900000000001</ele>
        <time>2019-10-13T09:39:28Z</time>
      </trkpt>
      <trkpt lat="46.026093726977706" lon="8.536311322823167">
        <ele>1670.76</ele>
        <time>2019-10-13T09:39:41Z</time>
      </trkpt>
      <trkpt lat="46.026103952899575" lon="8.536311406642199">
        <ele>1670.9100000000001</ele>
        <time>2019-10-13T09:39:55Z</time>
      </trkpt>
      <trkpt lat="46.02611443027854" lon="8.536301935091615">
        <ele>1671.8</ele>
        <time>2019-10-13T09:40:11Z</time>
      </trkpt>
      <trkpt lat="46.026151226833463" lon="8.536297073587775">
        <ele>1673.3900000000001</ele>
        <time>2019-10-13T09:40:24Z</time>
      </trkpt>
      <trkpt lat="46.026185844093561" lon="8.536289362236857">
        <ele>1673.9300000000001</ele>
        <time>2019-10-13T09:40:38Z</time>
      </trkpt>
      <trkpt lat="46.026180228218436" lon="8.536304533481598">
        <ele>1673.6400000000001</ele>
        <time>2019-10-13T09:40:51Z</time>
      </trkpt>
      <trkpt lat="46.02621610276401" lon="8.536271257326007">
        <ele>1674.95</ele>
        <time>2019-10-13T09:41:02Z</time>
      </trkpt>
      <trkpt lat="46.026227921247482" lon="8.536251056939364">
        <ele>1677.1099999999999</ele>
        <time>2019-10-13T09:41:15Z</time>
      </trkpt>
      <trkpt lat="46.026248624548316" lon="8.536214428022504">
        <ele>1679.4300000000001</ele>
        <time>2019-10-13T09:41:27Z</time>
      </trkpt>
      <trkpt lat="46.026220545172691" lon="8.536170925945044">
        <ele>1680.9200000000001</ele>
        <time>2019-10-13T09:41:37Z</time>
      </trkpt>
      <trkpt lat="46.026224484667182" lon="8.536125915125012">
        <ele>1682.45</ele>
        <time>2019-10-13T09:41:49Z</time>
      </trkpt>
      <trkpt lat="46.026246696710587" lon="8.536106133833528">
        <ele>1684.8800000000001</ele>
        <time>2019-10-13T09:42:01Z</time>
      </trkpt>
      <trkpt lat="46.026250803843141" lon="8.536107894033194">
        <ele>1684.75</ele>
        <time>2019-10-13T09:42:15Z</time>
      </trkpt>
      <trkpt lat="46.026266561821103" lon="8.536110240966082">
        <ele>1686.51</ele>
        <time>2019-10-13T09:42:31Z</time>
      </trkpt>
      <trkpt lat="46.02627033367753" lon="8.536108732223511">
        <ele>1686.45</ele>
        <time>2019-10-13T09:42:32Z</time>
      </trkpt>
      <trkpt lat="46.026276703923941" lon="8.536091633141041">
        <ele>1686.4000000000001</ele>
        <time>2019-10-13T09:42:47Z</time>
      </trkpt>
      <trkpt lat="46.026317356154323" lon="8.536076378077269">
        <ele>1687.75</ele>
        <time>2019-10-13T09:43:02Z</time>
      </trkpt>
      <trkpt lat="46.026338646188378" lon="8.536063302308321">
        <ele>1689.6700000000001</ele>
        <time>2019-10-13T09:43:13Z</time>
      </trkpt>
      <trkpt lat="46.026363121345639" lon="8.536061877384782">
        <ele>1690.95</ele>
        <time>2019-10-13T09:43:23Z</time>
      </trkpt>
      <trkpt lat="46.026368737220764" lon="8.53605835698545">
        <ele>1691.1500000000001</ele>
        <time>2019-10-13T09:43:24Z</time>
      </trkpt>
      <trkpt lat="46.026476696133614" lon="8.536056680604816">
        <ele>1692.75</ele>
        <time>2019-10-13T09:43:38Z</time>
      </trkpt>
      <trkpt lat="46.026520282030106" lon="8.536011083051562">
        <ele>1694.96</ele>
        <time>2019-10-13T09:43:53Z</time>
      </trkpt>
      <trkpt lat="46.026532771065831" lon="8.535978142172098">
        <ele>1696.0999999999999</ele>
        <time>2019-10-13T09:44:04Z</time>
      </trkpt>
      <trkpt lat="46.026525478810072" lon="8.53595576249063">
        <ele>1697.27</ele>
        <time>2019-10-13T09:44:16Z</time>
      </trkpt>
      <trkpt lat="46.026542158797383" lon="8.53593765757978">
        <ele>1698.8399999999999</ele>
        <time>2019-10-13T09:44:30Z</time>
      </trkpt>
      <trkpt lat="46.026559341698885" lon="8.53590932674706">
        <ele>1700.8699999999999</ele>
        <time>2019-10-13T09:44:41Z</time>
      </trkpt>
      <trkpt lat="46.026557330042124" lon="8.5358917247504">
        <ele>1701.6700000000001</ele>
        <time>2019-10-13T09:45:00Z</time>
      </trkpt>
      <trkpt lat="46.026555905118585" lon="8.535866746678948">
        <ele>1703.1700000000001</ele>
        <time>2019-10-13T09:45:09Z</time>
      </trkpt>
      <trkpt lat="46.026576105505228" lon="8.535839589312673">
        <ele>1705.1099999999999</ele>
        <time>2019-10-13T09:45:19Z</time>
      </trkpt>
      <trkpt lat="46.026578871533275" lon="8.535828022286296">
        <ele>1705.03</ele>
        <time>2019-10-13T09:45:35Z</time>
      </trkpt>
      <trkpt lat="46.026567053049803" lon="8.535788962617517">
        <ele>1707.0699999999999</ele>
        <time>2019-10-13T09:45:47Z</time>
      </trkpt>
      <trkpt lat="46.02656738832593" lon="8.535731630399823">
        <ele>1709.74</ele>
        <time>2019-10-13T09:46:04Z</time>
      </trkpt>
      <trkpt lat="46.026577949523926" lon="8.535689637064934">
        <ele>1711.51</ele>
        <time>2019-10-13T09:46:14Z</time>
      </trkpt>
      <trkpt lat="46.026564203202724" lon="8.535666838288307">
        <ele>1712.96</ele>
        <time>2019-10-13T09:46:30Z</time>
      </trkpt>
      <trkpt lat="46.026572668924928" lon="8.535618223249912">
        <ele>1715.23</ele>
        <time>2019-10-13T09:46:42Z</time>
      </trkpt>
      <trkpt lat="46.026612315326929" lon="8.535561142489314">
        <ele>1717.1400000000001</ele>
        <time>2019-10-13T09:46:56Z</time>
      </trkpt>
      <trkpt lat="46.026598988100886" lon="8.535520657896996">
        <ele>1718.9000000000001</ele>
        <time>2019-10-13T09:47:10Z</time>
      </trkpt>
      <trkpt lat="46.026593204587698" lon="8.535521915182471">
        <ele>1719.45</ele>
        <time>2019-10-13T09:47:23Z</time>
      </trkpt>
      <trkpt lat="46.026592953130603" lon="8.535519065335393">
        <ele>1719.8699999999999</ele>
        <time>2019-10-13T09:47:41Z</time>
      </trkpt>
      <trkpt lat="46.026590103283525" lon="8.535517556592822">
        <ele>1719.6800000000001</ele>
        <time>2019-10-13T09:48:00Z</time>
      </trkpt>
      <trkpt lat="46.026590270921588" lon="8.535512862727046">
        <ele>1719.8199999999999</ele>
        <time>2019-10-13T09:48:18Z</time>
      </trkpt>
      <trkpt lat="46.026591444388032" lon="8.535511353984475">
        <ele>1719.97</ele>
        <time>2019-10-13T09:48:37Z</time>
      </trkpt>
      <trkpt lat="46.026588510721922" lon="8.535511689260602">
        <ele>1720.21</ele>
        <time>2019-10-13T09:48:52Z</time>
      </trkpt>
      <trkpt lat="46.026592366397381" lon="8.535513365641236">
        <ele>1721.52</ele>
        <time>2019-10-13T09:49:08Z</time>
      </trkpt>
      <trkpt lat="46.026595132425427" lon="8.535515796393156">
        <ele>1720.0599999999999</ele>
        <time>2019-10-13T09:49:30Z</time>
      </trkpt>
      <trkpt lat="46.026599826291203" lon="8.53551596403122">
        <ele>1720.4100000000001</ele>
        <time>2019-10-13T09:49:51Z</time>
      </trkpt>
      <trkpt lat="46.026616087183356" lon="8.535477155819535">
        <ele>1721.29</ele>
        <time>2019-10-13T09:50:04Z</time>
      </trkpt>
      <trkpt lat="46.026646597310901" lon="8.535412531346083">
        <ele>1723.0599999999999</ele>
        <time>2019-10-13T09:50:14Z</time>
      </trkpt>
      <trkpt lat="46.026662439107895" lon="8.535347320139408">
        <ele>1724.29</ele>
        <time>2019-10-13T09:50:26Z</time>
      </trkpt>
      <trkpt lat="46.026678783819079" lon="8.535294765606523">
        <ele>1725.0599999999999</ele>
        <time>2019-10-13T09:50:38Z</time>
      </trkpt>
      <trkpt lat="46.026685405522585" lon="8.535197535529733">
        <ele>1726.55</ele>
        <time>2019-10-13T09:50:50Z</time>
      </trkpt>
      <trkpt lat="46.026718346402049" lon="8.535172557458282">
        <ele>1727.53</ele>
        <time>2019-10-13T09:51:02Z</time>
      </trkpt>
      <trkpt lat="46.026744917035103" lon="8.535172054544091">
        <ele>1727.99</ele>
        <time>2019-10-13T09:51:13Z</time>
      </trkpt>
      <trkpt lat="46.026775175705552" lon="8.535120338201523">
        <ele>1730.4400000000001</ele>
        <time>2019-10-13T09:51:29Z</time>
      </trkpt>
      <trkpt lat="46.026822533458471" lon="8.535120589658618">
        <ele>1731.5699999999999</ele>
        <time>2019-10-13T09:51:42Z</time>
      </trkpt>
      <trkpt lat="46.026836698874831" lon="8.535096030682325">
        <ele>1733.5999999999999</ele>
        <time>2019-10-13T09:51:53Z</time>
      </trkpt>
      <trkpt lat="46.026861174032092" lon="8.535071052610874">
        <ele>1735.47</ele>
        <time>2019-10-13T09:52:03Z</time>
      </trkpt>
      <trkpt lat="46.026878356933594" lon="8.535058815032244">
        <ele>1735.8499999999999</ele>
        <time>2019-10-13T09:52:15Z</time>
      </trkpt>
      <trkpt lat="46.026898305863142" lon="8.535030903294683">
        <ele>1737.26</ele>
        <time>2019-10-13T09:52:31Z</time>
      </trkpt>
      <trkpt lat="46.026903251186013" lon="8.535005170851946">
        <ele>1738.6300000000001</ele>
        <time>2019-10-13T09:52:44Z</time>
      </trkpt>
      <trkpt lat="46.026914482936263" lon="8.534983294084668">
        <ele>1740.76</ele>
        <time>2019-10-13T09:52:57Z</time>
      </trkpt>
      <trkpt lat="46.02693434804678" lon="8.53498388081789">
        <ele>1741.6199999999999</ele>
        <time>2019-10-13T09:53:11Z</time>
      </trkpt>
      <trkpt lat="46.026939796283841" lon="8.534965859726071">
        <ele>1742.1900000000001</ele>
        <time>2019-10-13T09:53:26Z</time>
      </trkpt>
      <trkpt lat="46.026965193450451" lon="8.534950101748109">
        <ele>1744.6900000000001</ele>
        <time>2019-10-13T09:53:37Z</time>
      </trkpt>
      <trkpt lat="46.027023112401366" lon="8.534922441467643">
        <ele>1746.27</ele>
        <time>2019-10-13T09:53:51Z</time>
      </trkpt>
      <trkpt lat="46.027048844844103" lon="8.534904755651951">
        <ele>1748.0699999999999</ele>
        <time>2019-10-13T09:54:06Z</time>
      </trkpt>
      <trkpt lat="46.027053454890847" lon="8.534867204725742">
        <ele>1749.6099999999999</ele>
        <time>2019-10-13T09:54:17Z</time>
      </trkpt>
      <trkpt lat="46.027054712176323" lon="8.534825295209885">
        <ele>1751.6800000000001</ele>
        <time>2019-10-13T09:54:28Z</time>
      </trkpt>
      <trkpt lat="46.027049096301198" lon="8.534806938841939">
        <ele>1752.5599999999999</ele>
        <time>2019-10-13T09:54:42Z</time>
      </trkpt>
      <trkpt lat="46.027053873986006" lon="8.534785229712725">
        <ele>1753.95</ele>
        <time>2019-10-13T09:54:57Z</time>
      </trkpt>
      <trkpt lat="46.027068626135588" lon="8.534774919971824">
        <ele>1754.6900000000001</ele>
        <time>2019-10-13T09:55:09Z</time>
      </trkpt>
      <trkpt lat="46.027070637792349" lon="8.534775339066982">
        <ele>1754.8599999999999</ele>
        <time>2019-10-13T09:55:28Z</time>
      </trkpt>
      <trkpt lat="46.027088155969977" lon="8.534775422886014">
        <ele>1755.99</ele>
        <time>2019-10-13T09:55:40Z</time>
      </trkpt>
      <trkpt lat="46.02712201885879" lon="8.534788582473993">
        <ele>1757.79</ele>
        <time>2019-10-13T09:55:54Z</time>
      </trkpt>
      <trkpt lat="46.027166610583663" lon="8.534784810617566">
        <ele>1757.4400000000001</ele>
        <time>2019-10-13T09:56:07Z</time>
      </trkpt>
      <trkpt lat="46.027187146246433" lon="8.534787576645613">
        <ele>1757.97</ele>
        <time>2019-10-13T09:56:20Z</time>
      </trkpt>
      <trkpt lat="46.027238443493843" lon="8.534773495048285">
        <ele>1758.8599999999999</ele>
        <time>2019-10-13T09:56:34Z</time>
      </trkpt>
      <trkpt lat="46.027241377159953" lon="8.53477131575346">
        <ele>1755.75</ele>
        <time>2019-10-13T09:56:47Z</time>
      </trkpt>
      <trkpt lat="46.027242047712207" lon="8.534770142287016">
        <ele>1759.73</ele>
        <time>2019-10-13T09:56:48Z</time>
      </trkpt>
      <trkpt lat="46.027258560061455" lon="8.534782128408551">
        <ele>1757.9100000000001</ele>
        <time>2019-10-13T09:56:59Z</time>
      </trkpt>
      <trkpt lat="46.027264846488833" lon="8.534782631322742">
        <ele>1759.3299999999999</ele>
        <time>2019-10-13T09:57:20Z</time>
      </trkpt>
      <trkpt lat="46.027300721034408" lon="8.534763604402542">
        <ele>1760.72</ele>
        <time>2019-10-13T09:57:32Z</time>
      </trkpt>
      <trkpt lat="46.027314634993672" lon="8.53476544842124">
        <ele>1761.0899999999999</ele>
        <time>2019-10-13T09:57:54Z</time>
      </trkpt>
      <trkpt lat="46.027344642207026" lon="8.534774081781507">
        <ele>1763.98</ele>
        <time>2019-10-13T09:58:08Z</time>
      </trkpt>
      <trkpt lat="46.027391832321882" lon="8.534804256632924">
        <ele>1764.8099999999999</ele>
        <time>2019-10-13T09:58:20Z</time>
      </trkpt>
      <trkpt lat="46.027422677725554" lon="8.534796545282006">
        <ele>1766.5799999999999</ele>
        <time>2019-10-13T09:58:32Z</time>
      </trkpt>
      <trkpt lat="46.027417983859777" lon="8.534762598574162">
        <ele>1768.6199999999999</ele>
        <time>2019-10-13T09:58:44Z</time>
      </trkpt>
      <trkpt lat="46.02741714566946" lon="8.534719180315733">
        <ele>1770.26</ele>
        <time>2019-10-13T09:58:55Z</time>
      </trkpt>
      <trkpt lat="46.027426114305854" lon="8.534687245264649">
        <ele>1772.1300000000001</ele>
        <time>2019-10-13T09:59:08Z</time>
      </trkpt>
      <trkpt lat="46.027441872283816" lon="8.534668050706387">
        <ele>1774.1700000000001</ele>
        <time>2019-10-13T09:59:21Z</time>
      </trkpt>
      <trkpt lat="46.027469616383314" lon="8.53466235101223">
        <ele>1775.5599999999999</ele>
        <time>2019-10-13T09:59:32Z</time>
      </trkpt>
      <trkpt lat="46.027512783184648" lon="8.534628823399544">
        <ele>1776.8099999999999</ele>
        <time>2019-10-13T09:59:43Z</time>
      </trkpt>
      <trkpt lat="46.02753683924675" lon="8.534606024622917">
        <ele>1778.4200000000001</ele>
        <time>2019-10-13T09:59:55Z</time>
      </trkpt>
      <trkpt lat="46.027543460950255" lon="8.534599989652634">
        <ele>1779.02</ele>
        <time>2019-10-13T10:00:10Z</time>
      </trkpt>
      <trkpt lat="46.027560560032725" lon="8.534574089571834">
        <ele>1780.96</ele>
        <time>2019-10-13T10:00:24Z</time>
      </trkpt>
      <trkpt lat="46.027602050453424" lon="8.534546680748463">
        <ele>1783.29</ele>
        <time>2019-10-13T10:00:37Z</time>
      </trkpt>
      <trkpt lat="46.027624011039734" lon="8.534539388492703">
        <ele>1784.8599999999999</ele>
        <time>2019-10-13T10:00:49Z</time>
      </trkpt>
      <trkpt lat="46.027665082365274" lon="8.5345240496099">
        <ele>1786.2</ele>
        <time>2019-10-13T10:00:59Z</time>
      </trkpt>
      <trkpt lat="46.027704728767276" lon="8.534492868930101">
        <ele>1787.23</ele>
        <time>2019-10-13T10:01:09Z</time>
      </trkpt>
      <trkpt lat="46.027737585827708" lon="8.534446517005563">
        <ele>1788.4200000000001</ele>
        <time>2019-10-13T10:01:20Z</time>
      </trkpt>
      <trkpt lat="46.027752757072449" lon="8.53440728969872">
        <ele>1790.0999999999999</ele>
        <time>2019-10-13T10:01:30Z</time>
      </trkpt>
      <trkpt lat="46.02776993997395" lon="8.53438138961792">
        <ele>1790.8800000000001</ele>
        <time>2019-10-13T10:01:42Z</time>
      </trkpt>
      <trkpt lat="46.027765832841396" lon="8.534355657175183">
        <ele>1792.7</ele>
        <time>2019-10-13T10:01:53Z</time>
      </trkpt>
      <trkpt lat="46.027745464816689" lon="8.534311233088374">
        <ele>1794.8599999999999</ele>
        <time>2019-10-13T10:02:06Z</time>
      </trkpt>
      <trkpt lat="46.027713948860765" lon="8.534280974417925">
        <ele>1797.6700000000001</ele>
        <time>2019-10-13T10:02:20Z</time>
      </trkpt>
      <trkpt lat="46.027696430683136" lon="8.534266809001565">
        <ele>1798.8299999999999</ele>
        <time>2019-10-13T10:02:34Z</time>
      </trkpt>
      <trkpt lat="46.027688719332218" lon="8.534224648028612">
        <ele>1800.1199999999999</ele>
        <time>2019-10-13T10:02:48Z</time>
      </trkpt>
      <trkpt lat="46.027727527543902" lon="8.534194976091385">
        <ele>1802.24</ele>
        <time>2019-10-13T10:03:00Z</time>
      </trkpt>
      <trkpt lat="46.027809754014015" lon="8.534142170101404">
        <ele>1803.7</ele>
        <time>2019-10-13T10:03:14Z</time>
      </trkpt>
      <trkpt lat="46.027846466749907" lon="8.534134374931455">
        <ele>1804.4400000000001</ele>
        <time>2019-10-13T10:03:20Z</time>
      </trkpt>
      <trkpt lat="46.027933806180954" lon="8.534133033826947">
        <ele>1804.6800000000001</ele>
        <time>2019-10-13T10:03:33Z</time>
      </trkpt>
      <trkpt lat="46.027970854192972" lon="8.534151641651988">
        <ele>1804.8099999999999</ele>
        <time>2019-10-13T10:03:42Z</time>
      </trkpt>
      <trkpt lat="46.028016032651067" lon="8.534157760441303">
        <ele>1806.4100000000001</ele>
        <time>2019-10-13T10:03:55Z</time>
      </trkpt>
      <trkpt lat="46.0280557628721" lon="8.534156419336796">
        <ele>1807.6400000000001</ele>
        <time>2019-10-13T10:04:06Z</time>
      </trkpt>
      <trkpt lat="46.028072526678443" lon="8.534146612510085">
        <ele>1807.5999999999999</ele>
        <time>2019-10-13T10:04:28Z</time>
      </trkpt>
      <trkpt lat="46.028083590790629" lon="8.534142002463341">
        <ele>1807.8900000000001</ele>
        <time>2019-10-13T10:04:43Z</time>
      </trkpt>
      <trkpt lat="46.028093481436372" lon="8.534147618338466">
        <ele>1808.1800000000001</ele>
        <time>2019-10-13T10:05:05Z</time>
      </trkpt>
      <trkpt lat="46.028114100918174" lon="8.534090369939804">
        <ele>1810.8099999999999</ele>
        <time>2019-10-13T10:05:15Z</time>
      </trkpt>
      <trkpt lat="46.028128266334534" lon="8.534076455980539">
        <ele>1812.3299999999999</ele>
        <time>2019-10-13T10:05:30Z</time>
      </trkpt>
      <trkpt lat="46.028134552761912" lon="8.534071929752827">
        <ele>1812.5</ele>
        <time>2019-10-13T10:05:48Z</time>
      </trkpt>
      <trkpt lat="46.028136061504483" lon="8.534064553678036">
        <ele>1812.47</ele>
        <time>2019-10-13T10:06:07Z</time>
      </trkpt>
      <trkpt lat="46.028174199163914" lon="8.534066313877702">
        <ele>1815.21</ele>
        <time>2019-10-13T10:06:22Z</time>
      </trkpt>
      <trkpt lat="46.028190208598971" lon="8.534058351069689">
        <ele>1815.5799999999999</ele>
        <time>2019-10-13T10:06:37Z</time>
      </trkpt>
      <trkpt lat="46.028194818645716" lon="8.534033540636301">
        <ele>1817.28</ele>
        <time>2019-10-13T10:06:54Z</time>
      </trkpt>
      <trkpt lat="46.028175204992294" lon="8.533995235338807">
        <ele>1818.8</ele>
        <time>2019-10-13T10:07:08Z</time>
      </trkpt>
      <trkpt lat="46.02814419195056" lon="8.533934131264687">
        <ele>1821.3</ele>
        <time>2019-10-13T10:07:21Z</time>
      </trkpt>
      <trkpt lat="46.028165649622679" lon="8.533942261710763">
        <ele>1822.23</ele>
        <time>2019-10-13T10:07:33Z</time>
      </trkpt>
      <trkpt lat="46.028170846402645" lon="8.533944273367524">
        <ele>1822.76</ele>
        <time>2019-10-13T10:07:48Z</time>
      </trkpt>
      <trkpt lat="46.028190543875098" lon="8.533972939476371">
        <ele>1822.8099999999999</ele>
        <time>2019-10-13T10:08:08Z</time>
      </trkpt>
      <trkpt lat="46.028205044567585" lon="8.533979058265686">
        <ele>1823.05</ele>
        <time>2019-10-13T10:08:25Z</time>
      </trkpt>
      <trkpt lat="46.028232621029019" lon="8.533990206196904">
        <ele>1823.5799999999999</ele>
        <time>2019-10-13T10:08:40Z</time>
      </trkpt>
      <trkpt lat="46.028259694576263" lon="8.533986266702414">
        <ele>1823.8</ele>
        <time>2019-10-13T10:08:52Z</time>
      </trkpt>
      <trkpt lat="46.028268663212657" lon="8.533984003588557">
        <ele>1824.02</ele>
        <time>2019-10-13T10:09:05Z</time>
      </trkpt>
      <trkpt lat="46.028300430625677" lon="8.533985344693065">
        <ele>1824.96</ele>
        <time>2019-10-13T10:09:18Z</time>
      </trkpt>
      <trkpt lat="46.028340496122837" lon="8.533981908112764">
        <ele>1824.98</ele>
        <time>2019-10-13T10:09:30Z</time>
      </trkpt>
      <trkpt lat="46.028352230787277" lon="8.533987104892731">
        <ele>1826.0599999999999</ele>
        <time>2019-10-13T10:09:44Z</time>
      </trkpt>
      <trkpt lat="46.028347788378596" lon="8.533975956961513">
        <ele>1826.6199999999999</ele>
        <time>2019-10-13T10:09:57Z</time>
      </trkpt>
      <trkpt lat="46.028355918824673" lon="8.533982411026955">
        <ele>1826.5699999999999</ele>
        <time>2019-10-13T10:10:12Z</time>
      </trkpt>
      <trkpt lat="46.02837678976357" lon="8.533984422683716">
        <ele>1826.97</ele>
        <time>2019-10-13T10:10:25Z</time>
      </trkpt>
      <trkpt lat="46.028397409245372" lon="8.533980064094067">
        <ele>1827.26</ele>
        <time>2019-10-13T10:10:36Z</time>
      </trkpt>
      <trkpt lat="46.028401516377926" lon="8.533976627513766">
        <ele>1827.8800000000001</ele>
        <time>2019-10-13T10:10:51Z</time>
      </trkpt>
      <trkpt lat="46.028408389538527" lon="8.533974783495069">
        <ele>1828.05</ele>
        <time>2019-10-13T10:11:11Z</time>
      </trkpt>
      <trkpt lat="46.02840855717659" lon="8.533973610028625">
        <ele>1828.1500000000001</ele>
        <time>2019-10-13T10:11:35Z</time>
      </trkpt>
      <trkpt lat="46.028420040383935" lon="8.533970844000578">
        <ele>1828.5899999999999</ele>
        <time>2019-10-13T10:11:53Z</time>
      </trkpt>
      <trkpt lat="46.028426075354218" lon="8.533964473754168">
        <ele>1829.8099999999999</ele>
        <time>2019-10-13T10:12:08Z</time>
      </trkpt>
      <trkpt lat="46.028450969606638" lon="8.533970089629293">
        <ele>1830.9100000000001</ele>
        <time>2019-10-13T10:12:20Z</time>
      </trkpt>
      <trkpt lat="46.028491789475083" lon="8.53398215956986">
        <ele>1832.53</ele>
        <time>2019-10-13T10:12:31Z</time>
      </trkpt>
      <trkpt lat="46.028499081730843" lon="8.533985177055001">
        <ele>1832.5899999999999</ele>
        <time>2019-10-13T10:12:32Z</time>
      </trkpt>
      <trkpt lat="46.028597233816981" lon="8.533984087407589">
        <ele>1834.1300000000001</ele>
        <time>2019-10-13T10:12:45Z</time>
      </trkpt>
      <trkpt lat="46.02865582332015" lon="8.533980902284384">
        <ele>1836.74</ele>
        <time>2019-10-13T10:12:58Z</time>
      </trkpt>
      <trkpt lat="46.028671162202954" lon="8.533975537866354">
        <ele>1837.1300000000001</ele>
        <time>2019-10-13T10:13:15Z</time>
      </trkpt>
      <trkpt lat="46.028716340661049" lon="8.533937484025955">
        <ele>1838.54</ele>
        <time>2019-10-13T10:13:27Z</time>
      </trkpt>
      <trkpt lat="46.028715251013637" lon="8.533932790160179">
        <ele>1838.24</ele>
        <time>2019-10-13T10:13:40Z</time>
      </trkpt>
      <trkpt lat="46.028726398944855" lon="8.533921977505088">
        <ele>1838.7</ele>
        <time>2019-10-13T10:13:54Z</time>
      </trkpt>
      <trkpt lat="46.028732853010297" lon="8.53391912765801">
        <ele>1839.2</ele>
        <time>2019-10-13T10:14:19Z</time>
      </trkpt>
      <trkpt lat="46.028748527169228" lon="8.533907644450665">
        <ele>1840.1400000000001</ele>
        <time>2019-10-13T10:14:38Z</time>
      </trkpt>
      <trkpt lat="46.028768559917808" lon="8.533901022747159">
        <ele>1840.5599999999999</ele>
        <time>2019-10-13T10:14:49Z</time>
      </trkpt>
      <trkpt lat="46.028786413371563" lon="8.533892557024956">
        <ele>1841.46</ele>
        <time>2019-10-13T10:15:07Z</time>
      </trkpt>
      <trkpt lat="46.028801836073399" lon="8.533895742148161">
        <ele>1842.25</ele>
        <time>2019-10-13T10:15:28Z</time>
      </trkpt>
      <trkpt lat="46.028828322887421" lon="8.533901274204254">
        <ele>1844.1600000000001</ele>
        <time>2019-10-13T10:15:43Z</time>
      </trkpt>
      <trkpt lat="46.028830669820309" lon="8.533907309174538">
        <ele>1843.97</ele>
        <time>2019-10-13T10:16:08Z</time>
      </trkpt>
      <trkpt lat="46.028844751417637" lon="8.53390839882195">
        <ele>1844.7</ele>
        <time>2019-10-13T10:16:24Z</time>
      </trkpt>
      <trkpt lat="46.02886151522398" lon="8.533910745754838">
        <ele>1845.52</ele>
        <time>2019-10-13T10:16:43Z</time>
      </trkpt>
      <trkpt lat="46.028879787772894" lon="8.533929185941815">
        <ele>1847.4200000000001</ele>
        <time>2019-10-13T10:16:59Z</time>
      </trkpt>
      <trkpt lat="46.028904933482409" lon="8.533929102122784">
        <ele>1849.99</ele>
        <time>2019-10-13T10:17:14Z</time>
      </trkpt>
      <trkpt lat="46.028930498287082" lon="8.533937903121114">
        <ele>1852.7</ele>
        <time>2019-10-13T10:17:28Z</time>
      </trkpt>
      <trkpt lat="46.028952458873391" lon="8.533953661099076">
        <ele>1855.8099999999999</ele>
        <time>2019-10-13T10:17:43Z</time>
      </trkpt>
      <trkpt lat="46.028976682573557" lon="8.534026751294732">
        <ele>1856.9300000000001</ele>
        <time>2019-10-13T10:17:55Z</time>
      </trkpt>
      <trkpt lat="46.029012892395258" lon="8.534050304442644">
        <ele>1858.8099999999999</ele>
        <time>2019-10-13T10:18:06Z</time>
      </trkpt>
      <trkpt lat="46.029038457199931" lon="8.534070085734129">
        <ele>1860.5599999999999</ele>
        <time>2019-10-13T10:18:18Z</time>
      </trkpt>
      <trkpt lat="46.029063519090414" lon="8.534097578376532">
        <ele>1862.99</ele>
        <time>2019-10-13T10:18:30Z</time>
      </trkpt>
      <trkpt lat="46.029091263189912" lon="8.534158766269684">
        <ele>1864.8599999999999</ele>
        <time>2019-10-13T10:18:41Z</time>
      </trkpt>
      <trkpt lat="46.029116157442331" lon="8.534163376316428">
        <ele>1866.6700000000001</ele>
        <time>2019-10-13T10:18:52Z</time>
      </trkpt>
      <trkpt lat="46.029139794409275" lon="8.534182319417596">
        <ele>1868.55</ele>
        <time>2019-10-13T10:19:01Z</time>
      </trkpt>
      <trkpt lat="46.029168963432312" lon="8.534187348559499">
        <ele>1870.6800000000001</ele>
        <time>2019-10-13T10:19:12Z</time>
      </trkpt>
      <trkpt lat="46.02918840944767" lon="8.534225570037961">
        <ele>1872.3699999999999</ele>
        <time>2019-10-13T10:19:23Z</time>
      </trkpt>
      <trkpt lat="46.02921087294817" lon="8.534226156771183">
        <ele>1873.8</ele>
        <time>2019-10-13T10:19:34Z</time>
      </trkpt>
      <trkpt lat="46.029217159375548" lon="8.534223306924105">
        <ele>1873.6600000000001</ele>
        <time>2019-10-13T10:19:55Z</time>
      </trkpt>
      <trkpt lat="46.029211794957519" lon="8.534220373257995">
        <ele>1873.55</ele>
        <time>2019-10-13T10:20:20Z</time>
      </trkpt>
      <trkpt lat="46.029222942888737" lon="8.534228587523103">
        <ele>1873.0799999999999</ele>
        <time>2019-10-13T10:20:34Z</time>
      </trkpt>
      <trkpt lat="46.0292196739465" lon="8.534233281388879">
        <ele>1873.5</ele>
        <time>2019-10-13T10:20:51Z</time>
      </trkpt>
      <trkpt lat="46.029211711138487" lon="8.534237639978528">
        <ele>1873.52</ele>
        <time>2019-10-13T10:21:03Z</time>
      </trkpt>
      <trkpt lat="46.029236605390906" lon="8.534188438206911">
        <ele>1874.3</ele>
        <time>2019-10-13T10:21:15Z</time>
      </trkpt>
      <trkpt lat="46.029258817434311" lon="8.534129932522774">
        <ele>1876.78</ele>
        <time>2019-10-13T10:21:24Z</time>
      </trkpt>
      <trkpt lat="46.029277173802257" lon="8.534105708822608">
        <ele>1879.1900000000001</ele>
        <time>2019-10-13T10:21:36Z</time>
      </trkpt>
      <trkpt lat="46.02934087626636" lon="8.534115012735128">
        <ele>1880.4400000000001</ele>
        <time>2019-10-13T10:21:46Z</time>
      </trkpt>
      <trkpt lat="46.029404578730464" lon="8.534049969166517">
        <ele>1881.6700000000001</ele>
        <time>2019-10-13T10:21:57Z</time>
      </trkpt>
      <trkpt lat="46.029447745531797" lon="8.534033540636301">
        <ele>1883.78</ele>
        <time>2019-10-13T10:22:06Z</time>
      </trkpt>
      <trkpt lat="46.029476160183549" lon="8.53402272798121">
        <ele>1885.5799999999999</ele>
        <time>2019-10-13T10:22:17Z</time>
      </trkpt>
      <trkpt lat="46.02950063534081" lon="8.534020548686385">
        <ele>1885.1900000000001</ele>
        <time>2019-10-13T10:22:21Z</time>
      </trkpt>
      <trkpt lat="46.02957489900291" lon="8.533988948911429">
        <ele>1885.02</ele>
        <time>2019-10-13T10:22:33Z</time>
      </trkpt>
      <trkpt lat="46.029591411352158" lon="8.533981572836638">
        <ele>1885.55</ele>
        <time>2019-10-13T10:22:48Z</time>
      </trkpt>
      <trkpt lat="46.029611611738801" lon="8.533977968618274">
        <ele>1886.23</ele>
        <time>2019-10-13T10:23:02Z</time>
      </trkpt>
      <trkpt lat="46.029642289504409" lon="8.533948380500078">
        <ele>1887.75</ele>
        <time>2019-10-13T10:23:15Z</time>
      </trkpt>
      <trkpt lat="46.029654527083039" lon="8.53394502773881">
        <ele>1887.5999999999999</ele>
        <time>2019-10-13T10:23:32Z</time>
      </trkpt>
      <trkpt lat="46.029674308374524" lon="8.533931784331799">
        <ele>1887.1400000000001</ele>
        <time>2019-10-13T10:23:48Z</time>
      </trkpt>
      <trkpt lat="46.029678834602237" lon="8.53392499499023">
        <ele>1887.0899999999999</ele>
        <time>2019-10-13T10:24:12Z</time>
      </trkpt>
      <trkpt lat="46.029713535681367" lon="8.533875541761518">
        <ele>1886.48</ele>
        <time>2019-10-13T10:24:24Z</time>
      </trkpt>
      <trkpt lat="46.029740776866674" lon="8.533859364688397">
        <ele>1885.3900000000001</ele>
        <time>2019-10-13T10:24:35Z</time>
      </trkpt>
      <trkpt lat="46.029757959768176" lon="8.533831117674708">
        <ele>1884.8599999999999</ele>
        <time>2019-10-13T10:24:46Z</time>
      </trkpt>
      <trkpt lat="46.029773885384202" lon="8.533807145431638">
        <ele>1883.4400000000001</ele>
        <time>2019-10-13T10:24:56Z</time>
      </trkpt>
      <trkpt lat="46.029802300035954" lon="8.533796332776547">
        <ele>1884.1900000000001</ele>
        <time>2019-10-13T10:25:20Z</time>
      </trkpt>
      <trkpt lat="46.029852339997888" lon="8.533745873719454">
        <ele>1884.6400000000001</ele>
        <time>2019-10-13T10:25:33Z</time>
      </trkpt>
      <trkpt lat="46.029877066612244" lon="8.53372860699892">
        <ele>1886.04</ele>
        <time>2019-10-13T10:25:49Z</time>
      </trkpt>
      <trkpt lat="46.029917970299721" lon="8.53374419733882">
        <ele>1888.8099999999999</ele>
        <time>2019-10-13T10:26:03Z</time>
      </trkpt>
      <trkpt lat="46.029935823753476" lon="8.533737072721124">
        <ele>1890.1500000000001</ele>
        <time>2019-10-13T10:26:13Z</time>
      </trkpt>
      <trkpt lat="46.029942696914077" lon="8.533726762980223">
        <ele>1891.73</ele>
        <time>2019-10-13T10:26:25Z</time>
      </trkpt>
      <trkpt lat="46.029944960027933" lon="8.533718632534146">
        <ele>1892.04</ele>
        <time>2019-10-13T10:26:40Z</time>
      </trkpt>
      <trkpt lat="46.029986534267664" lon="8.533712681382895">
        <ele>1893.46</ele>
        <time>2019-10-13T10:26:49Z</time>
      </trkpt>
      <trkpt lat="46.030043698847294" lon="8.533722404390574">
        <ele>1894.76</ele>
        <time>2019-10-13T10:27:00Z</time>
      </trkpt>
      <trkpt lat="46.030067251995206" lon="8.533690888434649">
        <ele>1897.05</ele>
        <time>2019-10-13T10:27:11Z</time>
      </trkpt>
      <trkpt lat="46.030130116268992" lon="8.533643782138825">
        <ele>1898.5599999999999</ele>
        <time>2019-10-13T10:27:23Z</time>
      </trkpt>
      <trkpt lat="46.030154675245285" lon="8.533654930070043">
        <ele>1899.8399999999999</ele>
        <time>2019-10-13T10:27:34Z</time>
      </trkpt>
      <trkpt lat="46.030180407688022" lon="8.533650655299425">
        <ele>1902.03</ele>
        <time>2019-10-13T10:27:44Z</time>
      </trkpt>
      <trkpt lat="46.030235728248954" lon="8.533665407449007">
        <ele>1903.5599999999999</ele>
        <time>2019-10-13T10:27:56Z</time>
      </trkpt>
      <trkpt lat="46.030279146507382" lon="8.533646212890744">
        <ele>1905.4400000000001</ele>
        <time>2019-10-13T10:28:06Z</time>
      </trkpt>
      <trkpt lat="46.030319882556796" lon="8.533599609509111">
        <ele>1906.51</ele>
        <time>2019-10-13T10:28:18Z</time>
      </trkpt>
      <trkpt lat="46.030361875891685" lon="8.533564740791917">
        <ele>1907.5699999999999</ele>
        <time>2019-10-13T10:28:28Z</time>
      </trkpt>
      <trkpt lat="46.030377633869648" lon="8.533552419394255">
        <ele>1908.1900000000001</ele>
        <time>2019-10-13T10:28:42Z</time>
      </trkpt>
      <trkpt lat="46.030379477888346" lon="8.533494165167213">
        <ele>1909.8099999999999</ele>
        <time>2019-10-13T10:28:53Z</time>
      </trkpt>
      <trkpt lat="46.030343268066645" lon="8.533478658646345">
        <ele>1912.1800000000001</ele>
        <time>2019-10-13T10:29:05Z</time>
      </trkpt>
      <trkpt lat="46.030343351885676" lon="8.53342317044735">
        <ele>1913.97</ele>
        <time>2019-10-13T10:29:16Z</time>
      </trkpt>
      <trkpt lat="46.030340334400535" lon="8.533379416912794">
        <ele>1914.28</ele>
        <time>2019-10-13T10:29:31Z</time>
      </trkpt>
      <trkpt lat="46.030343184247613" lon="8.533377991989255">
        <ele>1914.1199999999999</ele>
        <time>2019-10-13T10:29:47Z</time>
      </trkpt>
      <trkpt lat="46.0303576849401" lon="8.533290149644017">
        <ele>1915</ele>
        <time>2019-10-13T10:30:05Z</time>
      </trkpt>
      <trkpt lat="46.030365312471986" lon="8.533220328390598">
        <ele>1917.01</ele>
        <time>2019-10-13T10:30:17Z</time>
      </trkpt>
      <trkpt lat="46.030384171754122" lon="8.53316911496222">
        <ele>1917.95</ele>
        <time>2019-10-13T10:30:26Z</time>
      </trkpt>
      <trkpt lat="46.030410658568144" lon="8.533082278445363">
        <ele>1920.1300000000001</ele>
        <time>2019-10-13T10:30:39Z</time>
      </trkpt>
      <trkpt lat="46.030434966087341" lon="8.533094683662057">
        <ele>1921.9400000000001</ele>
        <time>2019-10-13T10:30:48Z</time>
      </trkpt>
      <trkpt lat="46.030470337718725" lon="8.533096360042691">
        <ele>1923.75</ele>
        <time>2019-10-13T10:31:00Z</time>
      </trkpt>
      <trkpt lat="46.030480396002531" lon="8.533130055293441">
        <ele>1925.96</ele>
        <time>2019-10-13T10:31:13Z</time>
      </trkpt>
      <trkpt lat="46.030489951372147" lon="8.533149249851704">
        <ele>1927.8499999999999</ele>
        <time>2019-10-13T10:31:25Z</time>
      </trkpt>
      <trkpt lat="46.030510738492012" lon="8.533151848241687">
        <ele>1929.51</ele>
        <time>2019-10-13T10:31:35Z</time>
      </trkpt>
      <trkpt lat="46.030537141487002" lon="8.533091247081757">
        <ele>1930.99</ele>
        <time>2019-10-13T10:31:48Z</time>
      </trkpt>
      <trkpt lat="46.030552731826901" lon="8.533062832430005">
        <ele>1932.45</ele>
        <time>2019-10-13T10:32:01Z</time>
      </trkpt>
      <trkpt lat="46.030555497854948" lon="8.533057635650039">
        <ele>1932.6500000000001</ele>
        <time>2019-10-13T10:32:08Z</time>
      </trkpt>
      <trkpt lat="46.030577542260289" lon="8.53306601755321">
        <ele>1933.95</ele>
        <time>2019-10-13T10:32:19Z</time>
      </trkpt>
      <trkpt lat="46.03058835491538" lon="8.533082529902458">
        <ele>1934.5899999999999</ele>
        <time>2019-10-13T10:32:29Z</time>
      </trkpt>
      <trkpt lat="46.030596988275647" lon="8.533080853521824">
        <ele>1935.4100000000001</ele>
        <time>2019-10-13T10:32:48Z</time>
      </trkpt>
      <trkpt lat="46.030605034902692" lon="8.533042632043362">
        <ele>1937.0699999999999</ele>
        <time>2019-10-13T10:33:01Z</time>
      </trkpt>
      <trkpt lat="46.030613165348768" lon="8.532979348674417">
        <ele>1938.76</ele>
        <time>2019-10-13T10:33:12Z</time>
      </trkpt>
      <trkpt lat="46.030640490353107" lon="8.532915897667408">
        <ele>1940.96</ele>
        <time>2019-10-13T10:33:25Z</time>
      </trkpt>
      <trkpt lat="46.030649039894342" lon="8.532859655097127">
        <ele>1942.24</ele>
        <time>2019-10-13T10:33:35Z</time>
      </trkpt>
      <trkpt lat="46.030672760680318" lon="8.532809363678098">
        <ele>1943.79</ele>
        <time>2019-10-13T10:33:48Z</time>
      </trkpt>
      <trkpt lat="46.030678963288665" lon="8.532840963453054">
        <ele>1945.4000000000001</ele>
        <time>2019-10-13T10:33:58Z</time>
      </trkpt>
      <trkpt lat="46.030698996037245" lon="8.532867785543203">
        <ele>1947.04</ele>
        <time>2019-10-13T10:34:08Z</time>
      </trkpt>
      <trkpt lat="46.030721543356776" lon="8.532847920432687">
        <ele>1948.46</ele>
        <time>2019-10-13T10:34:19Z</time>
      </trkpt>
      <trkpt lat="46.030732356011868" lon="8.532862924039364">
        <ele>1949.8900000000001</ele>
        <time>2019-10-13T10:34:28Z</time>
      </trkpt>
      <trkpt lat="46.030741659924388" lon="8.532876251265407">
        <ele>1950.3099999999999</ele>
        <time>2019-10-13T10:34:42Z</time>
      </trkpt>
      <trkpt lat="46.03080335073173" lon="8.532882621511817">
        <ele>1950.01</ele>
        <time>2019-10-13T10:34:52Z</time>
      </trkpt>
      <trkpt lat="46.030857833102345" lon="8.532849261537194">
        <ele>1950.3199999999999</ele>
        <time>2019-10-13T10:35:02Z</time>
      </trkpt>
      <trkpt lat="46.030877865850925" lon="8.532827887684107">
        <ele>1952.3699999999999</ele>
        <time>2019-10-13T10:35:17Z</time>
      </trkpt>
      <trkpt lat="46.030874848365784" lon="8.532789079472423">
        <ele>1954.1099999999999</ele>
        <time>2019-10-13T10:35:31Z</time>
      </trkpt>
      <trkpt lat="46.030892450362444" lon="8.532732166349888">
        <ele>1955.3699999999999</ele>
        <time>2019-10-13T10:35:43Z</time>
      </trkpt>
      <trkpt lat="46.030889684334397" lon="8.53269905783236">
        <ele>1956.77</ele>
        <time>2019-10-13T10:35:58Z</time>
      </trkpt>
      <trkpt lat="46.030916171148419" lon="8.532668128609657">
        <ele>1957.2</ele>
        <time>2019-10-13T10:36:22Z</time>
      </trkpt>
      <trkpt lat="46.030926145613194" lon="8.532641222700477">
        <ele>1958.96</ele>
        <time>2019-10-13T10:36:35Z</time>
      </trkpt>
      <trkpt lat="46.030951123684645" lon="8.532628733664751">
        <ele>1959.27</ele>
        <time>2019-10-13T10:36:48Z</time>
      </trkpt>
      <trkpt lat="46.030963780358434" lon="8.532608365640044">
        <ele>1959.74</ele>
        <time>2019-10-13T10:37:02Z</time>
      </trkpt>
      <trkpt lat="46.030974425375462" lon="8.532583303749561">
        <ele>1961.28</ele>
        <time>2019-10-13T10:37:18Z</time>
      </trkpt>
      <trkpt lat="46.030980460345745" lon="8.532575843855739">
        <ele>1962.4200000000001</ele>
        <time>2019-10-13T10:37:33Z</time>
      </trkpt>
      <trkpt lat="46.031004684045911" lon="8.532533347606659">
        <ele>1964.99</ele>
        <time>2019-10-13T10:37:45Z</time>
      </trkpt>
      <trkpt lat="46.03104030713439" lon="8.532536951825023">
        <ele>1966.48</ele>
        <time>2019-10-13T10:37:55Z</time>
      </trkpt>
      <trkpt lat="46.031065536662936" lon="8.532528737559915">
        <ele>1967.1199999999999</ele>
        <time>2019-10-13T10:38:07Z</time>
      </trkpt>
      <trkpt lat="46.031073918566108" lon="8.532518679276109">
        <ele>1967.74</ele>
        <time>2019-10-13T10:38:20Z</time>
      </trkpt>
      <trkpt lat="46.031107949092984" lon="8.532513566315174">
        <ele>1968.6199999999999</ele>
        <time>2019-10-13T10:38:33Z</time>
      </trkpt>
      <trkpt lat="46.031123204156756" lon="8.53250116109848">
        <ele>1969.8900000000001</ele>
        <time>2019-10-13T10:38:45Z</time>
      </trkpt>
      <trkpt lat="46.031134771183133" lon="8.532473165541887">
        <ele>1970.7</ele>
        <time>2019-10-13T10:39:00Z</time>
      </trkpt>
      <trkpt lat="46.031138878315687" lon="8.532451456412673">
        <ele>1971.9100000000001</ele>
        <time>2019-10-13T10:39:15Z</time>
      </trkpt>
      <trkpt lat="46.031144326552749" lon="8.532440811395645">
        <ele>1974.0799999999999</ele>
        <time>2019-10-13T10:39:27Z</time>
      </trkpt>
      <trkpt lat="46.031188163906336" lon="8.532448774203658">
        <ele>1975.96</ele>
        <time>2019-10-13T10:39:38Z</time>
      </trkpt>
      <trkpt lat="46.031239377334714" lon="8.53249722160399">
        <ele>1976.8800000000001</ele>
        <time>2019-10-13T10:39:50Z</time>
      </trkpt>
      <trkpt lat="46.0312953684479" lon="8.532502250745893">
        <ele>1978.45</ele>
        <time>2019-10-13T10:40:01Z</time>
      </trkpt>
      <trkpt lat="46.03131003677845" lon="8.532468639314175">
        <ele>1979.9300000000001</ele>
        <time>2019-10-13T10:40:12Z</time>
      </trkpt>
      <trkpt lat="46.031283130869269" lon="8.532428489997983">
        <ele>1982</ele>
        <time>2019-10-13T10:40:25Z</time>
      </trkpt>
      <trkpt lat="46.031303917989135" lon="8.532416420057416">
        <ele>1982.6199999999999</ele>
        <time>2019-10-13T10:40:37Z</time>
      </trkpt>
      <trkpt lat="46.031341888010502" lon="8.532424215227366">
        <ele>1983.6600000000001</ele>
        <time>2019-10-13T10:40:50Z</time>
      </trkpt>
      <trkpt lat="46.031361082568765" lon="8.532439386472106">
        <ele>1985.46</ele>
        <time>2019-10-13T10:41:02Z</time>
      </trkpt>
      <trkpt lat="46.031410451978445" lon="8.53244642727077">
        <ele>1987.2</ele>
        <time>2019-10-13T10:41:13Z</time>
      </trkpt>
      <trkpt lat="46.031458983197808" lon="8.532459586858749">
        <ele>1988.5</ele>
        <time>2019-10-13T10:41:22Z</time>
      </trkpt>
      <trkpt lat="46.031520171090961" lon="8.532480457797647">
        <ele>1988.71</ele>
        <time>2019-10-13T10:41:33Z</time>
      </trkpt>
      <trkpt lat="46.031555626541376" lon="8.532504513859749">
        <ele>1989.2</ele>
        <time>2019-10-13T10:41:44Z</time>
      </trkpt>
      <trkpt lat="46.031581275165081" lon="8.532524462789297">
        <ele>1990.3199999999999</ele>
        <time>2019-10-13T10:42:01Z</time>
      </trkpt>
      <trkpt lat="46.031638523563743" lon="8.532520942389965">
        <ele>1992.6600000000001</ele>
        <time>2019-10-13T10:42:12Z</time>
      </trkpt>
      <trkpt lat="46.03167112916708" lon="8.532523037865758">
        <ele>1993.51</ele>
        <time>2019-10-13T10:42:23Z</time>
      </trkpt>
      <trkpt lat="46.031716307625175" lon="8.532495461404324">
        <ele>1995.6400000000001</ele>
        <time>2019-10-13T10:42:35Z</time>
      </trkpt>
      <trkpt lat="46.031716307625175" lon="8.532500071451068">
        <ele>1995.29</ele>
        <time>2019-10-13T10:42:50Z</time>
      </trkpt>
      <trkpt lat="46.031732736155391" lon="8.532494874671102">
        <ele>1994.54</ele>
        <time>2019-10-13T10:43:12Z</time>
      </trkpt>
      <trkpt lat="46.031745811924338" lon="8.532491102814674">
        <ele>1995.27</ele>
        <time>2019-10-13T10:43:44Z</time>
      </trkpt>
      <trkpt lat="46.031759725883603" lon="8.532516164705157">
        <ele>1996.1199999999999</ele>
        <time>2019-10-13T10:43:58Z</time>
      </trkpt>
      <trkpt lat="46.03178889490664" lon="8.532481044530869">
        <ele>1998.8299999999999</ele>
        <time>2019-10-13T10:44:10Z</time>
      </trkpt>
      <trkpt lat="46.031821751967072" lon="8.532477021217346">
        <ele>2000.3299999999999</ele>
        <time>2019-10-13T10:44:20Z</time>
      </trkpt>
      <trkpt lat="46.031837845221162" lon="8.532433938235045">
        <ele>2002.8699999999999</ele>
        <time>2019-10-13T10:44:34Z</time>
      </trkpt>
      <trkpt lat="46.03183776140213" lon="8.532388675957918">
        <ele>2004.6800000000001</ele>
        <time>2019-10-13T10:44:45Z</time>
      </trkpt>
      <trkpt lat="46.031807167455554" lon="8.532333355396986">
        <ele>2006.3</ele>
        <time>2019-10-13T10:44:57Z</time>
      </trkpt>
      <trkpt lat="46.031803311780095" lon="8.532277112826705">
        <ele>2008.5699999999999</ele>
        <time>2019-10-13T10:45:13Z</time>
      </trkpt>
      <trkpt lat="46.03182116523385" lon="8.532266635447741">
        <ele>2010.71</ele>
        <time>2019-10-13T10:45:26Z</time>
      </trkpt>
      <trkpt lat="46.03181236423552" lon="8.532243752852082">
        <ele>2012.8699999999999</ele>
        <time>2019-10-13T10:45:39Z</time>
      </trkpt>
      <trkpt lat="46.031794929876924" lon="8.532203519716859">
        <ele>2015.1800000000001</ele>
        <time>2019-10-13T10:45:51Z</time>
      </trkpt>
      <trkpt lat="46.031785542145371" lon="8.532184408977628">
        <ele>2015.75</ele>
        <time>2019-10-13T10:46:03Z</time>
      </trkpt>
      <trkpt lat="46.031782692298293" lon="8.532182145863771">
        <ele>2015.5999999999999</ele>
        <time>2019-10-13T10:46:19Z</time>
      </trkpt>
      <trkpt lat="46.031812783330679" lon="8.532172758132219">
        <ele>2016.75</ele>
        <time>2019-10-13T10:46:32Z</time>
      </trkpt>
      <trkpt lat="46.031828206032515" lon="8.532180888578296">
        <ele>2017</ele>
        <time>2019-10-13T10:46:48Z</time>
      </trkpt>
      <trkpt lat="46.031834408640862" lon="8.532187258824706">
        <ele>2017.0699999999999</ele>
        <time>2019-10-13T10:47:00Z</time>
      </trkpt>
      <trkpt lat="46.031835749745369" lon="8.53218206204474">
        <ele>2016.8900000000001</ele>
        <time>2019-10-13T10:47:25Z</time>
      </trkpt>
      <trkpt lat="46.031839270144701" lon="8.532215673476458">
        <ele>2017.1300000000001</ele>
        <time>2019-10-13T10:47:39Z</time>
      </trkpt>
      <trkpt lat="46.03184413164854" lon="8.532195556908846">
        <ele>2017.1300000000001</ele>
        <time>2019-10-13T10:48:01Z</time>
      </trkpt>
      <trkpt lat="46.031873049214482" lon="8.532140739262104">
        <ele>2018.3699999999999</ele>
        <time>2019-10-13T10:48:13Z</time>
      </trkpt>
      <trkpt lat="46.031887969002128" lon="8.532135961577296">
        <ele>2018.98</ele>
        <time>2019-10-13T10:48:33Z</time>
      </trkpt>
      <trkpt lat="46.031894339248538" lon="8.532133363187313">
        <ele>2017.8599999999999</ele>
        <time>2019-10-13T10:48:57Z</time>
      </trkpt>
      <trkpt lat="46.031858213245869" lon="8.532169992104173">
        <ele>2016.8800000000001</ele>
        <time>2019-10-13T10:49:11Z</time>
      </trkpt>
      <trkpt lat="46.03189785964787" lon="8.532183906063438">
        <ele>2018.3499999999999</ele>
        <time>2019-10-13T10:49:23Z</time>
      </trkpt>
      <trkpt lat="46.031948151066899" lon="8.532178960740566">
        <ele>2019.78</ele>
        <time>2019-10-13T10:49:33Z</time>
      </trkpt>
      <trkpt lat="46.032001208513975" lon="8.532149456441402">
        <ele>2022.1800000000001</ele>
        <time>2019-10-13T10:49:48Z</time>
      </trkpt>
      <trkpt lat="46.032056445255876" lon="8.532134955748916">
        <ele>2023.6300000000001</ele>
        <time>2019-10-13T10:49:59Z</time>
      </trkpt>
      <trkpt lat="46.032102461904287" lon="8.532122801989317">
        <ele>2024.8399999999999</ele>
        <time>2019-10-13T10:50:10Z</time>
      </trkpt>
      <trkpt lat="46.032138084992766" lon="8.532082987949252">
        <ele>2024.3499999999999</ele>
        <time>2019-10-13T10:50:22Z</time>
      </trkpt>
      <trkpt lat="46.032169014215469" lon="8.532064044848084">
        <ele>2026.9400000000001</ele>
        <time>2019-10-13T10:50:34Z</time>
      </trkpt>
      <trkpt lat="46.032182006165385" lon="8.532046107575297">
        <ele>2028.1700000000001</ele>
        <time>2019-10-13T10:50:46Z</time>
      </trkpt>
      <trkpt lat="46.032208660617471" lon="8.532040491700172">
        <ele>2028.76</ele>
        <time>2019-10-13T10:50:57Z</time>
      </trkpt>
      <trkpt lat="46.03224428370595" lon="8.532026996836066">
        <ele>2030.03</ele>
        <time>2019-10-13T10:51:07Z</time>
      </trkpt>
      <trkpt lat="46.032282169908285" lon="8.531994726508856">
        <ele>2031.55</ele>
        <time>2019-10-13T10:51:18Z</time>
      </trkpt>
      <trkpt lat="46.03231712244451" lon="8.531968407332897">
        <ele>2033.6900000000001</ele>
        <time>2019-10-13T10:51:29Z</time>
      </trkpt>
      <trkpt lat="46.032348303124309" lon="8.531959941610694">
        <ele>2035.72</ele>
        <time>2019-10-13T10:51:40Z</time>
      </trkpt>
      <trkpt lat="46.032368000596762" lon="8.531941249966621">
        <ele>2038.1099999999999</ele>
        <time>2019-10-13T10:51:50Z</time>
      </trkpt>
      <trkpt lat="46.032409658655524" lon="8.531920127570629">
        <ele>2040.2</ele>
        <time>2019-10-13T10:52:01Z</time>
      </trkpt>
      <trkpt lat="46.032466320320964" lon="8.531922223046422">
        <ele>2041.75</ele>
        <time>2019-10-13T10:52:13Z</time>
      </trkpt>
      <trkpt lat="46.032520467415452" lon="8.531905626878142">
        <ele>2043.6500000000001</ele>
        <time>2019-10-13T10:52:24Z</time>
      </trkpt>
      <trkpt lat="46.032604789361358" lon="8.531904621049762">
        <ele>2044.8499999999999</ele>
        <time>2019-10-13T10:52:38Z</time>
      </trkpt>
      <trkpt lat="46.032659187912941" lon="8.531909566372633">
        <ele>2045.4200000000001</ele>
        <time>2019-10-13T10:52:51Z</time>
      </trkpt>
      <trkpt lat="46.032672263681889" lon="8.531908644363284">
        <ele>2045.79</ele>
        <time>2019-10-13T10:53:08Z</time>
      </trkpt>
      <trkpt lat="46.032671760767698" lon="8.531916523352265">
        <ele>2045.72</ele>
        <time>2019-10-13T10:53:21Z</time>
      </trkpt>
      <trkpt lat="46.032674191519618" lon="8.531923228874803">
        <ele>2045.4000000000001</ele>
        <time>2019-10-13T10:53:39Z</time>
      </trkpt>
      <trkpt lat="46.032671090215445" lon="8.531926581636071">
        <ele>2045.1900000000001</ele>
        <time>2019-10-13T10:53:54Z</time>
      </trkpt>
      <trkpt lat="46.032669078558683" lon="8.531926078721881">
        <ele>2045.0599999999999</ele>
        <time>2019-10-13T10:54:19Z</time>
      </trkpt>
      <trkpt lat="46.032670754939318" lon="8.53192649781704">
        <ele>2045.1199999999999</ele>
        <time>2019-10-13T10:54:36Z</time>
      </trkpt>
      <trkpt lat="46.03266111575067" lon="8.531931107863784">
        <ele>2044.74</ele>
        <time>2019-10-13T10:54:52Z</time>
      </trkpt>
      <trkpt lat="46.032657260075212" lon="8.531938148662448">
        <ele>2044.6099999999999</ele>
        <time>2019-10-13T10:55:13Z</time>
      </trkpt>
      <trkpt lat="46.03265818208456" lon="8.531937729567289">
        <ele>2044.6300000000001</ele>
        <time>2019-10-13T10:55:29Z</time>
      </trkpt>
      <trkpt lat="46.032662289217114" lon="8.531928090378642">
        <ele>2044.02</ele>
        <time>2019-10-13T10:55:38Z</time>
      </trkpt>
      <trkpt lat="46.032663127407432" lon="8.531924905255437">
        <ele>2044.1199999999999</ele>
        <time>2019-10-13T10:56:05Z</time>
      </trkpt>
      <trkpt lat="46.032663127407432" lon="8.531924653798342">
        <ele>2043.8699999999999</ele>
        <time>2019-10-13T10:56:28Z</time>
      </trkpt>
      <trkpt lat="46.032661199569702" lon="8.531917780637741">
        <ele>2043.8800000000001</ele>
        <time>2019-10-13T10:57:21Z</time>
      </trkpt>
      <trkpt lat="46.032661702483892" lon="8.531915098428726">
        <ele>2044.72</ele>
        <time>2019-10-13T10:58:27Z</time>
      </trkpt>
      <trkpt lat="46.032662037760019" lon="8.531914260238409">
        <ele>2044.3199999999999</ele>
        <time>2019-10-13T10:59:28Z</time>
      </trkpt>
      <trkpt lat="46.032662037760019" lon="8.531907638534904">
        <ele>2044.6500000000001</ele>
        <time>2019-10-13T11:00:33Z</time>
      </trkpt>
      <trkpt lat="46.032665222883224" lon="8.531907387077808">
        <ele>2044.48</ele>
        <time>2019-10-13T11:01:23Z</time>
      </trkpt>
      <trkpt lat="46.032662289217114" lon="8.531910572201014">
        <ele>2044.6900000000001</ele>
        <time>2019-10-13T11:02:08Z</time>
      </trkpt>
      <trkpt lat="46.032661451026797" lon="8.531909231096506">
        <ele>2045.0599999999999</ele>
        <time>2019-10-13T11:03:09Z</time>
      </trkpt>
      <trkpt lat="46.032666899263859" lon="8.531916858628392">
        <ele>2045.4300000000001</ele>
        <time>2019-10-13T11:04:13Z</time>
      </trkpt>
      <trkpt lat="46.032670168206096" lon="8.531917948275805">
        <ele>2045.22</ele>
        <time>2019-10-13T11:05:26Z</time>
      </trkpt>
      <trkpt lat="46.032670000568032" lon="8.531919876113534">
        <ele>2045.47</ele>
        <time>2019-10-13T11:06:38Z</time>
      </trkpt>
      <trkpt lat="46.03266891092062" lon="8.531917193904519">
        <ele>2045.6500000000001</ele>
        <time>2019-10-13T11:07:42Z</time>
      </trkpt>
      <trkpt lat="46.032666899263859" lon="8.531919792294502">
        <ele>2045.75</ele>
        <time>2019-10-13T11:08:47Z</time>
      </trkpt>
      <trkpt lat="46.032667485997081" lon="8.531917110085487">
        <ele>2045.24</ele>
        <time>2019-10-13T11:09:55Z</time>
      </trkpt>
      <trkpt lat="46.032664971426129" lon="8.53191627189517">
        <ele>2045.3099999999999</ele>
        <time>2019-10-13T11:10:44Z</time>
      </trkpt>
      <trkpt lat="46.032669246196747" lon="8.531916690990329">
        <ele>2045.4100000000001</ele>
        <time>2019-10-13T11:11:51Z</time>
      </trkpt>
      <trkpt lat="46.032665558159351" lon="8.531917948275805">
        <ele>2045.02</ele>
        <time>2019-10-13T11:12:56Z</time>
      </trkpt>
      <trkpt lat="46.032665725797415" lon="8.531919457018375">
        <ele>2045.23</ele>
        <time>2019-10-13T11:13:56Z</time>
      </trkpt>
      <trkpt lat="46.032667821273208" lon="8.531917948275805">
        <ele>2045.48</ele>
        <time>2019-10-13T11:14:51Z</time>
      </trkpt>
      <trkpt lat="46.032672179862857" lon="8.53192213922739">
        <ele>2045.5799999999999</ele>
        <time>2019-10-13T11:15:37Z</time>
      </trkpt>
      <trkpt lat="46.032677460461855" lon="8.531921552494168">
        <ele>2045.9200000000001</ele>
        <time>2019-10-13T11:16:27Z</time>
      </trkpt>
      <trkpt lat="46.032673520967364" lon="8.531922558322549">
        <ele>2045.9400000000001</ele>
        <time>2019-10-13T11:17:02Z</time>
      </trkpt>
      <trkpt lat="46.032669581472874" lon="8.531921384856105">
        <ele>2045.8399999999999</ele>
        <time>2019-10-13T11:17:48Z</time>
      </trkpt>
      <trkpt lat="46.032670084387064" lon="8.531921468675137">
        <ele>2046.1400000000001</ele>
        <time>2019-10-13T11:18:46Z</time>
      </trkpt>
      <trkpt lat="46.032668324187398" lon="8.531921971589327">
        <ele>2044.8199999999999</ele>
        <time>2019-10-13T11:19:21Z</time>
      </trkpt>
      <trkpt lat="46.032662205398083" lon="8.531926665455103">
        <ele>2045.98</ele>
        <time>2019-10-13T11:19:36Z</time>
      </trkpt>
      <trkpt lat="46.03265130892396" lon="8.531937813386321">
        <ele>2045.3</ele>
        <time>2019-10-13T11:20:19Z</time>
      </trkpt>
      <trkpt lat="46.032661618664861" lon="8.531950889155269">
        <ele>2045.1600000000001</ele>
        <time>2019-10-13T11:20:54Z</time>
      </trkpt>
      <trkpt lat="46.032662456855178" lon="8.531944015994668">
        <ele>2045.5</ele>
        <time>2019-10-13T11:21:14Z</time>
      </trkpt>
      <trkpt lat="46.03266891092062" lon="8.531918954104185">
        <ele>2044.8699999999999</ele>
        <time>2019-10-13T11:22:07Z</time>
      </trkpt>
      <trkpt lat="46.032667988911271" lon="8.531915014609695">
        <ele>2045.54</ele>
        <time>2019-10-13T11:23:00Z</time>
      </trkpt>
      <trkpt lat="46.032663881778717" lon="8.531905375421047">
        <ele>2045.49</ele>
        <time>2019-10-13T11:24:02Z</time>
      </trkpt>
      <trkpt lat="46.032665558159351" lon="8.531907135620713">
        <ele>2045.6199999999999</ele>
        <time>2019-10-13T11:24:31Z</time>
      </trkpt>
      <trkpt lat="46.032674107700586" lon="8.531917780637741">
        <ele>2046.01</ele>
        <time>2019-10-13T11:25:05Z</time>
      </trkpt>
      <trkpt lat="46.032678047195077" lon="8.53192700073123">
        <ele>2045.8399999999999</ele>
        <time>2019-10-13T11:25:36Z</time>
      </trkpt>
      <trkpt lat="46.032673437148333" lon="8.531933622434735">
        <ele>2046.23</ele>
        <time>2019-10-13T11:26:18Z</time>
      </trkpt>
      <trkpt lat="46.032673772424459" lon="8.531927252188325">
        <ele>2046.04</ele>
        <time>2019-10-13T11:26:59Z</time>
      </trkpt>
      <trkpt lat="46.032674359157681" lon="8.531924989074469">
        <ele>2046.1500000000001</ele>
        <time>2019-10-13T11:27:40Z</time>
      </trkpt>
      <trkpt lat="46.03267720900476" lon="8.531927419826388">
        <ele>2046.21</ele>
        <time>2019-10-13T11:28:16Z</time>
      </trkpt>
      <trkpt lat="46.032676789909601" lon="8.531929850578308">
        <ele>2045.8399999999999</ele>
        <time>2019-10-13T11:28:45Z</time>
      </trkpt>
      <trkpt lat="46.032677125185728" lon="8.531930856406689">
        <ele>2045.8199999999999</ele>
        <time>2019-10-13T11:29:18Z</time>
      </trkpt>
      <trkpt lat="46.032681483775377" lon="8.531929766759276">
        <ele>2045.5899999999999</ele>
        <time>2019-10-13T11:29:56Z</time>
      </trkpt>
      <trkpt lat="46.032688692212105" lon="8.531923731788993">
        <ele>2045.3199999999999</ele>
        <time>2019-10-13T11:30:32Z</time>
      </trkpt>
      <trkpt lat="46.032676622271538" lon="8.531915936619043">
        <ele>2045.3099999999999</ele>
        <time>2019-10-13T11:31:14Z</time>
      </trkpt>
      <trkpt lat="46.03266061283648" lon="8.53190110065043">
        <ele>2045</ele>
        <time>2019-10-13T11:31:43Z</time>
      </trkpt>
      <trkpt lat="46.032661199569702" lon="8.53189866989851">
        <ele>2044.8</ele>
        <time>2019-10-13T11:32:10Z</time>
      </trkpt>
      <trkpt lat="46.032685926184058" lon="8.531909231096506">
        <ele>2044.55</ele>
        <time>2019-10-13T11:32:33Z</time>
      </trkpt>
      <trkpt lat="46.032684920355678" lon="8.531919624656439">
        <ele>2044.47</ele>
        <time>2019-10-13T11:32:59Z</time>
      </trkpt>
      <trkpt lat="46.03268307633698" lon="8.531919373199344">
        <ele>2044.8099999999999</ele>
        <time>2019-10-13T11:33:25Z</time>
      </trkpt>
      <trkpt lat="46.032665222883224" lon="8.531898418441415">
        <ele>2044.72</ele>
        <time>2019-10-13T11:33:54Z</time>
      </trkpt>
      <trkpt lat="46.032666983082891" lon="8.531905710697174">
        <ele>2044.8099999999999</ele>
        <time>2019-10-13T11:34:27Z</time>
      </trkpt>
      <trkpt lat="46.032674023881555" lon="8.531906548887491">
        <ele>2044.6900000000001</ele>
        <time>2019-10-13T11:35:08Z</time>
      </trkpt>
      <trkpt lat="46.032676957547665" lon="8.531903866678476">
        <ele>2044.9300000000001</ele>
        <time>2019-10-13T11:35:43Z</time>
      </trkpt>
      <trkpt lat="46.032674107700586" lon="8.531904118135572">
        <ele>2044.8699999999999</ele>
        <time>2019-10-13T11:36:25Z</time>
      </trkpt>
      <trkpt lat="46.032672012224793" lon="8.53191090747714">
        <ele>2045.0599999999999</ele>
        <time>2019-10-13T11:36:57Z</time>
      </trkpt>
      <trkpt lat="46.032674107700586" lon="8.531911578029394">
        <ele>2044.8399999999999</ele>
        <time>2019-10-13T11:37:31Z</time>
      </trkpt>
      <trkpt lat="46.032676035538316" lon="8.531912416219711">
        <ele>2044.96</ele>
        <time>2019-10-13T11:38:03Z</time>
      </trkpt>
      <trkpt lat="46.032676454633474" lon="8.531936723738909">
        <ele>2045.02</ele>
        <time>2019-10-13T11:38:23Z</time>
      </trkpt>
      <trkpt lat="46.03268307633698" lon="8.531924737617374">
        <ele>2045.3800000000001</ele>
        <time>2019-10-13T11:38:47Z</time>
      </trkpt>
      <trkpt lat="46.032685590907931" lon="8.531934041529894">
        <ele>2045.3699999999999</ele>
        <time>2019-10-13T11:39:14Z</time>
      </trkpt>
      <trkpt lat="46.032683495432138" lon="8.531935382634401">
        <ele>2045.3699999999999</ele>
        <time>2019-10-13T11:39:33Z</time>
      </trkpt>
      <trkpt lat="46.032683160156012" lon="8.531928258016706">
        <ele>2045.29</ele>
        <time>2019-10-13T11:40:03Z</time>
      </trkpt>
      <trkpt lat="46.032675448805094" lon="8.531917361542583">
        <ele>2045.28</ele>
        <time>2019-10-13T11:40:25Z</time>
      </trkpt>
      <trkpt lat="46.03265717625618" lon="8.531921468675137">
        <ele>2045.54</ele>
        <time>2019-10-13T11:41:13Z</time>
      </trkpt>
      <trkpt lat="46.032653320580721" lon="8.531918618828058">
        <ele>2045.9000000000001</ele>
        <time>2019-10-13T11:41:54Z</time>
      </trkpt>
      <trkpt lat="46.03265767917037" lon="8.531914008781314">
        <ele>2045.76</ele>
        <time>2019-10-13T11:42:38Z</time>
      </trkpt>
      <trkpt lat="46.032657427713275" lon="8.531911829486489">
        <ele>2045.72</ele>
        <time>2019-10-13T11:43:20Z</time>
      </trkpt>
      <trkpt lat="46.032660193741322" lon="8.531918032094836">
        <ele>2046.6400000000001</ele>
        <time>2019-10-13T11:43:50Z</time>
      </trkpt>
      <trkpt lat="46.032659774646163" lon="8.531905794516206">
        <ele>2046.6900000000001</ele>
        <time>2019-10-13T11:44:03Z</time>
      </trkpt>
      <trkpt lat="46.032665222883224" lon="8.531927419826388">
        <ele>2046.6800000000001</ele>
        <time>2019-10-13T11:44:21Z</time>
      </trkpt>
      <trkpt lat="46.032662373036146" lon="8.531941249966621">
        <ele>2046.52</ele>
        <time>2019-10-13T11:44:39Z</time>
      </trkpt>
      <trkpt lat="46.032664133235812" lon="8.531936137005687">
        <ele>2046.3800000000001</ele>
        <time>2019-10-13T11:45:01Z</time>
      </trkpt>
      <trkpt lat="46.032664971426129" lon="8.531936639919877">
        <ele>2046.3499999999999</ele>
        <time>2019-10-13T11:45:32Z</time>
      </trkpt>
      <trkpt lat="46.032665558159351" lon="8.531941585242748">
        <ele>2046.23</ele>
        <time>2019-10-13T11:45:59Z</time>
      </trkpt>
      <trkpt lat="46.032665809616446" lon="8.531943513080478">
        <ele>2046.6700000000001</ele>
        <time>2019-10-13T11:46:15Z</time>
      </trkpt>
      <trkpt lat="46.032668240368366" lon="8.53194803930819">
        <ele>2046.8099999999999</ele>
        <time>2019-10-13T11:46:37Z</time>
      </trkpt>
      <trkpt lat="46.032667653635144" lon="8.531950805336237">
        <ele>2046.5599999999999</ele>
        <time>2019-10-13T11:46:57Z</time>
      </trkpt>
      <trkpt lat="46.032664468511939" lon="8.531952230259776">
        <ele>2045.97</ele>
        <time>2019-10-13T11:47:19Z</time>
      </trkpt>
      <trkpt lat="46.032663714140654" lon="8.531953487545252">
        <ele>2045.98</ele>
        <time>2019-10-13T11:47:30Z</time>
      </trkpt>
      <trkpt lat="46.032663881778717" lon="8.531954828649759">
        <ele>2046.02</ele>
        <time>2019-10-13T11:47:46Z</time>
      </trkpt>
      <trkpt lat="46.032663462683558" lon="8.531955163925886">
        <ele>2046.24</ele>
        <time>2019-10-13T11:48:06Z</time>
      </trkpt>
      <trkpt lat="46.032635383307934" lon="8.531935382634401">
        <ele>2046.0799999999999</ele>
        <time>2019-10-13T11:48:27Z</time>
      </trkpt>
      <trkpt lat="46.03255701251328" lon="8.531927336007357">
        <ele>2044.5</ele>
        <time>2019-10-13T11:48:39Z</time>
      </trkpt>
      <trkpt lat="46.032491214573383" lon="8.531929180026054">
        <ele>2042.8</ele>
        <time>2019-10-13T11:48:51Z</time>
      </trkpt>
      <trkpt lat="46.032445784658194" lon="8.531956588849425">
        <ele>2041.1400000000001</ele>
        <time>2019-10-13T11:49:01Z</time>
      </trkpt>
      <trkpt lat="46.032423572614789" lon="8.531936975196004">
        <ele>2040.6600000000001</ele>
        <time>2019-10-13T11:49:22Z</time>
      </trkpt>
      <trkpt lat="46.032396582886577" lon="8.53195533156395">
        <ele>2038.6900000000001</ele>
        <time>2019-10-13T11:49:34Z</time>
      </trkpt>
      <trkpt lat="46.032384345307946" lon="8.531967485323548">
        <ele>2037.8599999999999</ele>
        <time>2019-10-13T11:49:47Z</time>
      </trkpt>
      <trkpt lat="46.032373029738665" lon="8.531993720680475">
        <ele>2035.8499999999999</ele>
        <time>2019-10-13T11:49:57Z</time>
      </trkpt>
      <trkpt lat="46.032325001433492" lon="8.531999923288822">
        <ele>2033.8900000000001</ele>
        <time>2019-10-13T11:50:08Z</time>
      </trkpt>
      <trkpt lat="46.032280661165714" lon="8.532036049291492">
        <ele>2031.8199999999999</ele>
        <time>2019-10-13T11:50:18Z</time>
      </trkpt>
      <trkpt lat="46.032235315069556" lon="8.532046023756266">
        <ele>2030.53</ele>
        <time>2019-10-13T11:50:30Z</time>
      </trkpt>
      <trkpt lat="46.032198434695601" lon="8.532041581347585">
        <ele>2028.47</ele>
        <time>2019-10-13T11:50:41Z</time>
      </trkpt>
      <trkpt lat="46.032172031700611" lon="8.532079383730888">
        <ele>2026.8399999999999</ele>
        <time>2019-10-13T11:50:51Z</time>
      </trkpt>
      <trkpt lat="46.032143365591764" lon="8.53211316280067">
        <ele>2026.0899999999999</ele>
        <time>2019-10-13T11:51:01Z</time>
      </trkpt>
      <trkpt lat="46.032142275944352" lon="8.532127412036061">
        <ele>2025.9100000000001</ele>
        <time>2019-10-13T11:51:14Z</time>
      </trkpt>
      <trkpt lat="46.032126434147358" lon="8.532139984890819">
        <ele>2025.96</ele>
        <time>2019-10-13T11:51:48Z</time>
      </trkpt>
      <trkpt lat="46.032141856849194" lon="8.532158844172955">
        <ele>2025.4200000000001</ele>
        <time>2019-10-13T11:52:03Z</time>
      </trkpt>
      <trkpt lat="46.032102797180414" lon="8.532214667648077">
        <ele>2024.4100000000001</ele>
        <time>2019-10-13T11:52:14Z</time>
      </trkpt>
      <trkpt lat="46.032048901543021" lon="8.532246183604002">
        <ele>2023.5899999999999</ele>
        <time>2019-10-13T11:52:25Z</time>
      </trkpt>
      <trkpt lat="46.031988887116313" lon="8.532213242724538">
        <ele>2021.9300000000001</ele>
        <time>2019-10-13T11:52:36Z</time>
      </trkpt>
      <trkpt lat="46.031980337575078" lon="8.53221332654357">
        <ele>2021.6700000000001</ele>
        <time>2019-10-13T11:52:37Z</time>
      </trkpt>
      <trkpt lat="46.031902972608805" lon="8.532185079529882">
        <ele>2019.8</ele>
        <time>2019-10-13T11:52:49Z</time>
      </trkpt>
      <trkpt lat="46.031862990930676" lon="8.532199077308178">
        <ele>2019.55</ele>
        <time>2019-10-13T11:52:59Z</time>
      </trkpt>
      <trkpt lat="46.031863493844867" lon="8.532174937427044">
        <ele>2018.97</ele>
        <time>2019-10-13T11:53:11Z</time>
      </trkpt>
      <trkpt lat="46.031853854656219" lon="8.532170243561268">
        <ele>2018.6700000000001</ele>
        <time>2019-10-13T11:53:21Z</time>
      </trkpt>
      <trkpt lat="46.031835833564401" lon="8.532161274924874">
        <ele>2018.45</ele>
        <time>2019-10-13T11:53:33Z</time>
      </trkpt>
      <trkpt lat="46.031819405034184" lon="8.532218439504504">
        <ele>2016.9300000000001</ele>
        <time>2019-10-13T11:53:44Z</time>
      </trkpt>
      <trkpt lat="46.031837007030845" lon="8.532247608527541">
        <ele>2015.27</ele>
        <time>2019-10-13T11:53:56Z</time>
      </trkpt>
      <trkpt lat="46.031865505501628" lon="8.532259427011013">
        <ele>2013.4100000000001</ele>
        <time>2019-10-13T11:54:08Z</time>
      </trkpt>
      <trkpt lat="46.031842539086938" lon="8.532276693731546">
        <ele>2011.54</ele>
        <time>2019-10-13T11:54:19Z</time>
      </trkpt>
      <trkpt lat="46.031815800815821" lon="8.532293708994985">
        <ele>2009.3199999999999</ele>
        <time>2019-10-13T11:54:30Z</time>
      </trkpt>
      <trkpt lat="46.031826362013817" lon="8.532336037606001">
        <ele>2007.73</ele>
        <time>2019-10-13T11:54:41Z</time>
      </trkpt>
      <trkpt lat="46.031847735866904" lon="8.532369146123529">
        <ele>2006.6400000000001</ele>
        <time>2019-10-13T11:54:53Z</time>
      </trkpt>
      <trkpt lat="46.031866259872913" lon="8.532411307096481">
        <ele>2004.9100000000001</ele>
        <time>2019-10-13T11:55:04Z</time>
      </trkpt>
      <trkpt lat="46.031855279579759" lon="8.532453048974276">
        <ele>2002.3099999999999</ele>
        <time>2019-10-13T11:55:16Z</time>
      </trkpt>
      <trkpt lat="46.031829798594117" lon="8.532457239925861">
        <ele>2000.8</ele>
        <time>2019-10-13T11:55:32Z</time>
      </trkpt>
      <trkpt lat="46.031816471368074" lon="8.532499149441719">
        <ele>1998.8299999999999</ele>
        <time>2019-10-13T11:55:43Z</time>
      </trkpt>
      <trkpt lat="46.031738352030516" lon="8.532506776973605">
        <ele>1996.0799999999999</ele>
        <time>2019-10-13T11:55:55Z</time>
      </trkpt>
      <trkpt lat="46.031672386452556" lon="8.532525720074773">
        <ele>1993.6500000000001</ele>
        <time>2019-10-13T11:56:06Z</time>
      </trkpt>
      <trkpt lat="46.031593345105648" lon="8.532510884106159">
        <ele>1991.28</ele>
        <time>2019-10-13T11:56:19Z</time>
      </trkpt>
      <trkpt lat="46.031489912420511" lon="8.532452043145895">
        <ele>1989.75</ele>
        <time>2019-10-13T11:56:35Z</time>
      </trkpt>
      <trkpt lat="46.031451188027859" lon="8.532448438927531">
        <ele>1988.54</ele>
        <time>2019-10-13T11:56:45Z</time>
      </trkpt>
      <trkpt lat="46.03141657076776" lon="8.532452546060085">
        <ele>1987.1300000000001</ele>
        <time>2019-10-13T11:56:55Z</time>
      </trkpt>
      <trkpt lat="46.031381282955408" lon="8.532447349280119">
        <ele>1985.9200000000001</ele>
        <time>2019-10-13T11:57:07Z</time>
      </trkpt>
      <trkpt lat="46.031324286013842" lon="8.532429244369268">
        <ele>1984.0599999999999</ele>
        <time>2019-10-13T11:57:18Z</time>
      </trkpt>
      <trkpt lat="46.031334679573774" lon="8.532455982640386">
        <ele>1982.45</ele>
        <time>2019-10-13T11:57:29Z</time>
      </trkpt>
      <trkpt lat="46.031354377046227" lon="8.532495712861419">
        <ele>1980.4100000000001</ele>
        <time>2019-10-13T11:57:40Z</time>
      </trkpt>
      <trkpt lat="46.031306097283959" lon="8.532486408948898">
        <ele>1979.26</ele>
        <time>2019-10-13T11:57:50Z</time>
      </trkpt>
      <trkpt lat="46.031270725652575" lon="8.532484900206327">
        <ele>1978.0599999999999</ele>
        <time>2019-10-13T11:58:04Z</time>
      </trkpt>
      <trkpt lat="46.031245160847902" lon="8.532467633485794">
        <ele>1977.97</ele>
        <time>2019-10-13T11:58:16Z</time>
      </trkpt>
      <trkpt lat="46.03122403845191" lon="8.532461430877447">
        <ele>1976.6700000000001</ele>
        <time>2019-10-13T11:58:28Z</time>
      </trkpt>
      <trkpt lat="46.03120400570333" lon="8.532446511089802">
        <ele>1975.99</ele>
        <time>2019-10-13T11:58:39Z</time>
      </trkpt>
      <trkpt lat="46.031184978783131" lon="8.532438799738884">
        <ele>1975.52</ele>
        <time>2019-10-13T11:58:51Z</time>
      </trkpt>
      <trkpt lat="46.031189253553748" lon="8.532461430877447">
        <ele>1973.97</ele>
        <time>2019-10-13T11:59:01Z</time>
      </trkpt>
      <trkpt lat="46.031165365129709" lon="8.53247718885541">
        <ele>1972.5899999999999</ele>
        <time>2019-10-13T11:59:11Z</time>
      </trkpt>
      <trkpt lat="46.031143656000495" lon="8.532513733953238">
        <ele>1970.0999999999999</ele>
        <time>2019-10-13T11:59:22Z</time>
      </trkpt>
      <trkpt lat="46.031060675159097" lon="8.532530916854739">
        <ele>1967.75</ele>
        <time>2019-10-13T11:59:33Z</time>
      </trkpt>
      <trkpt lat="46.031034104526043" lon="8.532541980966926">
        <ele>1966.3099999999999</ele>
        <time>2019-10-13T11:59:45Z</time>
      </trkpt>
      <trkpt lat="46.031037792563438" lon="8.532573999837041">
        <ele>1965.3</ele>
        <time>2019-10-13T11:59:56Z</time>
      </trkpt>
      <trkpt lat="46.031019855290651" lon="8.53257198818028">
        <ele>1964.28</ele>
        <time>2019-10-13T12:00:07Z</time>
      </trkpt>
      <trkpt lat="46.0310139041394" lon="8.53259495459497">
        <ele>1962.3900000000001</ele>
        <time>2019-10-13T12:00:18Z</time>
      </trkpt>
      <trkpt lat="46.03099387139082" lon="8.532640133053064">
        <ele>1960.02</ele>
        <time>2019-10-13T12:00:28Z</time>
      </trkpt>
      <trkpt lat="46.030953219160438" lon="8.532689837738872">
        <ele>1958.1800000000001</ele>
        <time>2019-10-13T12:00:39Z</time>
      </trkpt>
      <trkpt lat="46.030930504202843" lon="8.532754043117166">
        <ele>1956.5999999999999</ele>
        <time>2019-10-13T12:00:51Z</time>
      </trkpt>
      <trkpt lat="46.0309206135571" lon="8.532806094735861">
        <ele>1955.5899999999999</ele>
        <time>2019-10-13T12:01:03Z</time>
      </trkpt>
      <trkpt lat="46.03088348172605" lon="8.5328627564013">
        <ele>1952.53</ele>
        <time>2019-10-13T12:01:13Z</time>
      </trkpt>
      <trkpt lat="46.030852301046252" lon="8.532869210466743">
        <ele>1952.2</ele>
        <time>2019-10-13T12:01:16Z</time>
      </trkpt>
      <trkpt lat="46.030781473964453" lon="8.532848423346877">
        <ele>1952.53</ele>
        <time>2019-10-13T12:01:28Z</time>
      </trkpt>
      <trkpt lat="46.030748365446925" lon="8.532853787764907">
        <ele>1949.8800000000001</ele>
        <time>2019-10-13T12:01:42Z</time>
      </trkpt>
      <trkpt lat="46.030722549185157" lon="8.532835096120834">
        <ele>1947.77</ele>
        <time>2019-10-13T12:01:53Z</time>
      </trkpt>
      <trkpt lat="46.030696397647262" lon="8.532819673418999">
        <ele>1945.22</ele>
        <time>2019-10-13T12:02:07Z</time>
      </trkpt>
      <trkpt lat="46.030673263594508" lon="8.532884800806642">
        <ele>1943.71</ele>
        <time>2019-10-13T12:02:17Z</time>
      </trkpt>
      <trkpt lat="46.030658259987831" lon="8.532940372824669">
        <ele>1941.28</ele>
        <time>2019-10-13T12:02:28Z</time>
      </trkpt>
      <trkpt lat="46.030637724325061" lon="8.532987982034683">
        <ele>1939.75</ele>
        <time>2019-10-13T12:02:40Z</time>
      </trkpt>
      <trkpt lat="46.03063864633441" lon="8.533035339787602">
        <ele>1939.03</ele>
        <time>2019-10-13T12:02:49Z</time>
      </trkpt>
      <trkpt lat="46.030636047944427" lon="8.53307775221765">
        <ele>1937.4100000000001</ele>
        <time>2019-10-13T12:03:01Z</time>
      </trkpt>
      <trkpt lat="46.030600676313043" lon="8.533046487718821">
        <ele>1935.01</ele>
        <time>2019-10-13T12:03:12Z</time>
      </trkpt>
      <trkpt lat="46.03056245483458" lon="8.533115051686764">
        <ele>1931.98</ele>
        <time>2019-10-13T12:03:25Z</time>
      </trkpt>
      <trkpt lat="46.030526328831911" lon="8.533161487430334">
        <ele>1929.8</ele>
        <time>2019-10-13T12:03:36Z</time>
      </trkpt>
      <trkpt lat="46.03051501326263" lon="8.533127792179585">
        <ele>1928.1700000000001</ele>
        <time>2019-10-13T12:03:48Z</time>
      </trkpt>
      <trkpt lat="46.03050185367465" lon="8.53311438113451">
        <ele>1926.27</ele>
        <time>2019-10-13T12:03:58Z</time>
      </trkpt>
      <trkpt lat="46.030476959422231" lon="8.533096527680755">
        <ele>1923.8399999999999</ele>
        <time>2019-10-13T12:04:11Z</time>
      </trkpt>
      <trkpt lat="46.030459860339761" lon="8.533089319244027">
        <ele>1922.6500000000001</ele>
        <time>2019-10-13T12:04:21Z</time>
      </trkpt>
      <trkpt lat="46.030436474829912" lon="8.5330889839679">
        <ele>1920.6900000000001</ele>
        <time>2019-10-13T12:04:29Z</time>
      </trkpt>
      <trkpt lat="46.030430356040597" lon="8.533115806058049">
        <ele>1920.27</ele>
        <time>2019-10-13T12:04:31Z</time>
      </trkpt>
      <trkpt lat="46.030402947217226" lon="8.53322577662766">
        <ele>1918.29</ele>
        <time>2019-10-13T12:04:45Z</time>
      </trkpt>
      <trkpt lat="46.030381992459297" lon="8.533333567902446">
        <ele>1916.28</ele>
        <time>2019-10-13T12:04:57Z</time>
      </trkpt>
      <trkpt lat="46.030377298593521" lon="8.533377991989255">
        <ele>1915.95</ele>
        <time>2019-10-13T12:05:11Z</time>
      </trkpt>
      <trkpt lat="46.030381070449948" lon="8.533431803807616">
        <ele>1915.3699999999999</ele>
        <time>2019-10-13T12:05:22Z</time>
      </trkpt>
      <trkpt lat="46.030395571142435" lon="8.533468432724476">
        <ele>1913.3</ele>
        <time>2019-10-13T12:05:35Z</time>
      </trkpt>
      <trkpt lat="46.030422393232584" lon="8.533535320311785">
        <ele>1910.02</ele>
        <time>2019-10-13T12:05:49Z</time>
      </trkpt>
      <trkpt lat="46.030356595292687" lon="8.533588796854019">
        <ele>1908.6400000000001</ele>
        <time>2019-10-13T12:06:01Z</time>
      </trkpt>
      <trkpt lat="46.03034351952374" lon="8.533622492104769">
        <ele>1907.4400000000001</ele>
        <time>2019-10-13T12:06:13Z</time>
      </trkpt>
      <trkpt lat="46.030304292216897" lon="8.533641770482063">
        <ele>1906.6300000000001</ele>
        <time>2019-10-13T12:06:25Z</time>
      </trkpt>
      <trkpt lat="46.030254838988185" lon="8.533648727461696">
        <ele>1903.9000000000001</ele>
        <time>2019-10-13T12:06:37Z</time>
      </trkpt>
      <trkpt lat="46.030232291668653" lon="8.533646296709776">
        <ele>1903.1400000000001</ele>
        <time>2019-10-13T12:06:50Z</time>
      </trkpt>
      <trkpt lat="46.030210414901376" lon="8.533654846251011">
        <ele>1902.5899999999999</ele>
        <time>2019-10-13T12:07:01Z</time>
      </trkpt>
      <trkpt lat="46.030201613903046" lon="8.533663311973214">
        <ele>1902.1600000000001</ele>
        <time>2019-10-13T12:07:13Z</time>
      </trkpt>
      <trkpt lat="46.030164062976837" lon="8.533648978918791">
        <ele>1900.22</ele>
        <time>2019-10-13T12:07:26Z</time>
      </trkpt>
      <trkpt lat="46.030151657760143" lon="8.533651325851679">
        <ele>1899.3099999999999</ele>
        <time>2019-10-13T12:07:38Z</time>
      </trkpt>
      <trkpt lat="46.030143862590194" lon="8.533655600622296">
        <ele>1898.9100000000001</ele>
        <time>2019-10-13T12:07:57Z</time>
      </trkpt>
      <trkpt lat="46.030105976387858" lon="8.533717710524797">
        <ele>1897.4400000000001</ele>
        <time>2019-10-13T12:08:11Z</time>
      </trkpt>
      <trkpt lat="46.030050069093704" lon="8.533720057457686">
        <ele>1895.24</ele>
        <time>2019-10-13T12:08:23Z</time>
      </trkpt>
      <trkpt lat="46.030017212033272" lon="8.533714273944497">
        <ele>1894.3499999999999</ele>
        <time>2019-10-13T12:08:46Z</time>
      </trkpt>
      <trkpt lat="46.029991814866662" lon="8.533719051629305">
        <ele>1893.23</ele>
        <time>2019-10-13T12:08:55Z</time>
      </trkpt>
      <trkpt lat="46.029984774067998" lon="8.533731121569872">
        <ele>1892.3599999999999</ele>
        <time>2019-10-13T12:09:07Z</time>
      </trkpt>
      <trkpt lat="46.029971530660987" lon="8.533744364976883">
        <ele>1890.8</ele>
        <time>2019-10-13T12:09:19Z</time>
      </trkpt>
      <trkpt lat="46.029942948371172" lon="8.533741096034646">
        <ele>1889.0699999999999</ele>
        <time>2019-10-13T12:09:29Z</time>
      </trkpt>
      <trkpt lat="46.029919311404228" lon="8.533728271722794">
        <ele>1887.0699999999999</ele>
        <time>2019-10-13T12:09:41Z</time>
      </trkpt>
      <trkpt lat="46.02989156730473" lon="8.533764900639653">
        <ele>1884.96</ele>
        <time>2019-10-13T12:09:52Z</time>
      </trkpt>
      <trkpt lat="46.029876982793212" lon="8.533777389675379">
        <ele>1884.48</ele>
        <time>2019-10-13T12:10:07Z</time>
      </trkpt>
      <trkpt lat="46.029806910082698" lon="8.533816030249">
        <ele>1884.3199999999999</ele>
        <time>2019-10-13T12:10:19Z</time>
      </trkpt>
      <trkpt lat="46.029767682775855" lon="8.53386003524065">
        <ele>1887.02</ele>
        <time>2019-10-13T12:10:31Z</time>
      </trkpt>
      <trkpt lat="46.029715547338128" lon="8.533924240618944">
        <ele>1887.8099999999999</ele>
        <time>2019-10-13T12:10:42Z</time>
      </trkpt>
      <trkpt lat="46.029693083837628" lon="8.533939411863685">
        <ele>1888.25</ele>
        <time>2019-10-13T12:10:53Z</time>
      </trkpt>
      <trkpt lat="46.029662825167179" lon="8.533961540088058">
        <ele>1887.3</ele>
        <time>2019-10-13T12:11:03Z</time>
      </trkpt>
      <trkpt lat="46.029625190421939" lon="8.533975202590227">
        <ele>1886.6099999999999</ele>
        <time>2019-10-13T12:11:07Z</time>
      </trkpt>
      <trkpt lat="46.029574982821941" lon="8.534001018851996">
        <ele>1886.27</ele>
        <time>2019-10-13T12:11:21Z</time>
      </trkpt>
      <trkpt lat="46.029543885961175" lon="8.534015100449324">
        <ele>1886.52</ele>
        <time>2019-10-13T12:11:31Z</time>
      </trkpt>
      <trkpt lat="46.029515387490392" lon="8.534005964174867">
        <ele>1886.8199999999999</ele>
        <time>2019-10-13T12:11:45Z</time>
      </trkpt>
      <trkpt lat="46.029503149911761" lon="8.534009987488389">
        <ele>1885.6199999999999</ele>
        <time>2019-10-13T12:11:57Z</time>
      </trkpt>
      <trkpt lat="46.029450427740812" lon="8.53403496555984">
        <ele>1883.27</ele>
        <time>2019-10-13T12:12:09Z</time>
      </trkpt>
      <trkpt lat="46.029439531266689" lon="8.534048376604915">
        <ele>1882.6300000000001</ele>
        <time>2019-10-13T12:12:16Z</time>
      </trkpt>
      <trkpt lat="46.029410865157843" lon="8.534085508435965">
        <ele>1881.6300000000001</ele>
        <time>2019-10-13T12:12:20Z</time>
      </trkpt>
      <trkpt lat="46.029327968135476" lon="8.534103613346815">
        <ele>1881.9200000000001</ele>
        <time>2019-10-13T12:12:33Z</time>
      </trkpt>
      <trkpt lat="46.029311958700418" lon="8.534083748236299">
        <ele>1880.79</ele>
        <time>2019-10-13T12:12:45Z</time>
      </trkpt>
      <trkpt lat="46.029311204329133" lon="8.534108139574528">
        <ele>1879.73</ele>
        <time>2019-10-13T12:12:57Z</time>
      </trkpt>
      <trkpt lat="46.029294105246663" lon="8.534151557832956">
        <ele>1877.71</ele>
        <time>2019-10-13T12:13:07Z</time>
      </trkpt>
      <trkpt lat="46.029262421652675" lon="8.534213751554489">
        <ele>1876.0699999999999</ele>
        <time>2019-10-13T12:13:18Z</time>
      </trkpt>
      <trkpt lat="46.029228055849671" lon="8.534206794574857">
        <ele>1874.45</ele>
        <time>2019-10-13T12:13:31Z</time>
      </trkpt>
      <trkpt lat="46.029204837977886" lon="8.534169411286712">
        <ele>1872.54</ele>
        <time>2019-10-13T12:13:46Z</time>
      </trkpt>
      <trkpt lat="46.029173238202929" lon="8.534156167879701">
        <ele>1870.29</ele>
        <time>2019-10-13T12:13:59Z</time>
      </trkpt>
      <trkpt lat="46.029139207676053" lon="8.534160861745477">
        <ele>1867.6500000000001</ele>
        <time>2019-10-13T12:14:11Z</time>
      </trkpt>
      <trkpt lat="46.029123701155186" lon="8.534122724086046">
        <ele>1866.28</ele>
        <time>2019-10-13T12:14:25Z</time>
      </trkpt>
      <trkpt lat="46.029116157442331" lon="8.534089028835297">
        <ele>1865.5599999999999</ele>
        <time>2019-10-13T12:14:37Z</time>
      </trkpt>
      <trkpt lat="46.029104758054018" lon="8.534077797085047">
        <ele>1864.4200000000001</ele>
        <time>2019-10-13T12:14:50Z</time>
      </trkpt>
      <trkpt lat="46.029063602909446" lon="8.534067906439304">
        <ele>1861.4100000000001</ele>
        <time>2019-10-13T12:15:02Z</time>
      </trkpt>
      <trkpt lat="46.029008785262704" lon="8.534033624455333">
        <ele>1859.21</ele>
        <time>2019-10-13T12:15:15Z</time>
      </trkpt>
      <trkpt lat="46.028983136638999" lon="8.534007640555501">
        <ele>1858.55</ele>
        <time>2019-10-13T12:15:27Z</time>
      </trkpt>
      <trkpt lat="46.028973245993257" lon="8.533970844000578">
        <ele>1858.4000000000001</ele>
        <time>2019-10-13T12:15:37Z</time>
      </trkpt>
      <trkpt lat="46.028980202972889" lon="8.533952403813601">
        <ele>1858.1500000000001</ele>
        <time>2019-10-13T12:15:49Z</time>
      </trkpt>
      <trkpt lat="46.028947597369552" lon="8.533946620300412">
        <ele>1854.97</ele>
        <time>2019-10-13T12:16:06Z</time>
      </trkpt>
      <trkpt lat="46.028919601812959" lon="8.533940417692065">
        <ele>1852.1199999999999</ele>
        <time>2019-10-13T12:16:23Z</time>
      </trkpt>
      <trkpt lat="46.028903089463711" lon="8.533929185941815">
        <ele>1850.1900000000001</ele>
        <time>2019-10-13T12:16:34Z</time>
      </trkpt>
      <trkpt lat="46.02889034897089" lon="8.533952655270696">
        <ele>1848.54</ele>
        <time>2019-10-13T12:16:45Z</time>
      </trkpt>
      <trkpt lat="46.028870735317469" lon="8.53392063640058">
        <ele>1846.1400000000001</ele>
        <time>2019-10-13T12:16:57Z</time>
      </trkpt>
      <trkpt lat="46.028840644285083" lon="8.533906973898411">
        <ele>1843.0899999999999</ele>
        <time>2019-10-13T12:17:08Z</time>
      </trkpt>
      <trkpt lat="46.028789766132832" lon="8.533912422135472">
        <ele>1840.9000000000001</ele>
        <time>2019-10-13T12:17:23Z</time>
      </trkpt>
      <trkpt lat="46.028726231306791" lon="8.533962462097406">
        <ele>1838.5699999999999</ele>
        <time>2019-10-13T12:17:36Z</time>
      </trkpt>
      <trkpt lat="46.028659846633673" lon="8.533981321379542">
        <ele>1836.47</ele>
        <time>2019-10-13T12:17:47Z</time>
      </trkpt>
      <trkpt lat="46.028586588799953" lon="8.533985428512096">
        <ele>1834.0599999999999</ele>
        <time>2019-10-13T12:17:58Z</time>
      </trkpt>
      <trkpt lat="46.028576781973243" lon="8.533988781273365">
        <ele>1833.3499999999999</ele>
        <time>2019-10-13T12:18:12Z</time>
      </trkpt>
      <trkpt lat="46.028558174148202" lon="8.533996576443315">
        <ele>1833.1199999999999</ele>
        <time>2019-10-13T12:18:24Z</time>
      </trkpt>
      <trkpt lat="46.028550546616316" lon="8.533991128206253">
        <ele>1832.78</ele>
        <time>2019-10-13T12:18:35Z</time>
      </trkpt>
      <trkpt lat="46.028550546616316" lon="8.533987523987889">
        <ele>1832.9100000000001</ele>
        <time>2019-10-13T12:18:53Z</time>
      </trkpt>
      <trkpt lat="46.028521461412311" lon="8.53397972881794">
        <ele>1833.01</ele>
        <time>2019-10-13T12:19:07Z</time>
      </trkpt>
      <trkpt lat="46.02851701900363" lon="8.533982327207923">
        <ele>1833.3299999999999</ele>
        <time>2019-10-13T12:19:25Z</time>
      </trkpt>
      <trkpt lat="46.028517102822661" lon="8.533977884799242">
        <ele>1833.3199999999999</ele>
        <time>2019-10-13T12:19:44Z</time>
      </trkpt>
      <trkpt lat="46.028507212176919" lon="8.533971766009927">
        <ele>1833.0599999999999</ele>
        <time>2019-10-13T12:20:03Z</time>
      </trkpt>
      <trkpt lat="46.028484497219324" lon="8.53397092781961">
        <ele>1831.96</ele>
        <time>2019-10-13T12:20:17Z</time>
      </trkpt>
      <trkpt lat="46.028471756726503" lon="8.533959360793233">
        <ele>1831.96</ele>
        <time>2019-10-13T12:20:38Z</time>
      </trkpt>
      <trkpt lat="46.028461111709476" lon="8.533977717161179">
        <ele>1830.49</ele>
        <time>2019-10-13T12:20:55Z</time>
      </trkpt>
      <trkpt lat="46.02846086025238" lon="8.533989368006587">
        <ele>1829.3099999999999</ele>
        <time>2019-10-13T12:21:09Z</time>
      </trkpt>
      <trkpt lat="46.028453232720494" lon="8.5339938942343">
        <ele>1828.6400000000001</ele>
        <time>2019-10-13T12:21:11Z</time>
      </trkpt>
      <trkpt lat="46.028382992371917" lon="8.53397679515183">
        <ele>1827.48</ele>
        <time>2019-10-13T12:21:22Z</time>
      </trkpt>
      <trkpt lat="46.028345860540867" lon="8.533990373834968">
        <ele>1826.6900000000001</ele>
        <time>2019-10-13T12:21:35Z</time>
      </trkpt>
      <trkpt lat="46.02833135984838" lon="8.533986015245318">
        <ele>1826.1700000000001</ele>
        <time>2019-10-13T12:21:48Z</time>
      </trkpt>
      <trkpt lat="46.028311746194959" lon="8.533984422683716">
        <ele>1824.9100000000001</ele>
        <time>2019-10-13T12:22:00Z</time>
      </trkpt>
      <trkpt lat="46.028265310451388" lon="8.533977465704083">
        <ele>1823.78</ele>
        <time>2019-10-13T12:22:09Z</time>
      </trkpt>
      <trkpt lat="46.0282111633569" lon="8.533943518996239">
        <ele>1822.75</ele>
        <time>2019-10-13T12:22:19Z</time>
      </trkpt>
      <trkpt lat="46.028188364580274" lon="8.53394259698689">
        <ele>1821.73</ele>
        <time>2019-10-13T12:22:30Z</time>
      </trkpt>
      <trkpt lat="46.028240583837032" lon="8.534021554514766">
        <ele>1818.53</ele>
        <time>2019-10-13T12:22:43Z</time>
      </trkpt>
      <trkpt lat="46.028228932991624" lon="8.534058183431625">
        <ele>1815.53</ele>
        <time>2019-10-13T12:22:57Z</time>
      </trkpt>
      <trkpt lat="46.028198590502143" lon="8.534043012186885">
        <ele>1814.1099999999999</ele>
        <time>2019-10-13T12:23:09Z</time>
      </trkpt>
      <trkpt lat="46.028169840574265" lon="8.534089531749487">
        <ele>1810.96</ele>
        <time>2019-10-13T12:23:20Z</time>
      </trkpt>
      <trkpt lat="46.028165649622679" lon="8.534120712429285">
        <ele>1808.98</ele>
        <time>2019-10-13T12:23:33Z</time>
      </trkpt>
      <trkpt lat="46.028140839189291" lon="8.534133620560169">
        <ele>1808.51</ele>
        <time>2019-10-13T12:23:42Z</time>
      </trkpt>
      <trkpt lat="46.028033383190632" lon="8.534148121252656">
        <ele>1805.1600000000001</ele>
        <time>2019-10-13T12:23:58Z</time>
      </trkpt>
      <trkpt lat="46.028024666011333" lon="8.534149713814259">
        <ele>1804.72</ele>
        <time>2019-10-13T12:23:59Z</time>
      </trkpt>
      <trkpt lat="46.027993820607662" lon="8.534140409901738">
        <ele>1804.3499999999999</ele>
        <time>2019-10-13T12:24:02Z</time>
      </trkpt>
      <trkpt lat="46.027939170598984" lon="8.53412582539022">
        <ele>1804.8299999999999</ele>
        <time>2019-10-13T12:24:08Z</time>
      </trkpt>
      <trkpt lat="46.02781436406076" lon="8.534182067960501">
        <ele>1802.9400000000001</ele>
        <time>2019-10-13T12:24:21Z</time>
      </trkpt>
      <trkpt lat="46.027730042114854" lon="8.534228587523103">
        <ele>1801.4400000000001</ele>
        <time>2019-10-13T12:24:34Z</time>
      </trkpt>
      <trkpt lat="46.027731215581298" lon="8.534265048801899">
        <ele>1799.1099999999999</ele>
        <time>2019-10-13T12:24:47Z</time>
      </trkpt>
      <trkpt lat="46.027762731537223" lon="8.534271419048309">
        <ele>1797.24</ele>
        <time>2019-10-13T12:24:56Z</time>
      </trkpt>
      <trkpt lat="46.027798354625702" lon="8.534311903640628">
        <ele>1795.05</ele>
        <time>2019-10-13T12:25:08Z</time>
      </trkpt>
      <trkpt lat="46.027815453708172" lon="8.534366302192211">
        <ele>1792.9300000000001</ele>
        <time>2019-10-13T12:25:20Z</time>
      </trkpt>
      <trkpt lat="46.027793157845736" lon="8.534421706572175">
        <ele>1790.24</ele>
        <time>2019-10-13T12:25:32Z</time>
      </trkpt>
      <trkpt lat="46.02776700630784" lon="8.534470237791538">
        <ele>1787.71</ele>
        <time>2019-10-13T12:25:43Z</time>
      </trkpt>
      <trkpt lat="46.027756612747908" lon="8.534479876980186">
        <ele>1787.4400000000001</ele>
        <time>2019-10-13T12:25:45Z</time>
      </trkpt>
      <trkpt lat="46.027710596099496" lon="8.534512901678681">
        <ele>1786.3800000000001</ele>
        <time>2019-10-13T12:25:57Z</time>
      </trkpt>
      <trkpt lat="46.027661561965942" lon="8.534520277753472">
        <ele>1784.6600000000001</ele>
        <time>2019-10-13T12:26:11Z</time>
      </trkpt>
      <trkpt lat="46.027634656056762" lon="8.534531341865659">
        <ele>1783.2</ele>
        <time>2019-10-13T12:26:23Z</time>
      </trkpt>
      <trkpt lat="46.027605570852757" lon="8.534580040723085">
        <ele>1780.9400000000001</ele>
        <time>2019-10-13T12:26:35Z</time>
      </trkpt>
      <trkpt lat="46.027564164251089" lon="8.534614406526089">
        <ele>1777.78</ele>
        <time>2019-10-13T12:26:45Z</time>
      </trkpt>
      <trkpt lat="46.027535330504179" lon="8.534629745408893">
        <ele>1777.04</ele>
        <time>2019-10-13T12:26:53Z</time>
      </trkpt>
      <trkpt lat="46.027497947216034" lon="8.534640055149794">
        <ele>1774.74</ele>
        <time>2019-10-13T12:27:05Z</time>
      </trkpt>
      <trkpt lat="46.027463246136904" lon="8.534671235829592">
        <ele>1771.72</ele>
        <time>2019-10-13T12:27:16Z</time>
      </trkpt>
      <trkpt lat="46.027475316077471" lon="8.534699650481343">
        <ele>1770.3099999999999</ele>
        <time>2019-10-13T12:27:29Z</time>
      </trkpt>
      <trkpt lat="46.027479255571961" lon="8.534754635766149">
        <ele>1768.3</ele>
        <time>2019-10-13T12:27:41Z</time>
      </trkpt>
      <trkpt lat="46.027468107640743" lon="8.534785313531756">
        <ele>1766.6199999999999</ele>
        <time>2019-10-13T12:27:50Z</time>
      </trkpt>
      <trkpt lat="46.027432652190328" lon="8.534775590524077">
        <ele>1765.55</ele>
        <time>2019-10-13T12:28:04Z</time>
      </trkpt>
      <trkpt lat="46.027399124577641" lon="8.534759413450956">
        <ele>1764.97</ele>
        <time>2019-10-13T12:28:16Z</time>
      </trkpt>
      <trkpt lat="46.027387892827392" lon="8.534742565825582">
        <ele>1764.3699999999999</ele>
        <time>2019-10-13T12:28:33Z</time>
      </trkpt>
      <trkpt lat="46.027380265295506" lon="8.534763939678669">
        <ele>1762.98</ele>
        <time>2019-10-13T12:28:44Z</time>
      </trkpt>
      <trkpt lat="46.027385462075472" lon="8.534758239984512">
        <ele>1762.79</ele>
        <time>2019-10-13T12:29:10Z</time>
      </trkpt>
      <trkpt lat="46.027328716591001" lon="8.53476301766932">
        <ele>1760.8299999999999</ele>
        <time>2019-10-13T12:29:24Z</time>
      </trkpt>
      <trkpt lat="46.027313210070133" lon="8.534766538068652">
        <ele>1759.95</ele>
        <time>2019-10-13T12:29:26Z</time>
      </trkpt>
      <trkpt lat="46.027292758226395" lon="8.534767292439938">
        <ele>1759.4300000000001</ele>
        <time>2019-10-13T12:29:28Z</time>
      </trkpt>
      <trkpt lat="46.027178512886167" lon="8.534781457856298">
        <ele>1757.9300000000001</ele>
        <time>2019-10-13T12:29:41Z</time>
      </trkpt>
      <trkpt lat="46.027159234508872" lon="8.534784223884344">
        <ele>1758.74</ele>
        <time>2019-10-13T12:29:52Z</time>
      </trkpt>
      <trkpt lat="46.027148924767971" lon="8.534772405400872">
        <ele>1758.1400000000001</ele>
        <time>2019-10-13T12:30:04Z</time>
      </trkpt>
      <trkpt lat="46.027132580056787" lon="8.534775841981173">
        <ele>1756.5899999999999</ele>
        <time>2019-10-13T12:30:19Z</time>
      </trkpt>
      <trkpt lat="46.02709611877799" lon="8.534800568595529">
        <ele>1753.76</ele>
        <time>2019-10-13T12:30:31Z</time>
      </trkpt>
      <trkpt lat="46.027098130434752" lon="8.534830324351788">
        <ele>1752.29</ele>
        <time>2019-10-13T12:30:43Z</time>
      </trkpt>
      <trkpt lat="46.027097124606371" lon="8.534891763702035">
        <ele>1749.6400000000001</ele>
        <time>2019-10-13T12:30:54Z</time>
      </trkpt>
      <trkpt lat="46.027071308344603" lon="8.534902660176158">
        <ele>1748.2</ele>
        <time>2019-10-13T12:31:06Z</time>
      </trkpt>
      <trkpt lat="46.027031829580665" lon="8.534925123676658">
        <ele>1747.24</ele>
        <time>2019-10-13T12:31:19Z</time>
      </trkpt>
      <trkpt lat="46.027009785175323" lon="8.534920429810882">
        <ele>1746.96</ele>
        <time>2019-10-13T12:31:33Z</time>
      </trkpt>
      <trkpt lat="46.026978520676494" lon="8.534930236637592">
        <ele>1745.8399999999999</ele>
        <time>2019-10-13T12:31:52Z</time>
      </trkpt>
      <trkpt lat="46.026972653344274" lon="8.534974912181497">
        <ele>1743.77</ele>
        <time>2019-10-13T12:32:03Z</time>
      </trkpt>
      <trkpt lat="46.026954632252455" lon="8.534973654896021">
        <ele>1742.1300000000001</ele>
        <time>2019-10-13T12:32:12Z</time>
      </trkpt>
      <trkpt lat="46.026948597282171" lon="8.535011205822229">
        <ele>1740.1500000000001</ele>
        <time>2019-10-13T12:32:23Z</time>
      </trkpt>
      <trkpt lat="46.026902580633759" lon="8.535053366795182">
        <ele>1737.79</ele>
        <time>2019-10-13T12:32:35Z</time>
      </trkpt>
      <trkpt lat="46.026888834312558" lon="8.535081194713712">
        <ele>1735.95</ele>
        <time>2019-10-13T12:32:47Z</time>
      </trkpt>
      <trkpt lat="46.026866622269154" lon="8.535108184441924">
        <ele>1733.74</ele>
        <time>2019-10-13T12:32:55Z</time>
      </trkpt>
      <trkpt lat="46.026810631155968" lon="8.535125618800521">
        <ele>1731.55</ele>
        <time>2019-10-13T12:33:07Z</time>
      </trkpt>
      <trkpt lat="46.026780623942614" lon="8.535152105614543">
        <ele>1729.6500000000001</ele>
        <time>2019-10-13T12:33:17Z</time>
      </trkpt>
      <trkpt lat="46.026758830994368" lon="8.535157386213541">
        <ele>1729.28</ele>
        <time>2019-10-13T12:33:20Z</time>
      </trkpt>
      <trkpt lat="46.026734942570329" lon="8.535246569663286">
        <ele>1728.1700000000001</ele>
        <time>2019-10-13T12:33:31Z</time>
      </trkpt>
      <trkpt lat="46.026737038046122" lon="8.535269452258945">
        <ele>1727.6400000000001</ele>
        <time>2019-10-13T12:33:37Z</time>
      </trkpt>
      <trkpt lat="46.02671449072659" lon="8.535363413393498">
        <ele>1726.5799999999999</ele>
        <time>2019-10-13T12:33:46Z</time>
      </trkpt>
      <trkpt lat="46.026674760505557" lon="8.535452596843243">
        <ele>1724.3900000000001</ele>
        <time>2019-10-13T12:33:57Z</time>
      </trkpt>
      <trkpt lat="46.026643831282854" lon="8.535515628755093">
        <ele>1722.27</ele>
        <time>2019-10-13T12:34:10Z</time>
      </trkpt>
      <trkpt lat="46.026650369167328" lon="8.535579666495323">
        <ele>1720</ele>
        <time>2019-10-13T12:34:19Z</time>
      </trkpt>
      <trkpt lat="46.026597730815411" lon="8.535640267655253">
        <ele>1717.4000000000001</ele>
        <time>2019-10-13T12:34:33Z</time>
      </trkpt>
      <trkpt lat="46.026597395539284" lon="8.535663736984134">
        <ele>1716.5699999999999</ele>
        <time>2019-10-13T12:34:47Z</time>
      </trkpt>
      <trkpt lat="46.026619942858815" lon="8.535695755854249">
        <ele>1714.8699999999999</ele>
        <time>2019-10-13T12:34:58Z</time>
      </trkpt>
      <trkpt lat="46.026605274528265" lon="8.535734731703997">
        <ele>1712.99</ele>
        <time>2019-10-13T12:35:06Z</time>
      </trkpt>
      <trkpt lat="46.026593036949635" lon="8.535763649269939">
        <ele>1711.52</ele>
        <time>2019-10-13T12:35:19Z</time>
      </trkpt>
      <trkpt lat="46.02659965865314" lon="8.535807905718684">
        <ele>1709.6600000000001</ele>
        <time>2019-10-13T12:35:31Z</time>
      </trkpt>
      <trkpt lat="46.026606615632772" lon="8.535837745293975">
        <ele>1708.52</ele>
        <time>2019-10-13T12:35:41Z</time>
      </trkpt>
      <trkpt lat="46.026580967009068" lon="8.535858280956745">
        <ele>1707.3599999999999</ele>
        <time>2019-10-13T12:35:53Z</time>
      </trkpt>
      <trkpt lat="46.026580715551972" lon="8.535893987864256">
        <ele>1705.1400000000001</ele>
        <time>2019-10-13T12:36:05Z</time>
      </trkpt>
      <trkpt lat="46.026586415246129" lon="8.535931874066591">
        <ele>1703.0999999999999</ele>
        <time>2019-10-13T12:36:17Z</time>
      </trkpt>
      <trkpt lat="46.026565711945295" lon="8.535949056968093">
        <ele>1701.0899999999999</ele>
        <time>2019-10-13T12:36:27Z</time>
      </trkpt>
      <trkpt lat="46.026562945917249" lon="8.536006221547723">
        <ele>1698.45</ele>
        <time>2019-10-13T12:36:36Z</time>
      </trkpt>
      <trkpt lat="46.026520114392042" lon="8.536068079993129">
        <ele>1695.9100000000001</ele>
        <time>2019-10-13T12:36:47Z</time>
      </trkpt>
      <trkpt lat="46.026463452726603" lon="8.536079479381442">
        <ele>1694.77</ele>
        <time>2019-10-13T12:36:59Z</time>
      </trkpt>
      <trkpt lat="46.026410814374685" lon="8.536071935668588">
        <ele>1694.3800000000001</ele>
        <time>2019-10-13T12:37:16Z</time>
      </trkpt>
      <trkpt lat="46.026384327560663" lon="8.536081491038203">
        <ele>1693.97</ele>
        <time>2019-10-13T12:37:28Z</time>
      </trkpt>
      <trkpt lat="46.026368821039796" lon="8.536064978688955">
        <ele>1692.95</ele>
        <time>2019-10-13T12:37:41Z</time>
      </trkpt>
      <trkpt lat="46.026352979242802" lon="8.536083335056901">
        <ele>1691.1199999999999</ele>
        <time>2019-10-13T12:37:53Z</time>
      </trkpt>
      <trkpt lat="46.026294473558664" lon="8.536106301471591">
        <ele>1688.55</ele>
        <time>2019-10-13T12:38:05Z</time>
      </trkpt>
      <trkpt lat="46.026287935674191" lon="8.536102613434196">
        <ele>1688.25</ele>
        <time>2019-10-13T12:38:18Z</time>
      </trkpt>
      <trkpt lat="46.026279553771019" lon="8.536116611212492">
        <ele>1686.9300000000001</ele>
        <time>2019-10-13T12:38:28Z</time>
      </trkpt>
      <trkpt lat="46.026251306757331" lon="8.53613018989563">
        <ele>1685.6300000000001</ele>
        <time>2019-10-13T12:38:38Z</time>
      </trkpt>
      <trkpt lat="46.026252396404743" lon="8.536141170188785">
        <ele>1685.1600000000001</ele>
        <time>2019-10-13T12:38:56Z</time>
      </trkpt>
      <trkpt lat="46.026248876005411" lon="8.536145612597466">
        <ele>1685.0999999999999</ele>
        <time>2019-10-13T12:39:17Z</time>
      </trkpt>
      <trkpt lat="46.026252312585711" lon="8.536148378625512">
        <ele>1684.9100000000001</ele>
        <time>2019-10-13T12:39:32Z</time>
      </trkpt>
      <trkpt lat="46.026247115805745" lon="8.536153240129352">
        <ele>1685.1099999999999</ele>
        <time>2019-10-13T12:40:03Z</time>
      </trkpt>
      <trkpt lat="46.026243260130286" lon="8.536150893196464">
        <ele>1684.99</ele>
        <time>2019-10-13T12:40:20Z</time>
      </trkpt>
      <trkpt lat="46.026263376697898" lon="8.536184169352055">
        <ele>1684.0799999999999</ele>
        <time>2019-10-13T12:40:36Z</time>
      </trkpt>
      <trkpt lat="46.026274440810084" lon="8.536241166293621">
        <ele>1681.75</ele>
        <time>2019-10-13T12:40:49Z</time>
      </trkpt>
      <trkpt lat="46.026244685053825" lon="8.536252565681934">
        <ele>1680.1099999999999</ele>
        <time>2019-10-13T12:40:59Z</time>
      </trkpt>
      <trkpt lat="46.026241332292557" lon="8.536279806867242">
        <ele>1678.1900000000001</ele>
        <time>2019-10-13T12:41:11Z</time>
      </trkpt>
      <trkpt lat="46.0262131690979" lon="8.536311825737357">
        <ele>1677.0999999999999</ele>
        <time>2019-10-13T12:41:21Z</time>
      </trkpt>
      <trkpt lat="46.026187688112259" lon="8.536323141306639">
        <ele>1676.53</ele>
        <time>2019-10-13T12:41:32Z</time>
      </trkpt>
      <trkpt lat="46.026162458583713" lon="8.536326661705971">
        <ele>1675.53</ele>
        <time>2019-10-13T12:41:43Z</time>
      </trkpt>
      <trkpt lat="46.026131780818105" lon="8.53634862229228">
        <ele>1674.1800000000001</ele>
        <time>2019-10-13T12:41:54Z</time>
      </trkpt>
      <trkpt lat="46.026096828281879" lon="8.536332948133349">
        <ele>1673.9400000000001</ele>
        <time>2019-10-13T12:42:07Z</time>
      </trkpt>
      <trkpt lat="46.026090541854501" lon="8.536331690847874">
        <ele>1673.96</ele>
        <time>2019-10-13T12:42:08Z</time>
      </trkpt>
      <trkpt lat="46.026004292070866" lon="8.536338144913316">
        <ele>1673.97</ele>
        <time>2019-10-13T12:42:19Z</time>
      </trkpt>
      <trkpt lat="46.025915527716279" lon="8.536348203197122">
        <ele>1675.28</ele>
        <time>2019-10-13T12:42:33Z</time>
      </trkpt>
      <trkpt lat="46.025909408926964" lon="8.536358932033181">
        <ele>1675.5999999999999</ele>
        <time>2019-10-13T12:42:44Z</time>
      </trkpt>
      <trkpt lat="46.025910750031471" lon="8.536404948681593">
        <ele>1675.23</ele>
        <time>2019-10-13T12:42:52Z</time>
      </trkpt>
      <trkpt lat="46.025891220197082" lon="8.536490444093943">
        <ele>1675.6900000000001</ele>
        <time>2019-10-13T12:43:04Z</time>
      </trkpt>
      <trkpt lat="46.025898009538651" lon="8.536586333066225">
        <ele>1673.74</ele>
        <time>2019-10-13T12:43:16Z</time>
      </trkpt>
      <trkpt lat="46.025899602100253" lon="8.536607204005122">
        <ele>1673.45</ele>
        <time>2019-10-13T12:43:18Z</time>
      </trkpt>
      <trkpt lat="46.025883173570037" lon="8.536722036078572">
        <ele>1672.55</ele>
        <time>2019-10-13T12:43:31Z</time>
      </trkpt>
      <trkpt lat="46.025858027860522" lon="8.536866875365377">
        <ele>1671.74</ele>
        <time>2019-10-13T12:43:42Z</time>
      </trkpt>
      <trkpt lat="46.025844113901258" lon="8.536982210353017">
        <ele>1670.8</ele>
        <time>2019-10-13T12:43:51Z</time>
      </trkpt>
      <trkpt lat="46.025818800553679" lon="8.537109782919288">
        <ele>1669.1600000000001</ele>
        <time>2019-10-13T12:44:03Z</time>
      </trkpt>
      <trkpt lat="46.02580857463181" lon="8.537157140672207">
        <ele>1669.5799999999999</ele>
        <time>2019-10-13T12:44:08Z</time>
      </trkpt>
      <trkpt lat="46.025789044797421" lon="8.537251856178045">
        <ele>1669.8</ele>
        <time>2019-10-13T12:44:15Z</time>
      </trkpt>
      <trkpt lat="46.025755684822798" lon="8.537423852831125">
        <ele>1668.29</ele>
        <time>2019-10-13T12:44:27Z</time>
      </trkpt>
      <trkpt lat="46.025755349546671" lon="8.537435000762343">
        <ele>1668.1900000000001</ele>
        <time>2019-10-13T12:44:28Z</time>
      </trkpt>
      <trkpt lat="46.025739926844835" lon="8.537618899717927">
        <ele>1666.04</ele>
        <time>2019-10-13T12:44:40Z</time>
      </trkpt>
      <trkpt lat="46.025718133896589" lon="8.53777295909822">
        <ele>1664.8399999999999</ele>
        <time>2019-10-13T12:44:52Z</time>
      </trkpt>
      <trkpt lat="46.025684271007776" lon="8.537873877212405">
        <ele>1664.3199999999999</ele>
        <time>2019-10-13T12:45:03Z</time>
      </trkpt>
      <trkpt lat="46.025677565485239" lon="8.537895418703556">
        <ele>1663.8299999999999</ele>
        <time>2019-10-13T12:45:05Z</time>
      </trkpt>
      <trkpt lat="46.025659712031484" lon="8.537924000993371">
        <ele>1662.9000000000001</ele>
        <time>2019-10-13T12:45:08Z</time>
      </trkpt>
      <trkpt lat="46.025613443925977" lon="8.537958702072501">
        <ele>1661.3299999999999</ele>
        <time>2019-10-13T12:45:15Z</time>
      </trkpt>
      <trkpt lat="46.02552660740912" lon="8.538000695407391">
        <ele>1661.27</ele>
        <time>2019-10-13T12:45:28Z</time>
      </trkpt>
      <trkpt lat="46.025484865531325" lon="8.538042940199375">
        <ele>1660.1099999999999</ele>
        <time>2019-10-13T12:45:39Z</time>
      </trkpt>
      <trkpt lat="46.025431221351027" lon="8.538084849715233">
        <ele>1657.4300000000001</ele>
        <time>2019-10-13T12:45:55Z</time>
      </trkpt>
      <trkpt lat="46.02540448307991" lon="8.538084346801043">
        <ele>1656.5699999999999</ele>
        <time>2019-10-13T12:46:06Z</time>
      </trkpt>
      <trkpt lat="46.025384198874235" lon="8.538093818351626">
        <ele>1654.79</ele>
        <time>2019-10-13T12:46:20Z</time>
      </trkpt>
      <trkpt lat="46.025370368734002" lon="8.538115695118904">
        <ele>1652.23</ele>
        <time>2019-10-13T12:46:31Z</time>
      </trkpt>
      <trkpt lat="46.025271797552705" lon="8.538137068971992">
        <ele>1649.47</ele>
        <time>2019-10-13T12:46:43Z</time>
      </trkpt>
      <trkpt lat="46.025244891643524" lon="8.538131034001708">
        <ele>1649.0599999999999</ele>
        <time>2019-10-13T12:46:55Z</time>
      </trkpt>
      <trkpt lat="46.025205748155713" lon="8.538147211074829">
        <ele>1647.6400000000001</ele>
        <time>2019-10-13T12:47:08Z</time>
      </trkpt>
      <trkpt lat="46.025193175300956" lon="8.538154922425747">
        <ele>1646.22</ele>
        <time>2019-10-13T12:47:20Z</time>
      </trkpt>
      <trkpt lat="46.025136597454548" lon="8.53815115056932">
        <ele>1643.9000000000001</ele>
        <time>2019-10-13T12:47:30Z</time>
      </trkpt>
      <trkpt lat="46.025127880275249" lon="8.538152994588018">
        <ele>1643.3900000000001</ele>
        <time>2019-10-13T12:47:31Z</time>
      </trkpt>
      <trkpt lat="46.025108015164733" lon="8.538156179711223">
        <ele>1642.96</ele>
        <time>2019-10-13T12:47:33Z</time>
      </trkpt>
      <trkpt lat="46.025039032101631" lon="8.538163891062141">
        <ele>1639.8800000000001</ele>
        <time>2019-10-13T12:47:44Z</time>
      </trkpt>
      <trkpt lat="46.024993183091283" lon="8.538170680403709">
        <ele>1638.1500000000001</ele>
        <time>2019-10-13T12:47:57Z</time>
      </trkpt>
      <trkpt lat="46.024923864752054" lon="8.538173278793693">
        <ele>1635.4000000000001</ele>
        <time>2019-10-13T12:48:10Z</time>
      </trkpt>
      <trkpt lat="46.024897629395127" lon="8.538186606019735">
        <ele>1634.04</ele>
        <time>2019-10-13T12:48:23Z</time>
      </trkpt>
      <trkpt lat="46.024875584989786" lon="8.538185684010387">
        <ele>1633.1900000000001</ele>
        <time>2019-10-13T12:48:34Z</time>
      </trkpt>
      <trkpt lat="46.024864437058568" lon="8.538216864690185">
        <ele>1631.5</ele>
        <time>2019-10-13T12:48:43Z</time>
      </trkpt>
      <trkpt lat="46.024845745414495" lon="8.538224827498198">
        <ele>1630.6700000000001</ele>
        <time>2019-10-13T12:48:45Z</time>
      </trkpt>
      <trkpt lat="46.024780198931694" lon="8.538198508322239">
        <ele>1627.8099999999999</ele>
        <time>2019-10-13T12:48:58Z</time>
      </trkpt>
      <trkpt lat="46.024762596935034" lon="8.538186186924577">
        <ele>1626.9200000000001</ele>
        <time>2019-10-13T12:49:10Z</time>
      </trkpt>
      <trkpt lat="46.024747677147388" lon="8.538205968216062">
        <ele>1625.53</ele>
        <time>2019-10-13T12:49:15Z</time>
      </trkpt>
      <trkpt lat="46.024726470932364" lon="8.538192389532924">
        <ele>1624.71</ele>
        <time>2019-10-13T12:49:28Z</time>
      </trkpt>
      <trkpt lat="46.024722112342715" lon="8.538194233551621">
        <ele>1624.6300000000001</ele>
        <time>2019-10-13T12:49:46Z</time>
      </trkpt>
      <trkpt lat="46.024683807045221" lon="8.538185684010387">
        <ele>1624.74</ele>
        <time>2019-10-13T12:49:59Z</time>
      </trkpt>
      <trkpt lat="46.024666707962751" lon="8.538184845820069">
        <ele>1624.1600000000001</ele>
        <time>2019-10-13T12:50:09Z</time>
      </trkpt>
      <trkpt lat="46.024654721841216" lon="8.538185181096196">
        <ele>1623.4300000000001</ele>
        <time>2019-10-13T12:50:23Z</time>
      </trkpt>
      <trkpt lat="46.024640053510666" lon="8.5381970833987">
        <ele>1622.0999999999999</ele>
        <time>2019-10-13T12:50:37Z</time>
      </trkpt>
      <trkpt lat="46.024597976356745" lon="8.538209823891521">
        <ele>1619.6199999999999</ele>
        <time>2019-10-13T12:50:46Z</time>
      </trkpt>
      <trkpt lat="46.024476606398821" lon="8.538143523037434">
        <ele>1618.3</ele>
        <time>2019-10-13T12:50:59Z</time>
      </trkpt>
      <trkpt lat="46.024392452090979" lon="8.538121227174997">
        <ele>1617.4000000000001</ele>
        <time>2019-10-13T12:51:09Z</time>
      </trkpt>
      <trkpt lat="46.024360349401832" lon="8.538104379549623">
        <ele>1615.77</ele>
        <time>2019-10-13T12:51:18Z</time>
      </trkpt>
      <trkpt lat="46.024242248386145" lon="8.538031037896872">
        <ele>1613.77</ele>
        <time>2019-10-13T12:51:30Z</time>
      </trkpt>
      <trkpt lat="46.0242117382586" lon="8.538052998483181">
        <ele>1611.6199999999999</ele>
        <time>2019-10-13T12:51:39Z</time>
      </trkpt>
      <trkpt lat="46.024156752973795" lon="8.537997426465154">
        <ele>1610.8</ele>
        <time>2019-10-13T12:51:51Z</time>
      </trkpt>
      <trkpt lat="46.024146862328053" lon="8.53798015974462">
        <ele>1610.6099999999999</ele>
        <time>2019-10-13T12:52:09Z</time>
      </trkpt>
      <trkpt lat="46.024142755195498" lon="8.537973370403051">
        <ele>1610.6800000000001</ele>
        <time>2019-10-13T12:52:24Z</time>
      </trkpt>
      <trkpt lat="46.024091625586152" lon="8.537900280207396">
        <ele>1610.6099999999999</ele>
        <time>2019-10-13T12:52:36Z</time>
      </trkpt>
      <trkpt lat="46.024077124893665" lon="8.537888545542955">
        <ele>1609.3800000000001</ele>
        <time>2019-10-13T12:52:53Z</time>
      </trkpt>
      <trkpt lat="46.024060361087322" lon="8.537893407046795">
        <ele>1608.71</ele>
        <time>2019-10-13T12:52:57Z</time>
      </trkpt>
      <trkpt lat="46.024014260619879" lon="8.537826100364327">
        <ele>1606.6600000000001</ele>
        <time>2019-10-13T12:53:04Z</time>
      </trkpt>
      <trkpt lat="46.023965980857611" lon="8.537802463397384">
        <ele>1606.54</ele>
        <time>2019-10-13T12:53:13Z</time>
      </trkpt>
      <trkpt lat="46.023966148495674" lon="8.537796093150973">
        <ele>1606.03</ele>
        <time>2019-10-13T12:53:28Z</time>
      </trkpt>
      <trkpt lat="46.023953659459949" lon="8.537797434255481">
        <ele>1607.1500000000001</ele>
        <time>2019-10-13T12:53:43Z</time>
      </trkpt>
      <trkpt lat="46.023934967815876" lon="8.537800703197718">
        <ele>1606.8800000000001</ele>
        <time>2019-10-13T12:53:53Z</time>
      </trkpt>
      <trkpt lat="46.023917617276311" lon="8.537796093150973">
        <ele>1606.78</ele>
        <time>2019-10-13T12:54:10Z</time>
      </trkpt>
      <trkpt lat="46.023900266736746" lon="8.537788297981024">
        <ele>1606.03</ele>
        <time>2019-10-13T12:54:20Z</time>
      </trkpt>
      <trkpt lat="46.023852489888668" lon="8.537821657955647">
        <ele>1605.4300000000001</ele>
        <time>2019-10-13T12:54:32Z</time>
      </trkpt>
      <trkpt lat="46.023836983367801" lon="8.537838589400053">
        <ele>1605.01</ele>
        <time>2019-10-13T12:54:34Z</time>
      </trkpt>
      <trkpt lat="46.023781411349773" lon="8.537893574684858">
        <ele>1603.9400000000001</ele>
        <time>2019-10-13T12:54:46Z</time>
      </trkpt>
      <trkpt lat="46.023779902607203" lon="8.537910925224423">
        <ele>1603.8499999999999</ele>
        <time>2019-10-13T12:55:02Z</time>
      </trkpt>
      <trkpt lat="46.0237748734653" lon="8.537919474765658">
        <ele>1603.8599999999999</ele>
        <time>2019-10-13T12:55:33Z</time>
      </trkpt>
      <trkpt lat="46.023770766332746" lon="8.537929952144623">
        <ele>1603.5799999999999</ele>
        <time>2019-10-13T12:55:49Z</time>
      </trkpt>
      <trkpt lat="46.023723324760795" lon="8.537962138652802">
        <ele>1604.28</ele>
        <time>2019-10-13T12:56:01Z</time>
      </trkpt>
      <trkpt lat="46.023684097453952" lon="8.538013771176338">
        <ele>1605.1199999999999</ele>
        <time>2019-10-13T12:56:13Z</time>
      </trkpt>
      <trkpt lat="46.023644953966141" lon="8.538065487518907">
        <ele>1605.74</ele>
        <time>2019-10-13T12:56:24Z</time>
      </trkpt>
      <trkpt lat="46.023593405261636" lon="8.538138745352626">
        <ele>1606.1199999999999</ele>
        <time>2019-10-13T12:56:35Z</time>
      </trkpt>
      <trkpt lat="46.023536240682006" lon="8.538198675960302">
        <ele>1606.02</ele>
        <time>2019-10-13T12:56:45Z</time>
      </trkpt>
      <trkpt lat="46.023506317287683" lon="8.538230778649449">
        <ele>1605.97</ele>
        <time>2019-10-13T12:56:56Z</time>
      </trkpt>
      <trkpt lat="46.023481339216232" lon="8.538277298212051">
        <ele>1603.53</ele>
        <time>2019-10-13T12:57:06Z</time>
      </trkpt>
      <trkpt lat="46.023414535447955" lon="8.538294397294521">
        <ele>1601.02</ele>
        <time>2019-10-13T12:57:15Z</time>
      </trkpt>
      <trkpt lat="46.023315126076341" lon="8.538257349282503">
        <ele>1598.8800000000001</ele>
        <time>2019-10-13T12:57:25Z</time>
      </trkpt>
      <trkpt lat="46.023254189640284" lon="8.538241339847446">
        <ele>1598.72</ele>
        <time>2019-10-13T12:57:33Z</time>
      </trkpt>
      <trkpt lat="46.023139357566833" lon="8.538145869970322">
        <ele>1597.75</ele>
        <time>2019-10-13T12:57:46Z</time>
      </trkpt>
      <trkpt lat="46.023072553798556" lon="8.538013016805053">
        <ele>1595.0999999999999</ele>
        <time>2019-10-13T12:57:58Z</time>
      </trkpt>
      <trkpt lat="46.023023016750813" lon="8.53797035291791">
        <ele>1593.21</ele>
        <time>2019-10-13T12:58:10Z</time>
      </trkpt>
      <trkpt lat="46.022997368127108" lon="8.537963479757309">
        <ele>1591.05</ele>
        <time>2019-10-13T12:58:21Z</time>
      </trkpt>
      <trkpt lat="46.022958979010582" lon="8.537968341261149">
        <ele>1589.3800000000001</ele>
        <time>2019-10-13T12:58:32Z</time>
      </trkpt>
      <trkpt lat="46.022875495254993" lon="8.537981836125255">
        <ele>1590.03</ele>
        <time>2019-10-13T12:58:43Z</time>
      </trkpt>
      <trkpt lat="46.022806093096733" lon="8.537998432293534">
        <ele>1588.1300000000001</ele>
        <time>2019-10-13T12:58:58Z</time>
      </trkpt>
      <trkpt lat="46.022800812497735" lon="8.537998180836439">
        <ele>1587.6700000000001</ele>
        <time>2019-10-13T12:59:13Z</time>
      </trkpt>
      <trkpt lat="46.022770972922444" lon="8.537990553304553">
        <ele>1587.02</ele>
        <time>2019-10-13T12:59:39Z</time>
      </trkpt>
      <trkpt lat="46.022747084498405" lon="8.537962473928928">
        <ele>1587.3299999999999</ele>
        <time>2019-10-13T12:59:52Z</time>
      </trkpt>
      <trkpt lat="46.022733170539141" lon="8.537953924387693">
        <ele>1586.8199999999999</ele>
        <time>2019-10-13T13:00:05Z</time>
      </trkpt>
      <trkpt lat="46.022715317085385" lon="8.537945793941617">
        <ele>1585.55</ele>
        <time>2019-10-13T13:00:18Z</time>
      </trkpt>
      <trkpt lat="46.022710539400578" lon="8.537954762578011">
        <ele>1585.4100000000001</ele>
        <time>2019-10-13T13:00:21Z</time>
      </trkpt>
      <trkpt lat="46.02268036454916" lon="8.537978567183018">
        <ele>1584.4400000000001</ele>
        <time>2019-10-13T13:00:24Z</time>
      </trkpt>
      <trkpt lat="46.022604759782553" lon="8.537980746477842">
        <ele>1586.79</ele>
        <time>2019-10-13T13:00:36Z</time>
      </trkpt>
      <trkpt lat="46.022587744519114" lon="8.537981752306223">
        <ele>1587.3599999999999</ele>
        <time>2019-10-13T13:00:38Z</time>
      </trkpt>
      <trkpt lat="46.02249906398356" lon="8.537977393716574">
        <ele>1586.53</ele>
        <time>2019-10-13T13:00:51Z</time>
      </trkpt>
      <trkpt lat="46.02249613031745" lon="8.537979824468494">
        <ele>1586.3399999999999</ele>
        <time>2019-10-13T13:00:52Z</time>
      </trkpt>
      <trkpt lat="46.022470397874713" lon="8.537988122552633">
        <ele>1585.47</ele>
        <time>2019-10-13T13:00:55Z</time>
      </trkpt>
      <trkpt lat="46.02239890024066" lon="8.537961216643453">
        <ele>1585.8599999999999</ele>
        <time>2019-10-13T13:01:07Z</time>
      </trkpt>
      <trkpt lat="46.022377023473382" lon="8.537935400381684">
        <ele>1586.96</ele>
        <time>2019-10-13T13:01:16Z</time>
      </trkpt>
      <trkpt lat="46.022342992946506" lon="8.537917295470834">
        <ele>1586.26</ele>
        <time>2019-10-13T13:01:25Z</time>
      </trkpt>
      <trkpt lat="46.022319607436657" lon="8.537926180288196">
        <ele>1585.3900000000001</ele>
        <time>2019-10-13T13:01:35Z</time>
      </trkpt>
      <trkpt lat="46.022306866943836" lon="8.537972616031766">
        <ele>1582.78</ele>
        <time>2019-10-13T13:01:46Z</time>
      </trkpt>
      <trkpt lat="46.022239308804274" lon="8.537972616031766">
        <ele>1580.3099999999999</ele>
        <time>2019-10-13T13:01:56Z</time>
      </trkpt>
      <trkpt lat="46.022188346832991" lon="8.537967838346958">
        <ele>1581.9300000000001</ele>
        <time>2019-10-13T13:02:08Z</time>
      </trkpt>
      <trkpt lat="46.022140150889754" lon="8.537971107289195">
        <ele>1581.6700000000001</ele>
        <time>2019-10-13T13:02:21Z</time>
      </trkpt>
      <trkpt lat="46.022088434547186" lon="8.537997677922249">
        <ele>1578.5</ele>
        <time>2019-10-13T13:02:33Z</time>
      </trkpt>
      <trkpt lat="46.022074520587921" lon="8.538002790883184">
        <ele>1578.26</ele>
        <time>2019-10-13T13:02:35Z</time>
      </trkpt>
      <trkpt lat="46.022045519202948" lon="8.538003042340279">
        <ele>1577.46</ele>
        <time>2019-10-13T13:02:38Z</time>
      </trkpt>
      <trkpt lat="46.021986845880747" lon="8.538003629073501">
        <ele>1577.9400000000001</ele>
        <time>2019-10-13T13:02:50Z</time>
      </trkpt>
      <trkpt lat="46.021963460370898" lon="8.538006227463484">
        <ele>1577.5899999999999</ele>
        <time>2019-10-13T13:03:01Z</time>
      </trkpt>
      <trkpt lat="46.021949797868729" lon="8.537975717335939">
        <ele>1578.3</ele>
        <time>2019-10-13T13:03:13Z</time>
      </trkpt>
      <trkpt lat="46.021930854767561" lon="8.537977309897542">
        <ele>1578.74</ele>
        <time>2019-10-13T13:03:36Z</time>
      </trkpt>
      <trkpt lat="46.021909480914474" lon="8.537967754527926">
        <ele>1578.6600000000001</ele>
        <time>2019-10-13T13:03:50Z</time>
      </trkpt>
      <trkpt lat="46.021889867261052" lon="8.537974543869495">
        <ele>1577.9200000000001</ele>
        <time>2019-10-13T13:04:02Z</time>
      </trkpt>
      <trkpt lat="46.021854495629668" lon="8.538029445335269">
        <ele>1574.8699999999999</ele>
        <time>2019-10-13T13:04:13Z</time>
      </trkpt>
      <trkpt lat="46.021847957745194" lon="8.538034642115235">
        <ele>1574.3900000000001</ele>
        <time>2019-10-13T13:04:14Z</time>
      </trkpt>
      <trkpt lat="46.021758187562227" lon="8.537992229685187">
        <ele>1572.9200000000001</ele>
        <time>2019-10-13T13:04:24Z</time>
      </trkpt>
      <trkpt lat="46.021744022145867" lon="8.53797722607851">
        <ele>1573.21</ele>
        <time>2019-10-13T13:04:37Z</time>
      </trkpt>
      <trkpt lat="46.02171384729445" lon="8.537969263270497">
        <ele>1572.96</ele>
        <time>2019-10-13T13:04:51Z</time>
      </trkpt>
      <trkpt lat="46.021703956648707" lon="8.537958199158311">
        <ele>1572.47</ele>
        <time>2019-10-13T13:05:04Z</time>
      </trkpt>
      <trkpt lat="46.021692808717489" lon="8.537971945479512">
        <ele>1570.6600000000001</ele>
        <time>2019-10-13T13:05:15Z</time>
      </trkpt>
      <trkpt lat="46.021685432642698" lon="8.537989882752299">
        <ele>1569.45</ele>
        <time>2019-10-13T13:05:22Z</time>
      </trkpt>
      <trkpt lat="46.021620472893119" lon="8.537988541647792">
        <ele>1568.03</ele>
        <time>2019-10-13T13:05:29Z</time>
      </trkpt>
      <trkpt lat="46.02149935439229" lon="8.538024667650461">
        <ele>1564.77</ele>
        <time>2019-10-13T13:05:43Z</time>
      </trkpt>
      <trkpt lat="46.021422827616334" lon="8.53807202540338">
        <ele>1561.7</ele>
        <time>2019-10-13T13:05:55Z</time>
      </trkpt>
      <trkpt lat="46.021390557289124" lon="8.53806858882308">
        <ele>1560.6500000000001</ele>
        <time>2019-10-13T13:06:09Z</time>
      </trkpt>
      <trkpt lat="46.021355940029025" lon="8.53805735707283">
        <ele>1559.8900000000001</ele>
        <time>2019-10-13T13:06:20Z</time>
      </trkpt>
      <trkpt lat="46.02131562307477" lon="8.53807202540338">
        <ele>1556.9200000000001</ele>
        <time>2019-10-13T13:06:33Z</time>
      </trkpt>
      <trkpt lat="46.021295925602317" lon="8.538088286295533">
        <ele>1555.72</ele>
        <time>2019-10-13T13:06:39Z</time>
      </trkpt>
      <trkpt lat="46.021182266995311" lon="8.538031373172998">
        <ele>1553.6900000000001</ele>
        <time>2019-10-13T13:06:54Z</time>
      </trkpt>
      <trkpt lat="46.021115714684129" lon="8.538026092574">
        <ele>1550.5899999999999</ele>
        <time>2019-10-13T13:07:05Z</time>
      </trkpt>
      <trkpt lat="46.021048659458756" lon="8.537995330989361">
        <ele>1548.9400000000001</ele>
        <time>2019-10-13T13:07:15Z</time>
      </trkpt>
      <trkpt lat="46.021012533456087" lon="8.537955768406391">
        <ele>1548.5699999999999</ele>
        <time>2019-10-13T13:07:27Z</time>
      </trkpt>
      <trkpt lat="46.020988812670112" lon="8.537953421473503">
        <ele>1546.9100000000001</ele>
        <time>2019-10-13T13:07:39Z</time>
      </trkpt>
      <trkpt lat="46.020934330299497" lon="8.537986446171999">
        <ele>1544.2</ele>
        <time>2019-10-13T13:07:51Z</time>
      </trkpt>
      <trkpt lat="46.020894767716527" lon="8.53804268874228">
        <ele>1541.5999999999999</ele>
        <time>2019-10-13T13:08:05Z</time>
      </trkpt>
      <trkpt lat="46.020859144628048" lon="8.538066744804382">
        <ele>1539.9100000000001</ele>
        <time>2019-10-13T13:08:16Z</time>
      </trkpt>
      <trkpt lat="46.020801560953259" lon="8.538070181384683">
        <ele>1537.95</ele>
        <time>2019-10-13T13:08:31Z</time>
      </trkpt>
      <trkpt lat="46.020753532648087" lon="8.538098931312561">
        <ele>1535.7</ele>
        <time>2019-10-13T13:08:43Z</time>
      </trkpt>
      <trkpt lat="46.020724028348923" lon="8.538119634613395">
        <ele>1534.1600000000001</ele>
        <time>2019-10-13T13:08:53Z</time>
      </trkpt>
      <trkpt lat="46.020697709172964" lon="8.538116114214063">
        <ele>1533.05</ele>
        <time>2019-10-13T13:08:58Z</time>
      </trkpt>
      <trkpt lat="46.020670048892498" lon="8.538128100335598">
        <ele>1532.3399999999999</ele>
        <time>2019-10-13T13:09:01Z</time>
      </trkpt>
      <trkpt lat="46.020587738603354" lon="8.538163136690855">
        <ele>1531.0899999999999</ele>
        <time>2019-10-13T13:09:14Z</time>
      </trkpt>
      <trkpt lat="46.020539291203022" lon="8.53818828240037">
        <ele>1531.3900000000001</ele>
        <time>2019-10-13T13:09:26Z</time>
      </trkpt>
      <trkpt lat="46.020521186292171" lon="8.538167579099536">
        <ele>1530.55</ele>
        <time>2019-10-13T13:09:37Z</time>
      </trkpt>
      <trkpt lat="46.020514229312539" lon="8.538165148347616">
        <ele>1530.0899999999999</ele>
        <time>2019-10-13T13:09:40Z</time>
      </trkpt>
      <trkpt lat="46.020493609830737" lon="8.538170177489519">
        <ele>1529.6199999999999</ele>
        <time>2019-10-13T13:09:42Z</time>
      </trkpt>
      <trkpt lat="46.020384728908539" lon="8.538122065365315">
        <ele>1526.46</ele>
        <time>2019-10-13T13:09:56Z</time>
      </trkpt>
      <trkpt lat="46.020346842706203" lon="8.53811058215797">
        <ele>1524.54</ele>
        <time>2019-10-13T13:10:08Z</time>
      </trkpt>
      <trkpt lat="46.020302837714553" lon="8.538167914375663">
        <ele>1522.6199999999999</ele>
        <time>2019-10-13T13:10:21Z</time>
      </trkpt>
      <trkpt lat="46.020262185484171" lon="8.538234634324908">
        <ele>1521.1900000000001</ele>
        <time>2019-10-13T13:10:33Z</time>
      </trkpt>
      <trkpt lat="46.020215414464474" lon="8.538293642923236">
        <ele>1520.0899999999999</ele>
        <time>2019-10-13T13:10:44Z</time>
      </trkpt>
      <trkpt lat="46.020158417522907" lon="8.538315603509545">
        <ele>1519.3800000000001</ele>
        <time>2019-10-13T13:10:55Z</time>
      </trkpt>
      <trkpt lat="46.020100833848119" lon="8.538344772532582">
        <ele>1518.3299999999999</ele>
        <time>2019-10-13T13:11:06Z</time>
      </trkpt>
      <trkpt lat="46.020081974565983" lon="8.538343096151948">
        <ele>1517.6199999999999</ele>
        <time>2019-10-13T13:11:09Z</time>
      </trkpt>
      <trkpt lat="46.020043669268489" lon="8.538364721462131">
        <ele>1517.1500000000001</ele>
        <time>2019-10-13T13:11:21Z</time>
      </trkpt>
      <trkpt lat="46.020027240738273" lon="8.538369163870812">
        <ele>1516.97</ele>
        <time>2019-10-13T13:11:34Z</time>
      </trkpt>
      <trkpt lat="46.019985666498542" lon="8.538370672613382">
        <ele>1516.6099999999999</ele>
        <time>2019-10-13T13:11:44Z</time>
      </trkpt>
      <trkpt lat="46.019928921014071" lon="8.538358435034752">
        <ele>1515.79</ele>
        <time>2019-10-13T13:11:49Z</time>
      </trkpt>
      <trkpt lat="46.019784333184361" lon="8.53832121938467">
        <ele>1515.3900000000001</ele>
        <time>2019-10-13T13:12:04Z</time>
      </trkpt>
      <trkpt lat="46.019737394526601" lon="8.538333205506206">
        <ele>1517.1600000000001</ele>
        <time>2019-10-13T13:12:11Z</time>
      </trkpt>
      <trkpt lat="46.019706297665834" lon="8.538325829431415">
        <ele>1517.05</ele>
        <time>2019-10-13T13:12:14Z</time>
      </trkpt>
      <trkpt lat="46.019595824182034" lon="8.538288529962301">
        <ele>1517.3099999999999</ele>
        <time>2019-10-13T13:12:25Z</time>
      </trkpt>
      <trkpt lat="46.019557183608413" lon="8.538279896602035">
        <ele>1517.52</ele>
        <time>2019-10-13T13:12:29Z</time>
      </trkpt>
      <trkpt lat="46.019518962129951" lon="8.538242764770985">
        <ele>1517.1099999999999</ele>
        <time>2019-10-13T13:12:33Z</time>
      </trkpt>
      <trkpt lat="46.019442183896899" lon="8.538195574656129">
        <ele>1517.3299999999999</ele>
        <time>2019-10-13T13:12:44Z</time>
      </trkpt>
      <trkpt lat="46.019400609657168" lon="8.53818585164845">
        <ele>1516.99</ele>
        <time>2019-10-13T13:12:55Z</time>
      </trkpt>
      <trkpt lat="46.019375631585717" lon="8.538175374269486">
        <ele>1518.1099999999999</ele>
        <time>2019-10-13T13:13:00Z</time>
      </trkpt>
      <trkpt lat="46.019325340166688" lon="8.538153832778335">
        <ele>1517.29</ele>
        <time>2019-10-13T13:13:07Z</time>
      </trkpt>
      <trkpt lat="46.019289884716272" lon="8.538160286843777">
        <ele>1516.9200000000001</ele>
        <time>2019-10-13T13:13:11Z</time>
      </trkpt>
      <trkpt lat="46.019219979643822" lon="8.538170512765646">
        <ele>1516.8099999999999</ele>
        <time>2019-10-13T13:13:20Z</time>
      </trkpt>
      <trkpt lat="46.019111685454845" lon="8.538115862756968">
        <ele>1518.6800000000001</ele>
        <time>2019-10-13T13:13:34Z</time>
      </trkpt>
      <trkpt lat="46.01900146342814" lon="8.538055848330259">
        <ele>1517.29</ele>
        <time>2019-10-13T13:13:46Z</time>
      </trkpt>
      <trkpt lat="46.018910352140665" lon="8.538008239120245">
        <ele>1517.46</ele>
        <time>2019-10-13T13:13:59Z</time>
      </trkpt>
      <trkpt lat="46.018879422917962" lon="8.537998935207725">
        <ele>1517.1900000000001</ele>
        <time>2019-10-13T13:14:02Z</time>
      </trkpt>
      <trkpt lat="46.018824269995093" lon="8.537991978228092">
        <ele>1517.51</ele>
        <time>2019-10-13T13:14:09Z</time>
      </trkpt>
      <trkpt lat="46.018763333559036" lon="8.537982339039445">
        <ele>1517.8199999999999</ele>
        <time>2019-10-13T13:14:15Z</time>
      </trkpt>
      <trkpt lat="46.018684124574065" lon="8.537903716787696">
        <ele>1519.0799999999999</ele>
        <time>2019-10-13T13:14:28Z</time>
      </trkpt>
      <trkpt lat="46.018652860075235" lon="8.537867423146963">
        <ele>1519.3299999999999</ele>
        <time>2019-10-13T13:14:33Z</time>
      </trkpt>
      <trkpt lat="46.01861254312098" lon="8.537847641855478">
        <ele>1518.45</ele>
        <time>2019-10-13T13:14:46Z</time>
      </trkpt>
      <trkpt lat="46.018589241430163" lon="8.537843199446797">
        <ele>1518.95</ele>
        <time>2019-10-13T13:15:00Z</time>
      </trkpt>
      <trkpt lat="46.018568370491266" lon="8.537831464782357">
        <ele>1519.6600000000001</ele>
        <time>2019-10-13T13:15:11Z</time>
      </trkpt>
      <trkpt lat="46.018551103770733" lon="8.537815874442458">
        <ele>1518.75</ele>
        <time>2019-10-13T13:15:23Z</time>
      </trkpt>
      <trkpt lat="46.018529897555709" lon="8.537800787016749">
        <ele>1517.0599999999999</ele>
        <time>2019-10-13T13:15:31Z</time>
      </trkpt>
      <trkpt lat="46.018465524539351" lon="8.537815036252141">
        <ele>1514.3</ele>
        <time>2019-10-13T13:15:39Z</time>
      </trkpt>
      <trkpt lat="46.018397379666567" lon="8.537826184183359">
        <ele>1513.45</ele>
        <time>2019-10-13T13:15:51Z</time>
      </trkpt>
      <trkpt lat="46.018365528434515" lon="8.537837164476514">
        <ele>1514.3099999999999</ele>
        <time>2019-10-13T13:16:02Z</time>
      </trkpt>
      <trkpt lat="46.018283385783434" lon="8.537833811715245">
        <ele>1516.1199999999999</ele>
        <time>2019-10-13T13:16:14Z</time>
      </trkpt>
      <trkpt lat="46.018244158476591" lon="8.537772204726934">
        <ele>1517.3099999999999</ele>
        <time>2019-10-13T13:16:25Z</time>
      </trkpt>
      <trkpt lat="46.01821331307292" lon="8.537699282169342">
        <ele>1517.6800000000001</ele>
        <time>2019-10-13T13:16:38Z</time>
      </trkpt>
      <trkpt lat="46.018190681934357" lon="8.537682686001062">
        <ele>1517.0999999999999</ele>
        <time>2019-10-13T13:16:49Z</time>
      </trkpt>
      <trkpt lat="46.01816494949162" lon="8.537686122581363">
        <ele>1517.3900000000001</ele>
        <time>2019-10-13T13:17:04Z</time>
      </trkpt>
      <trkpt lat="46.018142402172089" lon="8.537688804790378">
        <ele>1517.96</ele>
        <time>2019-10-13T13:17:16Z</time>
      </trkpt>
      <trkpt lat="46.018116669729352" lon="8.537695091217756">
        <ele>1518.5599999999999</ele>
        <time>2019-10-13T13:17:28Z</time>
      </trkpt>
      <trkpt lat="46.018094457685947" lon="8.537689307704568">
        <ele>1519.8599999999999</ele>
        <time>2019-10-13T13:17:38Z</time>
      </trkpt>
      <trkpt lat="46.018072245642543" lon="8.537670196965337">
        <ele>1519.6900000000001</ele>
        <time>2019-10-13T13:17:41Z</time>
      </trkpt>
      <trkpt lat="46.017963867634535" lon="8.537681763991714">
        <ele>1519.21</ele>
        <time>2019-10-13T13:17:56Z</time>
      </trkpt>
      <trkpt lat="46.017950037494302" lon="8.537703305482864">
        <ele>1520.04</ele>
        <time>2019-10-13T13:18:08Z</time>
      </trkpt>
      <trkpt lat="46.017920449376106" lon="8.537713279947639">
        <ele>1519.8</ele>
        <time>2019-10-13T13:18:19Z</time>
      </trkpt>
      <trkpt lat="46.0179035179317" lon="8.537729037925601">
        <ele>1520.1400000000001</ele>
        <time>2019-10-13T13:18:35Z</time>
      </trkpt>
      <trkpt lat="46.017889687791467" lon="8.537732306867838">
        <ele>1521.99</ele>
        <time>2019-10-13T13:18:48Z</time>
      </trkpt>
      <trkpt lat="46.017863871529698" lon="8.537754435092211">
        <ele>1523.4000000000001</ele>
        <time>2019-10-13T13:19:01Z</time>
      </trkpt>
      <trkpt lat="46.017846772447228" lon="8.537760637700558">
        <ele>1524.3399999999999</ele>
        <time>2019-10-13T13:19:14Z</time>
      </trkpt>
      <trkpt lat="46.017822213470936" lon="8.53775292634964">
        <ele>1524.75</ele>
        <time>2019-10-13T13:19:26Z</time>
      </trkpt>
      <trkpt lat="46.017784494906664" lon="8.537757536396384">
        <ele>1523.23</ele>
        <time>2019-10-13T13:19:37Z</time>
      </trkpt>
      <trkpt lat="46.017687181010842" lon="8.537742700427771">
        <ele>1521.98</ele>
        <time>2019-10-13T13:19:46Z</time>
      </trkpt>
      <trkpt lat="46.017562793567777" lon="8.537722835317254">
        <ele>1524.3800000000001</ele>
        <time>2019-10-13T13:20:00Z</time>
      </trkpt>
      <trkpt lat="46.017441172152758" lon="8.537695091217756">
        <ele>1523.3099999999999</ele>
        <time>2019-10-13T13:20:11Z</time>
      </trkpt>
      <trkpt lat="46.017323322594166" lon="8.537642955780029">
        <ele>1524.51</ele>
        <time>2019-10-13T13:20:24Z</time>
      </trkpt>
      <trkpt lat="46.017258195206523" lon="8.537672124803066">
        <ele>1525.4300000000001</ele>
        <time>2019-10-13T13:20:36Z</time>
      </trkpt>
      <trkpt lat="46.017249310389161" lon="8.537678746506572">
        <ele>1525.3399999999999</ele>
        <time>2019-10-13T13:20:37Z</time>
      </trkpt>
      <trkpt lat="46.017130874097347" lon="8.537670783698559">
        <ele>1524.1400000000001</ele>
        <time>2019-10-13T13:20:49Z</time>
      </trkpt>
      <trkpt lat="46.017056861892343" lon="8.537594759836793">
        <ele>1525.25</ele>
        <time>2019-10-13T13:21:02Z</time>
      </trkpt>
      <trkpt lat="46.017012856900692" lon="8.537661144509912">
        <ele>1525.3099999999999</ele>
        <time>2019-10-13T13:21:13Z</time>
      </trkpt>
      <trkpt lat="46.016990980133414" lon="8.537683272734284">
        <ele>1525.8499999999999</ele>
        <time>2019-10-13T13:21:17Z</time>
      </trkpt>
      <trkpt lat="46.016968684270978" lon="8.537707412615418">
        <ele>1525.71</ele>
        <time>2019-10-13T13:21:20Z</time>
      </trkpt>
      <trkpt lat="46.016918057575822" lon="8.537741024047136">
        <ele>1524.9300000000001</ele>
        <time>2019-10-13T13:21:31Z</time>
      </trkpt>
      <trkpt lat="46.016862150281668" lon="8.537737252190709">
        <ele>1527.05</ele>
        <time>2019-10-13T13:21:42Z</time>
      </trkpt>
      <trkpt lat="46.016833567991853" lon="8.537726020440459">
        <ele>1527.8</ele>
        <time>2019-10-13T13:21:46Z</time>
      </trkpt>
      <trkpt lat="46.016797106713057" lon="8.537718476727605">
        <ele>1527.8900000000001</ele>
        <time>2019-10-13T13:21:56Z</time>
      </trkpt>
      <trkpt lat="46.016768775880337" lon="8.537719147279859">
        <ele>1528.76</ele>
        <time>2019-10-13T13:22:10Z</time>
      </trkpt>
      <trkpt lat="46.016741283237934" lon="8.537725768983364">
        <ele>1529.47</ele>
        <time>2019-10-13T13:22:26Z</time>
      </trkpt>
      <trkpt lat="46.016707923263311" lon="8.537717638537288">
        <ele>1530.5</ele>
        <time>2019-10-13T13:22:40Z</time>
      </trkpt>
      <trkpt lat="46.016681604087353" lon="8.53769576177001">
        <ele>1533.23</ele>
        <time>2019-10-13T13:22:52Z</time>
      </trkpt>
      <trkpt lat="46.016658386215568" lon="8.537688553333283">
        <ele>1533.24</ele>
        <time>2019-10-13T13:23:03Z</time>
      </trkpt>
      <trkpt lat="46.01664774119854" lon="8.537669274955988">
        <ele>1532.1199999999999</ele>
        <time>2019-10-13T13:23:14Z</time>
      </trkpt>
      <trkpt lat="46.01660474203527" lon="8.537682350724936">
        <ele>1530.52</ele>
        <time>2019-10-13T13:23:24Z</time>
      </trkpt>
      <trkpt lat="46.016468536108732" lon="8.537675393745303">
        <ele>1529.04</ele>
        <time>2019-10-13T13:23:36Z</time>
      </trkpt>
      <trkpt lat="46.016439702361822" lon="8.537667933851481">
        <ele>1529.54</ele>
        <time>2019-10-13T13:23:39Z</time>
      </trkpt>
      <trkpt lat="46.016337191686034" lon="8.53760682977736">
        <ele>1530.22</ele>
        <time>2019-10-13T13:23:51Z</time>
      </trkpt>
      <trkpt lat="46.016214396804571" lon="8.537542205303907">
        <ele>1530.9200000000001</ele>
        <time>2019-10-13T13:24:03Z</time>
      </trkpt>
      <trkpt lat="46.01611758582294" lon="8.537481771782041">
        <ele>1531.8199999999999</ele>
        <time>2019-10-13T13:24:13Z</time>
      </trkpt>
      <trkpt lat="46.015946511179209" lon="8.537495769560337">
        <ele>1531.8299999999999</ele>
        <time>2019-10-13T13:24:28Z</time>
      </trkpt>
      <trkpt lat="46.015805192291737" lon="8.537422344088554">
        <ele>1532.26</ele>
        <time>2019-10-13T13:24:42Z</time>
      </trkpt>
      <trkpt lat="46.015713829547167" lon="8.537395605817437">
        <ele>1531.4300000000001</ele>
        <time>2019-10-13T13:24:55Z</time>
      </trkpt>
      <trkpt lat="46.015693042427301" lon="8.537381775677204">
        <ele>1530.7</ele>
        <time>2019-10-13T13:24:58Z</time>
      </trkpt>
      <trkpt lat="46.015663370490074" lon="8.537372807040811">
        <ele>1530.2</ele>
        <time>2019-10-13T13:25:01Z</time>
      </trkpt>
      <trkpt lat="46.015599332749844" lon="8.537396108731628">
        <ele>1530.3199999999999</ele>
        <time>2019-10-13T13:25:12Z</time>
      </trkpt>
      <trkpt lat="46.015557758510113" lon="8.5374148003757">
        <ele>1531.3299999999999</ele>
        <time>2019-10-13T13:25:18Z</time>
      </trkpt>
      <trkpt lat="46.015428928658366" lon="8.537433994933963">
        <ele>1530.99</ele>
        <time>2019-10-13T13:25:32Z</time>
      </trkpt>
      <trkpt lat="46.015362879261374" lon="8.537456458434463">
        <ele>1531.8699999999999</ele>
        <time>2019-10-13T13:25:43Z</time>
      </trkpt>
      <trkpt lat="46.015289537608624" lon="8.537495601922274">
        <ele>1534.02</ele>
        <time>2019-10-13T13:25:55Z</time>
      </trkpt>
      <trkpt lat="46.015236815437675" lon="8.537469701841474">
        <ele>1534.6700000000001</ele>
        <time>2019-10-13T13:26:01Z</time>
      </trkpt>
      <trkpt lat="46.015216698870063" lon="8.537452770397067">
        <ele>1534.2</ele>
        <time>2019-10-13T13:26:03Z</time>
      </trkpt>
      <trkpt lat="46.015056101605296" lon="8.537417314946652">
        <ele>1533.5999999999999</ele>
        <time>2019-10-13T13:26:19Z</time>
      </trkpt>
      <trkpt lat="46.014994326978922" lon="8.537412788718939">
        <ele>1532.9300000000001</ele>
        <time>2019-10-13T13:26:32Z</time>
      </trkpt>
      <trkpt lat="46.014888044446707" lon="8.537374064326286">
        <ele>1535.53</ele>
        <time>2019-10-13T13:26:46Z</time>
      </trkpt>
      <trkpt lat="46.014774553477764" lon="8.537350678816438">
        <ele>1536.4000000000001</ele>
        <time>2019-10-13T13:26:58Z</time>
      </trkpt>
      <trkpt lat="46.014644717797637" lon="8.537331065163016">
        <ele>1535.8800000000001</ele>
        <time>2019-10-13T13:27:10Z</time>
      </trkpt>
      <trkpt lat="46.014613620936871" lon="8.53733223862946">
        <ele>1535.96</ele>
        <time>2019-10-13T13:27:13Z</time>
      </trkpt>
      <trkpt lat="46.014461992308497" lon="8.537276079878211">
        <ele>1535.5999999999999</ele>
        <time>2019-10-13T13:27:28Z</time>
      </trkpt>
      <trkpt lat="46.014404157176614" lon="8.537268536165357">
        <ele>1536.03</ele>
        <time>2019-10-13T13:27:38Z</time>
      </trkpt>
      <trkpt lat="46.014341795817018" lon="8.537238780409098">
        <ele>1537.54</ele>
        <time>2019-10-13T13:27:49Z</time>
      </trkpt>
      <trkpt lat="46.014314303174615" lon="8.537235595285893">
        <ele>1538.01</ele>
        <time>2019-10-13T13:27:53Z</time>
      </trkpt>
      <trkpt lat="46.014260742813349" lon="8.5372144728899">
        <ele>1538.9400000000001</ele>
        <time>2019-10-13T13:27:59Z</time>
      </trkpt>
      <trkpt lat="46.014168374240398" lon="8.537216819822788">
        <ele>1540.8</ele>
        <time>2019-10-13T13:28:13Z</time>
      </trkpt>
      <trkpt lat="46.014121770858765" lon="8.537193350493908">
        <ele>1541.5999999999999</ele>
        <time>2019-10-13T13:28:19Z</time>
      </trkpt>
      <trkpt lat="46.013961005955935" lon="8.537092180922627">
        <ele>1541.04</ele>
        <time>2019-10-13T13:28:36Z</time>
      </trkpt>
      <trkpt lat="46.013850113376975" lon="8.537073656916618">
        <ele>1542.3099999999999</ele>
        <time>2019-10-13T13:28:50Z</time>
      </trkpt>
      <trkpt lat="46.013788087293506" lon="8.537068879231811">
        <ele>1542.71</ele>
        <time>2019-10-13T13:28:59Z</time>
      </trkpt>
      <trkpt lat="46.013726312667131" lon="8.537056557834148">
        <ele>1542.23</ele>
        <time>2019-10-13T13:29:10Z</time>
      </trkpt>
      <trkpt lat="46.013694377616048" lon="8.537013558670878">
        <ele>1541.0599999999999</ele>
        <time>2019-10-13T13:29:16Z</time>
      </trkpt>
      <trkpt lat="46.013568565249443" lon="8.536960082128644">
        <ele>1542.1199999999999</ele>
        <time>2019-10-13T13:29:29Z</time>
      </trkpt>
      <trkpt lat="46.013419786468148" lon="8.536957064643502">
        <ele>1543.6400000000001</ele>
        <time>2019-10-13T13:29:44Z</time>
      </trkpt>
      <trkpt lat="46.013395898044109" lon="8.536938121542335">
        <ele>1543.49</ele>
        <time>2019-10-13T13:29:47Z</time>
      </trkpt>
      <trkpt lat="46.013247705996037" lon="8.536892691627145">
        <ele>1542.48</ele>
        <time>2019-10-13T13:30:02Z</time>
      </trkpt>
      <trkpt lat="46.013106387108564" lon="8.536905767396092">
        <ele>1542.3499999999999</ele>
        <time>2019-10-13T13:30:17Z</time>
      </trkpt>
      <trkpt lat="46.012955009937286" lon="8.536927727982402">
        <ele>1541.1300000000001</ele>
        <time>2019-10-13T13:30:33Z</time>
      </trkpt>
      <trkpt lat="46.01285501383245" lon="8.536979611963034">
        <ele>1541.4400000000001</ele>
        <time>2019-10-13T13:30:47Z</time>
      </trkpt>
      <trkpt lat="46.012825174257159" lon="8.53699604049325">
        <ele>1541.9400000000001</ele>
        <time>2019-10-13T13:30:51Z</time>
      </trkpt>
      <trkpt lat="46.012698775157332" lon="8.537039794027805">
        <ele>1541.95</ele>
        <time>2019-10-13T13:31:06Z</time>
      </trkpt>
      <trkpt lat="46.012619398534298" lon="8.537062257528305">
        <ele>1542.2</ele>
        <time>2019-10-13T13:31:15Z</time>
      </trkpt>
      <trkpt lat="46.012571034952998" lon="8.537081368267536">
        <ele>1542.5699999999999</ele>
        <time>2019-10-13T13:31:20Z</time>
      </trkpt>
      <trkpt lat="46.012411611154675" lon="8.537103580310941">
        <ele>1542.72</ele>
        <time>2019-10-13T13:31:36Z</time>
      </trkpt>
      <trkpt lat="46.012304909527302" lon="8.537157392129302">
        <ele>1543.53</ele>
        <time>2019-10-13T13:31:50Z</time>
      </trkpt>
      <trkpt lat="46.012244559824467" lon="8.537221932783723">
        <ele>1543.54</ele>
        <time>2019-10-13T13:32:00Z</time>
      </trkpt>
      <trkpt lat="46.012239279225469" lon="8.537231739610434">
        <ele>1543.75</ele>
        <time>2019-10-13T13:32:02Z</time>
      </trkpt>
      <trkpt lat="46.012189323082566" lon="8.537253784015775">
        <ele>1543.6600000000001</ele>
        <time>2019-10-13T13:32:15Z</time>
      </trkpt>
      <trkpt lat="46.012235758826137" lon="8.537307595834136">
        <ele>1544.3</ele>
        <time>2019-10-13T13:32:25Z</time>
      </trkpt>
      <trkpt lat="46.012200387194753" lon="8.537372639402747">
        <ele>1543.71</ele>
        <time>2019-10-13T13:32:37Z</time>
      </trkpt>
      <trkpt lat="46.012209020555019" lon="8.537379680201411">
        <ele>1542.6199999999999</ele>
        <time>2019-10-13T13:32:50Z</time>
      </trkpt>
      <trkpt lat="46.01220516487956" lon="8.537380937486887">
        <ele>1542.8499999999999</ele>
        <time>2019-10-13T13:33:23Z</time>
      </trkpt>
      <trkpt lat="46.012201644480228" lon="8.537381356582046">
        <ele>1543.01</ele>
        <time>2019-10-13T13:33:48Z</time>
      </trkpt>
      <trkpt lat="46.012199381366372" lon="8.537377500906587">
        <ele>1542.8900000000001</ele>
        <time>2019-10-13T13:34:13Z</time>
      </trkpt>
      <trkpt lat="46.012228969484568" lon="8.537381943315268">
        <ele>1542.96</ele>
        <time>2019-10-13T13:35:09Z</time>
      </trkpt>
      <trkpt lat="46.012220839038491" lon="8.537374483421445">
        <ele>1543.4100000000001</ele>
        <time>2019-10-13T13:35:40Z</time>
      </trkpt>
      <trkpt lat="46.012244140729308" lon="8.537363586947322">
        <ele>1543.1900000000001</ele>
        <time>2019-10-13T13:36:10Z</time>
      </trkpt>
      <trkpt lat="46.012234752997756" lon="8.537374483421445">
        <ele>1543.24</ele>
        <time>2019-10-13T13:36:27Z</time>
      </trkpt>
      <trkpt lat="46.012223185971379" lon="8.537369873374701">
        <ele>1543.28</ele>
        <time>2019-10-13T13:36:44Z</time>
      </trkpt>
      <trkpt lat="46.012211451306939" lon="8.537373142316937">
        <ele>1543.48</ele>
        <time>2019-10-13T13:37:38Z</time>
      </trkpt>
      <trkpt lat="46.012235591188073" lon="8.537384541705251">
        <ele>1543.1099999999999</ele>
        <time>2019-10-13T13:38:08Z</time>
      </trkpt>
      <trkpt lat="46.012255623936653" lon="8.537396946921945">
        <ele>1543.5699999999999</ele>
        <time>2019-10-13T13:38:54Z</time>
      </trkpt>
      <trkpt lat="46.012263000011444" lon="8.537380937486887">
        <ele>1542.96</ele>
        <time>2019-10-13T13:39:16Z</time>
      </trkpt>
      <trkpt lat="46.012285714969039" lon="8.537374315783382">
        <ele>1543.3299999999999</ele>
        <time>2019-10-13T13:39:52Z</time>
      </trkpt>
      <trkpt lat="46.012285714969039" lon="8.537384206429124">
        <ele>1543.3399999999999</ele>
        <time>2019-10-13T13:40:42Z</time>
      </trkpt>
      <trkpt lat="46.012270459905267" lon="8.537379512563348">
        <ele>1543.27</ele>
        <time>2019-10-13T13:41:24Z</time>
      </trkpt>
      <trkpt lat="46.01226769387722" lon="8.537375908344984">
        <ele>1543.4100000000001</ele>
        <time>2019-10-13T13:41:49Z</time>
      </trkpt>
      <trkpt lat="46.012285714969039" lon="8.537368280813098">
        <ele>1543.4100000000001</ele>
        <time>2019-10-13T13:42:32Z</time>
      </trkpt>
      <trkpt lat="46.012293426319957" lon="8.537358893081546">
        <ele>1543.28</ele>
        <time>2019-10-13T13:43:18Z</time>
      </trkpt>
      <trkpt lat="46.012290241196752" lon="8.53735763579607">
        <ele>1543.49</ele>
        <time>2019-10-13T13:44:04Z</time>
      </trkpt>
      <trkpt lat="46.012280350551009" lon="8.537356965243816">
        <ele>1543.29</ele>
        <time>2019-10-13T13:44:51Z</time>
      </trkpt>
      <trkpt lat="46.012261742725968" lon="8.537361659109592">
        <ele>1543.72</ele>
        <time>2019-10-13T13:45:36Z</time>
      </trkpt>
      <trkpt lat="46.012238524854183" lon="8.537369957193732">
        <ele>1543.8399999999999</ele>
        <time>2019-10-13T13:46:13Z</time>
      </trkpt>
      <trkpt lat="46.012217905372381" lon="8.537369538098574">
        <ele>1543.76</ele>
        <time>2019-10-13T13:46:53Z</time>
      </trkpt>
      <trkpt lat="46.012242464348674" lon="8.537368532270193">
        <ele>1543.4400000000001</ele>
        <time>2019-10-13T13:47:37Z</time>
      </trkpt>
      <trkpt lat="46.01226769387722" lon="8.537359898909926">
        <ele>1543.3</ele>
        <time>2019-10-13T13:48:19Z</time>
      </trkpt>
      <trkpt lat="46.012259731069207" lon="8.537349170073867">
        <ele>1543.3699999999999</ele>
        <time>2019-10-13T13:49:07Z</time>
      </trkpt>
      <trkpt lat="46.012231735512614" lon="8.537358557805419">
        <ele>1543.1900000000001</ele>
        <time>2019-10-13T13:49:55Z</time>
      </trkpt>
      <trkpt lat="46.012255875393748" lon="8.537367274984717">
        <ele>1543.0799999999999</ele>
        <time>2019-10-13T13:50:34Z</time>
      </trkpt>
      <trkpt lat="46.01225595921278" lon="8.537369202822447">
        <ele>1542.6800000000001</ele>
        <time>2019-10-13T13:51:20Z</time>
      </trkpt>
      <trkpt lat="46.012241626158357" lon="8.537378087639809">
        <ele>1542.7</ele>
        <time>2019-10-13T13:52:02Z</time>
      </trkpt>
      <trkpt lat="46.012231567874551" lon="8.537380518391728">
        <ele>1542.8299999999999</ele>
        <time>2019-10-13T13:52:52Z</time>
      </trkpt>
      <trkpt lat="46.012234250083566" lon="8.537392085418105">
        <ele>1542.6099999999999</ele>
        <time>2019-10-13T13:53:37Z</time>
      </trkpt>
      <trkpt lat="46.012215977534652" lon="8.537387726828456">
        <ele>1542.96</ele>
        <time>2019-10-13T13:54:27Z</time>
      </trkpt>
      <trkpt lat="46.012214049696922" lon="8.537382110953331">
        <ele>1542.51</ele>
        <time>2019-10-13T13:55:01Z</time>
      </trkpt>
      <trkpt lat="46.01221296004951" lon="8.537390325218439">
        <ele>1542.8699999999999</ele>
        <time>2019-10-13T13:55:24Z</time>
      </trkpt>
      <trkpt lat="46.012214133515954" lon="8.537393929436803">
        <ele>1542.4100000000001</ele>
        <time>2019-10-13T13:55:53Z</time>
      </trkpt>
      <trkpt lat="46.012211367487907" lon="8.5373889002949">
        <ele>1542.4300000000001</ele>
        <time>2019-10-13T13:56:30Z</time>
      </trkpt>
      <trkpt lat="46.012214217334986" lon="8.537369705736637">
        <ele>1542.23</ele>
        <time>2019-10-13T13:57:14Z</time>
      </trkpt>
      <trkpt lat="46.012226035818458" lon="8.53737423196435">
        <ele>1541.97</ele>
        <time>2019-10-13T13:57:49Z</time>
      </trkpt>
      <trkpt lat="46.012229723855853" lon="8.53737473487854">
        <ele>1543.1199999999999</ele>
        <time>2019-10-13T13:58:01Z</time>
      </trkpt>
      <trkpt lat="46.012218156829476" lon="8.537366772070527">
        <ele>1543.05</ele>
        <time>2019-10-13T13:58:15Z</time>
      </trkpt>
      <trkpt lat="46.012214301154017" lon="8.537369538098574">
        <ele>1543.05</ele>
        <time>2019-10-13T13:58:31Z</time>
      </trkpt>
      <trkpt lat="46.012206086888909" lon="8.537370795384049">
        <ele>1542.6700000000001</ele>
        <time>2019-10-13T13:58:40Z</time>
      </trkpt>
      <trkpt lat="46.012220587581396" lon="8.53734833188355">
        <ele>1543</ele>
        <time>2019-10-13T13:58:50Z</time>
      </trkpt>
      <trkpt lat="46.01226132363081" lon="8.537358306348324">
        <ele>1543.55</ele>
        <time>2019-10-13T13:59:01Z</time>
      </trkpt>
      <trkpt lat="46.012271465733647" lon="8.537442963570356">
        <ele>1542.51</ele>
        <time>2019-10-13T13:59:11Z</time>
      </trkpt>
      <trkpt lat="46.012281524017453" lon="8.537478838115931">
        <ele>1541.9200000000001</ele>
        <time>2019-10-13T13:59:20Z</time>
      </trkpt>
      <trkpt lat="46.012290911749005" lon="8.537507420405746">
        <ele>1541.45</ele>
        <time>2019-10-13T13:59:25Z</time>
      </trkpt>
      <trkpt lat="46.012312788516283" lon="8.537548827007413">
        <ele>1540.8900000000001</ele>
        <time>2019-10-13T13:59:29Z</time>
      </trkpt>
      <trkpt lat="46.012422423809767" lon="8.537698611617088">
        <ele>1539.74</ele>
        <time>2019-10-13T13:59:43Z</time>
      </trkpt>
      <trkpt lat="46.012501968070865" lon="8.537820735946298">
        <ele>1538.2</ele>
        <time>2019-10-13T13:59:54Z</time>
      </trkpt>
      <trkpt lat="46.012595845386386" lon="8.537944201380014">
        <ele>1536.97</ele>
        <time>2019-10-13T14:00:06Z</time>
      </trkpt>
      <trkpt lat="46.012655692175031" lon="8.538070097565651">
        <ele>1534.6700000000001</ele>
        <time>2019-10-13T14:00:19Z</time>
      </trkpt>
      <trkpt lat="46.012672455981374" lon="8.538153329864144">
        <ele>1532.99</ele>
        <time>2019-10-13T14:00:28Z</time>
      </trkpt>
      <trkpt lat="46.01273238658905" lon="8.538238406181335">
        <ele>1531.1300000000001</ele>
        <time>2019-10-13T14:00:39Z</time>
      </trkpt>
      <trkpt lat="46.012798435986042" lon="8.538361955434084">
        <ele>1529.3399999999999</ele>
        <time>2019-10-13T14:00:52Z</time>
      </trkpt>
      <trkpt lat="46.012881333008409" lon="8.538522552698851">
        <ele>1526.96</ele>
        <time>2019-10-13T14:01:09Z</time>
      </trkpt>
      <trkpt lat="46.012959033250809" lon="8.538674851879478">
        <ele>1524.96</ele>
        <time>2019-10-13T14:01:26Z</time>
      </trkpt>
      <trkpt lat="46.013036817312241" lon="8.538770489394665">
        <ele>1523.75</ele>
        <time>2019-10-13T14:01:38Z</time>
      </trkpt>
      <trkpt lat="46.013114349916577" lon="8.538946341723204">
        <ele>1523.02</ele>
        <time>2019-10-13T14:01:53Z</time>
      </trkpt>
      <trkpt lat="46.01317998021841" lon="8.539072908461094">
        <ele>1522.78</ele>
        <time>2019-10-13T14:02:05Z</time>
      </trkpt>
      <trkpt lat="46.013257512822747" lon="8.539219675585628">
        <ele>1522.22</ele>
        <time>2019-10-13T14:02:18Z</time>
      </trkpt>
      <trkpt lat="46.013296572491527" lon="8.539326544851065">
        <ele>1522.3199999999999</ele>
        <time>2019-10-13T14:02:27Z</time>
      </trkpt>
      <trkpt lat="46.013340326026082" lon="8.539398377761245">
        <ele>1522.47</ele>
        <time>2019-10-13T14:02:39Z</time>
      </trkpt>
      <trkpt lat="46.013338398188353" lon="8.539397036656737">
        <ele>1522.28</ele>
        <time>2019-10-13T14:03:01Z</time>
      </trkpt>
      <trkpt lat="46.013352731242776" lon="8.539352612569928">
        <ele>1522.1600000000001</ele>
        <time>2019-10-13T14:03:19Z</time>
      </trkpt>
      <trkpt lat="46.013269666582346" lon="8.53938496671617">
        <ele>1522.5</ele>
        <time>2019-10-13T14:05:05Z</time>
      </trkpt>
      <trkpt lat="46.013346780091524" lon="8.539367029443383">
        <ele>1521.45</ele>
        <time>2019-10-13T14:06:06Z</time>
      </trkpt>
      <trkpt lat="46.013293052092195" lon="8.539366945624352">
        <ele>1521.1300000000001</ele>
        <time>2019-10-13T14:06:18Z</time>
      </trkpt>
      <trkpt lat="46.013250472024083" lon="8.539355294778943">
        <ele>1520.29</ele>
        <time>2019-10-13T14:06:35Z</time>
      </trkpt>
      <trkpt lat="46.013232450932264" lon="8.53935563005507">
        <ele>1520.1600000000001</ele>
        <time>2019-10-13T14:07:18Z</time>
      </trkpt>
      <trkpt lat="46.013239324092865" lon="8.539365604519844">
        <ele>1520.3499999999999</ele>
        <time>2019-10-13T14:07:35Z</time>
      </trkpt>
      <trkpt lat="46.01326840929687" lon="8.539363006129861">
        <ele>1520.46</ele>
        <time>2019-10-13T14:08:10Z</time>
      </trkpt>
      <trkpt lat="46.013280730694532" lon="8.539375327527523">
        <ele>1520.3499999999999</ele>
        <time>2019-10-13T14:08:46Z</time>
      </trkpt>
      <trkpt lat="46.013281065970659" lon="8.539373064413667">
        <ele>1519.71</ele>
        <time>2019-10-13T14:09:05Z</time>
      </trkpt>
      <trkpt lat="46.013286262750626" lon="8.539361581206322">
        <ele>1519.9200000000001</ele>
        <time>2019-10-13T14:09:42Z</time>
      </trkpt>
      <trkpt lat="46.013292632997036" lon="8.539349343627691">
        <ele>1519.5699999999999</ele>
        <time>2019-10-13T14:10:20Z</time>
      </trkpt>
      <trkpt lat="46.013290034607053" lon="8.539330065250397">
        <ele>1520.5699999999999</ele>
        <time>2019-10-13T14:10:56Z</time>
      </trkpt>
      <trkpt lat="46.01327863521874" lon="8.539341045543551">
        <ele>1520.76</ele>
        <time>2019-10-13T14:11:15Z</time>
      </trkpt>
      <trkpt lat="46.013238821178675" lon="8.539221687242389">
        <ele>1520.73</ele>
        <time>2019-10-13T14:11:27Z</time>
      </trkpt>
      <trkpt lat="46.013182494789362" lon="8.539185980334878">
        <ele>1519.02</ele>
        <time>2019-10-13T14:11:39Z</time>
      </trkpt>
      <trkpt lat="46.013147458434105" lon="8.539206432178617">
        <ele>1517.4000000000001</ele>
        <time>2019-10-13T14:11:50Z</time>
      </trkpt>
      <trkpt lat="46.013146536424756" lon="8.539257058873773">
        <ele>1516.46</ele>
        <time>2019-10-13T14:11:58Z</time>
      </trkpt>
      <trkpt lat="46.013135891407728" lon="8.539277845993638">
        <ele>1515.6600000000001</ele>
        <time>2019-10-13T14:12:02Z</time>
      </trkpt>
      <trkpt lat="46.013146117329597" lon="8.539374405518174">
        <ele>1513.23</ele>
        <time>2019-10-13T14:12:14Z</time>
      </trkpt>
      <trkpt lat="46.013097837567329" lon="8.539376081898809">
        <ele>1510.8900000000001</ele>
        <time>2019-10-13T14:12:24Z</time>
      </trkpt>
      <trkpt lat="46.013038828969002" lon="8.539350349456072">
        <ele>1507.23</ele>
        <time>2019-10-13T14:12:34Z</time>
      </trkpt>
      <trkpt lat="46.012999769300222" lon="8.539364682510495">
        <ele>1506.24</ele>
        <time>2019-10-13T14:12:44Z</time>
      </trkpt>
      <trkpt lat="46.013031788170338" lon="8.5394645947963">
        <ele>1504.5</ele>
        <time>2019-10-13T14:12:55Z</time>
      </trkpt>
      <trkpt lat="46.013105046004057" lon="8.539570542052388">
        <ele>1503.3199999999999</ele>
        <time>2019-10-13T14:13:07Z</time>
      </trkpt>
      <trkpt lat="46.013115355744958" lon="8.539632400497794">
        <ele>1502.3800000000001</ele>
        <time>2019-10-13T14:13:21Z</time>
      </trkpt>
      <trkpt lat="46.013108566403389" lon="8.539679758250713">
        <ele>1501.4200000000001</ele>
        <time>2019-10-13T14:13:36Z</time>
      </trkpt>
      <trkpt lat="46.013105884194374" lon="8.539676824584603">
        <ele>1501.3099999999999</ele>
        <time>2019-10-13T14:14:06Z</time>
      </trkpt>
      <trkpt lat="46.013063807040453" lon="8.539761146530509">
        <ele>1498.28</ele>
        <time>2019-10-13T14:14:17Z</time>
      </trkpt>
      <trkpt lat="46.013042600825429" lon="8.53984815068543">
        <ele>1495.26</ele>
        <time>2019-10-13T14:14:26Z</time>
      </trkpt>
      <trkpt lat="46.013033045455813" lon="8.539888551458716">
        <ele>1494.3399999999999</ele>
        <time>2019-10-13T14:14:30Z</time>
      </trkpt>
      <trkpt lat="46.01300647482276" lon="8.540011933073402">
        <ele>1491.53</ele>
        <time>2019-10-13T14:14:42Z</time>
      </trkpt>
      <trkpt lat="46.01299624890089" lon="8.540131710469723">
        <ele>1489.8699999999999</ele>
        <time>2019-10-13T14:14:54Z</time>
      </trkpt>
      <trkpt lat="46.013016533106565" lon="8.540196502581239">
        <ele>1488.7</ele>
        <time>2019-10-13T14:15:06Z</time>
      </trkpt>
      <trkpt lat="46.013030111789703" lon="8.540271436795592">
        <ele>1487.0999999999999</ele>
        <time>2019-10-13T14:15:18Z</time>
      </trkpt>
      <trkpt lat="46.013036817312241" lon="8.540355758741498">
        <ele>1484.8900000000001</ele>
        <time>2019-10-13T14:15:33Z</time>
      </trkpt>
      <trkpt lat="46.013053078204393" lon="8.540469836443663">
        <ele>1483.01</ele>
        <time>2019-10-13T14:15:46Z</time>
      </trkpt>
      <trkpt lat="46.013099430128932" lon="8.540569832548499">
        <ele>1481.1300000000001</ele>
        <time>2019-10-13T14:15:58Z</time>
      </trkpt>
      <trkpt lat="46.013129269704223" lon="8.540652310475707">
        <ele>1479.55</ele>
        <time>2019-10-13T14:16:10Z</time>
      </trkpt>
      <trkpt lat="46.013141172006726" lon="8.54070813395083">
        <ele>1478.28</ele>
        <time>2019-10-13T14:16:16Z</time>
      </trkpt>
      <trkpt lat="46.013161204755306" lon="8.54074333794415">
        <ele>1478.1600000000001</ele>
        <time>2019-10-13T14:16:29Z</time>
      </trkpt>
      <trkpt lat="46.013173274695873" lon="8.540813159197569">
        <ele>1477.1900000000001</ele>
        <time>2019-10-13T14:16:41Z</time>
      </trkpt>
      <trkpt lat="46.013174951076508" lon="8.540838221088052">
        <ele>1476.78</ele>
        <time>2019-10-13T14:16:43Z</time>
      </trkpt>
      <trkpt lat="46.013210825622082" lon="8.540960596874356">
        <ele>1474.9400000000001</ele>
        <time>2019-10-13T14:16:56Z</time>
      </trkpt>
      <trkpt lat="46.013219878077507" lon="8.540981886908412">
        <ele>1474.28</ele>
        <time>2019-10-13T14:16:59Z</time>
      </trkpt>
      <trkpt lat="46.013242173939943" lon="8.541100407019258">
        <ele>1473.8900000000001</ele>
        <time>2019-10-13T14:17:09Z</time>
      </trkpt>
      <trkpt lat="46.013194313272834" lon="8.5411845613271">
        <ele>1472.7</ele>
        <time>2019-10-13T14:17:17Z</time>
      </trkpt>
      <trkpt lat="46.013164138421416" lon="8.541312804445624">
        <ele>1471.76</ele>
        <time>2019-10-13T14:17:29Z</time>
      </trkpt>
      <trkpt lat="46.013109907507896" lon="8.541388912126422">
        <ele>1469.3099999999999</ele>
        <time>2019-10-13T14:17:41Z</time>
      </trkpt>
      <trkpt lat="46.013057772070169" lon="8.541528303176165">
        <ele>1466.8099999999999</ele>
        <time>2019-10-13T14:17:54Z</time>
      </trkpt>
      <trkpt lat="46.013045031577349" lon="8.541567530483007">
        <ele>1465.9200000000001</ele>
        <time>2019-10-13T14:18:04Z</time>
      </trkpt>
      <trkpt lat="46.013008905574679" lon="8.541633412241936">
        <ele>1464.0999999999999</ele>
        <time>2019-10-13T14:18:14Z</time>
      </trkpt>
      <trkpt lat="46.012965571135283" lon="8.541733995079994">
        <ele>1461.46</ele>
        <time>2019-10-13T14:18:26Z</time>
      </trkpt>
      <trkpt lat="46.012941179797053" lon="8.54178462177515">
        <ele>1460.4300000000001</ele>
        <time>2019-10-13T14:18:37Z</time>
      </trkpt>
      <trkpt lat="46.012931372970343" lon="8.541787639260292">
        <ele>1460.45</ele>
        <time>2019-10-13T14:18:48Z</time>
      </trkpt>
      <trkpt lat="46.012928020209074" lon="8.541805157437921">
        <ele>1460.28</ele>
        <time>2019-10-13T14:19:01Z</time>
      </trkpt>
      <trkpt lat="46.012911172583699" lon="8.541850252076984">
        <ele>1459.76</ele>
        <time>2019-10-13T14:19:16Z</time>
      </trkpt>
      <trkpt lat="46.01289608515799" lon="8.541859891265631">
        <ele>1459.26</ele>
        <time>2019-10-13T14:19:18Z</time>
      </trkpt>
      <trkpt lat="46.012852750718594" lon="8.541996935382485">
        <ele>1457.21</ele>
        <time>2019-10-13T14:19:31Z</time>
      </trkpt>
      <trkpt lat="46.012850319966674" lon="8.542009508237243">
        <ele>1456.99</ele>
        <time>2019-10-13T14:19:32Z</time>
      </trkpt>
      <trkpt lat="46.012807823717594" lon="8.542119478806853">
        <ele>1455.6600000000001</ele>
        <time>2019-10-13T14:19:45Z</time>
      </trkpt>
      <trkpt lat="46.012771781533957" lon="8.542210170999169">
        <ele>1453.51</ele>
        <time>2019-10-13T14:19:55Z</time>
      </trkpt>
      <trkpt lat="46.012722244486213" lon="8.542292900383472">
        <ele>1451.9200000000001</ele>
        <time>2019-10-13T14:20:06Z</time>
      </trkpt>
      <trkpt lat="46.012661475688219" lon="8.542332714423537">
        <ele>1449.6199999999999</ele>
        <time>2019-10-13T14:20:18Z</time>
      </trkpt>
      <trkpt lat="46.012661727145314" lon="8.54235777631402">
        <ele>1449.3099999999999</ele>
        <time>2019-10-13T14:20:20Z</time>
      </trkpt>
      <trkpt lat="46.012650579214096" lon="8.542505633085966">
        <ele>1448.5799999999999</ele>
        <time>2019-10-13T14:20:35Z</time>
      </trkpt>
      <trkpt lat="46.012659128755331" lon="8.542542178183794">
        <ele>1448.3099999999999</ele>
        <time>2019-10-13T14:20:51Z</time>
      </trkpt>
      <trkpt lat="46.012651165947318" lon="8.542608311399818">
        <ele>1447.4300000000001</ele>
        <time>2019-10-13T14:21:04Z</time>
      </trkpt>
      <trkpt lat="46.012644460424781" lon="8.542684419080615">
        <ele>1445.5999999999999</ele>
        <time>2019-10-13T14:21:13Z</time>
      </trkpt>
      <trkpt lat="46.012678742408752" lon="8.54282389394939">
        <ele>1442.5999999999999</ele>
        <time>2019-10-13T14:21:26Z</time>
      </trkpt>
      <trkpt lat="46.012733811512589" lon="8.542922716587782">
        <ele>1440.47</ele>
        <time>2019-10-13T14:21:36Z</time>
      </trkpt>
      <trkpt lat="46.012797513976693" lon="8.542998656630516">
        <ele>1438.98</ele>
        <time>2019-10-13T14:21:46Z</time>
      </trkpt>
      <trkpt lat="46.012813188135624" lon="8.543021203950048">
        <ele>1438.55</ele>
        <time>2019-10-13T14:21:48Z</time>
      </trkpt>
      <trkpt lat="46.012889379635453" lon="8.543147519230843">
        <ele>1437.3099999999999</ele>
        <time>2019-10-13T14:21:58Z</time>
      </trkpt>
      <trkpt lat="46.012963894754648" lon="8.543324377387762">
        <ele>1437.3800000000001</ele>
        <time>2019-10-13T14:22:14Z</time>
      </trkpt>
      <trkpt lat="46.013034135103226" lon="8.543454967439175">
        <ele>1436.9300000000001</ele>
        <time>2019-10-13T14:22:27Z</time>
      </trkpt>
      <trkpt lat="46.013100184500217" lon="8.543507438153029">
        <ele>1436.72</ele>
        <time>2019-10-13T14:22:39Z</time>
      </trkpt>
      <trkpt lat="46.013089204207063" lon="8.543589496985078">
        <ele>1435.1300000000001</ele>
        <time>2019-10-13T14:22:50Z</time>
      </trkpt>
      <trkpt lat="46.013096328824759" lon="8.543684547767043">
        <ele>1433.55</ele>
        <time>2019-10-13T14:23:04Z</time>
      </trkpt>
      <trkpt lat="46.013086019083858" lon="8.543758727610111">
        <ele>1432.8699999999999</ele>
        <time>2019-10-13T14:23:15Z</time>
      </trkpt>
      <trkpt lat="46.013080822303891" lon="8.543778257444501">
        <ele>1432.8499999999999</ele>
        <time>2019-10-13T14:23:18Z</time>
      </trkpt>
      <trkpt lat="46.013066321611404" lon="8.54389987885952">
        <ele>1432.5</ele>
        <time>2019-10-13T14:23:30Z</time>
      </trkpt>
      <trkpt lat="46.013076212257147" lon="8.543961988762021">
        <ele>1432.5799999999999</ele>
        <time>2019-10-13T14:23:41Z</time>
      </trkpt>
      <trkpt lat="46.013076882809401" lon="8.544001718983054">
        <ele>1432.4300000000001</ele>
        <time>2019-10-13T14:23:51Z</time>
      </trkpt>
      <trkpt lat="46.013042852282524" lon="8.544085370376706">
        <ele>1431</ele>
        <time>2019-10-13T14:24:01Z</time>
      </trkpt>
      <trkpt lat="46.012989711016417" lon="8.544161645695567">
        <ele>1428.6800000000001</ele>
        <time>2019-10-13T14:24:13Z</time>
      </trkpt>
      <trkpt lat="46.012939838692546" lon="8.544229874387384">
        <ele>1423.28</ele>
        <time>2019-10-13T14:24:24Z</time>
      </trkpt>
      <trkpt lat="46.012936066836119" lon="8.544234149158001">
        <ele>1423.28</ele>
        <time>2019-10-13T14:24:25Z</time>
      </trkpt>
      <trkpt lat="46.01291905157268" lon="8.544263821095228">
        <ele>1425.6900000000001</ele>
        <time>2019-10-13T14:24:29Z</time>
      </trkpt>
      <trkpt lat="46.012905891984701" lon="8.544287038967013">
        <ele>1425.6900000000001</ele>
        <time>2019-10-13T14:24:32Z</time>
      </trkpt>
      <trkpt lat="46.01284621283412" lon="8.544401787221432">
        <ele>1423.8199999999999</ele>
        <time>2019-10-13T14:24:45Z</time>
      </trkpt>
      <trkpt lat="46.012830873951316" lon="8.544430369511247">
        <ele>1422.9000000000001</ele>
        <time>2019-10-13T14:24:48Z</time>
      </trkpt>
      <trkpt lat="46.012821067124605" lon="8.544458029791713">
        <ele>1422.97</ele>
        <time>2019-10-13T14:24:50Z</time>
      </trkpt>
      <trkpt lat="46.012771865352988" lon="8.544575041159987">
        <ele>1420.78</ele>
        <time>2019-10-13T14:25:02Z</time>
      </trkpt>
      <trkpt lat="46.012755855917931" lon="8.5446503944695">
        <ele>1420.4000000000001</ele>
        <time>2019-10-13T14:25:12Z</time>
      </trkpt>
      <trkpt lat="46.012707408517599" lon="8.544784672558308">
        <ele>1417.8900000000001</ele>
        <time>2019-10-13T14:25:26Z</time>
      </trkpt>
      <trkpt lat="46.012638509273529" lon="8.544919285923243">
        <ele>1415.75</ele>
        <time>2019-10-13T14:25:40Z</time>
      </trkpt>
      <trkpt lat="46.012570951133966" lon="8.545027747750282">
        <ele>1413.8099999999999</ele>
        <time>2019-10-13T14:25:55Z</time>
      </trkpt>
      <trkpt lat="46.012562066316605" lon="8.545058844611049">
        <ele>1413.49</ele>
        <time>2019-10-13T14:26:10Z</time>
      </trkpt>
      <trkpt lat="46.012576399371028" lon="8.545146100223064">
        <ele>1412.3</ele>
        <time>2019-10-13T14:26:18Z</time>
      </trkpt>
      <trkpt lat="46.012576399371028" lon="8.545207707211375">
        <ele>1411.4000000000001</ele>
        <time>2019-10-13T14:26:23Z</time>
      </trkpt>
      <trkpt lat="46.012526862323284" lon="8.545248527079821">
        <ele>1410.8900000000001</ele>
        <time>2019-10-13T14:26:34Z</time>
      </trkpt>
      <trkpt lat="46.01243575103581" lon="8.545374674722552">
        <ele>1410.3199999999999</ele>
        <time>2019-10-13T14:26:49Z</time>
      </trkpt>
      <trkpt lat="46.012389231473207" lon="8.545475844293833">
        <ele>1409.1500000000001</ele>
        <time>2019-10-13T14:27:00Z</time>
      </trkpt>
      <trkpt lat="46.012383615598083" lon="8.545513646677136">
        <ele>1409.1400000000001</ele>
        <time>2019-10-13T14:27:03Z</time>
      </trkpt>
      <trkpt lat="46.012359978631139" lon="8.545591598376632">
        <ele>1407.9400000000001</ele>
        <time>2019-10-13T14:27:09Z</time>
      </trkpt>
      <trkpt lat="46.012321840971708" lon="8.545818664133549">
        <ele>1406.76</ele>
        <time>2019-10-13T14:27:25Z</time>
      </trkpt>
      <trkpt lat="46.012291749939322" lon="8.545973394066095">
        <ele>1406.96</ele>
        <time>2019-10-13T14:27:37Z</time>
      </trkpt>
      <trkpt lat="46.012271298095584" lon="8.546121083199978">
        <ele>1407.01</ele>
        <time>2019-10-13T14:27:49Z</time>
      </trkpt>
      <trkpt lat="46.012277835980058" lon="8.546159472316504">
        <ele>1407.5899999999999</ele>
        <time>2019-10-13T14:28:00Z</time>
      </trkpt>
      <trkpt lat="46.012274986132979" lon="8.546196855604649">
        <ele>1407.8199999999999</ele>
        <time>2019-10-13T14:28:11Z</time>
      </trkpt>
      <trkpt lat="46.012261407449841" lon="8.546241614967585">
        <ele>1406.75</ele>
        <time>2019-10-13T14:28:32Z</time>
      </trkpt>
      <trkpt lat="46.012252438813448" lon="8.546272544190288">
        <ele>1405.95</ele>
        <time>2019-10-13T14:28:37Z</time>
      </trkpt>
      <trkpt lat="46.012238524854183" lon="8.546347646042705">
        <ele>1405.4300000000001</ele>
        <time>2019-10-13T14:28:42Z</time>
      </trkpt>
      <trkpt lat="46.012245481833816" lon="8.546422999352217">
        <ele>1405.1400000000001</ele>
        <time>2019-10-13T14:28:51Z</time>
      </trkpt>
      <trkpt lat="46.01224766112864" lon="8.546566581353545">
        <ele>1403.72</ele>
        <time>2019-10-13T14:29:05Z</time>
      </trkpt>
      <trkpt lat="46.012251181527972" lon="8.546645538881421">
        <ele>1402.2</ele>
        <time>2019-10-13T14:29:12Z</time>
      </trkpt>
      <trkpt lat="46.012262580916286" lon="8.54676079005003">
        <ele>1401.0699999999999</ele>
        <time>2019-10-13T14:29:25Z</time>
      </trkpt>
      <trkpt lat="46.01225059479475" lon="8.546867575496435">
        <ele>1398.8800000000001</ele>
        <time>2019-10-13T14:29:38Z</time>
      </trkpt>
      <trkpt lat="46.012249253690243" lon="8.546877969056368">
        <ele>1398.48</ele>
        <time>2019-10-13T14:29:39Z</time>
      </trkpt>
      <trkpt lat="46.012273225933313" lon="8.546984922140837">
        <ele>1396.8</ele>
        <time>2019-10-13T14:29:50Z</time>
      </trkpt>
      <trkpt lat="46.012298706918955" lon="8.54710721410811">
        <ele>1395.01</ele>
        <time>2019-10-13T14:30:02Z</time>
      </trkpt>
      <trkpt lat="46.012317314743996" lon="8.547188434749842">
        <ele>1393.8599999999999</ele>
        <time>2019-10-13T14:30:09Z</time>
      </trkpt>
      <trkpt lat="46.012332402169704" lon="8.547246940433979">
        <ele>1393.3900000000001</ele>
        <time>2019-10-13T14:30:14Z</time>
      </trkpt>
      <trkpt lat="46.01235318928957" lon="8.547424385324121">
        <ele>1391.3900000000001</ele>
        <time>2019-10-13T14:30:28Z</time>
      </trkpt>
      <trkpt lat="46.012356206774712" lon="8.547490267083049">
        <ele>1390.6500000000001</ele>
        <time>2019-10-13T14:30:35Z</time>
      </trkpt>
      <trkpt lat="46.012372383847833" lon="8.547670226544142">
        <ele>1389.49</ele>
        <time>2019-10-13T14:30:47Z</time>
      </trkpt>
      <trkpt lat="46.012387135997415" lon="8.54776100255549">
        <ele>1388.52</ele>
        <time>2019-10-13T14:30:57Z</time>
      </trkpt>
      <trkpt lat="46.01244505494833" lon="8.547783466055989">
        <ele>1387.48</ele>
        <time>2019-10-13T14:31:10Z</time>
      </trkpt>
      <trkpt lat="46.0124587174505" lon="8.547828141599894">
        <ele>1385.76</ele>
        <time>2019-10-13T14:31:21Z</time>
      </trkpt>
      <trkpt lat="46.012460980564356" lon="8.547894526273012">
        <ele>1383.8900000000001</ele>
        <time>2019-10-13T14:31:31Z</time>
      </trkpt>
      <trkpt lat="46.0124587174505" lon="8.547984967008233">
        <ele>1383.03</ele>
        <time>2019-10-13T14:31:42Z</time>
      </trkpt>
      <trkpt lat="46.0124431271106" lon="8.548072306439281">
        <ele>1382.5</ele>
        <time>2019-10-13T14:31:53Z</time>
      </trkpt>
      <trkpt lat="46.012460310012102" lon="8.548125615343452">
        <ele>1381.75</ele>
        <time>2019-10-13T14:32:06Z</time>
      </trkpt>
      <trkpt lat="46.01246852427721" lon="8.548143971711397">
        <ele>1381.8800000000001</ele>
        <time>2019-10-13T14:32:10Z</time>
      </trkpt>
      <trkpt lat="46.012498447671533" lon="8.548179678618908">
        <ele>1381.8099999999999</ele>
        <time>2019-10-13T14:32:22Z</time>
      </trkpt>
      <trkpt lat="46.012515127658844" lon="8.548225024715066">
        <ele>1381.6500000000001</ele>
        <time>2019-10-13T14:32:42Z</time>
      </trkpt>
      <trkpt lat="46.01257698610425" lon="8.54830046184361">
        <ele>1381.6800000000001</ele>
        <time>2019-10-13T14:32:51Z</time>
      </trkpt>
      <trkpt lat="46.01257991977036" lon="8.548340611159802">
        <ele>1382.0899999999999</ele>
        <time>2019-10-13T14:32:54Z</time>
      </trkpt>
      <trkpt lat="46.012626439332962" lon="8.548459550365806">
        <ele>1382.04</ele>
        <time>2019-10-13T14:33:06Z</time>
      </trkpt>
      <trkpt lat="46.012619649991393" lon="8.548475475981832">
        <ele>1381.5999999999999</ele>
        <time>2019-10-13T14:33:18Z</time>
      </trkpt>
      <trkpt lat="46.012595342472196" lon="8.548537082970142">
        <ele>1381.52</ele>
        <time>2019-10-13T14:33:32Z</time>
      </trkpt>
      <trkpt lat="46.012555109336972" lon="8.548558792099357">
        <ele>1383.04</ele>
        <time>2019-10-13T14:33:40Z</time>
      </trkpt>
      <trkpt lat="46.012519653886557" lon="8.548589553683996">
        <ele>1382.0699999999999</ele>
        <time>2019-10-13T14:33:51Z</time>
      </trkpt>
      <trkpt lat="46.012517977505922" lon="8.548702206462622">
        <ele>1381.25</ele>
        <time>2019-10-13T14:34:02Z</time>
      </trkpt>
      <trkpt lat="46.012520408257842" lon="8.548810500651598">
        <ele>1380.0699999999999</ele>
        <time>2019-10-13T14:34:12Z</time>
      </trkpt>
      <trkpt lat="46.012476067990065" lon="8.548892978578806">
        <ele>1380.25</ele>
        <time>2019-10-13T14:34:24Z</time>
      </trkpt>
      <trkpt lat="46.012446731328964" lon="8.548898510634899">
        <ele>1380.27</ele>
        <time>2019-10-13T14:34:34Z</time>
      </trkpt>
      <trkpt lat="46.01243038661778" lon="8.548893397673965">
        <ele>1380.21</ele>
        <time>2019-10-13T14:34:45Z</time>
      </trkpt>
      <trkpt lat="46.012404151260853" lon="8.548915525898337">
        <ele>1380.8800000000001</ele>
        <time>2019-10-13T14:34:53Z</time>
      </trkpt>
      <trkpt lat="46.012331647798419" lon="8.548921309411526">
        <ele>1381.6700000000001</ele>
        <time>2019-10-13T14:35:03Z</time>
      </trkpt>
      <trkpt lat="46.012326702475548" lon="8.548915525898337">
        <ele>1381.5799999999999</ele>
        <time>2019-10-13T14:35:14Z</time>
      </trkpt>
      <trkpt lat="46.012313710525632" lon="8.54894888587296">
        <ele>1381.8599999999999</ele>
        <time>2019-10-13T14:35:28Z</time>
      </trkpt>
      <trkpt lat="46.012297030538321" lon="8.548971684649587">
        <ele>1381.26</ele>
        <time>2019-10-13T14:35:32Z</time>
      </trkpt>
      <trkpt lat="46.012273728847504" lon="8.549040583893657">
        <ele>1381.22</ele>
        <time>2019-10-13T14:35:42Z</time>
      </trkpt>
      <trkpt lat="46.012259982526302" lon="8.549055587500334">
        <ele>1381.04</ele>
        <time>2019-10-13T14:35:56Z</time>
      </trkpt>
      <trkpt lat="46.012258054688573" lon="8.549047540873289">
        <ele>1380.8599999999999</ele>
        <time>2019-10-13T14:36:21Z</time>
      </trkpt>
      <trkpt lat="46.012234752997756" lon="8.549090037122369">
        <ele>1380.99</ele>
        <time>2019-10-13T14:36:36Z</time>
      </trkpt>
      <trkpt lat="46.012208936735988" lon="8.549098251387477">
        <ele>1380.25</ele>
        <time>2019-10-13T14:36:39Z</time>
      </trkpt>
      <trkpt lat="46.01212352514267" lon="8.549120631068945">
        <ele>1379.28</ele>
        <time>2019-10-13T14:36:46Z</time>
      </trkpt>
      <trkpt lat="46.01192319765687" lon="8.549103699624538">
        <ele>1379.55</ele>
        <time>2019-10-13T14:37:02Z</time>
      </trkpt>
      <trkpt lat="46.011742651462555" lon="8.549203108996153">
        <ele>1378.8399999999999</ele>
        <time>2019-10-13T14:37:17Z</time>
      </trkpt>
      <trkpt lat="46.01155674085021" lon="8.549246778711677">
        <ele>1378.54</ele>
        <time>2019-10-13T14:37:32Z</time>
      </trkpt>
      <trkpt lat="46.011513154953718" lon="8.549356581643224">
        <ele>1377.98</ele>
        <time>2019-10-13T14:37:45Z</time>
      </trkpt>
      <trkpt lat="46.011510053649545" lon="8.549405112862587">
        <ele>1376.8399999999999</ele>
        <time>2019-10-13T14:37:57Z</time>
      </trkpt>
      <trkpt lat="46.01149563677609" lon="8.549474012106657">
        <ele>1374.6099999999999</ele>
        <time>2019-10-13T14:38:07Z</time>
      </trkpt>
      <trkpt lat="46.011495217680931" lon="8.549549700692296">
        <ele>1373.8499999999999</ele>
        <time>2019-10-13T14:38:17Z</time>
      </trkpt>
      <trkpt lat="46.011473843827844" lon="8.549606781452894">
        <ele>1372.3599999999999</ele>
        <time>2019-10-13T14:38:28Z</time>
      </trkpt>
      <trkpt lat="46.011450961232185" lon="8.54969160631299">
        <ele>1370.22</ele>
        <time>2019-10-13T14:38:41Z</time>
      </trkpt>
      <trkpt lat="46.011427827179432" lon="8.549783052876592">
        <ele>1367.3699999999999</ele>
        <time>2019-10-13T14:38:53Z</time>
      </trkpt>
      <trkpt lat="46.011409554630518" lon="8.54983183555305">
        <ele>1366.29</ele>
        <time>2019-10-13T14:39:04Z</time>
      </trkpt>
      <trkpt lat="46.011381475254893" lon="8.549902075901628">
        <ele>1364.0599999999999</ele>
        <time>2019-10-13T14:39:15Z</time>
      </trkpt>
      <trkpt lat="46.011350043118" lon="8.54998036287725">
        <ele>1362.3499999999999</ele>
        <time>2019-10-13T14:39:25Z</time>
      </trkpt>
      <trkpt lat="46.011286173015833" lon="8.550109108909965">
        <ele>1361.1199999999999</ele>
        <time>2019-10-13T14:39:38Z</time>
      </trkpt>
      <trkpt lat="46.011267397552729" lon="8.550151102244854">
        <ele>1360.78</ele>
        <time>2019-10-13T14:39:46Z</time>
      </trkpt>
      <trkpt lat="46.011181315407157" lon="8.550333743914962">
        <ele>1359.8299999999999</ele>
        <time>2019-10-13T14:40:02Z</time>
      </trkpt>
      <trkpt lat="46.011128928512335" lon="8.55047439225018">
        <ele>1359.49</ele>
        <time>2019-10-13T14:40:14Z</time>
      </trkpt>
      <trkpt lat="46.011123228818178" lon="8.550564497709274">
        <ele>1358.8599999999999</ele>
        <time>2019-10-13T14:40:23Z</time>
      </trkpt>
      <trkpt lat="46.011150050908327" lon="8.550702631473541">
        <ele>1358.4300000000001</ele>
        <time>2019-10-13T14:40:39Z</time>
      </trkpt>
      <trkpt lat="46.011156337335706" lon="8.550715958699584">
        <ele>1358.3</ele>
        <time>2019-10-13T14:40:50Z</time>
      </trkpt>
      <trkpt lat="46.01116287522018" lon="8.550734734162688">
        <ele>1358.3800000000001</ele>
        <time>2019-10-13T14:40:52Z</time>
      </trkpt>
      <trkpt lat="46.01117804646492" lon="8.550883932039142">
        <ele>1357.1800000000001</ele>
        <time>2019-10-13T14:41:06Z</time>
      </trkpt>
      <trkpt lat="46.011174106970429" lon="8.550975127145648">
        <ele>1355.4400000000001</ele>
        <time>2019-10-13T14:41:16Z</time>
      </trkpt>
      <trkpt lat="46.011215848848224" lon="8.551055928692222">
        <ele>1354.23</ele>
        <time>2019-10-13T14:41:28Z</time>
      </trkpt>
      <trkpt lat="46.011272007599473" lon="8.551139077171683">
        <ele>1353.1199999999999</ele>
        <time>2019-10-13T14:41:37Z</time>
      </trkpt>
      <trkpt lat="46.011284831911325" lon="8.5511814057827">
        <ele>1352.8199999999999</ele>
        <time>2019-10-13T14:41:41Z</time>
      </trkpt>
      <trkpt lat="46.011291118338704" lon="8.551276456564665">
        <ele>1352.6700000000001</ele>
        <time>2019-10-13T14:41:53Z</time>
      </trkpt>
      <trkpt lat="46.011318443343043" lon="8.551338566467166">
        <ele>1352.3</ele>
        <time>2019-10-13T14:42:03Z</time>
      </trkpt>
      <trkpt lat="46.01130411028862" lon="8.551427079364657">
        <ele>1351.22</ele>
        <time>2019-10-13T14:42:14Z</time>
      </trkpt>
      <trkpt lat="46.011268068104982" lon="8.551476281136274">
        <ele>1351.1900000000001</ele>
        <time>2019-10-13T14:42:26Z</time>
      </trkpt>
      <trkpt lat="46.011239234358072" lon="8.551529841497541">
        <ele>1350.8199999999999</ele>
        <time>2019-10-13T14:42:41Z</time>
      </trkpt>
      <trkpt lat="46.011212663725019" lon="8.551536463201046">
        <ele>1349.8399999999999</ele>
        <time>2019-10-13T14:42:45Z</time>
      </trkpt>
      <trkpt lat="46.011156169697642" lon="8.551594130694866">
        <ele>1348.5999999999999</ele>
        <time>2019-10-13T14:42:55Z</time>
      </trkpt>
      <trkpt lat="46.011106045916677" lon="8.55164710432291">
        <ele>1347.01</ele>
        <time>2019-10-13T14:43:03Z</time>
      </trkpt>
      <trkpt lat="46.011072769761086" lon="8.551753051578999">
        <ele>1345.27</ele>
        <time>2019-10-13T14:43:15Z</time>
      </trkpt>
      <trkpt lat="46.011038403958082" lon="8.551775682717562">
        <ele>1344.8</ele>
        <time>2019-10-13T14:43:22Z</time>
      </trkpt>
      <trkpt lat="46.010971181094646" lon="8.551835445687175">
        <ele>1344.1600000000001</ele>
        <time>2019-10-13T14:43:29Z</time>
      </trkpt>
      <trkpt lat="46.010910412296653" lon="8.552003167569637">
        <ele>1344.5899999999999</ele>
        <time>2019-10-13T14:43:45Z</time>
      </trkpt>
      <trkpt lat="46.010908065363765" lon="8.552071815356612">
        <ele>1345.54</ele>
        <time>2019-10-13T14:43:53Z</time>
      </trkpt>
      <trkpt lat="46.010913932695985" lon="8.552142223343253">
        <ele>1346.1400000000001</ele>
        <time>2019-10-13T14:44:04Z</time>
      </trkpt>
      <trkpt lat="46.010907562449574" lon="8.552173068746924">
        <ele>1346.3299999999999</ele>
        <time>2019-10-13T14:44:13Z</time>
      </trkpt>
      <trkpt lat="46.010869676247239" lon="8.552265604957938">
        <ele>1345.1600000000001</ele>
        <time>2019-10-13T14:44:23Z</time>
      </trkpt>
      <trkpt lat="46.010862719267607" lon="8.552318830043078">
        <ele>1345.1900000000001</ele>
        <time>2019-10-13T14:44:35Z</time>
      </trkpt>
      <trkpt lat="46.010868083685637" lon="8.552361242473126">
        <ele>1344.6300000000001</ele>
        <time>2019-10-13T14:44:48Z</time>
      </trkpt>
      <trkpt lat="46.010870011523366" lon="8.552425028756261">
        <ele>1342.99</ele>
        <time>2019-10-13T14:44:56Z</time>
      </trkpt>
      <trkpt lat="46.010878896340728" lon="8.552522007375956">
        <ele>1341.29</ele>
        <time>2019-10-13T14:45:02Z</time>
      </trkpt>
      <trkpt lat="46.010867077857256" lon="8.55262921191752">
        <ele>1341.05</ele>
        <time>2019-10-13T14:45:13Z</time>
      </trkpt>
      <trkpt lat="46.01087705232203" lon="8.552705151960254">
        <ele>1340.0799999999999</ele>
        <time>2019-10-13T14:45:24Z</time>
      </trkpt>
      <trkpt lat="46.010879231616855" lon="8.55276164598763">
        <ele>1339.0599999999999</ele>
        <time>2019-10-13T14:45:29Z</time>
      </trkpt>
      <trkpt lat="46.010871436446905" lon="8.552904222160578">
        <ele>1338.3399999999999</ele>
        <time>2019-10-13T14:45:41Z</time>
      </trkpt>
      <trkpt lat="46.010851487517357" lon="8.553031207993627">
        <ele>1339.1700000000001</ele>
        <time>2019-10-13T14:45:53Z</time>
      </trkpt>
      <trkpt lat="46.010824833065271" lon="8.553123660385609">
        <ele>1339.5899999999999</ele>
        <time>2019-10-13T14:46:04Z</time>
      </trkpt>
      <trkpt lat="46.01078225299716" lon="8.553169090300798">
        <ele>1340.25</ele>
        <time>2019-10-13T14:46:15Z</time>
      </trkpt>
      <trkpt lat="46.010767081752419" lon="8.553198929876089">
        <ele>1339.4400000000001</ele>
        <time>2019-10-13T14:46:18Z</time>
      </trkpt>
      <trkpt lat="46.010760879144073" lon="8.55324880219996">
        <ele>1339.1199999999999</ele>
        <time>2019-10-13T14:46:22Z</time>
      </trkpt>
      <trkpt lat="46.010719891637564" lon="8.553328597918153">
        <ele>1339.1099999999999</ele>
        <time>2019-10-13T14:46:31Z</time>
      </trkpt>
      <trkpt lat="46.010664319619536" lon="8.553390875458717">
        <ele>1339.97</ele>
        <time>2019-10-13T14:46:44Z</time>
      </trkpt>
      <trkpt lat="46.010625092312694" lon="8.553417446091771">
        <ele>1341.3499999999999</ele>
        <time>2019-10-13T14:46:55Z</time>
      </trkpt>
      <trkpt lat="46.010579830035567" lon="8.553465893492103">
        <ele>1340.6199999999999</ele>
        <time>2019-10-13T14:47:08Z</time>
      </trkpt>
      <trkpt lat="46.010554349049926" lon="8.553526913747191">
        <ele>1339.6099999999999</ele>
        <time>2019-10-13T14:47:19Z</time>
      </trkpt>
      <trkpt lat="46.010532220825553" lon="8.553553568199277">
        <ele>1338.6800000000001</ele>
        <time>2019-10-13T14:47:24Z</time>
      </trkpt>
      <trkpt lat="46.010475140064955" lon="8.553603021427989">
        <ele>1337.53</ele>
        <time>2019-10-13T14:47:36Z</time>
      </trkpt>
      <trkpt lat="46.010451838374138" lon="8.553605703637004">
        <ele>1337.1300000000001</ele>
        <time>2019-10-13T14:47:41Z</time>
      </trkpt>
      <trkpt lat="46.010400457307696" lon="8.553586844354868">
        <ele>1336.52</ele>
        <time>2019-10-13T14:47:51Z</time>
      </trkpt>
      <trkpt lat="46.010339604690671" lon="8.553558513522148">
        <ele>1336.23</ele>
        <time>2019-10-13T14:48:03Z</time>
      </trkpt>
      <trkpt lat="46.010307837277651" lon="8.553543677553535">
        <ele>1336.74</ele>
        <time>2019-10-13T14:48:08Z</time>
      </trkpt>
      <trkpt lat="46.01024329662323" lon="8.55348383076489">
        <ele>1337.49</ele>
        <time>2019-10-13T14:48:20Z</time>
      </trkpt>
      <trkpt lat="46.010183533653617" lon="8.553471760824323">
        <ele>1337.8199999999999</ele>
        <time>2019-10-13T14:48:32Z</time>
      </trkpt>
      <trkpt lat="46.01013190113008" lon="8.553474443033338">
        <ele>1335.8800000000001</ele>
        <time>2019-10-13T14:48:43Z</time>
      </trkpt>
      <trkpt lat="46.010071467608213" lon="8.553503192961216">
        <ele>1335.51</ele>
        <time>2019-10-13T14:48:54Z</time>
      </trkpt>
      <trkpt lat="46.010041795670986" lon="8.553552143275738">
        <ele>1334.8199999999999</ele>
        <time>2019-10-13T14:49:07Z</time>
      </trkpt>
      <trkpt lat="46.010006424039602" lon="8.553586257621646">
        <ele>1334.0999999999999</ele>
        <time>2019-10-13T14:49:18Z</time>
      </trkpt>
      <trkpt lat="46.010000389069319" lon="8.553597992286086">
        <ele>1333.8399999999999</ele>
        <time>2019-10-13T14:49:21Z</time>
      </trkpt>
      <trkpt lat="46.009939787909389" lon="8.553673261776567">
        <ele>1332.49</ele>
        <time>2019-10-13T14:49:32Z</time>
      </trkpt>
      <trkpt lat="46.009911121800542" lon="8.55376772582531">
        <ele>1333.1700000000001</ele>
        <time>2019-10-13T14:49:44Z</time>
      </trkpt>
      <trkpt lat="46.009863596409559" lon="8.553779711946845">
        <ele>1334.6300000000001</ele>
        <time>2019-10-13T14:49:54Z</time>
      </trkpt>
      <trkpt lat="46.009821435436606" lon="8.55378583073616">
        <ele>1333.53</ele>
        <time>2019-10-13T14:50:03Z</time>
      </trkpt>
      <trkpt lat="46.009813137352467" lon="8.553765211254358">
        <ele>1332.52</ele>
        <time>2019-10-13T14:50:14Z</time>
      </trkpt>
      <trkpt lat="46.009766785427928" lon="8.553758589550853">
        <ele>1330.3299999999999</ele>
        <time>2019-10-13T14:50:28Z</time>
      </trkpt>
      <trkpt lat="46.009718757122755" lon="8.553740987554193">
        <ele>1328.6199999999999</ele>
        <time>2019-10-13T14:50:40Z</time>
      </trkpt>
      <trkpt lat="46.009667878970504" lon="8.5537423286587">
        <ele>1326.24</ele>
        <time>2019-10-13T14:50:51Z</time>
      </trkpt>
      <trkpt lat="46.009612726047635" lon="8.553790608420968">
        <ele>1324.03</ele>
        <time>2019-10-13T14:51:00Z</time>
      </trkpt>
      <trkpt lat="46.009520944207907" lon="8.553904015570879">
        <ele>1321.54</ele>
        <time>2019-10-13T14:51:15Z</time>
      </trkpt>
      <trkpt lat="46.00947517901659" lon="8.553947433829308">
        <ele>1319.75</ele>
        <time>2019-10-13T14:51:26Z</time>
      </trkpt>
      <trkpt lat="46.009457744657993" lon="8.553961096331477">
        <ele>1319.3199999999999</ele>
        <time>2019-10-13T14:51:37Z</time>
      </trkpt>
      <trkpt lat="46.009391695261002" lon="8.554024044424295">
        <ele>1316.98</ele>
        <time>2019-10-13T14:51:50Z</time>
      </trkpt>
      <trkpt lat="46.009345008060336" lon="8.554099649190903">
        <ele>1315.5799999999999</ele>
        <time>2019-10-13T14:52:00Z</time>
      </trkpt>
      <trkpt lat="46.009301841259003" lon="8.554204339161515">
        <ele>1313.95</ele>
        <time>2019-10-13T14:52:11Z</time>
      </trkpt>
      <trkpt lat="46.009277114644647" lon="8.554273992776871">
        <ele>1312.8900000000001</ele>
        <time>2019-10-13T14:52:17Z</time>
      </trkpt>
      <trkpt lat="46.009221794083714" lon="8.55448991060257">
        <ele>1312.27</ele>
        <time>2019-10-13T14:52:33Z</time>
      </trkpt>
      <trkpt lat="46.009219530969858" lon="8.554556043818593">
        <ele>1312.1400000000001</ele>
        <time>2019-10-13T14:52:45Z</time>
      </trkpt>
      <trkpt lat="46.009209556505084" lon="8.554586553946137">
        <ele>1311.3499999999999</ele>
        <time>2019-10-13T14:52:53Z</time>
      </trkpt>
      <trkpt lat="46.009198743849993" lon="8.554767686873674">
        <ele>1310.24</ele>
        <time>2019-10-13T14:53:08Z</time>
      </trkpt>
      <trkpt lat="46.009172676131129" lon="8.554879501461983">
        <ele>1308.1700000000001</ele>
        <time>2019-10-13T14:53:21Z</time>
      </trkpt>
      <trkpt lat="46.009156331419945" lon="8.554992489516735">
        <ele>1306.78</ele>
        <time>2019-10-13T14:53:33Z</time>
      </trkpt>
      <trkpt lat="46.009143926203251" lon="8.555165827274323">
        <ele>1305.0999999999999</ele>
        <time>2019-10-13T14:53:47Z</time>
      </trkpt>
      <trkpt lat="46.009151637554169" lon="8.555222572758794">
        <ele>1304.9300000000001</ele>
        <time>2019-10-13T14:53:59Z</time>
      </trkpt>
      <trkpt lat="46.00915314629674" lon="8.555237157270312">
        <ele>1304.6600000000001</ele>
        <time>2019-10-13T14:54:10Z</time>
      </trkpt>
      <trkpt lat="46.00915364921093" lon="8.555260039865971">
        <ele>1305.1700000000001</ele>
        <time>2019-10-13T14:54:23Z</time>
      </trkpt>
      <trkpt lat="46.009172340855002" lon="8.555406304076314">
        <ele>1303.05</ele>
        <time>2019-10-13T14:54:35Z</time>
      </trkpt>
      <trkpt lat="46.009162701666355" lon="8.555557429790497">
        <ele>1300.4400000000001</ele>
        <time>2019-10-13T14:54:48Z</time>
      </trkpt>
      <trkpt lat="46.009149290621281" lon="8.555575618520379">
        <ele>1300.03</ele>
        <time>2019-10-13T14:54:50Z</time>
      </trkpt>
      <trkpt lat="46.009083827957511" lon="8.555714171379805">
        <ele>1298.27</ele>
        <time>2019-10-13T14:55:03Z</time>
      </trkpt>
      <trkpt lat="46.009058514609933" lon="8.555794637650251">
        <ele>1297.0599999999999</ele>
        <time>2019-10-13T14:55:10Z</time>
      </trkpt>
      <trkpt lat="46.009019454941154" lon="8.555935118347406">
        <ele>1296.01</ele>
        <time>2019-10-13T14:55:25Z</time>
      </trkpt>
      <trkpt lat="46.009010737761855" lon="8.555995300412178">
        <ele>1294.8</ele>
        <time>2019-10-13T14:55:34Z</time>
      </trkpt>
      <trkpt lat="46.008994141593575" lon="8.556055566295981">
        <ele>1293.75</ele>
        <time>2019-10-13T14:55:38Z</time>
      </trkpt>
      <trkpt lat="46.008972013369203" lon="8.556138211861253">
        <ele>1293.52</ele>
        <time>2019-10-13T14:55:46Z</time>
      </trkpt>
      <trkpt lat="46.008936977013946" lon="8.556224713101983">
        <ele>1292.3499999999999</ele>
        <time>2019-10-13T14:55:54Z</time>
      </trkpt>
      <trkpt lat="46.008946783840656" lon="8.556323703378439">
        <ele>1292.5899999999999</ele>
        <time>2019-10-13T14:56:07Z</time>
      </trkpt>
      <trkpt lat="46.008949046954513" lon="8.556326050311327">
        <ele>1292.73</ele>
        <time>2019-10-13T14:56:19Z</time>
      </trkpt>
      <trkpt lat="46.008942760527134" lon="8.556337282061577">
        <ele>1292.0699999999999</ele>
        <time>2019-10-13T14:56:57Z</time>
      </trkpt>
      <trkpt lat="46.00892448797822" lon="8.556459993124008">
        <ele>1290.9300000000001</ele>
        <time>2019-10-13T14:57:08Z</time>
      </trkpt>
      <trkpt lat="46.008905880153179" lon="8.556550182402134">
        <ele>1289.3</ele>
        <time>2019-10-13T14:57:16Z</time>
      </trkpt>
      <trkpt lat="46.008891547098756" lon="8.556569460779429">
        <ele>1288.5599999999999</ele>
        <time>2019-10-13T14:57:18Z</time>
      </trkpt>
      <trkpt lat="46.00888098590076" lon="8.556647077202797">
        <ele>1287.3399999999999</ele>
        <time>2019-10-13T14:57:23Z</time>
      </trkpt>
      <trkpt lat="46.008854163810611" lon="8.556913956999779">
        <ele>1284.0599999999999</ele>
        <time>2019-10-13T14:57:39Z</time>
      </trkpt>
      <trkpt lat="46.008826587349176" lon="8.557092491537333">
        <ele>1282.1300000000001</ele>
        <time>2019-10-13T14:57:51Z</time>
      </trkpt>
      <trkpt lat="46.008795071393251" lon="8.557164156809449">
        <ele>1280.97</ele>
        <time>2019-10-13T14:57:56Z</time>
      </trkpt>
      <trkpt lat="46.00875006057322" lon="8.55732542462647">
        <ele>1278.3399999999999</ele>
        <time>2019-10-13T14:58:07Z</time>
      </trkpt>
      <trkpt lat="46.008679820224643" lon="8.557534720748663">
        <ele>1275.23</ele>
        <time>2019-10-13T14:58:21Z</time>
      </trkpt>
      <trkpt lat="46.008633133023977" lon="8.557770838961005">
        <ele>1273.9400000000001</ele>
        <time>2019-10-13T14:58:36Z</time>
      </trkpt>
      <trkpt lat="46.008564485237002" lon="8.557987678796053">
        <ele>1271.3800000000001</ele>
        <time>2019-10-13T14:58:49Z</time>
      </trkpt>
      <trkpt lat="46.008518468588591" lon="8.558228490874171">
        <ele>1268.5599999999999</ele>
        <time>2019-10-13T14:59:04Z</time>
      </trkpt>
      <trkpt lat="46.008490305393934" lon="8.558337707072496">
        <ele>1267.0899999999999</ele>
        <time>2019-10-13T14:59:16Z</time>
      </trkpt>
      <trkpt lat="46.008433476090431" lon="8.558470224961639">
        <ele>1264.79</ele>
        <time>2019-10-13T14:59:30Z</time>
      </trkpt>
      <trkpt lat="46.008411850780249" lon="8.558605927973986">
        <ele>1262.8499999999999</ele>
        <time>2019-10-13T14:59:44Z</time>
      </trkpt>
      <trkpt lat="46.008414784446359" lon="8.558668792247772">
        <ele>1261.51</ele>
        <time>2019-10-13T14:59:53Z</time>
      </trkpt>
      <trkpt lat="46.008448395878077" lon="8.558759903535247">
        <ele>1258.99</ele>
        <time>2019-10-13T15:00:05Z</time>
      </trkpt>
      <trkpt lat="46.008499609306455" lon="8.558811033144593">
        <ele>1257.74</ele>
        <time>2019-10-13T15:00:15Z</time>
      </trkpt>
      <trkpt lat="46.008532298728824" lon="8.558893175795674">
        <ele>1255.78</ele>
        <time>2019-10-13T15:00:24Z</time>
      </trkpt>
      <trkpt lat="46.008565407246351" lon="8.558938940986991">
        <ele>1254.3499999999999</ele>
        <time>2019-10-13T15:00:29Z</time>
      </trkpt>
      <trkpt lat="46.008632965385914" lon="8.559047235175967">
        <ele>1252.21</ele>
        <time>2019-10-13T15:00:43Z</time>
      </trkpt>
      <trkpt lat="46.008696416392922" lon="8.559107836335897">
        <ele>1250.5699999999999</ele>
        <time>2019-10-13T15:00:55Z</time>
      </trkpt>
      <trkpt lat="46.008712509647012" lon="8.559114877134562">
        <ele>1250.3599999999999</ele>
        <time>2019-10-13T15:00:57Z</time>
      </trkpt>
      <trkpt lat="46.008812841027975" lon="8.559164414182305">
        <ele>1250.23</ele>
        <time>2019-10-13T15:01:07Z</time>
      </trkpt>
      <trkpt lat="46.008962541818619" lon="8.559223506599665">
        <ele>1249.99</ele>
        <time>2019-10-13T15:01:20Z</time>
      </trkpt>
      <trkpt lat="46.009048540145159" lon="8.55934445746243">
        <ele>1250.21</ele>
        <time>2019-10-13T15:01:32Z</time>
      </trkpt>
      <trkpt lat="46.009170915931463" lon="8.559415703639388">
        <ele>1248.78</ele>
        <time>2019-10-13T15:01:46Z</time>
      </trkpt>
      <trkpt lat="46.009229086339474" lon="8.559419978410006">
        <ele>1247.72</ele>
        <time>2019-10-13T15:01:55Z</time>
      </trkpt>
      <trkpt lat="46.009256998077035" lon="8.559431377798319">
        <ele>1247.1900000000001</ele>
        <time>2019-10-13T15:01:59Z</time>
      </trkpt>
      <trkpt lat="46.009222129359841" lon="8.559515867382288">
        <ele>1246.5999999999999</ele>
        <time>2019-10-13T15:02:09Z</time>
      </trkpt>
      <trkpt lat="46.009215507656336" lon="8.559530703350902">
        <ele>1246.47</ele>
        <time>2019-10-13T15:02:11Z</time>
      </trkpt>
      <trkpt lat="46.009146356955171" lon="8.559624077752233">
        <ele>1244.96</ele>
        <time>2019-10-13T15:02:22Z</time>
      </trkpt>
      <trkpt lat="46.009105872362852" lon="8.559678979218006">
        <ele>1244.24</ele>
        <time>2019-10-13T15:02:33Z</time>
      </trkpt>
      <trkpt lat="46.009087767452002" lon="8.559695407748222">
        <ele>1243.76</ele>
        <time>2019-10-13T15:02:35Z</time>
      </trkpt>
      <trkpt lat="46.008974444121122" lon="8.559781908988953">
        <ele>1243.4400000000001</ele>
        <time>2019-10-13T15:02:49Z</time>
      </trkpt>
      <trkpt lat="46.008841842412949" lon="8.559854999184609">
        <ele>1243.5999999999999</ele>
        <time>2019-10-13T15:03:02Z</time>
      </trkpt>
      <trkpt lat="46.008745031431317" lon="8.559936638921499">
        <ele>1244</ele>
        <time>2019-10-13T15:03:14Z</time>
      </trkpt>
      <trkpt lat="46.008739834651351" lon="8.559950133785605">
        <ele>1244.05</ele>
        <time>2019-10-13T15:03:15Z</time>
      </trkpt>
      <trkpt lat="46.008724495768547" lon="8.559976955875754">
        <ele>1243.6400000000001</ele>
        <time>2019-10-13T15:03:20Z</time>
      </trkpt>
      <trkpt lat="46.008695410564542" lon="8.56004174798727">
        <ele>1243.8</ele>
        <time>2019-10-13T15:03:25Z</time>
      </trkpt>
      <trkpt lat="46.008643191307783" lon="8.560228915885091">
        <ele>1243.2</ele>
        <time>2019-10-13T15:03:38Z</time>
      </trkpt>
      <trkpt lat="46.008547386154532" lon="8.560256157070398">
        <ele>1241.5699999999999</ele>
        <time>2019-10-13T15:03:50Z</time>
      </trkpt>
      <trkpt lat="46.008509080857038" lon="8.560302928090096">
        <ele>1240.51</ele>
        <time>2019-10-13T15:03:57Z</time>
      </trkpt>
      <trkpt lat="46.008459627628326" lon="8.560512140393257">
        <ele>1238.49</ele>
        <time>2019-10-13T15:04:12Z</time>
      </trkpt>
      <trkpt lat="46.008440181612968" lon="8.560759406536818">
        <ele>1236.5999999999999</ele>
        <time>2019-10-13T15:04:29Z</time>
      </trkpt>
      <trkpt lat="46.008418975397944" lon="8.560978593304753">
        <ele>1234.79</ele>
        <time>2019-10-13T15:04:44Z</time>
      </trkpt>
      <trkpt lat="46.008395003154874" lon="8.561135251075029">
        <ele>1234.5599999999999</ele>
        <time>2019-10-13T15:04:55Z</time>
      </trkpt>
      <trkpt lat="46.008370527997613" lon="8.561223596334457">
        <ele>1232.9200000000001</ele>
        <time>2019-10-13T15:05:08Z</time>
      </trkpt>
      <trkpt lat="46.008377149701118" lon="8.561231894418597">
        <ele>1232.72</ele>
        <time>2019-10-13T15:05:24Z</time>
      </trkpt>
      <trkpt lat="46.00837966427207" lon="8.561235079541802">
        <ele>1232.75</ele>
        <time>2019-10-13T15:05:35Z</time>
      </trkpt>
      <trkpt lat="46.008389471098781" lon="8.56128771789372">
        <ele>1232.3099999999999</ele>
        <time>2019-10-13T15:05:45Z</time>
      </trkpt>
      <trkpt lat="46.008392572402954" lon="8.561296937987208">
        <ele>1232.3299999999999</ele>
        <time>2019-10-13T15:05:50Z</time>
      </trkpt>
      <trkpt lat="46.008371785283089" lon="8.561330381780863">
        <ele>1232.0699999999999</ele>
        <time>2019-10-13T15:05:53Z</time>
      </trkpt>
      <trkpt lat="46.008341778069735" lon="8.561414452269673">
        <ele>1231.0599999999999</ele>
        <time>2019-10-13T15:06:05Z</time>
      </trkpt>
      <trkpt lat="46.008331971243024" lon="8.561458289623261">
        <ele>1230.98</ele>
        <time>2019-10-13T15:06:08Z</time>
      </trkpt>
      <trkpt lat="46.008229376748204" lon="8.561701700091362">
        <ele>1228.6800000000001</ele>
        <time>2019-10-13T15:06:25Z</time>
      </trkpt>
      <trkpt lat="46.00816173478961" lon="8.561850227415562">
        <ele>1227.46</ele>
        <time>2019-10-13T15:06:38Z</time>
      </trkpt>
      <trkpt lat="46.008051261305809" lon="8.562083244323731">
        <ele>1225.25</ele>
        <time>2019-10-13T15:06:56Z</time>
      </trkpt>
      <trkpt lat="46.007997365668416" lon="8.562264712527394">
        <ele>1224.22</ele>
        <time>2019-10-13T15:07:10Z</time>
      </trkpt>
      <trkpt lat="46.007943721488118" lon="8.562439978122711">
        <ele>1223.0699999999999</ele>
        <time>2019-10-13T15:07:23Z</time>
      </trkpt>
      <trkpt lat="46.00789200514555" lon="8.562627481296659">
        <ele>1221.9000000000001</ele>
        <time>2019-10-13T15:07:37Z</time>
      </trkpt>
      <trkpt lat="46.007848670706153" lon="8.562827976420522">
        <ele>1220.8900000000001</ele>
        <time>2019-10-13T15:07:52Z</time>
      </trkpt>
      <trkpt lat="46.007829727604985" lon="8.563012294471264">
        <ele>1220.01</ele>
        <time>2019-10-13T15:08:06Z</time>
      </trkpt>
      <trkpt lat="46.007824363186955" lon="8.563198205083609">
        <ele>1219</ele>
        <time>2019-10-13T15:08:21Z</time>
      </trkpt>
      <trkpt lat="46.007817070931196" lon="8.563272133469582">
        <ele>1218.0899999999999</ele>
        <time>2019-10-13T15:08:27Z</time>
      </trkpt>
      <trkpt lat="46.007769545540214" lon="8.563502132892609">
        <ele>1217.24</ele>
        <time>2019-10-13T15:08:43Z</time>
      </trkpt>
      <trkpt lat="46.007677596062422" lon="8.563631968572736">
        <ele>1215.5</ele>
        <time>2019-10-13T15:08:58Z</time>
      </trkpt>
      <trkpt lat="46.007613558322191" lon="8.563769934698939">
        <ele>1212.74</ele>
        <time>2019-10-13T15:09:12Z</time>
      </trkpt>
      <trkpt lat="46.007584389299154" lon="8.563879821449518">
        <ele>1211.26</ele>
        <time>2019-10-13T15:09:26Z</time>
      </trkpt>
      <trkpt lat="46.007584976032376" lon="8.563882587477565">
        <ele>1211.3900000000001</ele>
        <time>2019-10-13T15:09:51Z</time>
      </trkpt>
      <trkpt lat="46.007585227489471" lon="8.563924413174391">
        <ele>1210.5599999999999</ele>
        <time>2019-10-13T15:10:00Z</time>
      </trkpt>
      <trkpt lat="46.007586568593979" lon="8.563987528905273">
        <ele>1209.2</ele>
        <time>2019-10-13T15:10:11Z</time>
      </trkpt>
      <trkpt lat="46.00758614949882" lon="8.563990714028478">
        <ele>1208.8</ele>
        <time>2019-10-13T15:10:24Z</time>
      </trkpt>
      <trkpt lat="46.007587239146233" lon="8.564051482826471">
        <ele>1207.71</ele>
        <time>2019-10-13T15:10:53Z</time>
      </trkpt>
      <trkpt lat="46.007531499490142" lon="8.564110994338989">
        <ele>1206.4200000000001</ele>
        <time>2019-10-13T15:11:01Z</time>
      </trkpt>
      <trkpt lat="46.007432006299496" lon="8.564236219972372">
        <ele>1202.6900000000001</ele>
        <time>2019-10-13T15:11:14Z</time>
      </trkpt>
      <trkpt lat="46.007382301613688" lon="8.564394386485219">
        <ele>1199.6199999999999</ele>
        <time>2019-10-13T15:11:26Z</time>
      </trkpt>
      <trkpt lat="46.007355144247413" lon="8.564523970708251">
        <ele>1196.5899999999999</ele>
        <time>2019-10-13T15:11:35Z</time>
      </trkpt>
      <trkpt lat="46.007263027131557" lon="8.56463729403913">
        <ele>1193.5699999999999</ele>
        <time>2019-10-13T15:11:46Z</time>
      </trkpt>
      <trkpt lat="46.007132856175303" lon="8.564766040071845">
        <ele>1190.5799999999999</ele>
        <time>2019-10-13T15:12:00Z</time>
      </trkpt>
      <trkpt lat="46.006998997181654" lon="8.564847847446799">
        <ele>1187.3699999999999</ele>
        <time>2019-10-13T15:12:13Z</time>
      </trkpt>
      <trkpt lat="46.00698851980269" lon="8.56485421769321">
        <ele>1187.1600000000001</ele>
        <time>2019-10-13T15:12:14Z</time>
      </trkpt>
      <trkpt lat="46.006867904216051" lon="8.564958069473505">
        <ele>1183.6900000000001</ele>
        <time>2019-10-13T15:12:29Z</time>
      </trkpt>
      <trkpt lat="46.006848709657788" lon="8.564946334809065">
        <ele>1183.3599999999999</ele>
        <time>2019-10-13T15:12:35Z</time>
      </trkpt>
      <trkpt lat="46.006788527593017" lon="8.565006013959646">
        <ele>1181.9100000000001</ele>
        <time>2019-10-13T15:12:43Z</time>
      </trkpt>
      <trkpt lat="46.006727339699864" lon="8.565033255144954">
        <ele>1180.72</ele>
        <time>2019-10-13T15:12:53Z</time>
      </trkpt>
      <trkpt lat="46.006700433790684" lon="8.565050605684519">
        <ele>1180.52</ele>
        <time>2019-10-13T15:12:56Z</time>
      </trkpt>
      <trkpt lat="46.006661793217063" lon="8.565080109983683">
        <ele>1179.8099999999999</ele>
        <time>2019-10-13T15:13:01Z</time>
      </trkpt>
      <trkpt lat="46.006565904244781" lon="8.564979527145624">
        <ele>1177.4000000000001</ele>
        <time>2019-10-13T15:13:14Z</time>
      </trkpt>
      <trkpt lat="46.006399104371667" lon="8.564999392256141">
        <ele>1175.9100000000001</ele>
        <time>2019-10-13T15:13:29Z</time>
      </trkpt>
      <trkpt lat="46.006263233721256" lon="8.564966870471835">
        <ele>1174.3299999999999</ele>
        <time>2019-10-13T15:13:43Z</time>
      </trkpt>
      <trkpt lat="46.006245715543628" lon="8.564916914328933">
        <ele>1173.74</ele>
        <time>2019-10-13T15:13:53Z</time>
      </trkpt>
      <trkpt lat="46.006241021677852" lon="8.564911633729935">
        <ele>1174.1199999999999</ele>
        <time>2019-10-13T15:14:03Z</time>
      </trkpt>
      <trkpt lat="46.006166422739625" lon="8.564933678135276">
        <ele>1172.4000000000001</ele>
        <time>2019-10-13T15:14:16Z</time>
      </trkpt>
      <trkpt lat="46.006114287301898" lon="8.564964523538947">
        <ele>1171.3</ele>
        <time>2019-10-13T15:14:27Z</time>
      </trkpt>
      <trkpt lat="46.006008675321937" lon="8.565020011737943">
        <ele>1170.22</ele>
        <time>2019-10-13T15:14:40Z</time>
      </trkpt>
      <trkpt lat="46.005909936502576" lon="8.565057562664151">
        <ele>1169.05</ele>
        <time>2019-10-13T15:14:53Z</time>
      </trkpt>
      <trkpt lat="46.005797619000077" lon="8.565091509371996">
        <ele>1168.3099999999999</ele>
        <time>2019-10-13T15:15:04Z</time>
      </trkpt>
      <trkpt lat="46.005735844373703" lon="8.565117577090859">
        <ele>1167.5699999999999</ele>
        <time>2019-10-13T15:15:11Z</time>
      </trkpt>
      <trkpt lat="46.005713297054172" lon="8.56514347717166">
        <ele>1167.3699999999999</ele>
        <time>2019-10-13T15:15:14Z</time>
      </trkpt>
      <trkpt lat="46.005593100562692" lon="8.565249843522906">
        <ele>1165.79</ele>
        <time>2019-10-13T15:15:27Z</time>
      </trkpt>
      <trkpt lat="46.005505928769708" lon="8.565342631191015">
        <ele>1164.1099999999999</ele>
        <time>2019-10-13T15:15:40Z</time>
      </trkpt>
      <trkpt lat="46.005440466105938" lon="8.56543181464076">
        <ele>1163.5999999999999</ele>
        <time>2019-10-13T15:15:52Z</time>
      </trkpt>
      <trkpt lat="46.005400568246841" lon="8.565457127988339">
        <ele>1162.75</ele>
        <time>2019-10-13T15:15:59Z</time>
      </trkpt>
      <trkpt lat="46.005337536334991" lon="8.565493421629071">
        <ele>1162.1500000000001</ele>
        <time>2019-10-13T15:16:11Z</time>
      </trkpt>
      <trkpt lat="46.005231253802776" lon="8.565525272861123">
        <ele>1160.8499999999999</ele>
        <time>2019-10-13T15:16:25Z</time>
      </trkpt>
      <trkpt lat="46.005144417285919" lon="8.565567098557949">
        <ele>1159.54</ele>
        <time>2019-10-13T15:16:38Z</time>
      </trkpt>
      <trkpt lat="46.005085911601782" lon="8.565659215673804">
        <ele>1159.3599999999999</ele>
        <time>2019-10-13T15:16:53Z</time>
      </trkpt>
      <trkpt lat="46.005055988207459" lon="8.565773041918874">
        <ele>1158.4400000000001</ele>
        <time>2019-10-13T15:17:09Z</time>
      </trkpt>
      <trkpt lat="46.004992118105292" lon="8.565774383023381">
        <ele>1155.72</ele>
        <time>2019-10-13T15:17:21Z</time>
      </trkpt>
      <trkpt lat="46.004970660433173" lon="8.565844455733895">
        <ele>1155.0599999999999</ele>
        <time>2019-10-13T15:17:35Z</time>
      </trkpt>
      <trkpt lat="46.004958506673574" lon="8.565889885649085">
        <ele>1154.3499999999999</ele>
        <time>2019-10-13T15:17:41Z</time>
      </trkpt>
      <trkpt lat="46.004945347085595" lon="8.565990049391985">
        <ele>1152.5599999999999</ele>
        <time>2019-10-13T15:17:56Z</time>
      </trkpt>
      <trkpt lat="46.004947694018483" lon="8.566098343580961">
        <ele>1151.98</ele>
        <time>2019-10-13T15:18:10Z</time>
      </trkpt>
      <trkpt lat="46.004935624077916" lon="8.566167494282126">
        <ele>1150.8599999999999</ele>
        <time>2019-10-13T15:18:18Z</time>
      </trkpt>
      <trkpt lat="46.004933277145028" lon="8.56622482649982">
        <ele>1150.3800000000001</ele>
        <time>2019-10-13T15:18:22Z</time>
      </trkpt>
      <trkpt lat="46.004894468933344" lon="8.566385256126523">
        <ele>1150.53</ele>
        <time>2019-10-13T15:18:34Z</time>
      </trkpt>
      <trkpt lat="46.004788186401129" lon="8.566458513960242">
        <ele>1150.8499999999999</ele>
        <time>2019-10-13T15:18:50Z</time>
      </trkpt>
      <trkpt lat="46.004681987687945" lon="8.566533448174596">
        <ele>1151.3800000000001</ele>
        <time>2019-10-13T15:19:06Z</time>
      </trkpt>
      <trkpt lat="46.004591463133693" lon="8.566583823412657">
        <ele>1152.5</ele>
        <time>2019-10-13T15:19:19Z</time>
      </trkpt>
      <trkpt lat="46.004520887508988" lon="8.566643837839365">
        <ele>1153.6300000000001</ele>
        <time>2019-10-13T15:19:32Z</time>
      </trkpt>
      <trkpt lat="46.004430027678609" lon="8.566691447049379">
        <ele>1154.6199999999999</ele>
        <time>2019-10-13T15:19:48Z</time>
      </trkpt>
      <trkpt lat="46.004345035180449" lon="8.566745258867741">
        <ele>1156.24</ele>
        <time>2019-10-13T15:20:02Z</time>
      </trkpt>
      <trkpt lat="46.004257528111339" lon="8.566841315478087">
        <ele>1154.7</ele>
        <time>2019-10-13T15:20:18Z</time>
      </trkpt>
      <trkpt lat="46.004204135388136" lon="8.566953549161553">
        <ele>1152.9200000000001</ele>
        <time>2019-10-13T15:20:33Z</time>
      </trkpt>
      <trkpt lat="46.004163734614849" lon="8.567088916897774">
        <ele>1151.3399999999999</ele>
        <time>2019-10-13T15:20:46Z</time>
      </trkpt>
      <trkpt lat="46.004130709916353" lon="8.567185560241342">
        <ele>1150.0599999999999</ele>
        <time>2019-10-13T15:20:55Z</time>
      </trkpt>
      <trkpt lat="46.004090895876288" lon="8.567342637106776">
        <ele>1148.9300000000001</ele>
        <time>2019-10-13T15:21:10Z</time>
      </trkpt>
      <trkpt lat="46.004062816500664" lon="8.567556375637651">
        <ele>1146.6800000000001</ele>
        <time>2019-10-13T15:21:24Z</time>
      </trkpt>
      <trkpt lat="46.004028618335724" lon="8.567735161632299">
        <ele>1144.55</ele>
        <time>2019-10-13T15:21:38Z</time>
      </trkpt>
      <trkpt lat="46.004003724083304" lon="8.567898357287049">
        <ele>1143.3199999999999</ele>
        <time>2019-10-13T15:21:52Z</time>
      </trkpt>
      <trkpt lat="46.004013363271952" lon="8.56812072917819">
        <ele>1142.6600000000001</ele>
        <time>2019-10-13T15:22:09Z</time>
      </trkpt>
      <trkpt lat="46.003998443484306" lon="8.568248637020588">
        <ele>1142.02</ele>
        <time>2019-10-13T15:22:15Z</time>
      </trkpt>
      <trkpt lat="46.003974722698331" lon="8.568351231515408">
        <ele>1141.9200000000001</ele>
        <time>2019-10-13T15:22:19Z</time>
      </trkpt>
      <trkpt lat="46.003974722698331" lon="8.56853948906064">
        <ele>1141.74</ele>
        <time>2019-10-13T15:22:28Z</time>
      </trkpt>
      <trkpt lat="46.004008837044239" lon="8.568750880658627">
        <ele>1141.2</ele>
        <time>2019-10-13T15:22:42Z</time>
      </trkpt>
      <trkpt lat="46.003952762112021" lon="8.568851379677653">
        <ele>1138.7</ele>
        <time>2019-10-13T15:22:54Z</time>
      </trkpt>
      <trkpt lat="46.003842791542411" lon="8.568993369117379">
        <ele>1135.6700000000001</ele>
        <time>2019-10-13T15:23:11Z</time>
      </trkpt>
      <trkpt lat="46.003911690786481" lon="8.569046594202519">
        <ele>1134.6800000000001</ele>
        <time>2019-10-13T15:23:21Z</time>
      </trkpt>
      <trkpt lat="46.003932897001505" lon="8.569042487069964">
        <ele>1137.03</ele>
        <time>2019-10-13T15:23:23Z</time>
      </trkpt>
      <trkpt lat="46.00403088144958" lon="8.569070734083653">
        <ele>1134.72</ele>
        <time>2019-10-13T15:23:35Z</time>
      </trkpt>
      <trkpt lat="46.004026690497994" lon="8.569130916148424">
        <ele>1134.5</ele>
        <time>2019-10-13T15:24:06Z</time>
      </trkpt>
      <trkpt lat="46.004018727689981" lon="8.569151870906353">
        <ele>1134.55</ele>
        <time>2019-10-13T15:24:33Z</time>
      </trkpt>
      <trkpt lat="46.00401277653873" lon="8.569127814844251">
        <ele>1134.7</ele>
        <time>2019-10-13T15:24:56Z</time>
      </trkpt>
      <trkpt lat="46.003998192027211" lon="8.569119852036238">
        <ele>1135.3599999999999</ele>
        <time>2019-10-13T15:25:12Z</time>
      </trkpt>
      <trkpt lat="46.003974974155426" lon="8.569166539236903">
        <ele>1135.52</ele>
        <time>2019-10-13T15:25:32Z</time>
      </trkpt>
      <trkpt lat="46.003959802910686" lon="8.569200988858938">
        <ele>1135.6500000000001</ele>
        <time>2019-10-13T15:25:59Z</time>
      </trkpt>
      <trkpt lat="46.003962233662605" lon="8.569228146225214">
        <ele>1135.8599999999999</ele>
        <time>2019-10-13T15:26:25Z</time>
      </trkpt>
      <trkpt lat="46.003942787647247" lon="8.569245664402843">
        <ele>1136.0999999999999</ele>
        <time>2019-10-13T15:26:50Z</time>
      </trkpt>
      <trkpt lat="46.00398394279182" lon="8.569173831492662">
        <ele>1136.47</ele>
        <time>2019-10-13T15:27:05Z</time>
      </trkpt>
    </trkseg>
  </trk>

</gpx>